<?xml version="1.0" encoding="UTF-8" standalone="no" ?>
<gpx xmlns="http://www.topografix.com/GPX/1/1" xmlns:xsi="http://www.w3.org/2001/XMLSchema-instance" xsi:schemaLocation="http://www.topografix.com/GPX/1/1 http://www.topografix.com/GPX/1/1/gpx.xsd" version="1.1" creator="VisuGPX - https://www.visugpx.com">
  <metadata>
    <name>Grand Galbert en boucle</name>
    <desc><![CDATA[Depuis le lac du Poursolet, passage aux Chalets de la Barrière puis évolution sur la crête Chalvine avec une vue magnifique sur tout le massif de l'Oisans.
On atteint le sommet du Grand Galbert à 2561m avant de redescendre vers le plateau du Taillefer jusqu'au lac Fourchu et de rejoindre le point de départ.]]></desc>
  </metadata>
  <trk>
    <name><![CDATA[Grand Galbert en boucle_1]]></name>
    <trkseg>
      <trkpt lat="45.05314" lon="5.89887">
        <ele>1657.4</ele>
        <time>2020-07-12T08:14:04 02:00</time>
      </trkpt>
      <trkpt lat="45.05315" lon="5.89891">
        <ele>1656.8</ele>
        <time>2020-07-12T08:14:07 02:00</time>
      </trkpt>
      <trkpt lat="45.05314" lon="5.89896">
        <ele>1656.2</ele>
        <time>2020-07-12T08:14:10 02:00</time>
      </trkpt>
      <trkpt lat="45.05314" lon="5.89901">
        <ele>1655.6</ele>
        <time>2020-07-12T08:14:13 02:00</time>
      </trkpt>
      <trkpt lat="45.05314" lon="5.89905">
        <ele>1654.8</ele>
        <time>2020-07-12T08:14:16 02:00</time>
      </trkpt>
      <trkpt lat="45.05314" lon="5.89911">
        <ele>1654</ele>
        <time>2020-07-12T08:14:19 02:00</time>
      </trkpt>
      <trkpt lat="45.05315" lon="5.89915">
        <ele>1653.8</ele>
        <time>2020-07-12T08:14:22 02:00</time>
      </trkpt>
      <trkpt lat="45.05315" lon="5.89919">
        <ele>1653.6</ele>
        <time>2020-07-12T08:14:25 02:00</time>
      </trkpt>
      <trkpt lat="45.05317" lon="5.89924">
        <ele>1653.6</ele>
        <time>2020-07-12T08:14:28 02:00</time>
      </trkpt>
      <trkpt lat="45.05317" lon="5.89928">
        <ele>1653.6</ele>
        <time>2020-07-12T08:14:30 02:00</time>
      </trkpt>
      <trkpt lat="45.05318" lon="5.89932">
        <ele>1653.6</ele>
        <time>2020-07-12T08:14:33 02:00</time>
      </trkpt>
      <trkpt lat="45.05319" lon="5.89937">
        <ele>1653.4</ele>
        <time>2020-07-12T08:14:36 02:00</time>
      </trkpt>
      <trkpt lat="45.05319" lon="5.89941">
        <ele>1653.2</ele>
        <time>2020-07-12T08:14:39 02:00</time>
      </trkpt>
      <trkpt lat="45.0532" lon="5.89945">
        <ele>1653</ele>
        <time>2020-07-12T08:14:41 02:00</time>
      </trkpt>
      <trkpt lat="45.0532" lon="5.89947">
        <ele>1653</ele>
        <time>2020-07-12T08:14:43 02:00</time>
      </trkpt>
      <trkpt lat="45.05321" lon="5.89952">
        <ele>1653.2</ele>
        <time>2020-07-12T08:14:46 02:00</time>
      </trkpt>
      <trkpt lat="45.05322" lon="5.89957">
        <ele>1653.2</ele>
        <time>2020-07-12T08:14:49 02:00</time>
      </trkpt>
      <trkpt lat="45.05324" lon="5.89961">
        <ele>1653.2</ele>
        <time>2020-07-12T08:14:53 02:00</time>
      </trkpt>
      <trkpt lat="45.05325" lon="5.89964">
        <ele>1653</ele>
        <time>2020-07-12T08:14:56 02:00</time>
      </trkpt>
      <trkpt lat="45.05325" lon="5.8997">
        <ele>1652.8</ele>
        <time>2020-07-12T08:14:59 02:00</time>
      </trkpt>
      <trkpt lat="45.05327" lon="5.89973">
        <ele>1652.6</ele>
        <time>2020-07-12T08:15:01 02:00</time>
      </trkpt>
      <trkpt lat="45.05327" lon="5.89978">
        <ele>1652.4</ele>
        <time>2020-07-12T08:15:04 02:00</time>
      </trkpt>
      <trkpt lat="45.05326" lon="5.89981">
        <ele>1652.4</ele>
        <time>2020-07-12T08:15:06 02:00</time>
      </trkpt>
      <trkpt lat="45.05327" lon="5.89983">
        <ele>1652.4</ele>
        <time>2020-07-12T08:15:08 02:00</time>
      </trkpt>
      <trkpt lat="45.05328" lon="5.89988">
        <ele>1652.6</ele>
        <time>2020-07-12T08:15:12 02:00</time>
      </trkpt>
      <trkpt lat="45.05327" lon="5.89993">
        <ele>1652.6</ele>
        <time>2020-07-12T08:15:15 02:00</time>
      </trkpt>
      <trkpt lat="45.05327" lon="5.89999">
        <ele>1652.6</ele>
        <time>2020-07-12T08:15:18 02:00</time>
      </trkpt>
      <trkpt lat="45.05327" lon="5.90003">
        <ele>1652.6</ele>
        <time>2020-07-12T08:15:21 02:00</time>
      </trkpt>
      <trkpt lat="45.05325" lon="5.90005">
        <ele>1652.8</ele>
        <time>2020-07-12T08:15:23 02:00</time>
      </trkpt>
      <trkpt lat="45.05324" lon="5.90006">
        <ele>1652.8</ele>
        <time>2020-07-12T08:15:24 02:00</time>
      </trkpt>
      <trkpt lat="45.05322" lon="5.9001">
        <ele>1652.8</ele>
        <time>2020-07-12T08:15:26 02:00</time>
      </trkpt>
      <trkpt lat="45.05322" lon="5.90012">
        <ele>1653</ele>
        <time>2020-07-12T08:15:28 02:00</time>
      </trkpt>
      <trkpt lat="45.05321" lon="5.90015">
        <ele>1653.2</ele>
        <time>2020-07-12T08:15:30 02:00</time>
      </trkpt>
      <trkpt lat="45.05321" lon="5.90017">
        <ele>1653.4</ele>
        <time>2020-07-12T08:15:31 02:00</time>
      </trkpt>
      <trkpt lat="45.0532" lon="5.9002">
        <ele>1653.6</ele>
        <time>2020-07-12T08:15:35 02:00</time>
      </trkpt>
      <trkpt lat="45.0532" lon="5.90022">
        <ele>1654</ele>
        <time>2020-07-12T08:15:36 02:00</time>
      </trkpt>
      <trkpt lat="45.0532" lon="5.90023">
        <ele>1654.2</ele>
        <time>2020-07-12T08:15:37 02:00</time>
      </trkpt>
      <trkpt lat="45.0532" lon="5.90025">
        <ele>1654.2</ele>
        <time>2020-07-12T08:15:38 02:00</time>
      </trkpt>
      <trkpt lat="45.05319" lon="5.90032">
        <ele>1654.2</ele>
        <time>2020-07-12T08:15:42 02:00</time>
      </trkpt>
      <trkpt lat="45.05318" lon="5.90033">
        <ele>1654.2</ele>
        <time>2020-07-12T08:15:43 02:00</time>
      </trkpt>
      <trkpt lat="45.05316" lon="5.90038">
        <ele>1654</ele>
        <time>2020-07-12T08:15:46 02:00</time>
      </trkpt>
      <trkpt lat="45.05315" lon="5.90039">
        <ele>1654</ele>
        <time>2020-07-12T08:15:47 02:00</time>
      </trkpt>
      <trkpt lat="45.05313" lon="5.90045">
        <ele>1654.2</ele>
        <time>2020-07-12T08:15:52 02:00</time>
      </trkpt>
      <trkpt lat="45.05312" lon="5.90047">
        <ele>1654.4</ele>
        <time>2020-07-12T08:15:53 02:00</time>
      </trkpt>
      <trkpt lat="45.05312" lon="5.90048">
        <ele>1654.6</ele>
        <time>2020-07-12T08:15:54 02:00</time>
      </trkpt>
      <trkpt lat="45.0531" lon="5.90052">
        <ele>1654.8</ele>
        <time>2020-07-12T08:15:56 02:00</time>
      </trkpt>
      <trkpt lat="45.05308" lon="5.90055">
        <ele>1655</ele>
        <time>2020-07-12T08:15:58 02:00</time>
      </trkpt>
      <trkpt lat="45.05306" lon="5.90059">
        <ele>1655</ele>
        <time>2020-07-12T08:16:01 02:00</time>
      </trkpt>
      <trkpt lat="45.05306" lon="5.9006">
        <ele>1654.8</ele>
        <time>2020-07-12T08:16:02 02:00</time>
      </trkpt>
      <trkpt lat="45.05305" lon="5.90061">
        <ele>1654.4</ele>
        <time>2020-07-12T08:16:04 02:00</time>
      </trkpt>
      <trkpt lat="45.05302" lon="5.90065">
        <ele>1653.8</ele>
        <time>2020-07-12T08:16:07 02:00</time>
      </trkpt>
      <trkpt lat="45.053" lon="5.90069">
        <ele>1653</ele>
        <time>2020-07-12T08:16:09 02:00</time>
      </trkpt>
      <trkpt lat="45.053" lon="5.9007">
        <ele>1652</ele>
        <time>2020-07-12T08:16:10 02:00</time>
      </trkpt>
      <trkpt lat="45.05299" lon="5.90072">
        <ele>1651.2</ele>
        <time>2020-07-12T08:16:11 02:00</time>
      </trkpt>
      <trkpt lat="45.05298" lon="5.90076">
        <ele>1650.4</ele>
        <time>2020-07-12T08:16:13 02:00</time>
      </trkpt>
      <trkpt lat="45.05297" lon="5.9008">
        <ele>1649.6</ele>
        <time>2020-07-12T08:16:16 02:00</time>
      </trkpt>
      <trkpt lat="45.05296" lon="5.90085">
        <ele>1649</ele>
        <time>2020-07-12T08:16:18 02:00</time>
      </trkpt>
      <trkpt lat="45.05297" lon="5.9009">
        <ele>1648</ele>
        <time>2020-07-12T08:16:21 02:00</time>
      </trkpt>
      <trkpt lat="45.05299" lon="5.90095">
        <ele>1647</ele>
        <time>2020-07-12T08:16:25 02:00</time>
      </trkpt>
      <trkpt lat="45.05301" lon="5.90099">
        <ele>1646.2</ele>
        <time>2020-07-12T08:16:28 02:00</time>
      </trkpt>
      <trkpt lat="45.05302" lon="5.90103">
        <ele>1645.6</ele>
        <time>2020-07-12T08:16:31 02:00</time>
      </trkpt>
      <trkpt lat="45.05304" lon="5.90105">
        <ele>1645</ele>
        <time>2020-07-12T08:16:33 02:00</time>
      </trkpt>
      <trkpt lat="45.05306" lon="5.90106">
        <ele>1645</ele>
        <time>2020-07-12T08:16:35 02:00</time>
      </trkpt>
      <trkpt lat="45.05306" lon="5.90107">
        <ele>1645</ele>
        <time>2020-07-12T08:16:36 02:00</time>
      </trkpt>
      <trkpt lat="45.05306" lon="5.90109">
        <ele>1645</ele>
        <time>2020-07-12T08:16:37 02:00</time>
      </trkpt>
      <trkpt lat="45.05307" lon="5.90114">
        <ele>1645.2</ele>
        <time>2020-07-12T08:16:41 02:00</time>
      </trkpt>
      <trkpt lat="45.05309" lon="5.90118">
        <ele>1645.4</ele>
        <time>2020-07-12T08:16:44 02:00</time>
      </trkpt>
      <trkpt lat="45.05309" lon="5.90123">
        <ele>1645.6</ele>
        <time>2020-07-12T08:16:47 02:00</time>
      </trkpt>
      <trkpt lat="45.05309" lon="5.90128">
        <ele>1645.8</ele>
        <time>2020-07-12T08:16:50 02:00</time>
      </trkpt>
      <trkpt lat="45.0531" lon="5.90134">
        <ele>1646</ele>
        <time>2020-07-12T08:16:53 02:00</time>
      </trkpt>
      <trkpt lat="45.05311" lon="5.90139">
        <ele>1646</ele>
        <time>2020-07-12T08:16:56 02:00</time>
      </trkpt>
      <trkpt lat="45.05312" lon="5.90144">
        <ele>1645.8</ele>
        <time>2020-07-12T08:16:59 02:00</time>
      </trkpt>
      <trkpt lat="45.05311" lon="5.90149">
        <ele>1645.4</ele>
        <time>2020-07-12T08:17:02 02:00</time>
      </trkpt>
      <trkpt lat="45.05312" lon="5.90153">
        <ele>1645</ele>
        <time>2020-07-12T08:17:05 02:00</time>
      </trkpt>
      <trkpt lat="45.05312" lon="5.90157">
        <ele>1644.8</ele>
        <time>2020-07-12T08:17:07 02:00</time>
      </trkpt>
      <trkpt lat="45.05313" lon="5.90162">
        <ele>1644.6</ele>
        <time>2020-07-12T08:17:10 02:00</time>
      </trkpt>
      <trkpt lat="45.05312" lon="5.90167">
        <ele>1644.6</ele>
        <time>2020-07-12T08:17:13 02:00</time>
      </trkpt>
      <trkpt lat="45.05313" lon="5.90172">
        <ele>1645</ele>
        <time>2020-07-12T08:17:16 02:00</time>
      </trkpt>
      <trkpt lat="45.05312" lon="5.90176">
        <ele>1645.4</ele>
        <time>2020-07-12T08:17:19 02:00</time>
      </trkpt>
      <trkpt lat="45.05309" lon="5.90177">
        <ele>1645.6</ele>
        <time>2020-07-12T08:17:22 02:00</time>
      </trkpt>
      <trkpt lat="45.05308" lon="5.90179">
        <ele>1646</ele>
        <time>2020-07-12T08:17:23 02:00</time>
      </trkpt>
      <trkpt lat="45.05306" lon="5.90184">
        <ele>1646.4</ele>
        <time>2020-07-12T08:17:26 02:00</time>
      </trkpt>
      <trkpt lat="45.05306" lon="5.90186">
        <ele>1646.6</ele>
        <time>2020-07-12T08:17:27 02:00</time>
      </trkpt>
      <trkpt lat="45.05306" lon="5.90189">
        <ele>1647</ele>
        <time>2020-07-12T08:17:29 02:00</time>
      </trkpt>
      <trkpt lat="45.05306" lon="5.90195">
        <ele>1647.2</ele>
        <time>2020-07-12T08:17:32 02:00</time>
      </trkpt>
      <trkpt lat="45.05306" lon="5.902">
        <ele>1647.2</ele>
        <time>2020-07-12T08:17:35 02:00</time>
      </trkpt>
      <trkpt lat="45.05307" lon="5.90204">
        <ele>1647.2</ele>
        <time>2020-07-12T08:17:37 02:00</time>
      </trkpt>
      <trkpt lat="45.05309" lon="5.90209">
        <ele>1647</ele>
        <time>2020-07-12T08:17:40 02:00</time>
      </trkpt>
      <trkpt lat="45.0531" lon="5.90213">
        <ele>1646.8</ele>
        <time>2020-07-12T08:17:42 02:00</time>
      </trkpt>
      <trkpt lat="45.05311" lon="5.90214">
        <ele>1646.8</ele>
        <time>2020-07-12T08:17:43 02:00</time>
      </trkpt>
      <trkpt lat="45.05312" lon="5.90218">
        <ele>1646.6</ele>
        <time>2020-07-12T08:17:44 02:00</time>
      </trkpt>
      <trkpt lat="45.05314" lon="5.90223">
        <ele>1646.4</ele>
        <time>2020-07-12T08:17:47 02:00</time>
      </trkpt>
      <trkpt lat="45.05316" lon="5.90227">
        <ele>1646.2</ele>
        <time>2020-07-12T08:17:50 02:00</time>
      </trkpt>
      <trkpt lat="45.05317" lon="5.9023">
        <ele>1645.8</ele>
        <time>2020-07-12T08:17:53 02:00</time>
      </trkpt>
      <trkpt lat="45.05319" lon="5.90234">
        <ele>1645.4</ele>
        <time>2020-07-12T08:17:56 02:00</time>
      </trkpt>
      <trkpt lat="45.05319" lon="5.90235">
        <ele>1645.2</ele>
        <time>2020-07-12T08:17:57 02:00</time>
      </trkpt>
      <trkpt lat="45.05317" lon="5.90239">
        <ele>1645</ele>
        <time>2020-07-12T08:18:00 02:00</time>
      </trkpt>
      <trkpt lat="45.05317" lon="5.90243">
        <ele>1645</ele>
        <time>2020-07-12T08:18:03 02:00</time>
      </trkpt>
      <trkpt lat="45.05317" lon="5.90246">
        <ele>1645</ele>
        <time>2020-07-12T08:18:05 02:00</time>
      </trkpt>
      <trkpt lat="45.05317" lon="5.9025">
        <ele>1645</ele>
        <time>2020-07-12T08:18:07 02:00</time>
      </trkpt>
      <trkpt lat="45.05318" lon="5.90251">
        <ele>1645</ele>
        <time>2020-07-12T08:18:08 02:00</time>
      </trkpt>
      <trkpt lat="45.05319" lon="5.90254">
        <ele>1645.2</ele>
        <time>2020-07-12T08:18:11 02:00</time>
      </trkpt>
      <trkpt lat="45.0532" lon="5.90259">
        <ele>1645.4</ele>
        <time>2020-07-12T08:18:14 02:00</time>
      </trkpt>
      <trkpt lat="45.0532" lon="5.90263">
        <ele>1645.6</ele>
        <time>2020-07-12T08:18:16 02:00</time>
      </trkpt>
      <trkpt lat="45.05322" lon="5.90266">
        <ele>1645.8</ele>
        <time>2020-07-12T08:18:19 02:00</time>
      </trkpt>
      <trkpt lat="45.05322" lon="5.90271">
        <ele>1646.2</ele>
        <time>2020-07-12T08:18:22 02:00</time>
      </trkpt>
      <trkpt lat="45.05322" lon="5.90273">
        <ele>1646.6</ele>
        <time>2020-07-12T08:18:24 02:00</time>
      </trkpt>
      <trkpt lat="45.05323" lon="5.90288">
        <ele>1647.2</ele>
        <time>2020-07-12T08:18:36 02:00</time>
      </trkpt>
      <trkpt lat="45.05324" lon="5.90293">
        <ele>1647.8</ele>
        <time>2020-07-12T08:18:39 02:00</time>
      </trkpt>
      <trkpt lat="45.05323" lon="5.90298">
        <ele>1648.4</ele>
        <time>2020-07-12T08:18:41 02:00</time>
      </trkpt>
      <trkpt lat="45.05323" lon="5.90299">
        <ele>1648.6</ele>
        <time>2020-07-12T08:18:42 02:00</time>
      </trkpt>
      <trkpt lat="45.05325" lon="5.90301">
        <ele>1648.6</ele>
        <time>2020-07-12T08:18:44 02:00</time>
      </trkpt>
      <trkpt lat="45.05325" lon="5.90303">
        <ele>1648.4</ele>
        <time>2020-07-12T08:18:45 02:00</time>
      </trkpt>
      <trkpt lat="45.05325" lon="5.90304">
        <ele>1648.2</ele>
        <time>2020-07-12T08:18:46 02:00</time>
      </trkpt>
      <trkpt lat="45.05325" lon="5.90307">
        <ele>1648</ele>
        <time>2020-07-12T08:18:48 02:00</time>
      </trkpt>
      <trkpt lat="45.05325" lon="5.90308">
        <ele>1648.2</ele>
        <time>2020-07-12T08:18:49 02:00</time>
      </trkpt>
      <trkpt lat="45.05325" lon="5.9031">
        <ele>1648.4</ele>
        <time>2020-07-12T08:18:50 02:00</time>
      </trkpt>
      <trkpt lat="45.05323" lon="5.90311">
        <ele>1648.6</ele>
        <time>2020-07-12T08:18:51 02:00</time>
      </trkpt>
      <trkpt lat="45.05323" lon="5.90315">
        <ele>1648.8</ele>
        <time>2020-07-12T08:18:53 02:00</time>
      </trkpt>
      <trkpt lat="45.05322" lon="5.90321">
        <ele>1649</ele>
        <time>2020-07-12T08:18:56 02:00</time>
      </trkpt>
      <trkpt lat="45.05323" lon="5.90325">
        <ele>1649.2</ele>
        <time>2020-07-12T08:18:58 02:00</time>
      </trkpt>
      <trkpt lat="45.05322" lon="5.90329">
        <ele>1649.4</ele>
        <time>2020-07-12T08:19:00 02:00</time>
      </trkpt>
      <trkpt lat="45.05323" lon="5.90333">
        <ele>1649.8</ele>
        <time>2020-07-12T08:19:02 02:00</time>
      </trkpt>
      <trkpt lat="45.05325" lon="5.90336">
        <ele>1650.2</ele>
        <time>2020-07-12T08:19:04 02:00</time>
      </trkpt>
      <trkpt lat="45.05328" lon="5.90339">
        <ele>1650.8</ele>
        <time>2020-07-12T08:19:07 02:00</time>
      </trkpt>
      <trkpt lat="45.05329" lon="5.9034">
        <ele>1651.2</ele>
        <time>2020-07-12T08:19:08 02:00</time>
      </trkpt>
      <trkpt lat="45.05329" lon="5.90341">
        <ele>1651.6</ele>
        <time>2020-07-12T08:19:09 02:00</time>
      </trkpt>
      <trkpt lat="45.0533" lon="5.90345">
        <ele>1651.8</ele>
        <time>2020-07-12T08:19:12 02:00</time>
      </trkpt>
      <trkpt lat="45.05332" lon="5.90349">
        <ele>1652.2</ele>
        <time>2020-07-12T08:19:14 02:00</time>
      </trkpt>
      <trkpt lat="45.05333" lon="5.9035">
        <ele>1652.4</ele>
        <time>2020-07-12T08:19:15 02:00</time>
      </trkpt>
      <trkpt lat="45.05332" lon="5.90352">
        <ele>1652.6</ele>
        <time>2020-07-12T08:19:16 02:00</time>
      </trkpt>
      <trkpt lat="45.05334" lon="5.90357">
        <ele>1653</ele>
        <time>2020-07-12T08:19:20 02:00</time>
      </trkpt>
      <trkpt lat="45.05335" lon="5.90361">
        <ele>1653.4</ele>
        <time>2020-07-12T08:19:22 02:00</time>
      </trkpt>
      <trkpt lat="45.05334" lon="5.90362">
        <ele>1653.6</ele>
        <time>2020-07-12T08:19:23 02:00</time>
      </trkpt>
      <trkpt lat="45.05334" lon="5.90364">
        <ele>1653.8</ele>
        <time>2020-07-12T08:19:24 02:00</time>
      </trkpt>
      <trkpt lat="45.05335" lon="5.90368">
        <ele>1654</ele>
        <time>2020-07-12T08:19:27 02:00</time>
      </trkpt>
      <trkpt lat="45.05336" lon="5.90373">
        <ele>1653.8</ele>
        <time>2020-07-12T08:19:30 02:00</time>
      </trkpt>
      <trkpt lat="45.05338" lon="5.90377">
        <ele>1653.6</ele>
        <time>2020-07-12T08:19:33 02:00</time>
      </trkpt>
      <trkpt lat="45.05338" lon="5.90381">
        <ele>1653.4</ele>
        <time>2020-07-12T08:19:37 02:00</time>
      </trkpt>
      <trkpt lat="45.05338" lon="5.90382">
        <ele>1653</ele>
        <time>2020-07-12T08:19:38 02:00</time>
      </trkpt>
      <trkpt lat="45.05338" lon="5.90384">
        <ele>1652.6</ele>
        <time>2020-07-12T08:19:39 02:00</time>
      </trkpt>
      <trkpt lat="45.05339" lon="5.90387">
        <ele>1652.4</ele>
        <time>2020-07-12T08:19:41 02:00</time>
      </trkpt>
      <trkpt lat="45.0534" lon="5.9039">
        <ele>1652</ele>
        <time>2020-07-12T08:19:43 02:00</time>
      </trkpt>
      <trkpt lat="45.05341" lon="5.90395">
        <ele>1651.2</ele>
        <time>2020-07-12T08:19:46 02:00</time>
      </trkpt>
      <trkpt lat="45.05343" lon="5.90399">
        <ele>1650.6</ele>
        <time>2020-07-12T08:19:48 02:00</time>
      </trkpt>
      <trkpt lat="45.05344" lon="5.90404">
        <ele>1650</ele>
        <time>2020-07-12T08:19:51 02:00</time>
      </trkpt>
      <trkpt lat="45.05344" lon="5.90409">
        <ele>1649.4</ele>
        <time>2020-07-12T08:19:56 02:00</time>
      </trkpt>
      <trkpt lat="45.05345" lon="5.90414">
        <ele>1649</ele>
        <time>2020-07-12T08:19:59 02:00</time>
      </trkpt>
      <trkpt lat="45.05346" lon="5.9042">
        <ele>1649.2</ele>
        <time>2020-07-12T08:20:03 02:00</time>
      </trkpt>
      <trkpt lat="45.05346" lon="5.90421">
        <ele>1649.2</ele>
        <time>2020-07-12T08:20:04 02:00</time>
      </trkpt>
      <trkpt lat="45.05346" lon="5.90422">
        <ele>1649.4</ele>
        <time>2020-07-12T08:20:05 02:00</time>
      </trkpt>
      <trkpt lat="45.05346" lon="5.90424">
        <ele>1649.6</ele>
        <time>2020-07-12T08:20:06 02:00</time>
      </trkpt>
      <trkpt lat="45.05347" lon="5.90427">
        <ele>1649.8</ele>
        <time>2020-07-12T08:20:08 02:00</time>
      </trkpt>
      <trkpt lat="45.05347" lon="5.90431">
        <ele>1649.8</ele>
        <time>2020-07-12T08:20:10 02:00</time>
      </trkpt>
      <trkpt lat="45.05347" lon="5.90433">
        <ele>1650</ele>
        <time>2020-07-12T08:20:11 02:00</time>
      </trkpt>
      <trkpt lat="45.05349" lon="5.90437">
        <ele>1650.2</ele>
        <time>2020-07-12T08:20:14 02:00</time>
      </trkpt>
      <trkpt lat="45.05349" lon="5.90439">
        <ele>1650.4</ele>
        <time>2020-07-12T08:20:15 02:00</time>
      </trkpt>
      <trkpt lat="45.05349" lon="5.90443">
        <ele>1650.6</ele>
        <time>2020-07-12T08:20:18 02:00</time>
      </trkpt>
      <trkpt lat="45.05349" lon="5.90446">
        <ele>1651</ele>
        <time>2020-07-12T08:20:21 02:00</time>
      </trkpt>
      <trkpt lat="45.05349" lon="5.90447">
        <ele>1651.4</ele>
        <time>2020-07-12T08:20:22 02:00</time>
      </trkpt>
      <trkpt lat="45.0535" lon="5.90449">
        <ele>1651.6</ele>
        <time>2020-07-12T08:20:23 02:00</time>
      </trkpt>
      <trkpt lat="45.0535" lon="5.90449">
        <ele>1651.8</ele>
        <time>2020-07-12T08:20:24 02:00</time>
      </trkpt>
      <trkpt lat="45.05351" lon="5.90453">
        <ele>1652.4</ele>
        <time>2020-07-12T08:20:27 02:00</time>
      </trkpt>
      <trkpt lat="45.05351" lon="5.90454">
        <ele>1652.8</ele>
        <time>2020-07-12T08:20:28 02:00</time>
      </trkpt>
      <trkpt lat="45.05352" lon="5.90462">
        <ele>1653.4</ele>
        <time>2020-07-12T08:20:33 02:00</time>
      </trkpt>
      <trkpt lat="45.05353" lon="5.90466">
        <ele>1654.2</ele>
        <time>2020-07-12T08:20:36 02:00</time>
      </trkpt>
      <trkpt lat="45.05354" lon="5.9047">
        <ele>1655</ele>
        <time>2020-07-12T08:20:39 02:00</time>
      </trkpt>
      <trkpt lat="45.05355" lon="5.90474">
        <ele>1655.6</ele>
        <time>2020-07-12T08:20:42 02:00</time>
      </trkpt>
      <trkpt lat="45.05356" lon="5.90479">
        <ele>1655.8</ele>
        <time>2020-07-12T08:20:45 02:00</time>
      </trkpt>
      <trkpt lat="45.05357" lon="5.90483">
        <ele>1655.6</ele>
        <time>2020-07-12T08:20:48 02:00</time>
      </trkpt>
      <trkpt lat="45.05358" lon="5.90485">
        <ele>1655.4</ele>
        <time>2020-07-12T08:20:50 02:00</time>
      </trkpt>
      <trkpt lat="45.05359" lon="5.9049">
        <ele>1655.4</ele>
        <time>2020-07-12T08:20:53 02:00</time>
      </trkpt>
      <trkpt lat="45.0536" lon="5.90494">
        <ele>1655.2</ele>
        <time>2020-07-12T08:20:55 02:00</time>
      </trkpt>
      <trkpt lat="45.05362" lon="5.90499">
        <ele>1655.4</ele>
        <time>2020-07-12T08:20:59 02:00</time>
      </trkpt>
      <trkpt lat="45.05364" lon="5.90503">
        <ele>1655.6</ele>
        <time>2020-07-12T08:21:02 02:00</time>
      </trkpt>
      <trkpt lat="45.05367" lon="5.90507">
        <ele>1655.8</ele>
        <time>2020-07-12T08:21:05 02:00</time>
      </trkpt>
      <trkpt lat="45.05368" lon="5.90511">
        <ele>1656</ele>
        <time>2020-07-12T08:21:08 02:00</time>
      </trkpt>
      <trkpt lat="45.0537" lon="5.90515">
        <ele>1656</ele>
        <time>2020-07-12T08:21:11 02:00</time>
      </trkpt>
      <trkpt lat="45.05372" lon="5.90519">
        <ele>1656.2</ele>
        <time>2020-07-12T08:21:14 02:00</time>
      </trkpt>
      <trkpt lat="45.05372" lon="5.90521">
        <ele>1656.6</ele>
        <time>2020-07-12T08:21:15 02:00</time>
      </trkpt>
      <trkpt lat="45.05372" lon="5.90522">
        <ele>1656.8</ele>
        <time>2020-07-12T08:21:16 02:00</time>
      </trkpt>
      <trkpt lat="45.05375" lon="5.90526">
        <ele>1656.8</ele>
        <time>2020-07-12T08:21:19 02:00</time>
      </trkpt>
      <trkpt lat="45.05375" lon="5.90528">
        <ele>1657</ele>
        <time>2020-07-12T08:21:21 02:00</time>
      </trkpt>
      <trkpt lat="45.05375" lon="5.90529">
        <ele>1657.2</ele>
        <time>2020-07-12T08:21:22 02:00</time>
      </trkpt>
      <trkpt lat="45.05376" lon="5.90531">
        <ele>1657.6</ele>
        <time>2020-07-12T08:21:24 02:00</time>
      </trkpt>
      <trkpt lat="45.05377" lon="5.90536">
        <ele>1658</ele>
        <time>2020-07-12T08:21:27 02:00</time>
      </trkpt>
      <trkpt lat="45.05377" lon="5.90537">
        <ele>1658.2</ele>
        <time>2020-07-12T08:21:28 02:00</time>
      </trkpt>
      <trkpt lat="45.05378" lon="5.9054">
        <ele>1658.6</ele>
        <time>2020-07-12T08:21:30 02:00</time>
      </trkpt>
      <trkpt lat="45.05378" lon="5.9054">
        <ele>1658.8</ele>
        <time>2020-07-12T08:21:31 02:00</time>
      </trkpt>
      <trkpt lat="45.05378" lon="5.90542">
        <ele>1658.8</ele>
        <time>2020-07-12T08:21:32 02:00</time>
      </trkpt>
      <trkpt lat="45.05379" lon="5.90545">
        <ele>1658.8</ele>
        <time>2020-07-12T08:21:35 02:00</time>
      </trkpt>
      <trkpt lat="45.05379" lon="5.90546">
        <ele>1659.2</ele>
        <time>2020-07-12T08:21:36 02:00</time>
      </trkpt>
      <trkpt lat="45.05378" lon="5.90551">
        <ele>1659.6</ele>
        <time>2020-07-12T08:21:39 02:00</time>
      </trkpt>
      <trkpt lat="45.05377" lon="5.90554">
        <ele>1660</ele>
        <time>2020-07-12T08:21:41 02:00</time>
      </trkpt>
      <trkpt lat="45.05376" lon="5.90559">
        <ele>1660.6</ele>
        <time>2020-07-12T08:21:44 02:00</time>
      </trkpt>
      <trkpt lat="45.05377" lon="5.90563">
        <ele>1661.2</ele>
        <time>2020-07-12T08:21:46 02:00</time>
      </trkpt>
      <trkpt lat="45.05378" lon="5.90567">
        <ele>1661.6</ele>
        <time>2020-07-12T08:21:48 02:00</time>
      </trkpt>
      <trkpt lat="45.05378" lon="5.90569">
        <ele>1661.8</ele>
        <time>2020-07-12T08:21:49 02:00</time>
      </trkpt>
      <trkpt lat="45.05378" lon="5.90572">
        <ele>1662.2</ele>
        <time>2020-07-12T08:21:51 02:00</time>
      </trkpt>
      <trkpt lat="45.05378" lon="5.90575">
        <ele>1662.4</ele>
        <time>2020-07-12T08:21:53 02:00</time>
      </trkpt>
      <trkpt lat="45.05378" lon="5.90577">
        <ele>1662.6</ele>
        <time>2020-07-12T08:21:54 02:00</time>
      </trkpt>
      <trkpt lat="45.05377" lon="5.9058">
        <ele>1662.8</ele>
        <time>2020-07-12T08:21:56 02:00</time>
      </trkpt>
      <trkpt lat="45.05378" lon="5.90583">
        <ele>1663.2</ele>
        <time>2020-07-12T08:21:58 02:00</time>
      </trkpt>
      <trkpt lat="45.05378" lon="5.90584">
        <ele>1663.4</ele>
        <time>2020-07-12T08:21:59 02:00</time>
      </trkpt>
      <trkpt lat="45.05379" lon="5.90589">
        <ele>1663.2</ele>
        <time>2020-07-12T08:22:03 02:00</time>
      </trkpt>
      <trkpt lat="45.05378" lon="5.90593">
        <ele>1663</ele>
        <time>2020-07-12T08:22:06 02:00</time>
      </trkpt>
      <trkpt lat="45.0538" lon="5.90597">
        <ele>1663.2</ele>
        <time>2020-07-12T08:22:09 02:00</time>
      </trkpt>
      <trkpt lat="45.0538" lon="5.90598">
        <ele>1663.2</ele>
        <time>2020-07-12T08:22:10 02:00</time>
      </trkpt>
      <trkpt lat="45.0538" lon="5.90601">
        <ele>1663.4</ele>
        <time>2020-07-12T08:22:13 02:00</time>
      </trkpt>
      <trkpt lat="45.05379" lon="5.90603">
        <ele>1664</ele>
        <time>2020-07-12T08:22:14 02:00</time>
      </trkpt>
      <trkpt lat="45.0538" lon="5.90605">
        <ele>1664.4</ele>
        <time>2020-07-12T08:22:15 02:00</time>
      </trkpt>
      <trkpt lat="45.0538" lon="5.90606">
        <ele>1664.4</ele>
        <time>2020-07-12T08:22:16 02:00</time>
      </trkpt>
      <trkpt lat="45.0538" lon="5.90608">
        <ele>1664.6</ele>
        <time>2020-07-12T08:22:17 02:00</time>
      </trkpt>
      <trkpt lat="45.0538" lon="5.9061">
        <ele>1664.6</ele>
        <time>2020-07-12T08:22:18 02:00</time>
      </trkpt>
      <trkpt lat="45.05381" lon="5.90612">
        <ele>1664.4</ele>
        <time>2020-07-12T08:22:20 02:00</time>
      </trkpt>
      <trkpt lat="45.05381" lon="5.90615">
        <ele>1664.4</ele>
        <time>2020-07-12T08:22:23 02:00</time>
      </trkpt>
      <trkpt lat="45.0538" lon="5.90618">
        <ele>1664.4</ele>
        <time>2020-07-12T08:22:25 02:00</time>
      </trkpt>
      <trkpt lat="45.0538" lon="5.90622">
        <ele>1664.2</ele>
        <time>2020-07-12T08:22:28 02:00</time>
      </trkpt>
      <trkpt lat="45.0538" lon="5.90623">
        <ele>1663.8</ele>
        <time>2020-07-12T08:22:29 02:00</time>
      </trkpt>
      <trkpt lat="45.0538" lon="5.90625">
        <ele>1663.6</ele>
        <time>2020-07-12T08:22:30 02:00</time>
      </trkpt>
      <trkpt lat="45.0538" lon="5.90626">
        <ele>1663.4</ele>
        <time>2020-07-12T08:22:31 02:00</time>
      </trkpt>
      <trkpt lat="45.05383" lon="5.90634">
        <ele>1663.4</ele>
        <time>2020-07-12T08:22:37 02:00</time>
      </trkpt>
      <trkpt lat="45.05384" lon="5.90636">
        <ele>1663.6</ele>
        <time>2020-07-12T08:22:39 02:00</time>
      </trkpt>
      <trkpt lat="45.05387" lon="5.90639">
        <ele>1664</ele>
        <time>2020-07-12T08:22:42 02:00</time>
      </trkpt>
      <trkpt lat="45.0539" lon="5.90643">
        <ele>1664.2</ele>
        <time>2020-07-12T08:22:46 02:00</time>
      </trkpt>
      <trkpt lat="45.05392" lon="5.90645">
        <ele>1664.4</ele>
        <time>2020-07-12T08:22:48 02:00</time>
      </trkpt>
      <trkpt lat="45.05393" lon="5.90646">
        <ele>1664.4</ele>
        <time>2020-07-12T08:22:49 02:00</time>
      </trkpt>
      <trkpt lat="45.05393" lon="5.90647">
        <ele>1664.4</ele>
        <time>2020-07-12T08:22:50 02:00</time>
      </trkpt>
      <trkpt lat="45.05394" lon="5.90649">
        <ele>1664.4</ele>
        <time>2020-07-12T08:22:52 02:00</time>
      </trkpt>
      <trkpt lat="45.05395" lon="5.90649">
        <ele>1664.6</ele>
        <time>2020-07-12T08:22:53 02:00</time>
      </trkpt>
      <trkpt lat="45.05397" lon="5.9065">
        <ele>1664.8</ele>
        <time>2020-07-12T08:22:55 02:00</time>
      </trkpt>
      <trkpt lat="45.05404" lon="5.90659">
        <ele>1665</ele>
        <time>2020-07-12T08:23:06 02:00</time>
      </trkpt>
      <trkpt lat="45.05405" lon="5.90662">
        <ele>1665</ele>
        <time>2020-07-12T08:23:08 02:00</time>
      </trkpt>
      <trkpt lat="45.05405" lon="5.90664">
        <ele>1665</ele>
        <time>2020-07-12T08:23:09 02:00</time>
      </trkpt>
      <trkpt lat="45.05405" lon="5.90669">
        <ele>1665.2</ele>
        <time>2020-07-12T08:23:13 02:00</time>
      </trkpt>
      <trkpt lat="45.05406" lon="5.9067">
        <ele>1665.6</ele>
        <time>2020-07-12T08:23:14 02:00</time>
      </trkpt>
      <trkpt lat="45.05407" lon="5.90675">
        <ele>1666.2</ele>
        <time>2020-07-12T08:23:17 02:00</time>
      </trkpt>
      <trkpt lat="45.05409" lon="5.90679">
        <ele>1667</ele>
        <time>2020-07-12T08:23:20 02:00</time>
      </trkpt>
      <trkpt lat="45.05411" lon="5.90683">
        <ele>1668</ele>
        <time>2020-07-12T08:23:23 02:00</time>
      </trkpt>
      <trkpt lat="45.05413" lon="5.90686">
        <ele>1668.8</ele>
        <time>2020-07-12T08:23:26 02:00</time>
      </trkpt>
      <trkpt lat="45.05413" lon="5.90688">
        <ele>1669.6</ele>
        <time>2020-07-12T08:23:27 02:00</time>
      </trkpt>
      <trkpt lat="45.05413" lon="5.90689">
        <ele>1670.4</ele>
        <time>2020-07-12T08:23:28 02:00</time>
      </trkpt>
      <trkpt lat="45.05415" lon="5.90694">
        <ele>1670.8</ele>
        <time>2020-07-12T08:23:31 02:00</time>
      </trkpt>
      <trkpt lat="45.05416" lon="5.90699">
        <ele>1671</ele>
        <time>2020-07-12T08:23:34 02:00</time>
      </trkpt>
      <trkpt lat="45.05418" lon="5.90703">
        <ele>1671.4</ele>
        <time>2020-07-12T08:23:37 02:00</time>
      </trkpt>
      <trkpt lat="45.05419" lon="5.90706">
        <ele>1671.6</ele>
        <time>2020-07-12T08:23:40 02:00</time>
      </trkpt>
      <trkpt lat="45.0542" lon="5.90709">
        <ele>1671.8</ele>
        <time>2020-07-12T08:23:42 02:00</time>
      </trkpt>
      <trkpt lat="45.05422" lon="5.90713">
        <ele>1672</ele>
        <time>2020-07-12T08:23:45 02:00</time>
      </trkpt>
      <trkpt lat="45.05424" lon="5.90717">
        <ele>1672.2</ele>
        <time>2020-07-12T08:23:48 02:00</time>
      </trkpt>
      <trkpt lat="45.05426" lon="5.9072">
        <ele>1672.2</ele>
        <time>2020-07-12T08:23:51 02:00</time>
      </trkpt>
      <trkpt lat="45.05427" lon="5.90724">
        <ele>1672.4</ele>
        <time>2020-07-12T08:23:54 02:00</time>
      </trkpt>
      <trkpt lat="45.05428" lon="5.90729">
        <ele>1672</ele>
        <time>2020-07-12T08:23:57 02:00</time>
      </trkpt>
      <trkpt lat="45.0543" lon="5.90733">
        <ele>1672</ele>
        <time>2020-07-12T08:24:00 02:00</time>
      </trkpt>
      <trkpt lat="45.0543" lon="5.90734">
        <ele>1672</ele>
        <time>2020-07-12T08:24:01 02:00</time>
      </trkpt>
      <trkpt lat="45.05431" lon="5.90736">
        <ele>1672.2</ele>
        <time>2020-07-12T08:24:03 02:00</time>
      </trkpt>
      <trkpt lat="45.05433" lon="5.90739">
        <ele>1672.2</ele>
        <time>2020-07-12T08:24:06 02:00</time>
      </trkpt>
      <trkpt lat="45.05433" lon="5.90743">
        <ele>1672.6</ele>
        <time>2020-07-12T08:24:09 02:00</time>
      </trkpt>
      <trkpt lat="45.05433" lon="5.90745">
        <ele>1672.8</ele>
        <time>2020-07-12T08:24:10 02:00</time>
      </trkpt>
      <trkpt lat="45.05434" lon="5.90747">
        <ele>1673</ele>
        <time>2020-07-12T08:24:12 02:00</time>
      </trkpt>
      <trkpt lat="45.05434" lon="5.90748">
        <ele>1673</ele>
        <time>2020-07-12T08:24:13 02:00</time>
      </trkpt>
      <trkpt lat="45.05435" lon="5.90752">
        <ele>1673</ele>
        <time>2020-07-12T08:24:16 02:00</time>
      </trkpt>
      <trkpt lat="45.05435" lon="5.90753">
        <ele>1673</ele>
        <time>2020-07-12T08:24:17 02:00</time>
      </trkpt>
      <trkpt lat="45.05436" lon="5.90754">
        <ele>1673</ele>
        <time>2020-07-12T08:24:18 02:00</time>
      </trkpt>
      <trkpt lat="45.05437" lon="5.90757">
        <ele>1672.6</ele>
        <time>2020-07-12T08:24:21 02:00</time>
      </trkpt>
      <trkpt lat="45.05437" lon="5.90759">
        <ele>1672.2</ele>
        <time>2020-07-12T08:24:22 02:00</time>
      </trkpt>
      <trkpt lat="45.05437" lon="5.9076">
        <ele>1671.8</ele>
        <time>2020-07-12T08:24:23 02:00</time>
      </trkpt>
      <trkpt lat="45.05437" lon="5.90761">
        <ele>1671.2</ele>
        <time>2020-07-12T08:24:24 02:00</time>
      </trkpt>
      <trkpt lat="45.05438" lon="5.90762">
        <ele>1670.8</ele>
        <time>2020-07-12T08:24:25 02:00</time>
      </trkpt>
      <trkpt lat="45.05439" lon="5.90765">
        <ele>1671</ele>
        <time>2020-07-12T08:24:27 02:00</time>
      </trkpt>
      <trkpt lat="45.0544" lon="5.90768">
        <ele>1671</ele>
        <time>2020-07-12T08:24:29 02:00</time>
      </trkpt>
      <trkpt lat="45.05441" lon="5.90769">
        <ele>1671.2</ele>
        <time>2020-07-12T08:24:30 02:00</time>
      </trkpt>
      <trkpt lat="45.05442" lon="5.90774">
        <ele>1671.6</ele>
        <time>2020-07-12T08:24:33 02:00</time>
      </trkpt>
      <trkpt lat="45.05444" lon="5.90775">
        <ele>1672</ele>
        <time>2020-07-12T08:24:35 02:00</time>
      </trkpt>
      <trkpt lat="45.05444" lon="5.90776">
        <ele>1672.4</ele>
        <time>2020-07-12T08:24:36 02:00</time>
      </trkpt>
      <trkpt lat="45.05446" lon="5.90779">
        <ele>1673.2</ele>
        <time>2020-07-12T08:24:39 02:00</time>
      </trkpt>
      <trkpt lat="45.05447" lon="5.90781">
        <ele>1673.8</ele>
        <time>2020-07-12T08:24:41 02:00</time>
      </trkpt>
      <trkpt lat="45.05447" lon="5.90782">
        <ele>1674.4</ele>
        <time>2020-07-12T08:24:42 02:00</time>
      </trkpt>
      <trkpt lat="45.0545" lon="5.90786">
        <ele>1675</ele>
        <time>2020-07-12T08:24:46 02:00</time>
      </trkpt>
      <trkpt lat="45.0545" lon="5.9079">
        <ele>1675.6</ele>
        <time>2020-07-12T08:24:49 02:00</time>
      </trkpt>
      <trkpt lat="45.0545" lon="5.90795">
        <ele>1675.8</ele>
        <time>2020-07-12T08:24:52 02:00</time>
      </trkpt>
      <trkpt lat="45.05451" lon="5.90798">
        <ele>1676</ele>
        <time>2020-07-12T08:24:55 02:00</time>
      </trkpt>
      <trkpt lat="45.05454" lon="5.90801">
        <ele>1676.2</ele>
        <time>2020-07-12T08:25:00 02:00</time>
      </trkpt>
      <trkpt lat="45.05457" lon="5.90803">
        <ele>1676.6</ele>
        <time>2020-07-12T08:25:03 02:00</time>
      </trkpt>
      <trkpt lat="45.05458" lon="5.90803">
        <ele>1676.8</ele>
        <time>2020-07-12T08:25:04 02:00</time>
      </trkpt>
      <trkpt lat="45.05459" lon="5.90805">
        <ele>1677.4</ele>
        <time>2020-07-12T08:25:06 02:00</time>
      </trkpt>
      <trkpt lat="45.05465" lon="5.9081">
        <ele>1677.8</ele>
        <time>2020-07-12T08:25:13 02:00</time>
      </trkpt>
      <trkpt lat="45.05465" lon="5.90811">
        <ele>1678.2</ele>
        <time>2020-07-12T08:25:14 02:00</time>
      </trkpt>
      <trkpt lat="45.05467" lon="5.90812">
        <ele>1678.4</ele>
        <time>2020-07-12T08:25:16 02:00</time>
      </trkpt>
      <trkpt lat="45.0547" lon="5.90815">
        <ele>1678.6</ele>
        <time>2020-07-12T08:25:19 02:00</time>
      </trkpt>
      <trkpt lat="45.05471" lon="5.90817">
        <ele>1678.8</ele>
        <time>2020-07-12T08:25:21 02:00</time>
      </trkpt>
      <trkpt lat="45.05471" lon="5.90818">
        <ele>1679.4</ele>
        <time>2020-07-12T08:25:22 02:00</time>
      </trkpt>
      <trkpt lat="45.05473" lon="5.9082">
        <ele>1680</ele>
        <time>2020-07-12T08:25:24 02:00</time>
      </trkpt>
      <trkpt lat="45.05475" lon="5.90825">
        <ele>1680.6</ele>
        <time>2020-07-12T08:25:27 02:00</time>
      </trkpt>
      <trkpt lat="45.05476" lon="5.90829">
        <ele>1681.4</ele>
        <time>2020-07-12T08:25:30 02:00</time>
      </trkpt>
      <trkpt lat="45.05478" lon="5.90833">
        <ele>1682</ele>
        <time>2020-07-12T08:25:33 02:00</time>
      </trkpt>
      <trkpt lat="45.05478" lon="5.90838">
        <ele>1682.6</ele>
        <time>2020-07-12T08:25:36 02:00</time>
      </trkpt>
      <trkpt lat="45.0548" lon="5.90841">
        <ele>1683.4</ele>
        <time>2020-07-12T08:25:39 02:00</time>
      </trkpt>
      <trkpt lat="45.0548" lon="5.90842">
        <ele>1684</ele>
        <time>2020-07-12T08:25:40 02:00</time>
      </trkpt>
      <trkpt lat="45.05481" lon="5.90842">
        <ele>1684.4</ele>
        <time>2020-07-12T08:25:41 02:00</time>
      </trkpt>
      <trkpt lat="45.05484" lon="5.90843">
        <ele>1684.8</ele>
        <time>2020-07-12T08:25:44 02:00</time>
      </trkpt>
      <trkpt lat="45.05487" lon="5.90844">
        <ele>1684.8</ele>
        <time>2020-07-12T08:25:48 02:00</time>
      </trkpt>
      <trkpt lat="45.05491" lon="5.90844">
        <ele>1684.6</ele>
        <time>2020-07-12T08:25:50 02:00</time>
      </trkpt>
      <trkpt lat="45.05492" lon="5.90844">
        <ele>1684.4</ele>
        <time>2020-07-12T08:25:52 02:00</time>
      </trkpt>
      <trkpt lat="45.05495" lon="5.90843">
        <ele>1684.4</ele>
        <time>2020-07-12T08:25:56 02:00</time>
      </trkpt>
      <trkpt lat="45.05496" lon="5.90843">
        <ele>1684.6</ele>
        <time>2020-07-12T08:25:57 02:00</time>
      </trkpt>
      <trkpt lat="45.055" lon="5.90842">
        <ele>1685.2</ele>
        <time>2020-07-12T08:26:01 02:00</time>
      </trkpt>
      <trkpt lat="45.05501" lon="5.9084">
        <ele>1685.8</ele>
        <time>2020-07-12T08:26:02 02:00</time>
      </trkpt>
      <trkpt lat="45.05502" lon="5.9084">
        <ele>1686.6</ele>
        <time>2020-07-12T08:26:03 02:00</time>
      </trkpt>
      <trkpt lat="45.05504" lon="5.90836">
        <ele>1687</ele>
        <time>2020-07-12T08:26:06 02:00</time>
      </trkpt>
      <trkpt lat="45.0551" lon="5.90829">
        <ele>1687.4</ele>
        <time>2020-07-12T08:26:13 02:00</time>
      </trkpt>
      <trkpt lat="45.05511" lon="5.90829">
        <ele>1687.8</ele>
        <time>2020-07-12T08:26:14 02:00</time>
      </trkpt>
      <trkpt lat="45.05512" lon="5.90828">
        <ele>1688.2</ele>
        <time>2020-07-12T08:26:15 02:00</time>
      </trkpt>
      <trkpt lat="45.05516" lon="5.90825">
        <ele>1688.4</ele>
        <time>2020-07-12T08:26:18 02:00</time>
      </trkpt>
      <trkpt lat="45.05518" lon="5.90824">
        <ele>1688.6</ele>
        <time>2020-07-12T08:26:20 02:00</time>
      </trkpt>
      <trkpt lat="45.0552" lon="5.90822">
        <ele>1688.8</ele>
        <time>2020-07-12T08:26:25 02:00</time>
      </trkpt>
      <trkpt lat="45.05522" lon="5.9082">
        <ele>1689</ele>
        <time>2020-07-12T08:26:26 02:00</time>
      </trkpt>
      <trkpt lat="45.05524" lon="5.90821">
        <ele>1689.2</ele>
        <time>2020-07-12T08:26:27 02:00</time>
      </trkpt>
      <trkpt lat="45.05525" lon="5.90821">
        <ele>1689.4</ele>
        <time>2020-07-12T08:26:28 02:00</time>
      </trkpt>
      <trkpt lat="45.05526" lon="5.9082">
        <ele>1690</ele>
        <time>2020-07-12T08:26:29 02:00</time>
      </trkpt>
      <trkpt lat="45.05527" lon="5.90821">
        <ele>1690.4</ele>
        <time>2020-07-12T08:26:30 02:00</time>
      </trkpt>
      <trkpt lat="45.05528" lon="5.90821">
        <ele>1690.6</ele>
        <time>2020-07-12T08:26:31 02:00</time>
      </trkpt>
      <trkpt lat="45.05531" lon="5.9082">
        <ele>1691</ele>
        <time>2020-07-12T08:26:34 02:00</time>
      </trkpt>
      <trkpt lat="45.05534" lon="5.90818">
        <ele>1691.4</ele>
        <time>2020-07-12T08:26:37 02:00</time>
      </trkpt>
      <trkpt lat="45.05537" lon="5.90816">
        <ele>1691.2</ele>
        <time>2020-07-12T08:26:39 02:00</time>
      </trkpt>
      <trkpt lat="45.05541" lon="5.90815">
        <ele>1691.2</ele>
        <time>2020-07-12T08:26:42 02:00</time>
      </trkpt>
      <trkpt lat="45.05542" lon="5.90815">
        <ele>1691.2</ele>
        <time>2020-07-12T08:26:43 02:00</time>
      </trkpt>
      <trkpt lat="45.05544" lon="5.90814">
        <ele>1691</ele>
        <time>2020-07-12T08:26:45 02:00</time>
      </trkpt>
      <trkpt lat="45.05545" lon="5.9081">
        <ele>1690.8</ele>
        <time>2020-07-12T08:26:50 02:00</time>
      </trkpt>
      <trkpt lat="45.05546" lon="5.90809">
        <ele>1691.2</ele>
        <time>2020-07-12T08:26:51 02:00</time>
      </trkpt>
      <trkpt lat="45.05549" lon="5.90809">
        <ele>1691.6</ele>
        <time>2020-07-12T08:26:54 02:00</time>
      </trkpt>
      <trkpt lat="45.05552" lon="5.90806">
        <ele>1691.8</ele>
        <time>2020-07-12T08:26:57 02:00</time>
      </trkpt>
      <trkpt lat="45.05553" lon="5.90805">
        <ele>1691.8</ele>
        <time>2020-07-12T08:26:58 02:00</time>
      </trkpt>
      <trkpt lat="45.05554" lon="5.90805">
        <ele>1691.8</ele>
        <time>2020-07-12T08:26:59 02:00</time>
      </trkpt>
      <trkpt lat="45.05557" lon="5.90803">
        <ele>1692</ele>
        <time>2020-07-12T08:27:01 02:00</time>
      </trkpt>
      <trkpt lat="45.05559" lon="5.90799">
        <ele>1692</ele>
        <time>2020-07-12T08:27:03 02:00</time>
      </trkpt>
      <trkpt lat="45.05564" lon="5.90798">
        <ele>1692.2</ele>
        <time>2020-07-12T08:27:08 02:00</time>
      </trkpt>
      <trkpt lat="45.05567" lon="5.90798">
        <ele>1692.6</ele>
        <time>2020-07-12T08:27:10 02:00</time>
      </trkpt>
      <trkpt lat="45.0557" lon="5.90797">
        <ele>1693.2</ele>
        <time>2020-07-12T08:27:13 02:00</time>
      </trkpt>
      <trkpt lat="45.05574" lon="5.90796">
        <ele>1693.2</ele>
        <time>2020-07-12T08:27:16 02:00</time>
      </trkpt>
      <trkpt lat="45.05578" lon="5.90795">
        <ele>1693</ele>
        <time>2020-07-12T08:27:20 02:00</time>
      </trkpt>
      <trkpt lat="45.0558" lon="5.90791">
        <ele>1692.4</ele>
        <time>2020-07-12T08:27:23 02:00</time>
      </trkpt>
      <trkpt lat="45.05584" lon="5.9079">
        <ele>1691.8</ele>
        <time>2020-07-12T08:27:27 02:00</time>
      </trkpt>
      <trkpt lat="45.05585" lon="5.90791">
        <ele>1690.8</ele>
        <time>2020-07-12T08:27:28 02:00</time>
      </trkpt>
      <trkpt lat="45.05589" lon="5.9079">
        <ele>1689.8</ele>
        <time>2020-07-12T08:27:31 02:00</time>
      </trkpt>
      <trkpt lat="45.05591" lon="5.90788">
        <ele>1689</ele>
        <time>2020-07-12T08:27:34 02:00</time>
      </trkpt>
      <trkpt lat="45.05594" lon="5.90784">
        <ele>1688.8</ele>
        <time>2020-07-12T08:27:37 02:00</time>
      </trkpt>
      <trkpt lat="45.05596" lon="5.90781">
        <ele>1688.6</ele>
        <time>2020-07-12T08:27:40 02:00</time>
      </trkpt>
      <trkpt lat="45.05598" lon="5.9078">
        <ele>1688.8</ele>
        <time>2020-07-12T08:27:43 02:00</time>
      </trkpt>
      <trkpt lat="45.05599" lon="5.9078">
        <ele>1689.4</ele>
        <time>2020-07-12T08:27:44 02:00</time>
      </trkpt>
      <trkpt lat="45.056" lon="5.90778">
        <ele>1690.2</ele>
        <time>2020-07-12T08:27:46 02:00</time>
      </trkpt>
      <trkpt lat="45.05601" lon="5.90778">
        <ele>1690.8</ele>
        <time>2020-07-12T08:27:47 02:00</time>
      </trkpt>
      <trkpt lat="45.05602" lon="5.90776">
        <ele>1691.4</ele>
        <time>2020-07-12T08:27:49 02:00</time>
      </trkpt>
      <trkpt lat="45.05604" lon="5.90773">
        <ele>1692</ele>
        <time>2020-07-12T08:27:52 02:00</time>
      </trkpt>
      <trkpt lat="45.05605" lon="5.90773">
        <ele>1692.4</ele>
        <time>2020-07-12T08:27:53 02:00</time>
      </trkpt>
      <trkpt lat="45.05607" lon="5.90772">
        <ele>1692.6</ele>
        <time>2020-07-12T08:27:55 02:00</time>
      </trkpt>
      <trkpt lat="45.05608" lon="5.90771">
        <ele>1693</ele>
        <time>2020-07-12T08:27:57 02:00</time>
      </trkpt>
      <trkpt lat="45.05609" lon="5.9077">
        <ele>1693.2</ele>
        <time>2020-07-12T08:27:58 02:00</time>
      </trkpt>
      <trkpt lat="45.05612" lon="5.90768">
        <ele>1693.2</ele>
        <time>2020-07-12T08:28:00 02:00</time>
      </trkpt>
      <trkpt lat="45.05615" lon="5.90766">
        <ele>1693</ele>
        <time>2020-07-12T08:28:02 02:00</time>
      </trkpt>
      <trkpt lat="45.05617" lon="5.90763">
        <ele>1692.8</ele>
        <time>2020-07-12T08:28:05 02:00</time>
      </trkpt>
      <trkpt lat="45.05619" lon="5.90759">
        <ele>1692.4</ele>
        <time>2020-07-12T08:28:07 02:00</time>
      </trkpt>
      <trkpt lat="45.0562" lon="5.90757">
        <ele>1692.2</ele>
        <time>2020-07-12T08:28:09 02:00</time>
      </trkpt>
      <trkpt lat="45.05621" lon="5.90755">
        <ele>1692.2</ele>
        <time>2020-07-12T08:28:10 02:00</time>
      </trkpt>
      <trkpt lat="45.05623" lon="5.90752">
        <ele>1692.2</ele>
        <time>2020-07-12T08:28:12 02:00</time>
      </trkpt>
      <trkpt lat="45.05624" lon="5.90749">
        <ele>1691.8</ele>
        <time>2020-07-12T08:28:14 02:00</time>
      </trkpt>
      <trkpt lat="45.05626" lon="5.90747">
        <ele>1691.4</ele>
        <time>2020-07-12T08:28:16 02:00</time>
      </trkpt>
      <trkpt lat="45.05627" lon="5.90746">
        <ele>1691.2</ele>
        <time>2020-07-12T08:28:17 02:00</time>
      </trkpt>
      <trkpt lat="45.05627" lon="5.90746">
        <ele>1690.6</ele>
        <time>2020-07-12T08:28:18 02:00</time>
      </trkpt>
      <trkpt lat="45.05629" lon="5.90741">
        <ele>1690.2</ele>
        <time>2020-07-12T08:28:21 02:00</time>
      </trkpt>
      <trkpt lat="45.05631" lon="5.90738">
        <ele>1690.2</ele>
        <time>2020-07-12T08:28:24 02:00</time>
      </trkpt>
      <trkpt lat="45.05632" lon="5.90733">
        <ele>1690.4</ele>
        <time>2020-07-12T08:28:27 02:00</time>
      </trkpt>
      <trkpt lat="45.05633" lon="5.90732">
        <ele>1690.4</ele>
        <time>2020-07-12T08:28:28 02:00</time>
      </trkpt>
      <trkpt lat="45.05634" lon="5.90731">
        <ele>1690.6</ele>
        <time>2020-07-12T08:28:29 02:00</time>
      </trkpt>
      <trkpt lat="45.05636" lon="5.90728">
        <ele>1690.8</ele>
        <time>2020-07-12T08:28:32 02:00</time>
      </trkpt>
      <trkpt lat="45.05639" lon="5.90724">
        <ele>1691</ele>
        <time>2020-07-12T08:28:35 02:00</time>
      </trkpt>
      <trkpt lat="45.05639" lon="5.90722">
        <ele>1691.2</ele>
        <time>2020-07-12T08:28:36 02:00</time>
      </trkpt>
      <trkpt lat="45.05644" lon="5.90713">
        <ele>1691.4</ele>
        <time>2020-07-12T08:28:46 02:00</time>
      </trkpt>
      <trkpt lat="45.05644" lon="5.90711">
        <ele>1691.8</ele>
        <time>2020-07-12T08:28:47 02:00</time>
      </trkpt>
      <trkpt lat="45.05646" lon="5.90708">
        <ele>1692.2</ele>
        <time>2020-07-12T08:28:49 02:00</time>
      </trkpt>
      <trkpt lat="45.05647" lon="5.90707">
        <ele>1692.6</ele>
        <time>2020-07-12T08:28:50 02:00</time>
      </trkpt>
      <trkpt lat="45.05647" lon="5.90707">
        <ele>1692.8</ele>
        <time>2020-07-12T08:28:51 02:00</time>
      </trkpt>
      <trkpt lat="45.05648" lon="5.90706">
        <ele>1693.2</ele>
        <time>2020-07-12T08:28:52 02:00</time>
      </trkpt>
      <trkpt lat="45.05648" lon="5.90705">
        <ele>1693.4</ele>
        <time>2020-07-12T08:28:53 02:00</time>
      </trkpt>
      <trkpt lat="45.0565" lon="5.907">
        <ele>1693.8</ele>
        <time>2020-07-12T08:28:56 02:00</time>
      </trkpt>
      <trkpt lat="45.05652" lon="5.90696">
        <ele>1694.2</ele>
        <time>2020-07-12T08:29:00 02:00</time>
      </trkpt>
      <trkpt lat="45.05653" lon="5.90695">
        <ele>1694.8</ele>
        <time>2020-07-12T08:29:01 02:00</time>
      </trkpt>
      <trkpt lat="45.05654" lon="5.90694">
        <ele>1695.2</ele>
        <time>2020-07-12T08:29:02 02:00</time>
      </trkpt>
      <trkpt lat="45.05655" lon="5.90692">
        <ele>1695.6</ele>
        <time>2020-07-12T08:29:02 02:00</time>
      </trkpt>
      <trkpt lat="45.05656" lon="5.90689">
        <ele>1695.6</ele>
        <time>2020-07-12T08:29:06 02:00</time>
      </trkpt>
      <trkpt lat="45.05658" lon="5.90689">
        <ele>1695.4</ele>
        <time>2020-07-12T08:29:07 02:00</time>
      </trkpt>
      <trkpt lat="45.05658" lon="5.90682">
        <ele>1694.8</ele>
        <time>2020-07-12T08:29:13 02:00</time>
      </trkpt>
      <trkpt lat="45.05658" lon="5.90682">
        <ele>1694.2</ele>
        <time>2020-07-12T08:29:14 02:00</time>
      </trkpt>
      <trkpt lat="45.0566" lon="5.90683">
        <ele>1694</ele>
        <time>2020-07-12T08:29:17 02:00</time>
      </trkpt>
      <trkpt lat="45.05661" lon="5.90684">
        <ele>1694</ele>
        <time>2020-07-12T08:29:18 02:00</time>
      </trkpt>
      <trkpt lat="45.05664" lon="5.90687">
        <ele>1694.4</ele>
        <time>2020-07-12T08:29:23 02:00</time>
      </trkpt>
      <trkpt lat="45.05667" lon="5.90689">
        <ele>1695.2</ele>
        <time>2020-07-12T08:29:25 02:00</time>
      </trkpt>
      <trkpt lat="45.0567" lon="5.90692">
        <ele>1696</ele>
        <time>2020-07-12T08:29:28 02:00</time>
      </trkpt>
      <trkpt lat="45.05672" lon="5.90695">
        <ele>1696.4</ele>
        <time>2020-07-12T08:29:31 02:00</time>
      </trkpt>
      <trkpt lat="45.05672" lon="5.90697">
        <ele>1696.8</ele>
        <time>2020-07-12T08:29:31 02:00</time>
      </trkpt>
      <trkpt lat="45.05673" lon="5.90698">
        <ele>1697</ele>
        <time>2020-07-12T08:29:32 02:00</time>
      </trkpt>
      <trkpt lat="45.05674" lon="5.90701">
        <ele>1697</ele>
        <time>2020-07-12T08:29:36 02:00</time>
      </trkpt>
      <trkpt lat="45.05675" lon="5.90705">
        <ele>1697</ele>
        <time>2020-07-12T08:29:39 02:00</time>
      </trkpt>
      <trkpt lat="45.05677" lon="5.9071">
        <ele>1697</ele>
        <time>2020-07-12T08:29:41 02:00</time>
      </trkpt>
      <trkpt lat="45.05679" lon="5.90714">
        <ele>1697.4</ele>
        <time>2020-07-12T08:29:45 02:00</time>
      </trkpt>
      <trkpt lat="45.05682" lon="5.90717">
        <ele>1698</ele>
        <time>2020-07-12T08:29:48 02:00</time>
      </trkpt>
      <trkpt lat="45.05683" lon="5.90719">
        <ele>1698.8</ele>
        <time>2020-07-12T08:29:50 02:00</time>
      </trkpt>
      <trkpt lat="45.05685" lon="5.90721">
        <ele>1699.6</ele>
        <time>2020-07-12T08:29:52 02:00</time>
      </trkpt>
      <trkpt lat="45.05687" lon="5.90722">
        <ele>1700.4</ele>
        <time>2020-07-12T08:29:53 02:00</time>
      </trkpt>
      <trkpt lat="45.05689" lon="5.90723">
        <ele>1701</ele>
        <time>2020-07-12T08:29:56 02:00</time>
      </trkpt>
      <trkpt lat="45.05691" lon="5.90724">
        <ele>1701.4</ele>
        <time>2020-07-12T08:29:58 02:00</time>
      </trkpt>
      <trkpt lat="45.05692" lon="5.90723">
        <ele>1701.8</ele>
        <time>2020-07-12T08:29:59 02:00</time>
      </trkpt>
      <trkpt lat="45.05695" lon="5.90722">
        <ele>1702.4</ele>
        <time>2020-07-12T08:30:02 02:00</time>
      </trkpt>
      <trkpt lat="45.05698" lon="5.90721">
        <ele>1703.2</ele>
        <time>2020-07-12T08:30:04 02:00</time>
      </trkpt>
      <trkpt lat="45.05699" lon="5.90723">
        <ele>1703.6</ele>
        <time>2020-07-12T08:30:05 02:00</time>
      </trkpt>
      <trkpt lat="45.05703" lon="5.90726">
        <ele>1704.2</ele>
        <time>2020-07-12T08:30:09 02:00</time>
      </trkpt>
      <trkpt lat="45.05704" lon="5.90727">
        <ele>1704.6</ele>
        <time>2020-07-12T08:30:10 02:00</time>
      </trkpt>
      <trkpt lat="45.05712" lon="5.90733">
        <ele>1704.6</ele>
        <time>2020-07-12T08:30:17 02:00</time>
      </trkpt>
      <trkpt lat="45.05714" lon="5.90737">
        <ele>1704.2</ele>
        <time>2020-07-12T08:30:19 02:00</time>
      </trkpt>
      <trkpt lat="45.05716" lon="5.9074">
        <ele>1704</ele>
        <time>2020-07-12T08:30:21 02:00</time>
      </trkpt>
      <trkpt lat="45.05718" lon="5.90743">
        <ele>1703.6</ele>
        <time>2020-07-12T08:30:23 02:00</time>
      </trkpt>
      <trkpt lat="45.05721" lon="5.90746">
        <ele>1703.4</ele>
        <time>2020-07-12T08:30:25 02:00</time>
      </trkpt>
      <trkpt lat="45.05723" lon="5.9075">
        <ele>1703.4</ele>
        <time>2020-07-12T08:30:27 02:00</time>
      </trkpt>
      <trkpt lat="45.05724" lon="5.90756">
        <ele>1703.4</ele>
        <time>2020-07-12T08:30:30 02:00</time>
      </trkpt>
      <trkpt lat="45.05724" lon="5.9076">
        <ele>1703.6</ele>
        <time>2020-07-12T08:30:33 02:00</time>
      </trkpt>
      <trkpt lat="45.05726" lon="5.90764">
        <ele>1704.2</ele>
        <time>2020-07-12T08:30:35 02:00</time>
      </trkpt>
      <trkpt lat="45.05727" lon="5.90767">
        <ele>1704.8</ele>
        <time>2020-07-12T08:30:37 02:00</time>
      </trkpt>
      <trkpt lat="45.05727" lon="5.90771">
        <ele>1705.4</ele>
        <time>2020-07-12T08:30:39 02:00</time>
      </trkpt>
      <trkpt lat="45.05728" lon="5.90772">
        <ele>1706.2</ele>
        <time>2020-07-12T08:30:40 02:00</time>
      </trkpt>
      <trkpt lat="45.0573" lon="5.90777">
        <ele>1707</ele>
        <time>2020-07-12T08:30:47 02:00</time>
      </trkpt>
      <trkpt lat="45.05732" lon="5.90782">
        <ele>1707.4</ele>
        <time>2020-07-12T08:30:50 02:00</time>
      </trkpt>
      <trkpt lat="45.05735" lon="5.90783">
        <ele>1707.4</ele>
        <time>2020-07-12T08:30:53 02:00</time>
      </trkpt>
      <trkpt lat="45.05736" lon="5.90784">
        <ele>1707.4</ele>
        <time>2020-07-12T08:30:54 02:00</time>
      </trkpt>
      <trkpt lat="45.05737" lon="5.90785">
        <ele>1707.2</ele>
        <time>2020-07-12T08:30:55 02:00</time>
      </trkpt>
      <trkpt lat="45.05739" lon="5.90787">
        <ele>1706.8</ele>
        <time>2020-07-12T08:30:57 02:00</time>
      </trkpt>
      <trkpt lat="45.0574" lon="5.9079">
        <ele>1706.4</ele>
        <time>2020-07-12T08:30:59 02:00</time>
      </trkpt>
      <trkpt lat="45.05742" lon="5.90793">
        <ele>1706</ele>
        <time>2020-07-12T08:31:01 02:00</time>
      </trkpt>
      <trkpt lat="45.05745" lon="5.90795">
        <ele>1705.6</ele>
        <time>2020-07-12T08:31:04 02:00</time>
      </trkpt>
      <trkpt lat="45.05748" lon="5.90798">
        <ele>1705.6</ele>
        <time>2020-07-12T08:31:07 02:00</time>
      </trkpt>
      <trkpt lat="45.0575" lon="5.90803">
        <ele>1705.6</ele>
        <time>2020-07-12T08:31:10 02:00</time>
      </trkpt>
      <trkpt lat="45.0575" lon="5.90804">
        <ele>1705.6</ele>
        <time>2020-07-12T08:31:11 02:00</time>
      </trkpt>
      <trkpt lat="45.05754" lon="5.90807">
        <ele>1706.2</ele>
        <time>2020-07-12T08:31:15 02:00</time>
      </trkpt>
      <trkpt lat="45.05756" lon="5.9081">
        <ele>1706.8</ele>
        <time>2020-07-12T08:31:18 02:00</time>
      </trkpt>
      <trkpt lat="45.05757" lon="5.90815">
        <ele>1707.2</ele>
        <time>2020-07-12T08:31:21 02:00</time>
      </trkpt>
      <trkpt lat="45.05757" lon="5.90816">
        <ele>1707.6</ele>
        <time>2020-07-12T08:31:22 02:00</time>
      </trkpt>
      <trkpt lat="45.05758" lon="5.9082">
        <ele>1708</ele>
        <time>2020-07-12T08:31:24 02:00</time>
      </trkpt>
      <trkpt lat="45.05758" lon="5.90822">
        <ele>1708</ele>
        <time>2020-07-12T08:31:26 02:00</time>
      </trkpt>
      <trkpt lat="45.05759" lon="5.90826">
        <ele>1708.2</ele>
        <time>2020-07-12T08:31:29 02:00</time>
      </trkpt>
      <trkpt lat="45.05761" lon="5.90829">
        <ele>1709</ele>
        <time>2020-07-12T08:31:32 02:00</time>
      </trkpt>
      <trkpt lat="45.05761" lon="5.9083">
        <ele>1709.6</ele>
        <time>2020-07-12T08:31:33 02:00</time>
      </trkpt>
      <trkpt lat="45.05761" lon="5.90831">
        <ele>1710.2</ele>
        <time>2020-07-12T08:31:34 02:00</time>
      </trkpt>
      <trkpt lat="45.05764" lon="5.90832">
        <ele>1711</ele>
        <time>2020-07-12T08:31:36 02:00</time>
      </trkpt>
      <trkpt lat="45.05764" lon="5.90833">
        <ele>1711.6</ele>
        <time>2020-07-12T08:31:37 02:00</time>
      </trkpt>
      <trkpt lat="45.05766" lon="5.90834">
        <ele>1711.6</ele>
        <time>2020-07-12T08:31:40 02:00</time>
      </trkpt>
      <trkpt lat="45.05768" lon="5.90838">
        <ele>1712</ele>
        <time>2020-07-12T08:31:43 02:00</time>
      </trkpt>
      <trkpt lat="45.05769" lon="5.90839">
        <ele>1712.4</ele>
        <time>2020-07-12T08:31:45 02:00</time>
      </trkpt>
      <trkpt lat="45.05769" lon="5.90849">
        <ele>1712.8</ele>
        <time>2020-07-12T08:31:52 02:00</time>
      </trkpt>
      <trkpt lat="45.0577" lon="5.90854">
        <ele>1713.4</ele>
        <time>2020-07-12T08:31:55 02:00</time>
      </trkpt>
      <trkpt lat="45.05771" lon="5.90858">
        <ele>1713.8</ele>
        <time>2020-07-12T08:31:58 02:00</time>
      </trkpt>
      <trkpt lat="45.05773" lon="5.90862">
        <ele>1713.8</ele>
        <time>2020-07-12T08:32:01 02:00</time>
      </trkpt>
      <trkpt lat="45.05774" lon="5.90865">
        <ele>1714</ele>
        <time>2020-07-12T08:32:04 02:00</time>
      </trkpt>
      <trkpt lat="45.05779" lon="5.90869">
        <ele>1713.8</ele>
        <time>2020-07-12T08:32:09 02:00</time>
      </trkpt>
      <trkpt lat="45.05782" lon="5.90872">
        <ele>1713.6</ele>
        <time>2020-07-12T08:32:11 02:00</time>
      </trkpt>
      <trkpt lat="45.05783" lon="5.90874">
        <ele>1714</ele>
        <time>2020-07-12T08:32:13 02:00</time>
      </trkpt>
      <trkpt lat="45.0579" lon="5.90881">
        <ele>1714.4</ele>
        <time>2020-07-12T08:32:24 02:00</time>
      </trkpt>
      <trkpt lat="45.05795" lon="5.90883">
        <ele>1714.8</ele>
        <time>2020-07-12T08:32:27 02:00</time>
      </trkpt>
      <trkpt lat="45.05797" lon="5.90884">
        <ele>1715.2</ele>
        <time>2020-07-12T08:32:29 02:00</time>
      </trkpt>
      <trkpt lat="45.058" lon="5.90886">
        <ele>1715.6</ele>
        <time>2020-07-12T08:32:31 02:00</time>
      </trkpt>
      <trkpt lat="45.05801" lon="5.90887">
        <ele>1715.6</ele>
        <time>2020-07-12T08:32:32 02:00</time>
      </trkpt>
      <trkpt lat="45.05803" lon="5.90888">
        <ele>1715.6</ele>
        <time>2020-07-12T08:32:33 02:00</time>
      </trkpt>
      <trkpt lat="45.05806" lon="5.9089">
        <ele>1715</ele>
        <time>2020-07-12T08:32:35 02:00</time>
      </trkpt>
      <trkpt lat="45.05808" lon="5.90892">
        <ele>1714.6</ele>
        <time>2020-07-12T08:32:37 02:00</time>
      </trkpt>
      <trkpt lat="45.05811" lon="5.90893">
        <ele>1713.8</ele>
        <time>2020-07-12T08:32:39 02:00</time>
      </trkpt>
      <trkpt lat="45.05812" lon="5.90896">
        <ele>1713</ele>
        <time>2020-07-12T08:32:41 02:00</time>
      </trkpt>
      <trkpt lat="45.05816" lon="5.90898">
        <ele>1712.4</ele>
        <time>2020-07-12T08:32:44 02:00</time>
      </trkpt>
      <trkpt lat="45.05819" lon="5.909">
        <ele>1712.2</ele>
        <time>2020-07-12T08:32:47 02:00</time>
      </trkpt>
      <trkpt lat="45.05821" lon="5.90904">
        <ele>1712.2</ele>
        <time>2020-07-12T08:32:50 02:00</time>
      </trkpt>
      <trkpt lat="45.05822" lon="5.90907">
        <ele>1712.6</ele>
        <time>2020-07-12T08:32:52 02:00</time>
      </trkpt>
      <trkpt lat="45.05822" lon="5.90908">
        <ele>1713</ele>
        <time>2020-07-12T08:32:53 02:00</time>
      </trkpt>
      <trkpt lat="45.05824" lon="5.90912">
        <ele>1713.2</ele>
        <time>2020-07-12T08:32:56 02:00</time>
      </trkpt>
      <trkpt lat="45.05827" lon="5.90916">
        <ele>1713.6</ele>
        <time>2020-07-12T08:32:59 02:00</time>
      </trkpt>
      <trkpt lat="45.05828" lon="5.9092">
        <ele>1713.6</ele>
        <time>2020-07-12T08:33:02 02:00</time>
      </trkpt>
      <trkpt lat="45.05829" lon="5.90924">
        <ele>1713.4</ele>
        <time>2020-07-12T08:33:05 02:00</time>
      </trkpt>
      <trkpt lat="45.05831" lon="5.90929">
        <ele>1713</ele>
        <time>2020-07-12T08:33:09 02:00</time>
      </trkpt>
      <trkpt lat="45.05831" lon="5.9093">
        <ele>1712.8</ele>
        <time>2020-07-12T08:33:10 02:00</time>
      </trkpt>
      <trkpt lat="45.05832" lon="5.90932">
        <ele>1712.4</ele>
        <time>2020-07-12T08:33:11 02:00</time>
      </trkpt>
      <trkpt lat="45.05833" lon="5.90935">
        <ele>1712.2</ele>
        <time>2020-07-12T08:33:14 02:00</time>
      </trkpt>
      <trkpt lat="45.05833" lon="5.90937">
        <ele>1712.2</ele>
        <time>2020-07-12T08:33:15 02:00</time>
      </trkpt>
      <trkpt lat="45.05833" lon="5.90938">
        <ele>1712.4</ele>
        <time>2020-07-12T08:33:16 02:00</time>
      </trkpt>
      <trkpt lat="45.05834" lon="5.90939">
        <ele>1712.8</ele>
        <time>2020-07-12T08:33:17 02:00</time>
      </trkpt>
      <trkpt lat="45.05835" lon="5.90942">
        <ele>1713</ele>
        <time>2020-07-12T08:33:19 02:00</time>
      </trkpt>
      <trkpt lat="45.05835" lon="5.90946">
        <ele>1713.4</ele>
        <time>2020-07-12T08:33:21 02:00</time>
      </trkpt>
      <trkpt lat="45.05837" lon="5.9095">
        <ele>1713.4</ele>
        <time>2020-07-12T08:33:23 02:00</time>
      </trkpt>
      <trkpt lat="45.05838" lon="5.90954">
        <ele>1713.6</ele>
        <time>2020-07-12T08:33:26 02:00</time>
      </trkpt>
      <trkpt lat="45.0584" lon="5.90958">
        <ele>1713.6</ele>
        <time>2020-07-12T08:33:29 02:00</time>
      </trkpt>
      <trkpt lat="45.05844" lon="5.9096">
        <ele>1713.8</ele>
        <time>2020-07-12T08:33:32 02:00</time>
      </trkpt>
      <trkpt lat="45.05846" lon="5.90962">
        <ele>1714</ele>
        <time>2020-07-12T08:33:34 02:00</time>
      </trkpt>
      <trkpt lat="45.05849" lon="5.90968">
        <ele>1714.2</ele>
        <time>2020-07-12T08:33:40 02:00</time>
      </trkpt>
      <trkpt lat="45.05852" lon="5.9097">
        <ele>1714.4</ele>
        <time>2020-07-12T08:33:42 02:00</time>
      </trkpt>
      <trkpt lat="45.05853" lon="5.90971">
        <ele>1714.6</ele>
        <time>2020-07-12T08:33:43 02:00</time>
      </trkpt>
      <trkpt lat="45.05854" lon="5.90974">
        <ele>1714.8</ele>
        <time>2020-07-12T08:33:46 02:00</time>
      </trkpt>
      <trkpt lat="45.05856" lon="5.90978">
        <ele>1715</ele>
        <time>2020-07-12T08:33:50 02:00</time>
      </trkpt>
      <trkpt lat="45.05859" lon="5.90981">
        <ele>1715.6</ele>
        <time>2020-07-12T08:33:53 02:00</time>
      </trkpt>
      <trkpt lat="45.0586" lon="5.90982">
        <ele>1716</ele>
        <time>2020-07-12T08:33:54 02:00</time>
      </trkpt>
      <trkpt lat="45.05862" lon="5.90986">
        <ele>1716.6</ele>
        <time>2020-07-12T08:33:57 02:00</time>
      </trkpt>
      <trkpt lat="45.05862" lon="5.90987">
        <ele>1717.2</ele>
        <time>2020-07-12T08:33:58 02:00</time>
      </trkpt>
      <trkpt lat="45.05864" lon="5.90988">
        <ele>1717.6</ele>
        <time>2020-07-12T08:33:59 02:00</time>
      </trkpt>
      <trkpt lat="45.05866" lon="5.90989">
        <ele>1717.6</ele>
        <time>2020-07-12T08:34:03 02:00</time>
      </trkpt>
      <trkpt lat="45.05867" lon="5.90989">
        <ele>1717.8</ele>
        <time>2020-07-12T08:34:04 02:00</time>
      </trkpt>
      <trkpt lat="45.0587" lon="5.90993">
        <ele>1717.6</ele>
        <time>2020-07-12T08:34:10 02:00</time>
      </trkpt>
      <trkpt lat="45.05874" lon="5.90994">
        <ele>1717.4</ele>
        <time>2020-07-12T08:34:13 02:00</time>
      </trkpt>
      <trkpt lat="45.05877" lon="5.90996">
        <ele>1717.4</ele>
        <time>2020-07-12T08:34:16 02:00</time>
      </trkpt>
      <trkpt lat="45.05879" lon="5.90998">
        <ele>1717.8</ele>
        <time>2020-07-12T08:34:18 02:00</time>
      </trkpt>
      <trkpt lat="45.05883" lon="5.91">
        <ele>1718.4</ele>
        <time>2020-07-12T08:34:21 02:00</time>
      </trkpt>
      <trkpt lat="45.05885" lon="5.91">
        <ele>1719.4</ele>
        <time>2020-07-12T08:34:22 02:00</time>
      </trkpt>
      <trkpt lat="45.05886" lon="5.91001">
        <ele>1720.4</ele>
        <time>2020-07-12T08:34:23 02:00</time>
      </trkpt>
      <trkpt lat="45.0589" lon="5.91005">
        <ele>1721</ele>
        <time>2020-07-12T08:34:26 02:00</time>
      </trkpt>
      <trkpt lat="45.05894" lon="5.91005">
        <ele>1721.6</ele>
        <time>2020-07-12T08:34:29 02:00</time>
      </trkpt>
      <trkpt lat="45.05895" lon="5.91005">
        <ele>1721.8</ele>
        <time>2020-07-12T08:34:30 02:00</time>
      </trkpt>
      <trkpt lat="45.05896" lon="5.91023">
        <ele>1721.6</ele>
        <time>2020-07-12T08:34:44 02:00</time>
      </trkpt>
      <trkpt lat="45.05895" lon="5.91026">
        <ele>1721.4</ele>
        <time>2020-07-12T08:34:46 02:00</time>
      </trkpt>
      <trkpt lat="45.05893" lon="5.91034">
        <ele>1721.6</ele>
        <time>2020-07-12T08:34:53 02:00</time>
      </trkpt>
      <trkpt lat="45.05893" lon="5.91038">
        <ele>1721.6</ele>
        <time>2020-07-12T08:34:55 02:00</time>
      </trkpt>
      <trkpt lat="45.05891" lon="5.91041">
        <ele>1721.6</ele>
        <time>2020-07-12T08:34:57 02:00</time>
      </trkpt>
      <trkpt lat="45.05889" lon="5.91046">
        <ele>1722</ele>
        <time>2020-07-12T08:35:00 02:00</time>
      </trkpt>
      <trkpt lat="45.05889" lon="5.91047">
        <ele>1722.6</ele>
        <time>2020-07-12T08:35:01 02:00</time>
      </trkpt>
      <trkpt lat="45.05888" lon="5.91048">
        <ele>1723</ele>
        <time>2020-07-12T08:35:02 02:00</time>
      </trkpt>
      <trkpt lat="45.05887" lon="5.91053">
        <ele>1723.4</ele>
        <time>2020-07-12T08:35:07 02:00</time>
      </trkpt>
      <trkpt lat="45.05887" lon="5.91055">
        <ele>1723.8</ele>
        <time>2020-07-12T08:35:08 02:00</time>
      </trkpt>
      <trkpt lat="45.05887" lon="5.91062">
        <ele>1723.8</ele>
        <time>2020-07-12T08:35:12 02:00</time>
      </trkpt>
      <trkpt lat="45.05887" lon="5.91066">
        <ele>1723.6</ele>
        <time>2020-07-12T08:35:14 02:00</time>
      </trkpt>
      <trkpt lat="45.05887" lon="5.91071">
        <ele>1723.2</ele>
        <time>2020-07-12T08:35:17 02:00</time>
      </trkpt>
      <trkpt lat="45.05887" lon="5.91074">
        <ele>1723</ele>
        <time>2020-07-12T08:35:19 02:00</time>
      </trkpt>
      <trkpt lat="45.05888" lon="5.9108">
        <ele>1723</ele>
        <time>2020-07-12T08:35:24 02:00</time>
      </trkpt>
      <trkpt lat="45.05889" lon="5.91085">
        <ele>1723.4</ele>
        <time>2020-07-12T08:35:27 02:00</time>
      </trkpt>
      <trkpt lat="45.0589" lon="5.91086">
        <ele>1723.8</ele>
        <time>2020-07-12T08:35:28 02:00</time>
      </trkpt>
      <trkpt lat="45.0589" lon="5.91088">
        <ele>1724.4</ele>
        <time>2020-07-12T08:35:29 02:00</time>
      </trkpt>
      <trkpt lat="45.05892" lon="5.91091">
        <ele>1725</ele>
        <time>2020-07-12T08:35:31 02:00</time>
      </trkpt>
      <trkpt lat="45.05893" lon="5.91092">
        <ele>1725.4</ele>
        <time>2020-07-12T08:35:32 02:00</time>
      </trkpt>
      <trkpt lat="45.05895" lon="5.91096">
        <ele>1725.8</ele>
        <time>2020-07-12T08:35:35 02:00</time>
      </trkpt>
      <trkpt lat="45.05897" lon="5.91101">
        <ele>1726.4</ele>
        <time>2020-07-12T08:35:38 02:00</time>
      </trkpt>
      <trkpt lat="45.05898" lon="5.91103">
        <ele>1727</ele>
        <time>2020-07-12T08:35:39 02:00</time>
      </trkpt>
      <trkpt lat="45.05899" lon="5.91104">
        <ele>1727.4</ele>
        <time>2020-07-12T08:35:40 02:00</time>
      </trkpt>
      <trkpt lat="45.05901" lon="5.91107">
        <ele>1728</ele>
        <time>2020-07-12T08:35:42 02:00</time>
      </trkpt>
      <trkpt lat="45.05903" lon="5.91109">
        <ele>1728.2</ele>
        <time>2020-07-12T08:35:44 02:00</time>
      </trkpt>
      <trkpt lat="45.05903" lon="5.9111">
        <ele>1728.4</ele>
        <time>2020-07-12T08:35:45 02:00</time>
      </trkpt>
      <trkpt lat="45.05904" lon="5.91112">
        <ele>1728.6</ele>
        <time>2020-07-12T08:35:46 02:00</time>
      </trkpt>
      <trkpt lat="45.05905" lon="5.91112">
        <ele>1728.6</ele>
        <time>2020-07-12T08:35:47 02:00</time>
      </trkpt>
      <trkpt lat="45.05907" lon="5.91117">
        <ele>1728.6</ele>
        <time>2020-07-12T08:35:52 02:00</time>
      </trkpt>
      <trkpt lat="45.05909" lon="5.91119">
        <ele>1729</ele>
        <time>2020-07-12T08:35:54 02:00</time>
      </trkpt>
      <trkpt lat="45.0591" lon="5.91119">
        <ele>1729.2</ele>
        <time>2020-07-12T08:35:55 02:00</time>
      </trkpt>
      <trkpt lat="45.05913" lon="5.91121">
        <ele>1729.6</ele>
        <time>2020-07-12T08:35:58 02:00</time>
      </trkpt>
      <trkpt lat="45.05914" lon="5.91122">
        <ele>1730</ele>
        <time>2020-07-12T08:36:00 02:00</time>
      </trkpt>
      <trkpt lat="45.05915" lon="5.91123">
        <ele>1730.2</ele>
        <time>2020-07-12T08:36:01 02:00</time>
      </trkpt>
      <trkpt lat="45.05917" lon="5.91125">
        <ele>1730.2</ele>
        <time>2020-07-12T08:36:04 02:00</time>
      </trkpt>
      <trkpt lat="45.05918" lon="5.91126">
        <ele>1730.2</ele>
        <time>2020-07-12T08:36:05 02:00</time>
      </trkpt>
      <trkpt lat="45.05919" lon="5.91127">
        <ele>1730</ele>
        <time>2020-07-12T08:36:06 02:00</time>
      </trkpt>
      <trkpt lat="45.0592" lon="5.91129">
        <ele>1730</ele>
        <time>2020-07-12T08:36:08 02:00</time>
      </trkpt>
      <trkpt lat="45.05922" lon="5.91132">
        <ele>1730.2</ele>
        <time>2020-07-12T08:36:11 02:00</time>
      </trkpt>
      <trkpt lat="45.05927" lon="5.9114">
        <ele>1730.6</ele>
        <time>2020-07-12T08:36:20 02:00</time>
      </trkpt>
      <trkpt lat="45.05929" lon="5.91144">
        <ele>1730.8</ele>
        <time>2020-07-12T08:36:23 02:00</time>
      </trkpt>
      <trkpt lat="45.05931" lon="5.91148">
        <ele>1731.2</ele>
        <time>2020-07-12T08:36:26 02:00</time>
      </trkpt>
      <trkpt lat="45.05932" lon="5.91149">
        <ele>1731.6</ele>
        <time>2020-07-12T08:36:27 02:00</time>
      </trkpt>
      <trkpt lat="45.05932" lon="5.91152">
        <ele>1731.6</ele>
        <time>2020-07-12T08:36:31 02:00</time>
      </trkpt>
      <trkpt lat="45.05933" lon="5.91155">
        <ele>1731.6</ele>
        <time>2020-07-12T08:36:33 02:00</time>
      </trkpt>
      <trkpt lat="45.05933" lon="5.91156">
        <ele>1731.8</ele>
        <time>2020-07-12T08:36:34 02:00</time>
      </trkpt>
      <trkpt lat="45.05933" lon="5.91157">
        <ele>1731.8</ele>
        <time>2020-07-12T08:36:35 02:00</time>
      </trkpt>
      <trkpt lat="45.05934" lon="5.91158">
        <ele>1731.8</ele>
        <time>2020-07-12T08:36:36 02:00</time>
      </trkpt>
      <trkpt lat="45.05935" lon="5.91159">
        <ele>1732</ele>
        <time>2020-07-12T08:36:37 02:00</time>
      </trkpt>
      <trkpt lat="45.05937" lon="5.91161">
        <ele>1732</ele>
        <time>2020-07-12T08:36:39 02:00</time>
      </trkpt>
      <trkpt lat="45.05938" lon="5.91164">
        <ele>1731.8</ele>
        <time>2020-07-12T08:36:42 02:00</time>
      </trkpt>
      <trkpt lat="45.05939" lon="5.91166">
        <ele>1731.8</ele>
        <time>2020-07-12T08:36:44 02:00</time>
      </trkpt>
      <trkpt lat="45.0594" lon="5.91168">
        <ele>1731.8</ele>
        <time>2020-07-12T08:36:45 02:00</time>
      </trkpt>
      <trkpt lat="45.05944" lon="5.91172">
        <ele>1731.6</ele>
        <time>2020-07-12T08:36:50 02:00</time>
      </trkpt>
      <trkpt lat="45.05945" lon="5.91173">
        <ele>1731.4</ele>
        <time>2020-07-12T08:36:51 02:00</time>
      </trkpt>
      <trkpt lat="45.05946" lon="5.91175">
        <ele>1731.4</ele>
        <time>2020-07-12T08:36:52 02:00</time>
      </trkpt>
      <trkpt lat="45.05946" lon="5.91177">
        <ele>1731.2</ele>
        <time>2020-07-12T08:36:53 02:00</time>
      </trkpt>
      <trkpt lat="45.05955" lon="5.91206">
        <ele>1731.6</ele>
        <time>2020-07-12T08:37:19 02:00</time>
      </trkpt>
      <trkpt lat="45.05956" lon="5.91208">
        <ele>1732.2</ele>
        <time>2020-07-12T08:37:20 02:00</time>
      </trkpt>
      <trkpt lat="45.05956" lon="5.9121">
        <ele>1732.8</ele>
        <time>2020-07-12T08:37:22 02:00</time>
      </trkpt>
      <trkpt lat="45.05956" lon="5.91213">
        <ele>1733.4</ele>
        <time>2020-07-12T08:37:24 02:00</time>
      </trkpt>
      <trkpt lat="45.05958" lon="5.91226">
        <ele>1734</ele>
        <time>2020-07-12T08:37:31 02:00</time>
      </trkpt>
      <trkpt lat="45.05959" lon="5.91231">
        <ele>1734.2</ele>
        <time>2020-07-12T08:37:34 02:00</time>
      </trkpt>
      <trkpt lat="45.05959" lon="5.91233">
        <ele>1734.6</ele>
        <time>2020-07-12T08:37:35 02:00</time>
      </trkpt>
      <trkpt lat="45.05959" lon="5.91235">
        <ele>1735</ele>
        <time>2020-07-12T08:37:36 02:00</time>
      </trkpt>
      <trkpt lat="45.05959" lon="5.91239">
        <ele>1735.4</ele>
        <time>2020-07-12T08:37:38 02:00</time>
      </trkpt>
      <trkpt lat="45.05959" lon="5.91241">
        <ele>1735.8</ele>
        <time>2020-07-12T08:37:39 02:00</time>
      </trkpt>
      <trkpt lat="45.05959" lon="5.91243">
        <ele>1736</ele>
        <time>2020-07-12T08:37:40 02:00</time>
      </trkpt>
      <trkpt lat="45.0596" lon="5.91247">
        <ele>1736.2</ele>
        <time>2020-07-12T08:37:42 02:00</time>
      </trkpt>
      <trkpt lat="45.05959" lon="5.91251">
        <ele>1736.2</ele>
        <time>2020-07-12T08:37:44 02:00</time>
      </trkpt>
      <trkpt lat="45.05959" lon="5.91253">
        <ele>1736.2</ele>
        <time>2020-07-12T08:37:45 02:00</time>
      </trkpt>
      <trkpt lat="45.05959" lon="5.91254">
        <ele>1736.4</ele>
        <time>2020-07-12T08:37:46 02:00</time>
      </trkpt>
      <trkpt lat="45.05959" lon="5.91257">
        <ele>1736.4</ele>
        <time>2020-07-12T08:37:47 02:00</time>
      </trkpt>
      <trkpt lat="45.0596" lon="5.91258">
        <ele>1736.4</ele>
        <time>2020-07-12T08:37:48 02:00</time>
      </trkpt>
      <trkpt lat="45.0596" lon="5.91261">
        <ele>1737</ele>
        <time>2020-07-12T08:37:50 02:00</time>
      </trkpt>
      <trkpt lat="45.05961" lon="5.91264">
        <ele>1737.8</ele>
        <time>2020-07-12T08:37:52 02:00</time>
      </trkpt>
      <trkpt lat="45.05961" lon="5.91272">
        <ele>1738.6</ele>
        <time>2020-07-12T08:37:59 02:00</time>
      </trkpt>
      <trkpt lat="45.05961" lon="5.91273">
        <ele>1739.6</ele>
        <time>2020-07-12T08:38:00 02:00</time>
      </trkpt>
      <trkpt lat="45.05961" lon="5.91291">
        <ele>1740.6</ele>
        <time>2020-07-12T08:38:16 02:00</time>
      </trkpt>
      <trkpt lat="45.0596" lon="5.91293">
        <ele>1741.6</ele>
        <time>2020-07-12T08:38:17 02:00</time>
      </trkpt>
      <trkpt lat="45.0596" lon="5.91297">
        <ele>1742.4</ele>
        <time>2020-07-12T08:38:19 02:00</time>
      </trkpt>
      <trkpt lat="45.05959" lon="5.91298">
        <ele>1743.2</ele>
        <time>2020-07-12T08:38:20 02:00</time>
      </trkpt>
      <trkpt lat="45.05957" lon="5.91314">
        <ele>1744.2</ele>
        <time>2020-07-12T08:38:32 02:00</time>
      </trkpt>
      <trkpt lat="45.05955" lon="5.91318">
        <ele>1745</ele>
        <time>2020-07-12T08:38:36 02:00</time>
      </trkpt>
      <trkpt lat="45.05954" lon="5.9132">
        <ele>1745.4</ele>
        <time>2020-07-12T08:38:39 02:00</time>
      </trkpt>
      <trkpt lat="45.05949" lon="5.91352">
        <ele>1745</ele>
        <time>2020-07-12T08:39:02 02:00</time>
      </trkpt>
      <trkpt lat="45.0595" lon="5.91354">
        <ele>1744.4</ele>
        <time>2020-07-12T08:39:03 02:00</time>
      </trkpt>
      <trkpt lat="45.0595" lon="5.91364">
        <ele>1744</ele>
        <time>2020-07-12T08:39:11 02:00</time>
      </trkpt>
      <trkpt lat="45.0595" lon="5.91366">
        <ele>1743.6</ele>
        <time>2020-07-12T08:39:12 02:00</time>
      </trkpt>
      <trkpt lat="45.0595" lon="5.91367">
        <ele>1743.2</ele>
        <time>2020-07-12T08:39:13 02:00</time>
      </trkpt>
      <trkpt lat="45.05951" lon="5.91369">
        <ele>1743.8</ele>
        <time>2020-07-12T08:39:14 02:00</time>
      </trkpt>
      <trkpt lat="45.05951" lon="5.9138">
        <ele>1744.6</ele>
        <time>2020-07-12T08:39:21 02:00</time>
      </trkpt>
      <trkpt lat="45.05951" lon="5.91384">
        <ele>1744.8</ele>
        <time>2020-07-12T08:39:24 02:00</time>
      </trkpt>
      <trkpt lat="45.05951" lon="5.91387">
        <ele>1745.2</ele>
        <time>2020-07-12T08:39:26 02:00</time>
      </trkpt>
      <trkpt lat="45.05952" lon="5.9139">
        <ele>1745.6</ele>
        <time>2020-07-12T08:39:28 02:00</time>
      </trkpt>
      <trkpt lat="45.05951" lon="5.91394">
        <ele>1746</ele>
        <time>2020-07-12T08:39:30 02:00</time>
      </trkpt>
      <trkpt lat="45.05952" lon="5.91398">
        <ele>1746.4</ele>
        <time>2020-07-12T08:39:32 02:00</time>
      </trkpt>
      <trkpt lat="45.05952" lon="5.91402">
        <ele>1747</ele>
        <time>2020-07-12T08:39:34 02:00</time>
      </trkpt>
      <trkpt lat="45.05952" lon="5.91404">
        <ele>1747.4</ele>
        <time>2020-07-12T08:39:35 02:00</time>
      </trkpt>
      <trkpt lat="45.05953" lon="5.91406">
        <ele>1747.8</ele>
        <time>2020-07-12T08:39:37 02:00</time>
      </trkpt>
      <trkpt lat="45.05953" lon="5.91406">
        <ele>1748</ele>
        <time>2020-07-12T08:39:38 02:00</time>
      </trkpt>
      <trkpt lat="45.05953" lon="5.91407">
        <ele>1747.8</ele>
        <time>2020-07-12T08:39:39 02:00</time>
      </trkpt>
      <trkpt lat="45.05953" lon="5.91415">
        <ele>1747.6</ele>
        <time>2020-07-12T08:39:46 02:00</time>
      </trkpt>
      <trkpt lat="45.05954" lon="5.9142">
        <ele>1747.4</ele>
        <time>2020-07-12T08:39:49 02:00</time>
      </trkpt>
      <trkpt lat="45.05954" lon="5.91421">
        <ele>1747.4</ele>
        <time>2020-07-12T08:39:50 02:00</time>
      </trkpt>
      <trkpt lat="45.05954" lon="5.91423">
        <ele>1747.4</ele>
        <time>2020-07-12T08:39:51 02:00</time>
      </trkpt>
      <trkpt lat="45.05956" lon="5.91429">
        <ele>1747.6</ele>
        <time>2020-07-12T08:39:57 02:00</time>
      </trkpt>
      <trkpt lat="45.05956" lon="5.91433">
        <ele>1747.8</ele>
        <time>2020-07-12T08:39:59 02:00</time>
      </trkpt>
      <trkpt lat="45.05956" lon="5.91434">
        <ele>1747.8</ele>
        <time>2020-07-12T08:40:00 02:00</time>
      </trkpt>
      <trkpt lat="45.05956" lon="5.91436">
        <ele>1747.8</ele>
        <time>2020-07-12T08:40:01 02:00</time>
      </trkpt>
      <trkpt lat="45.05957" lon="5.91439">
        <ele>1747.8</ele>
        <time>2020-07-12T08:40:02 02:00</time>
      </trkpt>
      <trkpt lat="45.05957" lon="5.91441">
        <ele>1747.6</ele>
        <time>2020-07-12T08:40:03 02:00</time>
      </trkpt>
      <trkpt lat="45.05957" lon="5.91445">
        <ele>1747.6</ele>
        <time>2020-07-12T08:40:05 02:00</time>
      </trkpt>
      <trkpt lat="45.05957" lon="5.91446">
        <ele>1747.8</ele>
        <time>2020-07-12T08:40:06 02:00</time>
      </trkpt>
      <trkpt lat="45.05957" lon="5.91449">
        <ele>1747.8</ele>
        <time>2020-07-12T08:40:08 02:00</time>
      </trkpt>
      <trkpt lat="45.05957" lon="5.9145">
        <ele>1748</ele>
        <time>2020-07-12T08:40:09 02:00</time>
      </trkpt>
      <trkpt lat="45.05957" lon="5.91454">
        <ele>1748.2</ele>
        <time>2020-07-12T08:40:12 02:00</time>
      </trkpt>
      <trkpt lat="45.05957" lon="5.91456">
        <ele>1748.4</ele>
        <time>2020-07-12T08:40:13 02:00</time>
      </trkpt>
      <trkpt lat="45.05957" lon="5.91458">
        <ele>1748.6</ele>
        <time>2020-07-12T08:40:14 02:00</time>
      </trkpt>
      <trkpt lat="45.05956" lon="5.91462">
        <ele>1748.6</ele>
        <time>2020-07-12T08:40:16 02:00</time>
      </trkpt>
      <trkpt lat="45.05957" lon="5.91467">
        <ele>1748.6</ele>
        <time>2020-07-12T08:40:18 02:00</time>
      </trkpt>
      <trkpt lat="45.05956" lon="5.91469">
        <ele>1748.8</ele>
        <time>2020-07-12T08:40:19 02:00</time>
      </trkpt>
      <trkpt lat="45.05958" lon="5.91475">
        <ele>1749.6</ele>
        <time>2020-07-12T08:40:23 02:00</time>
      </trkpt>
      <trkpt lat="45.05957" lon="5.9148">
        <ele>1750.4</ele>
        <time>2020-07-12T08:40:26 02:00</time>
      </trkpt>
      <trkpt lat="45.05957" lon="5.91484">
        <ele>1751.8</ele>
        <time>2020-07-12T08:40:32 02:00</time>
      </trkpt>
      <trkpt lat="45.05957" lon="5.91486">
        <ele>1753</ele>
        <time>2020-07-12T08:40:33 02:00</time>
      </trkpt>
      <trkpt lat="45.05958" lon="5.9149">
        <ele>1754.2</ele>
        <time>2020-07-12T08:40:36 02:00</time>
      </trkpt>
      <trkpt lat="45.05959" lon="5.91495">
        <ele>1754.6</ele>
        <time>2020-07-12T08:40:39 02:00</time>
      </trkpt>
      <trkpt lat="45.0596" lon="5.91498">
        <ele>1754.8</ele>
        <time>2020-07-12T08:40:41 02:00</time>
      </trkpt>
      <trkpt lat="45.05959" lon="5.91499">
        <ele>1754.6</ele>
        <time>2020-07-12T08:40:43 02:00</time>
      </trkpt>
      <trkpt lat="45.05959" lon="5.91501">
        <ele>1754.2</ele>
        <time>2020-07-12T08:40:44 02:00</time>
      </trkpt>
      <trkpt lat="45.05959" lon="5.91503">
        <ele>1753.8</ele>
        <time>2020-07-12T08:40:45 02:00</time>
      </trkpt>
      <trkpt lat="45.05962" lon="5.91513">
        <ele>1753.4</ele>
        <time>2020-07-12T08:40:52 02:00</time>
      </trkpt>
      <trkpt lat="45.05963" lon="5.91518">
        <ele>1753.2</ele>
        <time>2020-07-12T08:40:55 02:00</time>
      </trkpt>
      <trkpt lat="45.05964" lon="5.9152">
        <ele>1752.8</ele>
        <time>2020-07-12T08:40:56 02:00</time>
      </trkpt>
      <trkpt lat="45.05964" lon="5.91524">
        <ele>1752.8</ele>
        <time>2020-07-12T08:40:59 02:00</time>
      </trkpt>
      <trkpt lat="45.05965" lon="5.91525">
        <ele>1752.8</ele>
        <time>2020-07-12T08:41:00 02:00</time>
      </trkpt>
      <trkpt lat="45.05965" lon="5.91527">
        <ele>1753</ele>
        <time>2020-07-12T08:41:01 02:00</time>
      </trkpt>
      <trkpt lat="45.05967" lon="5.91532">
        <ele>1753.2</ele>
        <time>2020-07-12T08:41:04 02:00</time>
      </trkpt>
      <trkpt lat="45.05967" lon="5.91534">
        <ele>1753.6</ele>
        <time>2020-07-12T08:41:05 02:00</time>
      </trkpt>
      <trkpt lat="45.05967" lon="5.9154">
        <ele>1753.8</ele>
        <time>2020-07-12T08:41:10 02:00</time>
      </trkpt>
      <trkpt lat="45.05967" lon="5.91542">
        <ele>1754.2</ele>
        <time>2020-07-12T08:41:11 02:00</time>
      </trkpt>
      <trkpt lat="45.05967" lon="5.91543">
        <ele>1754.4</ele>
        <time>2020-07-12T08:41:12 02:00</time>
      </trkpt>
      <trkpt lat="45.05968" lon="5.91545">
        <ele>1754.8</ele>
        <time>2020-07-12T08:41:13 02:00</time>
      </trkpt>
      <trkpt lat="45.05968" lon="5.91548">
        <ele>1755.4</ele>
        <time>2020-07-12T08:41:16 02:00</time>
      </trkpt>
      <trkpt lat="45.05968" lon="5.9155">
        <ele>1755.8</ele>
        <time>2020-07-12T08:41:17 02:00</time>
      </trkpt>
      <trkpt lat="45.05968" lon="5.91553">
        <ele>1756</ele>
        <time>2020-07-12T08:41:19 02:00</time>
      </trkpt>
      <trkpt lat="45.05968" lon="5.91554">
        <ele>1756.2</ele>
        <time>2020-07-12T08:41:20 02:00</time>
      </trkpt>
      <trkpt lat="45.05968" lon="5.91555">
        <ele>1756.2</ele>
        <time>2020-07-12T08:41:21 02:00</time>
      </trkpt>
      <trkpt lat="45.05968" lon="5.91556">
        <ele>1756</ele>
        <time>2020-07-12T08:41:22 02:00</time>
      </trkpt>
      <trkpt lat="45.05968" lon="5.91558">
        <ele>1756</ele>
        <time>2020-07-12T08:41:23 02:00</time>
      </trkpt>
      <trkpt lat="45.05969" lon="5.91562">
        <ele>1756</ele>
        <time>2020-07-12T08:41:25 02:00</time>
      </trkpt>
      <trkpt lat="45.05969" lon="5.91565">
        <ele>1756.4</ele>
        <time>2020-07-12T08:41:27 02:00</time>
      </trkpt>
      <trkpt lat="45.0597" lon="5.91567">
        <ele>1756.8</ele>
        <time>2020-07-12T08:41:29 02:00</time>
      </trkpt>
      <trkpt lat="45.05971" lon="5.91572">
        <ele>1757</ele>
        <time>2020-07-12T08:41:32 02:00</time>
      </trkpt>
      <trkpt lat="45.05972" lon="5.91576">
        <ele>1757</ele>
        <time>2020-07-12T08:41:35 02:00</time>
      </trkpt>
      <trkpt lat="45.05973" lon="5.91578">
        <ele>1757.2</ele>
        <time>2020-07-12T08:41:36 02:00</time>
      </trkpt>
      <trkpt lat="45.05973" lon="5.9158">
        <ele>1757</ele>
        <time>2020-07-12T08:41:37 02:00</time>
      </trkpt>
      <trkpt lat="45.05972" lon="5.91584">
        <ele>1756.6</ele>
        <time>2020-07-12T08:41:39 02:00</time>
      </trkpt>
      <trkpt lat="45.05972" lon="5.91587">
        <ele>1756.6</ele>
        <time>2020-07-12T08:41:41 02:00</time>
      </trkpt>
      <trkpt lat="45.05972" lon="5.91595">
        <ele>1757</ele>
        <time>2020-07-12T08:41:46 02:00</time>
      </trkpt>
      <trkpt lat="45.05972" lon="5.91597">
        <ele>1757.4</ele>
        <time>2020-07-12T08:41:48 02:00</time>
      </trkpt>
      <trkpt lat="45.05975" lon="5.91629">
        <ele>1758.2</ele>
        <time>2020-07-12T08:42:12 02:00</time>
      </trkpt>
      <trkpt lat="45.05975" lon="5.91633">
        <ele>1759</ele>
        <time>2020-07-12T08:42:15 02:00</time>
      </trkpt>
      <trkpt lat="45.05975" lon="5.91637">
        <ele>1759.8</ele>
        <time>2020-07-12T08:42:17 02:00</time>
      </trkpt>
      <trkpt lat="45.05976" lon="5.91642">
        <ele>1760.6</ele>
        <time>2020-07-12T08:42:20 02:00</time>
      </trkpt>
      <trkpt lat="45.05978" lon="5.91663">
        <ele>1761.6</ele>
        <time>2020-07-12T08:42:39 02:00</time>
      </trkpt>
      <trkpt lat="45.05978" lon="5.91666">
        <ele>1762.2</ele>
        <time>2020-07-12T08:42:41 02:00</time>
      </trkpt>
      <trkpt lat="45.05979" lon="5.91672">
        <ele>1762.8</ele>
        <time>2020-07-12T08:42:45 02:00</time>
      </trkpt>
      <trkpt lat="45.05979" lon="5.91673">
        <ele>1763</ele>
        <time>2020-07-12T08:42:46 02:00</time>
      </trkpt>
      <trkpt lat="45.05979" lon="5.91675">
        <ele>1763.2</ele>
        <time>2020-07-12T08:42:48 02:00</time>
      </trkpt>
      <trkpt lat="45.05979" lon="5.91676">
        <ele>1763</ele>
        <time>2020-07-12T08:42:49 02:00</time>
      </trkpt>
      <trkpt lat="45.05981" lon="5.91697">
        <ele>1762.8</ele>
        <time>2020-07-12T08:43:14 02:00</time>
      </trkpt>
      <trkpt lat="45.05981" lon="5.91699">
        <ele>1762.6</ele>
        <time>2020-07-12T08:43:15 02:00</time>
      </trkpt>
      <trkpt lat="45.05983" lon="5.91715">
        <ele>1763</ele>
        <time>2020-07-12T08:43:32 02:00</time>
      </trkpt>
      <trkpt lat="45.05984" lon="5.91719">
        <ele>1763.6</ele>
        <time>2020-07-12T08:43:35 02:00</time>
      </trkpt>
      <trkpt lat="45.05985" lon="5.91721">
        <ele>1764.4</ele>
        <time>2020-07-12T08:43:37 02:00</time>
      </trkpt>
      <trkpt lat="45.05985" lon="5.91722">
        <ele>1765.2</ele>
        <time>2020-07-12T08:43:38 02:00</time>
      </trkpt>
      <trkpt lat="45.05986" lon="5.91728">
        <ele>1766.6</ele>
        <time>2020-07-12T08:43:45 02:00</time>
      </trkpt>
      <trkpt lat="45.05986" lon="5.91731">
        <ele>1767.8</ele>
        <time>2020-07-12T08:43:47 02:00</time>
      </trkpt>
      <trkpt lat="45.05986" lon="5.91732">
        <ele>1768.4</ele>
        <time>2020-07-12T08:43:48 02:00</time>
      </trkpt>
      <trkpt lat="45.05986" lon="5.91733">
        <ele>1768.8</ele>
        <time>2020-07-12T08:43:49 02:00</time>
      </trkpt>
      <trkpt lat="45.05987" lon="5.91739">
        <ele>1769.4</ele>
        <time>2020-07-12T08:43:56 02:00</time>
      </trkpt>
      <trkpt lat="45.05988" lon="5.91742">
        <ele>1769.6</ele>
        <time>2020-07-12T08:43:58 02:00</time>
      </trkpt>
      <trkpt lat="45.05989" lon="5.91743">
        <ele>1769.6</ele>
        <time>2020-07-12T08:43:59 02:00</time>
      </trkpt>
      <trkpt lat="45.05988" lon="5.91746">
        <ele>1769.8</ele>
        <time>2020-07-12T08:44:02 02:00</time>
      </trkpt>
      <trkpt lat="45.05988" lon="5.91746">
        <ele>1770</ele>
        <time>2020-07-12T08:44:03 02:00</time>
      </trkpt>
      <trkpt lat="45.05988" lon="5.91747">
        <ele>1770</ele>
        <time>2020-07-12T08:44:04 02:00</time>
      </trkpt>
      <trkpt lat="45.05988" lon="5.91762">
        <ele>1771</ele>
        <time>2020-07-12T08:44:23 02:00</time>
      </trkpt>
      <trkpt lat="45.05988" lon="5.91765">
        <ele>1771.8</ele>
        <time>2020-07-12T08:44:25 02:00</time>
      </trkpt>
      <trkpt lat="45.05988" lon="5.91787">
        <ele>1773.2</ele>
        <time>2020-07-12T08:44:48 02:00</time>
      </trkpt>
      <trkpt lat="45.05988" lon="5.91789">
        <ele>1774.6</ele>
        <time>2020-07-12T08:44:49 02:00</time>
      </trkpt>
      <trkpt lat="45.05988" lon="5.9179">
        <ele>1776</ele>
        <time>2020-07-12T08:44:50 02:00</time>
      </trkpt>
      <trkpt lat="45.05988" lon="5.91795">
        <ele>1776.8</ele>
        <time>2020-07-12T08:44:53 02:00</time>
      </trkpt>
      <trkpt lat="45.05987" lon="5.91796">
        <ele>1777.8</ele>
        <time>2020-07-12T08:44:54 02:00</time>
      </trkpt>
      <trkpt lat="45.05987" lon="5.91799">
        <ele>1778.4</ele>
        <time>2020-07-12T08:44:56 02:00</time>
      </trkpt>
      <trkpt lat="45.05988" lon="5.91802">
        <ele>1779.2</ele>
        <time>2020-07-12T08:44:58 02:00</time>
      </trkpt>
      <trkpt lat="45.05988" lon="5.91806">
        <ele>1780.2</ele>
        <time>2020-07-12T08:45:01 02:00</time>
      </trkpt>
      <trkpt lat="45.05988" lon="5.91807">
        <ele>1780.8</ele>
        <time>2020-07-12T08:45:02 02:00</time>
      </trkpt>
      <trkpt lat="45.05988" lon="5.91812">
        <ele>1781.4</ele>
        <time>2020-07-12T08:45:06 02:00</time>
      </trkpt>
      <trkpt lat="45.05987" lon="5.91813">
        <ele>1781.8</ele>
        <time>2020-07-12T08:45:07 02:00</time>
      </trkpt>
      <trkpt lat="45.05986" lon="5.91815">
        <ele>1782.2</ele>
        <time>2020-07-12T08:45:09 02:00</time>
      </trkpt>
      <trkpt lat="45.05986" lon="5.91816">
        <ele>1782.6</ele>
        <time>2020-07-12T08:45:10 02:00</time>
      </trkpt>
      <trkpt lat="45.05987" lon="5.91819">
        <ele>1783.2</ele>
        <time>2020-07-12T08:45:13 02:00</time>
      </trkpt>
      <trkpt lat="45.05987" lon="5.91821">
        <ele>1783.8</ele>
        <time>2020-07-12T08:45:15 02:00</time>
      </trkpt>
      <trkpt lat="45.05987" lon="5.91825">
        <ele>1784.4</ele>
        <time>2020-07-12T08:45:18 02:00</time>
      </trkpt>
      <trkpt lat="45.05986" lon="5.91825">
        <ele>1784.6</ele>
        <time>2020-07-12T08:45:19 02:00</time>
      </trkpt>
      <trkpt lat="45.05987" lon="5.91827">
        <ele>1784.6</ele>
        <time>2020-07-12T08:45:20 02:00</time>
      </trkpt>
      <trkpt lat="45.05986" lon="5.91828">
        <ele>1784.6</ele>
        <time>2020-07-12T08:45:21 02:00</time>
      </trkpt>
      <trkpt lat="45.05985" lon="5.9184">
        <ele>1785</ele>
        <time>2020-07-12T08:45:34 02:00</time>
      </trkpt>
      <trkpt lat="45.05985" lon="5.91842">
        <ele>1785.4</ele>
        <time>2020-07-12T08:45:35 02:00</time>
      </trkpt>
      <trkpt lat="45.05985" lon="5.91844">
        <ele>1786.2</ele>
        <time>2020-07-12T08:45:38 02:00</time>
      </trkpt>
      <trkpt lat="45.05985" lon="5.91847">
        <ele>1787</ele>
        <time>2020-07-12T08:45:40 02:00</time>
      </trkpt>
      <trkpt lat="45.05982" lon="5.91856">
        <ele>1788</ele>
        <time>2020-07-12T08:45:51 02:00</time>
      </trkpt>
      <trkpt lat="45.05981" lon="5.91857">
        <ele>1788.6</ele>
        <time>2020-07-12T08:45:52 02:00</time>
      </trkpt>
      <trkpt lat="45.05983" lon="5.91863">
        <ele>1789.4</ele>
        <time>2020-07-12T08:46:00 02:00</time>
      </trkpt>
      <trkpt lat="45.05983" lon="5.91863">
        <ele>1789.8</ele>
        <time>2020-07-12T08:46:01 02:00</time>
      </trkpt>
      <trkpt lat="45.05988" lon="5.91887">
        <ele>1791.4</ele>
        <time>2020-07-12T08:46:30 02:00</time>
      </trkpt>
      <trkpt lat="45.05988" lon="5.91889">
        <ele>1792.6</ele>
        <time>2020-07-12T08:46:31 02:00</time>
      </trkpt>
      <trkpt lat="45.0599" lon="5.91892">
        <ele>1793.8</ele>
        <time>2020-07-12T08:46:36 02:00</time>
      </trkpt>
      <trkpt lat="45.05992" lon="5.91892">
        <ele>1795</ele>
        <time>2020-07-12T08:46:38 02:00</time>
      </trkpt>
      <trkpt lat="45.05993" lon="5.91893">
        <ele>1796.4</ele>
        <time>2020-07-12T08:46:39 02:00</time>
      </trkpt>
      <trkpt lat="45.05994" lon="5.91893">
        <ele>1796.6</ele>
        <time>2020-07-12T08:46:40 02:00</time>
      </trkpt>
      <trkpt lat="45.05997" lon="5.91894">
        <ele>1796.8</ele>
        <time>2020-07-12T08:46:48 02:00</time>
      </trkpt>
      <trkpt lat="45.05999" lon="5.91898">
        <ele>1797.2</ele>
        <time>2020-07-12T08:46:51 02:00</time>
      </trkpt>
      <trkpt lat="45.05999" lon="5.91898">
        <ele>1797.4</ele>
        <time>2020-07-12T08:46:52 02:00</time>
      </trkpt>
      <trkpt lat="45.06001" lon="5.91898">
        <ele>1797.6</ele>
        <time>2020-07-12T08:46:53 02:00</time>
      </trkpt>
      <trkpt lat="45.06002" lon="5.91897">
        <ele>1798</ele>
        <time>2020-07-12T08:46:55 02:00</time>
      </trkpt>
      <trkpt lat="45.06008" lon="5.91892">
        <ele>1798.8</ele>
        <time>2020-07-12T08:47:13 02:00</time>
      </trkpt>
      <trkpt lat="45.06009" lon="5.91892">
        <ele>1799.2</ele>
        <time>2020-07-12T08:47:14 02:00</time>
      </trkpt>
      <trkpt lat="45.06013" lon="5.9189">
        <ele>1800.4</ele>
        <time>2020-07-12T08:47:22 02:00</time>
      </trkpt>
      <trkpt lat="45.06015" lon="5.91887">
        <ele>1802</ele>
        <time>2020-07-12T08:47:24 02:00</time>
      </trkpt>
      <trkpt lat="45.06017" lon="5.91884">
        <ele>1803.4</ele>
        <time>2020-07-12T08:47:27 02:00</time>
      </trkpt>
      <trkpt lat="45.06018" lon="5.91883">
        <ele>1804.4</ele>
        <time>2020-07-12T08:47:28 02:00</time>
      </trkpt>
      <trkpt lat="45.0602" lon="5.91876">
        <ele>1805.4</ele>
        <time>2020-07-12T08:47:34 02:00</time>
      </trkpt>
      <trkpt lat="45.0602" lon="5.91874">
        <ele>1805.6</ele>
        <time>2020-07-12T08:47:36 02:00</time>
      </trkpt>
      <trkpt lat="45.06019" lon="5.91872">
        <ele>1805.2</ele>
        <time>2020-07-12T08:47:38 02:00</time>
      </trkpt>
      <trkpt lat="45.06019" lon="5.91871">
        <ele>1805</ele>
        <time>2020-07-12T08:47:39 02:00</time>
      </trkpt>
      <trkpt lat="45.06024" lon="5.91865">
        <ele>1805.2</ele>
        <time>2020-07-12T08:47:45 02:00</time>
      </trkpt>
      <trkpt lat="45.06024" lon="5.91864">
        <ele>1805.6</ele>
        <time>2020-07-12T08:47:46 02:00</time>
      </trkpt>
      <trkpt lat="45.06028" lon="5.91851">
        <ele>1806.8</ele>
        <time>2020-07-12T08:47:56 02:00</time>
      </trkpt>
      <trkpt lat="45.06029" lon="5.91847">
        <ele>1808</ele>
        <time>2020-07-12T08:47:59 02:00</time>
      </trkpt>
      <trkpt lat="45.0603" lon="5.91847">
        <ele>1808.8</ele>
        <time>2020-07-12T08:48:00 02:00</time>
      </trkpt>
      <trkpt lat="45.0603" lon="5.91846">
        <ele>1809.2</ele>
        <time>2020-07-12T08:48:01 02:00</time>
      </trkpt>
      <trkpt lat="45.06033" lon="5.91844">
        <ele>1809.6</ele>
        <time>2020-07-12T08:48:04 02:00</time>
      </trkpt>
      <trkpt lat="45.06035" lon="5.91839">
        <ele>1809.6</ele>
        <time>2020-07-12T08:48:09 02:00</time>
      </trkpt>
      <trkpt lat="45.06038" lon="5.91835">
        <ele>1809.2</ele>
        <time>2020-07-12T08:48:13 02:00</time>
      </trkpt>
      <trkpt lat="45.06038" lon="5.91834">
        <ele>1809</ele>
        <time>2020-07-12T08:48:14 02:00</time>
      </trkpt>
      <trkpt lat="45.0604" lon="5.91826">
        <ele>1808.6</ele>
        <time>2020-07-12T08:48:20 02:00</time>
      </trkpt>
      <trkpt lat="45.06042" lon="5.91821">
        <ele>1808.4</ele>
        <time>2020-07-12T08:48:23 02:00</time>
      </trkpt>
      <trkpt lat="45.06042" lon="5.91819">
        <ele>1807.8</ele>
        <time>2020-07-12T08:48:24 02:00</time>
      </trkpt>
      <trkpt lat="45.06043" lon="5.91818">
        <ele>1807.8</ele>
        <time>2020-07-12T08:48:25 02:00</time>
      </trkpt>
      <trkpt lat="45.06044" lon="5.91816">
        <ele>1807.8</ele>
        <time>2020-07-12T08:48:28 02:00</time>
      </trkpt>
      <trkpt lat="45.06045" lon="5.91813">
        <ele>1808</ele>
        <time>2020-07-12T08:48:30 02:00</time>
      </trkpt>
      <trkpt lat="45.06046" lon="5.9181">
        <ele>1808.4</ele>
        <time>2020-07-12T08:48:32 02:00</time>
      </trkpt>
      <trkpt lat="45.06046" lon="5.91809">
        <ele>1808.8</ele>
        <time>2020-07-12T08:48:33 02:00</time>
      </trkpt>
      <trkpt lat="45.06047" lon="5.91807">
        <ele>1809.4</ele>
        <time>2020-07-12T08:48:35 02:00</time>
      </trkpt>
      <trkpt lat="45.06046" lon="5.91803">
        <ele>1809.8</ele>
        <time>2020-07-12T08:48:37 02:00</time>
      </trkpt>
      <trkpt lat="45.06047" lon="5.91802">
        <ele>1810.2</ele>
        <time>2020-07-12T08:48:38 02:00</time>
      </trkpt>
      <trkpt lat="45.06047" lon="5.918">
        <ele>1810.4</ele>
        <time>2020-07-12T08:48:39 02:00</time>
      </trkpt>
      <trkpt lat="45.06047" lon="5.91796">
        <ele>1810.8</ele>
        <time>2020-07-12T08:48:44 02:00</time>
      </trkpt>
      <trkpt lat="45.0605" lon="5.91791">
        <ele>1811.2</ele>
        <time>2020-07-12T08:48:48 02:00</time>
      </trkpt>
      <trkpt lat="45.06051" lon="5.9179">
        <ele>1812</ele>
        <time>2020-07-12T08:48:49 02:00</time>
      </trkpt>
      <trkpt lat="45.06054" lon="5.91785">
        <ele>1812.8</ele>
        <time>2020-07-12T08:48:53 02:00</time>
      </trkpt>
      <trkpt lat="45.06054" lon="5.91785">
        <ele>1813.6</ele>
        <time>2020-07-12T08:48:54 02:00</time>
      </trkpt>
      <trkpt lat="45.06055" lon="5.91784">
        <ele>1814.2</ele>
        <time>2020-07-12T08:48:56 02:00</time>
      </trkpt>
      <trkpt lat="45.06057" lon="5.91784">
        <ele>1814.4</ele>
        <time>2020-07-12T08:48:57 02:00</time>
      </trkpt>
      <trkpt lat="45.06058" lon="5.91784">
        <ele>1814.4</ele>
        <time>2020-07-12T08:48:58 02:00</time>
      </trkpt>
      <trkpt lat="45.0606" lon="5.91782">
        <ele>1814.4</ele>
        <time>2020-07-12T08:49:01 02:00</time>
      </trkpt>
      <trkpt lat="45.06061" lon="5.91782">
        <ele>1814.2</ele>
        <time>2020-07-12T08:49:02 02:00</time>
      </trkpt>
      <trkpt lat="45.06062" lon="5.91777">
        <ele>1814.6</ele>
        <time>2020-07-12T08:49:09 02:00</time>
      </trkpt>
      <trkpt lat="45.06062" lon="5.91775">
        <ele>1815.4</ele>
        <time>2020-07-12T08:49:10 02:00</time>
      </trkpt>
      <trkpt lat="45.06065" lon="5.91772">
        <ele>1816.4</ele>
        <time>2020-07-12T08:49:15 02:00</time>
      </trkpt>
      <trkpt lat="45.06067" lon="5.91771">
        <ele>1817.4</ele>
        <time>2020-07-12T08:49:17 02:00</time>
      </trkpt>
      <trkpt lat="45.06068" lon="5.9177">
        <ele>1818.4</ele>
        <time>2020-07-12T08:49:19 02:00</time>
      </trkpt>
      <trkpt lat="45.06069" lon="5.91769">
        <ele>1818.8</ele>
        <time>2020-07-12T08:49:20 02:00</time>
      </trkpt>
      <trkpt lat="45.06071" lon="5.91766">
        <ele>1819</ele>
        <time>2020-07-12T08:49:22 02:00</time>
      </trkpt>
      <trkpt lat="45.06073" lon="5.91766">
        <ele>1819.2</ele>
        <time>2020-07-12T08:49:24 02:00</time>
      </trkpt>
      <trkpt lat="45.06075" lon="5.91765">
        <ele>1819.2</ele>
        <time>2020-07-12T08:49:26 02:00</time>
      </trkpt>
      <trkpt lat="45.06075" lon="5.91765">
        <ele>1819.4</ele>
        <time>2020-07-12T08:49:27 02:00</time>
      </trkpt>
      <trkpt lat="45.06078" lon="5.91764">
        <ele>1819.6</ele>
        <time>2020-07-12T08:49:29 02:00</time>
      </trkpt>
      <trkpt lat="45.0608" lon="5.91764">
        <ele>1819.8</ele>
        <time>2020-07-12T08:49:31 02:00</time>
      </trkpt>
      <trkpt lat="45.06081" lon="5.91763">
        <ele>1819.8</ele>
        <time>2020-07-12T08:49:32 02:00</time>
      </trkpt>
      <trkpt lat="45.06086" lon="5.91759">
        <ele>1819.8</ele>
        <time>2020-07-12T08:49:38 02:00</time>
      </trkpt>
      <trkpt lat="45.06087" lon="5.91758">
        <ele>1819.6</ele>
        <time>2020-07-12T08:49:39 02:00</time>
      </trkpt>
      <trkpt lat="45.06088" lon="5.91756">
        <ele>1819.2</ele>
        <time>2020-07-12T08:49:41 02:00</time>
      </trkpt>
      <trkpt lat="45.06089" lon="5.91756">
        <ele>1818.8</ele>
        <time>2020-07-12T08:49:42 02:00</time>
      </trkpt>
      <trkpt lat="45.06093" lon="5.91734">
        <ele>1819</ele>
        <time>2020-07-12T08:50:00 02:00</time>
      </trkpt>
      <trkpt lat="45.06093" lon="5.91733">
        <ele>1819.4</ele>
        <time>2020-07-12T08:50:01 02:00</time>
      </trkpt>
      <trkpt lat="45.06093" lon="5.91724">
        <ele>1819</ele>
        <time>2020-07-12T08:50:07 02:00</time>
      </trkpt>
      <trkpt lat="45.06093" lon="5.91722">
        <ele>1818.6</ele>
        <time>2020-07-12T08:50:09 02:00</time>
      </trkpt>
      <trkpt lat="45.06094" lon="5.91722">
        <ele>1818.2</ele>
        <time>2020-07-12T08:50:10 02:00</time>
      </trkpt>
      <trkpt lat="45.06095" lon="5.91719">
        <ele>1817.6</ele>
        <time>2020-07-12T08:50:13 02:00</time>
      </trkpt>
      <trkpt lat="45.06107" lon="5.91659">
        <ele>1817</ele>
        <time>2020-07-12T08:52:30 02:00</time>
      </trkpt>
      <trkpt lat="45.06107" lon="5.91657">
        <ele>1817.2</ele>
        <time>2020-07-12T08:52:31 02:00</time>
      </trkpt>
      <trkpt lat="45.0611" lon="5.91641">
        <ele>1817.8</ele>
        <time>2020-07-12T08:52:40 02:00</time>
      </trkpt>
      <trkpt lat="45.0611" lon="5.91639">
        <ele>1818.4</ele>
        <time>2020-07-12T08:52:41 02:00</time>
      </trkpt>
      <trkpt lat="45.06115" lon="5.91608">
        <ele>1818.6</ele>
        <time>2020-07-12T08:53:03 02:00</time>
      </trkpt>
      <trkpt lat="45.06115" lon="5.91606">
        <ele>1818.8</ele>
        <time>2020-07-12T08:53:04 02:00</time>
      </trkpt>
      <trkpt lat="45.06117" lon="5.91586">
        <ele>1818.4</ele>
        <time>2020-07-12T08:53:17 02:00</time>
      </trkpt>
      <trkpt lat="45.06117" lon="5.91582">
        <ele>1817.8</ele>
        <time>2020-07-12T08:53:19 02:00</time>
      </trkpt>
      <trkpt lat="45.06117" lon="5.9158">
        <ele>1817</ele>
        <time>2020-07-12T08:53:20 02:00</time>
      </trkpt>
      <trkpt lat="45.06118" lon="5.91577">
        <ele>1816.2</ele>
        <time>2020-07-12T08:53:22 02:00</time>
      </trkpt>
      <trkpt lat="45.06118" lon="5.91573">
        <ele>1815.4</ele>
        <time>2020-07-12T08:53:24 02:00</time>
      </trkpt>
      <trkpt lat="45.06128" lon="5.91554">
        <ele>1815.6</ele>
        <time>2020-07-12T08:53:42 02:00</time>
      </trkpt>
      <trkpt lat="45.0613" lon="5.91549">
        <ele>1816</ele>
        <time>2020-07-12T08:53:45 02:00</time>
      </trkpt>
      <trkpt lat="45.06132" lon="5.91545">
        <ele>1816.6</ele>
        <time>2020-07-12T08:53:48 02:00</time>
      </trkpt>
      <trkpt lat="45.06134" lon="5.91543">
        <ele>1817.2</ele>
        <time>2020-07-12T08:53:50 02:00</time>
      </trkpt>
      <trkpt lat="45.06141" lon="5.91521">
        <ele>1818.6</ele>
        <time>2020-07-12T08:54:04 02:00</time>
      </trkpt>
      <trkpt lat="45.06141" lon="5.9152">
        <ele>1819.4</ele>
        <time>2020-07-12T08:54:05 02:00</time>
      </trkpt>
      <trkpt lat="45.06142" lon="5.91517">
        <ele>1820.2</ele>
        <time>2020-07-12T08:54:07 02:00</time>
      </trkpt>
      <trkpt lat="45.06143" lon="5.91516">
        <ele>1821</ele>
        <time>2020-07-12T08:54:08 02:00</time>
      </trkpt>
      <trkpt lat="45.06148" lon="5.91506">
        <ele>1821.6</ele>
        <time>2020-07-12T08:54:17 02:00</time>
      </trkpt>
      <trkpt lat="45.06149" lon="5.91505">
        <ele>1821.4</ele>
        <time>2020-07-12T08:54:18 02:00</time>
      </trkpt>
      <trkpt lat="45.06155" lon="5.91496">
        <ele>1820.6</ele>
        <time>2020-07-12T08:54:34 02:00</time>
      </trkpt>
      <trkpt lat="45.06157" lon="5.91492">
        <ele>1819.4</ele>
        <time>2020-07-12T08:54:36 02:00</time>
      </trkpt>
      <trkpt lat="45.06159" lon="5.91487">
        <ele>1818.6</ele>
        <time>2020-07-12T08:54:38 02:00</time>
      </trkpt>
      <trkpt lat="45.06161" lon="5.91484">
        <ele>1817.8</ele>
        <time>2020-07-12T08:54:40 02:00</time>
      </trkpt>
      <trkpt lat="45.06162" lon="5.9148">
        <ele>1817</ele>
        <time>2020-07-12T08:54:42 02:00</time>
      </trkpt>
      <trkpt lat="45.06162" lon="5.91479">
        <ele>1817.2</ele>
        <time>2020-07-12T08:54:43 02:00</time>
      </trkpt>
      <trkpt lat="45.06164" lon="5.91473">
        <ele>1818</ele>
        <time>2020-07-12T08:54:48 02:00</time>
      </trkpt>
      <trkpt lat="45.06164" lon="5.91471">
        <ele>1818.6</ele>
        <time>2020-07-12T08:54:51 02:00</time>
      </trkpt>
      <trkpt lat="45.06162" lon="5.91464">
        <ele>1819.2</ele>
        <time>2020-07-12T08:54:58 02:00</time>
      </trkpt>
      <trkpt lat="45.06164" lon="5.9146">
        <ele>1819.8</ele>
        <time>2020-07-12T08:55:00 02:00</time>
      </trkpt>
      <trkpt lat="45.06166" lon="5.91456">
        <ele>1820</ele>
        <time>2020-07-12T08:55:02 02:00</time>
      </trkpt>
      <trkpt lat="45.06167" lon="5.91454">
        <ele>1819.6</ele>
        <time>2020-07-12T08:55:03 02:00</time>
      </trkpt>
      <trkpt lat="45.06167" lon="5.91452">
        <ele>1819</ele>
        <time>2020-07-12T08:55:04 02:00</time>
      </trkpt>
      <trkpt lat="45.06167" lon="5.9145">
        <ele>1818.6</ele>
        <time>2020-07-12T08:55:05 02:00</time>
      </trkpt>
      <trkpt lat="45.06168" lon="5.91449">
        <ele>1818.2</ele>
        <time>2020-07-12T08:55:06 02:00</time>
      </trkpt>
      <trkpt lat="45.06168" lon="5.91444">
        <ele>1818.4</ele>
        <time>2020-07-12T08:55:09 02:00</time>
      </trkpt>
      <trkpt lat="45.06169" lon="5.9144">
        <ele>1818.8</ele>
        <time>2020-07-12T08:55:12 02:00</time>
      </trkpt>
      <trkpt lat="45.0617" lon="5.91438">
        <ele>1819</ele>
        <time>2020-07-12T08:55:13 02:00</time>
      </trkpt>
      <trkpt lat="45.06176" lon="5.91431">
        <ele>1819.4</ele>
        <time>2020-07-12T08:55:36 02:00</time>
      </trkpt>
      <trkpt lat="45.06178" lon="5.91432">
        <ele>1819.8</ele>
        <time>2020-07-12T08:55:37 02:00</time>
      </trkpt>
      <trkpt lat="45.06187" lon="5.91438">
        <ele>1819.8</ele>
        <time>2020-07-12T08:55:51 02:00</time>
      </trkpt>
      <trkpt lat="45.06187" lon="5.91439">
        <ele>1819.8</ele>
        <time>2020-07-12T08:55:52 02:00</time>
      </trkpt>
      <trkpt lat="45.06193" lon="5.91444">
        <ele>1820.4</ele>
        <time>2020-07-12T08:56:01 02:00</time>
      </trkpt>
      <trkpt lat="45.06194" lon="5.91445">
        <ele>1821</ele>
        <time>2020-07-12T08:56:02 02:00</time>
      </trkpt>
      <trkpt lat="45.06198" lon="5.9145">
        <ele>1822</ele>
        <time>2020-07-12T08:56:08 02:00</time>
      </trkpt>
      <trkpt lat="45.06198" lon="5.91451">
        <ele>1823.2</ele>
        <time>2020-07-12T08:56:09 02:00</time>
      </trkpt>
      <trkpt lat="45.06204" lon="5.91467">
        <ele>1825.2</ele>
        <time>2020-07-12T08:56:26 02:00</time>
      </trkpt>
      <trkpt lat="45.06207" lon="5.9147">
        <ele>1826.8</ele>
        <time>2020-07-12T08:56:28 02:00</time>
      </trkpt>
      <trkpt lat="45.06207" lon="5.91474">
        <ele>1828.2</ele>
        <time>2020-07-12T08:56:30 02:00</time>
      </trkpt>
      <trkpt lat="45.06208" lon="5.91476">
        <ele>1829.2</ele>
        <time>2020-07-12T08:56:31 02:00</time>
      </trkpt>
      <trkpt lat="45.06209" lon="5.91481">
        <ele>1830.2</ele>
        <time>2020-07-12T08:56:34 02:00</time>
      </trkpt>
      <trkpt lat="45.06209" lon="5.91482">
        <ele>1830.4</ele>
        <time>2020-07-12T08:56:35 02:00</time>
      </trkpt>
      <trkpt lat="45.06208" lon="5.91487">
        <ele>1830.4</ele>
        <time>2020-07-12T08:56:38 02:00</time>
      </trkpt>
      <trkpt lat="45.06208" lon="5.91489">
        <ele>1830.4</ele>
        <time>2020-07-12T08:56:39 02:00</time>
      </trkpt>
      <trkpt lat="45.06211" lon="5.91514">
        <ele>1830.6</ele>
        <time>2020-07-12T08:56:58 02:00</time>
      </trkpt>
      <trkpt lat="45.06212" lon="5.91519">
        <ele>1830.6</ele>
        <time>2020-07-12T08:57:01 02:00</time>
      </trkpt>
      <trkpt lat="45.06213" lon="5.91522">
        <ele>1830.6</ele>
        <time>2020-07-12T08:57:03 02:00</time>
      </trkpt>
      <trkpt lat="45.06213" lon="5.91528">
        <ele>1831</ele>
        <time>2020-07-12T08:57:07 02:00</time>
      </trkpt>
      <trkpt lat="45.06214" lon="5.9153">
        <ele>1831.6</ele>
        <time>2020-07-12T08:57:08 02:00</time>
      </trkpt>
      <trkpt lat="45.06215" lon="5.91545">
        <ele>1832</ele>
        <time>2020-07-12T08:57:18 02:00</time>
      </trkpt>
      <trkpt lat="45.06215" lon="5.91548">
        <ele>1832.4</ele>
        <time>2020-07-12T08:57:20 02:00</time>
      </trkpt>
      <trkpt lat="45.06215" lon="5.91554">
        <ele>1832.6</ele>
        <time>2020-07-12T08:57:23 02:00</time>
      </trkpt>
      <trkpt lat="45.06215" lon="5.91557">
        <ele>1832.6</ele>
        <time>2020-07-12T08:57:25 02:00</time>
      </trkpt>
      <trkpt lat="45.06216" lon="5.91562">
        <ele>1832.6</ele>
        <time>2020-07-12T08:57:28 02:00</time>
      </trkpt>
      <trkpt lat="45.06217" lon="5.91566">
        <ele>1832.6</ele>
        <time>2020-07-12T08:57:32 02:00</time>
      </trkpt>
      <trkpt lat="45.06218" lon="5.9157">
        <ele>1832.6</ele>
        <time>2020-07-12T08:57:34 02:00</time>
      </trkpt>
      <trkpt lat="45.06218" lon="5.91576">
        <ele>1833</ele>
        <time>2020-07-12T08:57:54 02:00</time>
      </trkpt>
      <trkpt lat="45.06219" lon="5.91577">
        <ele>1833.6</ele>
        <time>2020-07-12T08:57:55 02:00</time>
      </trkpt>
      <trkpt lat="45.06221" lon="5.91584">
        <ele>1834</ele>
        <time>2020-07-12T08:58:01 02:00</time>
      </trkpt>
      <trkpt lat="45.06221" lon="5.91585">
        <ele>1834.4</ele>
        <time>2020-07-12T08:58:02 02:00</time>
      </trkpt>
      <trkpt lat="45.06221" lon="5.91588">
        <ele>1834.8</ele>
        <time>2020-07-12T08:58:03 02:00</time>
      </trkpt>
      <trkpt lat="45.06222" lon="5.91591">
        <ele>1835</ele>
        <time>2020-07-12T08:58:05 02:00</time>
      </trkpt>
      <trkpt lat="45.0622" lon="5.91627">
        <ele>1834.2</ele>
        <time>2020-07-12T08:58:33 02:00</time>
      </trkpt>
      <trkpt lat="45.06221" lon="5.91628">
        <ele>1833.6</ele>
        <time>2020-07-12T08:58:34 02:00</time>
      </trkpt>
      <trkpt lat="45.06217" lon="5.9169">
        <ele>1834.2</ele>
        <time>2020-07-12T08:59:19 02:00</time>
      </trkpt>
      <trkpt lat="45.06217" lon="5.91691">
        <ele>1834.8</ele>
        <time>2020-07-12T08:59:20 02:00</time>
      </trkpt>
      <trkpt lat="45.06218" lon="5.91706">
        <ele>1836.2</ele>
        <time>2020-07-12T08:59:31 02:00</time>
      </trkpt>
      <trkpt lat="45.06218" lon="5.91708">
        <ele>1838.6</ele>
        <time>2020-07-12T08:59:32 02:00</time>
      </trkpt>
      <trkpt lat="45.0622" lon="5.91711">
        <ele>1840.8</ele>
        <time>2020-07-12T08:59:34 02:00</time>
      </trkpt>
      <trkpt lat="45.0622" lon="5.91712">
        <ele>1841.8</ele>
        <time>2020-07-12T08:59:35 02:00</time>
      </trkpt>
      <trkpt lat="45.06221" lon="5.91716">
        <ele>1843</ele>
        <time>2020-07-12T08:59:37 02:00</time>
      </trkpt>
      <trkpt lat="45.06221" lon="5.91718">
        <ele>1843.4</ele>
        <time>2020-07-12T08:59:38 02:00</time>
      </trkpt>
      <trkpt lat="45.06223" lon="5.91721">
        <ele>1843.4</ele>
        <time>2020-07-12T08:59:41 02:00</time>
      </trkpt>
      <trkpt lat="45.06224" lon="5.91724">
        <ele>1843.2</ele>
        <time>2020-07-12T08:59:42 02:00</time>
      </trkpt>
      <trkpt lat="45.06226" lon="5.91733">
        <ele>1843.4</ele>
        <time>2020-07-12T08:59:49 02:00</time>
      </trkpt>
      <trkpt lat="45.06226" lon="5.91734">
        <ele>1843.4</ele>
        <time>2020-07-12T08:59:50 02:00</time>
      </trkpt>
      <trkpt lat="45.06228" lon="5.91737">
        <ele>1843.4</ele>
        <time>2020-07-12T08:59:52 02:00</time>
      </trkpt>
      <trkpt lat="45.06229" lon="5.9174">
        <ele>1843.8</ele>
        <time>2020-07-12T08:59:54 02:00</time>
      </trkpt>
      <trkpt lat="45.0623" lon="5.91741">
        <ele>1844.4</ele>
        <time>2020-07-12T08:59:55 02:00</time>
      </trkpt>
      <trkpt lat="45.06231" lon="5.91745">
        <ele>1844.8</ele>
        <time>2020-07-12T08:59:58 02:00</time>
      </trkpt>
      <trkpt lat="45.06231" lon="5.91746">
        <ele>1845.2</ele>
        <time>2020-07-12T08:59:59 02:00</time>
      </trkpt>
      <trkpt lat="45.06232" lon="5.91748">
        <ele>1845.4</ele>
        <time>2020-07-12T09:00:00 02:00</time>
      </trkpt>
      <trkpt lat="45.06235" lon="5.91756">
        <ele>1845.8</ele>
        <time>2020-07-12T09:00:06 02:00</time>
      </trkpt>
      <trkpt lat="45.06235" lon="5.91757">
        <ele>1846.2</ele>
        <time>2020-07-12T09:00:07 02:00</time>
      </trkpt>
      <trkpt lat="45.06239" lon="5.91763">
        <ele>1846.4</ele>
        <time>2020-07-12T09:00:11 02:00</time>
      </trkpt>
      <trkpt lat="45.06239" lon="5.91766">
        <ele>1846.6</ele>
        <time>2020-07-12T09:00:13 02:00</time>
      </trkpt>
      <trkpt lat="45.06242" lon="5.9177">
        <ele>1847.2</ele>
        <time>2020-07-12T09:00:16 02:00</time>
      </trkpt>
      <trkpt lat="45.06242" lon="5.91771">
        <ele>1847.4</ele>
        <time>2020-07-12T09:00:17 02:00</time>
      </trkpt>
      <trkpt lat="45.06245" lon="5.91772">
        <ele>1847.8</ele>
        <time>2020-07-12T09:00:20 02:00</time>
      </trkpt>
      <trkpt lat="45.06247" lon="5.91774">
        <ele>1848.2</ele>
        <time>2020-07-12T09:00:23 02:00</time>
      </trkpt>
      <trkpt lat="45.06249" lon="5.91775">
        <ele>1848.6</ele>
        <time>2020-07-12T09:00:24 02:00</time>
      </trkpt>
      <trkpt lat="45.06252" lon="5.91775">
        <ele>1849.2</ele>
        <time>2020-07-12T09:00:27 02:00</time>
      </trkpt>
      <trkpt lat="45.06252" lon="5.91777">
        <ele>1849.8</ele>
        <time>2020-07-12T09:00:29 02:00</time>
      </trkpt>
      <trkpt lat="45.06255" lon="5.91778">
        <ele>1850.4</ele>
        <time>2020-07-12T09:00:32 02:00</time>
      </trkpt>
      <trkpt lat="45.06255" lon="5.91779">
        <ele>1851</ele>
        <time>2020-07-12T09:00:33 02:00</time>
      </trkpt>
      <trkpt lat="45.06256" lon="5.9178">
        <ele>1851.6</ele>
        <time>2020-07-12T09:00:34 02:00</time>
      </trkpt>
      <trkpt lat="45.06259" lon="5.91782">
        <ele>1852.2</ele>
        <time>2020-07-12T09:00:37 02:00</time>
      </trkpt>
      <trkpt lat="45.0626" lon="5.91783">
        <ele>1852.8</ele>
        <time>2020-07-12T09:00:38 02:00</time>
      </trkpt>
      <trkpt lat="45.06261" lon="5.91784">
        <ele>1853.2</ele>
        <time>2020-07-12T09:00:39 02:00</time>
      </trkpt>
      <trkpt lat="45.06262" lon="5.91787">
        <ele>1853.6</ele>
        <time>2020-07-12T09:00:42 02:00</time>
      </trkpt>
      <trkpt lat="45.06264" lon="5.9179">
        <ele>1854</ele>
        <time>2020-07-12T09:00:45 02:00</time>
      </trkpt>
      <trkpt lat="45.06265" lon="5.91794">
        <ele>1853.8</ele>
        <time>2020-07-12T09:00:48 02:00</time>
      </trkpt>
      <trkpt lat="45.06267" lon="5.91797">
        <ele>1853.4</ele>
        <time>2020-07-12T09:00:51 02:00</time>
      </trkpt>
      <trkpt lat="45.06269" lon="5.91801">
        <ele>1853.2</ele>
        <time>2020-07-12T09:00:54 02:00</time>
      </trkpt>
      <trkpt lat="45.06272" lon="5.91803">
        <ele>1853.2</ele>
        <time>2020-07-12T09:00:57 02:00</time>
      </trkpt>
      <trkpt lat="45.06274" lon="5.91805">
        <ele>1853.6</ele>
        <time>2020-07-12T09:01:00 02:00</time>
      </trkpt>
      <trkpt lat="45.06277" lon="5.91807">
        <ele>1853.8</ele>
        <time>2020-07-12T09:01:05 02:00</time>
      </trkpt>
      <trkpt lat="45.06278" lon="5.91808">
        <ele>1854.2</ele>
        <time>2020-07-12T09:01:06 02:00</time>
      </trkpt>
      <trkpt lat="45.0628" lon="5.91811">
        <ele>1854.6</ele>
        <time>2020-07-12T09:01:08 02:00</time>
      </trkpt>
      <trkpt lat="45.06282" lon="5.91814">
        <ele>1854.8</ele>
        <time>2020-07-12T09:01:12 02:00</time>
      </trkpt>
      <trkpt lat="45.06284" lon="5.91817">
        <ele>1854.8</ele>
        <time>2020-07-12T09:01:15 02:00</time>
      </trkpt>
      <trkpt lat="45.06286" lon="5.9182">
        <ele>1855</ele>
        <time>2020-07-12T09:01:18 02:00</time>
      </trkpt>
      <trkpt lat="45.06288" lon="5.91824">
        <ele>1855.4</ele>
        <time>2020-07-12T09:01:21 02:00</time>
      </trkpt>
      <trkpt lat="45.06289" lon="5.91825">
        <ele>1855.6</ele>
        <time>2020-07-12T09:01:22 02:00</time>
      </trkpt>
      <trkpt lat="45.06292" lon="5.91829">
        <ele>1855.6</ele>
        <time>2020-07-12T09:01:28 02:00</time>
      </trkpt>
      <trkpt lat="45.06294" lon="5.91832">
        <ele>1855.6</ele>
        <time>2020-07-12T09:01:31 02:00</time>
      </trkpt>
      <trkpt lat="45.06297" lon="5.91835">
        <ele>1855.8</ele>
        <time>2020-07-12T09:01:34 02:00</time>
      </trkpt>
      <trkpt lat="45.06297" lon="5.91836">
        <ele>1855.8</ele>
        <time>2020-07-12T09:01:36 02:00</time>
      </trkpt>
      <trkpt lat="45.06299" lon="5.91839">
        <ele>1855.8</ele>
        <time>2020-07-12T09:01:40 02:00</time>
      </trkpt>
      <trkpt lat="45.06302" lon="5.91843">
        <ele>1856</ele>
        <time>2020-07-12T09:01:44 02:00</time>
      </trkpt>
      <trkpt lat="45.06304" lon="5.91846">
        <ele>1856.2</ele>
        <time>2020-07-12T09:01:47 02:00</time>
      </trkpt>
      <trkpt lat="45.06307" lon="5.91849">
        <ele>1856.2</ele>
        <time>2020-07-12T09:01:50 02:00</time>
      </trkpt>
      <trkpt lat="45.06309" lon="5.91852">
        <ele>1856.4</ele>
        <time>2020-07-12T09:01:53 02:00</time>
      </trkpt>
      <trkpt lat="45.06311" lon="5.91854">
        <ele>1856.6</ele>
        <time>2020-07-12T09:01:56 02:00</time>
      </trkpt>
      <trkpt lat="45.06315" lon="5.91857">
        <ele>1856.8</ele>
        <time>2020-07-12T09:02:00 02:00</time>
      </trkpt>
      <trkpt lat="45.06316" lon="5.9186">
        <ele>1857</ele>
        <time>2020-07-12T09:02:03 02:00</time>
      </trkpt>
      <trkpt lat="45.06319" lon="5.91862">
        <ele>1857.6</ele>
        <time>2020-07-12T09:02:07 02:00</time>
      </trkpt>
      <trkpt lat="45.06322" lon="5.91864">
        <ele>1858</ele>
        <time>2020-07-12T09:02:10 02:00</time>
      </trkpt>
      <trkpt lat="45.06325" lon="5.91867">
        <ele>1858.4</ele>
        <time>2020-07-12T09:02:14 02:00</time>
      </trkpt>
      <trkpt lat="45.06327" lon="5.91869">
        <ele>1859</ele>
        <time>2020-07-12T09:02:17 02:00</time>
      </trkpt>
      <trkpt lat="45.0633" lon="5.91871">
        <ele>1859.4</ele>
        <time>2020-07-12T09:02:19 02:00</time>
      </trkpt>
      <trkpt lat="45.06331" lon="5.91871">
        <ele>1859.8</ele>
        <time>2020-07-12T09:02:20 02:00</time>
      </trkpt>
      <trkpt lat="45.06332" lon="5.91873">
        <ele>1860.2</ele>
        <time>2020-07-12T09:02:22 02:00</time>
      </trkpt>
      <trkpt lat="45.06335" lon="5.91877">
        <ele>1860.6</ele>
        <time>2020-07-12T09:02:27 02:00</time>
      </trkpt>
      <trkpt lat="45.06334" lon="5.91879">
        <ele>1861</ele>
        <time>2020-07-12T09:02:29 02:00</time>
      </trkpt>
      <trkpt lat="45.06334" lon="5.91881">
        <ele>1861.2</ele>
        <time>2020-07-12T09:03:28 02:00</time>
      </trkpt>
      <trkpt lat="45.06335" lon="5.91882">
        <ele>1861.2</ele>
        <time>2020-07-12T09:03:30 02:00</time>
      </trkpt>
      <trkpt lat="45.06337" lon="5.91881">
        <ele>1861.2</ele>
        <time>2020-07-12T09:03:43 02:00</time>
      </trkpt>
      <trkpt lat="45.06339" lon="5.91885">
        <ele>1861.2</ele>
        <time>2020-07-12T09:03:46 02:00</time>
      </trkpt>
      <trkpt lat="45.06341" lon="5.91889">
        <ele>1861.2</ele>
        <time>2020-07-12T09:03:50 02:00</time>
      </trkpt>
      <trkpt lat="45.06341" lon="5.91891">
        <ele>1861.4</ele>
        <time>2020-07-12T09:03:52 02:00</time>
      </trkpt>
      <trkpt lat="45.06342" lon="5.91892">
        <ele>1861.6</ele>
        <time>2020-07-12T09:03:53 02:00</time>
      </trkpt>
      <trkpt lat="45.06342" lon="5.91893">
        <ele>1862</ele>
        <time>2020-07-12T09:03:54 02:00</time>
      </trkpt>
      <trkpt lat="45.06342" lon="5.91894">
        <ele>1862.4</ele>
        <time>2020-07-12T09:03:56 02:00</time>
      </trkpt>
      <trkpt lat="45.06343" lon="5.91898">
        <ele>1862.4</ele>
        <time>2020-07-12T09:04:00 02:00</time>
      </trkpt>
      <trkpt lat="45.06345" lon="5.91902">
        <ele>1862.6</ele>
        <time>2020-07-12T09:04:03 02:00</time>
      </trkpt>
      <trkpt lat="45.06347" lon="5.91904">
        <ele>1862.8</ele>
        <time>2020-07-12T09:04:06 02:00</time>
      </trkpt>
      <trkpt lat="45.06348" lon="5.91904">
        <ele>1862.8</ele>
        <time>2020-07-12T09:04:07 02:00</time>
      </trkpt>
      <trkpt lat="45.0635" lon="5.91907">
        <ele>1863</ele>
        <time>2020-07-12T09:04:10 02:00</time>
      </trkpt>
      <trkpt lat="45.0635" lon="5.91908">
        <ele>1863.4</ele>
        <time>2020-07-12T09:04:11 02:00</time>
      </trkpt>
      <trkpt lat="45.0635" lon="5.91909">
        <ele>1863.6</ele>
        <time>2020-07-12T09:04:12 02:00</time>
      </trkpt>
      <trkpt lat="45.06352" lon="5.9191">
        <ele>1863.8</ele>
        <time>2020-07-12T09:04:14 02:00</time>
      </trkpt>
      <trkpt lat="45.06352" lon="5.91911">
        <ele>1864.2</ele>
        <time>2020-07-12T09:04:15 02:00</time>
      </trkpt>
      <trkpt lat="45.06353" lon="5.91912">
        <ele>1864.4</ele>
        <time>2020-07-12T09:04:17 02:00</time>
      </trkpt>
      <trkpt lat="45.06354" lon="5.91913">
        <ele>1864.6</ele>
        <time>2020-07-12T09:04:18 02:00</time>
      </trkpt>
      <trkpt lat="45.06357" lon="5.91916">
        <ele>1865</ele>
        <time>2020-07-12T09:04:22 02:00</time>
      </trkpt>
      <trkpt lat="45.0636" lon="5.91918">
        <ele>1865.4</ele>
        <time>2020-07-12T09:04:26 02:00</time>
      </trkpt>
      <trkpt lat="45.06363" lon="5.91918">
        <ele>1865.6</ele>
        <time>2020-07-12T09:04:30 02:00</time>
      </trkpt>
      <trkpt lat="45.06366" lon="5.9192">
        <ele>1866.2</ele>
        <time>2020-07-12T09:04:33 02:00</time>
      </trkpt>
      <trkpt lat="45.06369" lon="5.91921">
        <ele>1866.6</ele>
        <time>2020-07-12T09:04:36 02:00</time>
      </trkpt>
      <trkpt lat="45.0637" lon="5.91922">
        <ele>1866.8</ele>
        <time>2020-07-12T09:04:37 02:00</time>
      </trkpt>
      <trkpt lat="45.06371" lon="5.91922">
        <ele>1867</ele>
        <time>2020-07-12T09:04:38 02:00</time>
      </trkpt>
      <trkpt lat="45.06373" lon="5.91923">
        <ele>1867.2</ele>
        <time>2020-07-12T09:04:41 02:00</time>
      </trkpt>
      <trkpt lat="45.06375" lon="5.91924">
        <ele>1867.2</ele>
        <time>2020-07-12T09:04:44 02:00</time>
      </trkpt>
      <trkpt lat="45.06376" lon="5.91924">
        <ele>1867.6</ele>
        <time>2020-07-12T09:04:45 02:00</time>
      </trkpt>
      <trkpt lat="45.06379" lon="5.91927">
        <ele>1867.8</ele>
        <time>2020-07-12T09:04:49 02:00</time>
      </trkpt>
      <trkpt lat="45.06382" lon="5.9193">
        <ele>1868</ele>
        <time>2020-07-12T09:04:53 02:00</time>
      </trkpt>
      <trkpt lat="45.06384" lon="5.91933">
        <ele>1868.2</ele>
        <time>2020-07-12T09:04:57 02:00</time>
      </trkpt>
      <trkpt lat="45.06385" lon="5.91933">
        <ele>1868</ele>
        <time>2020-07-12T09:04:58 02:00</time>
      </trkpt>
      <trkpt lat="45.06385" lon="5.91934">
        <ele>1867.6</ele>
        <time>2020-07-12T09:05:14 02:00</time>
      </trkpt>
      <trkpt lat="45.06387" lon="5.91936">
        <ele>1867.4</ele>
        <time>2020-07-12T09:05:16 02:00</time>
      </trkpt>
      <trkpt lat="45.0639" lon="5.91938">
        <ele>1867.4</ele>
        <time>2020-07-12T09:05:21 02:00</time>
      </trkpt>
      <trkpt lat="45.06392" lon="5.91941">
        <ele>1867.6</ele>
        <time>2020-07-12T09:05:24 02:00</time>
      </trkpt>
      <trkpt lat="45.06392" lon="5.91941">
        <ele>1868</ele>
        <time>2020-07-12T09:05:25 02:00</time>
      </trkpt>
      <trkpt lat="45.06393" lon="5.91943">
        <ele>1868.4</ele>
        <time>2020-07-12T09:05:26 02:00</time>
      </trkpt>
      <trkpt lat="45.06394" lon="5.91944">
        <ele>1869</ele>
        <time>2020-07-12T09:05:28 02:00</time>
      </trkpt>
      <trkpt lat="45.06395" lon="5.91945">
        <ele>1869.4</ele>
        <time>2020-07-12T09:05:29 02:00</time>
      </trkpt>
      <trkpt lat="45.06396" lon="5.91946">
        <ele>1869.6</ele>
        <time>2020-07-12T09:05:30 02:00</time>
      </trkpt>
      <trkpt lat="45.06396" lon="5.91946">
        <ele>1869.8</ele>
        <time>2020-07-12T09:05:31 02:00</time>
      </trkpt>
      <trkpt lat="45.06398" lon="5.9195">
        <ele>1870</ele>
        <time>2020-07-12T09:05:34 02:00</time>
      </trkpt>
      <trkpt lat="45.06399" lon="5.9195">
        <ele>1870.2</ele>
        <time>2020-07-12T09:05:35 02:00</time>
      </trkpt>
      <trkpt lat="45.06401" lon="5.91951">
        <ele>1870.2</ele>
        <time>2020-07-12T09:05:37 02:00</time>
      </trkpt>
      <trkpt lat="45.06401" lon="5.91952">
        <ele>1870.2</ele>
        <time>2020-07-12T09:05:38 02:00</time>
      </trkpt>
      <trkpt lat="45.06404" lon="5.91955">
        <ele>1870.4</ele>
        <time>2020-07-12T09:05:42 02:00</time>
      </trkpt>
      <trkpt lat="45.06408" lon="5.91957">
        <ele>1870.6</ele>
        <time>2020-07-12T09:05:45 02:00</time>
      </trkpt>
      <trkpt lat="45.0641" lon="5.91961">
        <ele>1870.8</ele>
        <time>2020-07-12T09:05:47 02:00</time>
      </trkpt>
      <trkpt lat="45.06413" lon="5.91964">
        <ele>1871.2</ele>
        <time>2020-07-12T09:05:51 02:00</time>
      </trkpt>
      <trkpt lat="45.06416" lon="5.91966">
        <ele>1871.4</ele>
        <time>2020-07-12T09:05:54 02:00</time>
      </trkpt>
      <trkpt lat="45.06418" lon="5.91967">
        <ele>1871.6</ele>
        <time>2020-07-12T09:05:57 02:00</time>
      </trkpt>
      <trkpt lat="45.06421" lon="5.91969">
        <ele>1871.6</ele>
        <time>2020-07-12T09:06:00 02:00</time>
      </trkpt>
      <trkpt lat="45.06424" lon="5.91969">
        <ele>1871.4</ele>
        <time>2020-07-12T09:06:03 02:00</time>
      </trkpt>
      <trkpt lat="45.06427" lon="5.91971">
        <ele>1871.4</ele>
        <time>2020-07-12T09:06:05 02:00</time>
      </trkpt>
      <trkpt lat="45.06429" lon="5.91972">
        <ele>1871.6</ele>
        <time>2020-07-12T09:06:07 02:00</time>
      </trkpt>
      <trkpt lat="45.06429" lon="5.91972">
        <ele>1871.6</ele>
        <time>2020-07-12T09:06:08 02:00</time>
      </trkpt>
      <trkpt lat="45.06432" lon="5.91973">
        <ele>1871.8</ele>
        <time>2020-07-12T09:06:11 02:00</time>
      </trkpt>
      <trkpt lat="45.06434" lon="5.91974">
        <ele>1871.8</ele>
        <time>2020-07-12T09:06:14 02:00</time>
      </trkpt>
      <trkpt lat="45.06436" lon="5.91975">
        <ele>1871.6</ele>
        <time>2020-07-12T09:06:15 02:00</time>
      </trkpt>
      <trkpt lat="45.06437" lon="5.91975">
        <ele>1871.2</ele>
        <time>2020-07-12T09:06:16 02:00</time>
      </trkpt>
      <trkpt lat="45.06439" lon="5.91976">
        <ele>1870.8</ele>
        <time>2020-07-12T09:06:19 02:00</time>
      </trkpt>
      <trkpt lat="45.0644" lon="5.91977">
        <ele>1870.4</ele>
        <time>2020-07-12T09:06:20 02:00</time>
      </trkpt>
      <trkpt lat="45.06442" lon="5.91979">
        <ele>1870.2</ele>
        <time>2020-07-12T09:06:23 02:00</time>
      </trkpt>
      <trkpt lat="45.06444" lon="5.91979">
        <ele>1870</ele>
        <time>2020-07-12T09:06:25 02:00</time>
      </trkpt>
      <trkpt lat="45.06447" lon="5.91984">
        <ele>1869.8</ele>
        <time>2020-07-12T09:06:29 02:00</time>
      </trkpt>
      <trkpt lat="45.06449" lon="5.91987">
        <ele>1869.6</ele>
        <time>2020-07-12T09:06:32 02:00</time>
      </trkpt>
      <trkpt lat="45.0645" lon="5.91987">
        <ele>1869.2</ele>
        <time>2020-07-12T09:06:33 02:00</time>
      </trkpt>
      <trkpt lat="45.06453" lon="5.91991">
        <ele>1868.8</ele>
        <time>2020-07-12T09:06:36 02:00</time>
      </trkpt>
      <trkpt lat="45.06455" lon="5.91995">
        <ele>1868.2</ele>
        <time>2020-07-12T09:06:41 02:00</time>
      </trkpt>
      <trkpt lat="45.06456" lon="5.91994">
        <ele>1867.8</ele>
        <time>2020-07-12T09:06:42 02:00</time>
      </trkpt>
      <trkpt lat="45.06459" lon="5.91997">
        <ele>1867.2</ele>
        <time>2020-07-12T09:06:49 02:00</time>
      </trkpt>
      <trkpt lat="45.06461" lon="5.92002">
        <ele>1866.8</ele>
        <time>2020-07-12T09:06:53 02:00</time>
      </trkpt>
      <trkpt lat="45.06464" lon="5.92004">
        <ele>1866.4</ele>
        <time>2020-07-12T09:06:56 02:00</time>
      </trkpt>
      <trkpt lat="45.06467" lon="5.92006">
        <ele>1866.2</ele>
        <time>2020-07-12T09:06:59 02:00</time>
      </trkpt>
      <trkpt lat="45.0647" lon="5.92008">
        <ele>1865.6</ele>
        <time>2020-07-12T09:07:02 02:00</time>
      </trkpt>
      <trkpt lat="45.06474" lon="5.9201">
        <ele>1865.4</ele>
        <time>2020-07-12T09:07:05 02:00</time>
      </trkpt>
      <trkpt lat="45.06477" lon="5.92011">
        <ele>1865.4</ele>
        <time>2020-07-12T09:07:08 02:00</time>
      </trkpt>
      <trkpt lat="45.0648" lon="5.92013">
        <ele>1865.2</ele>
        <time>2020-07-12T09:07:10 02:00</time>
      </trkpt>
      <trkpt lat="45.06483" lon="5.92015">
        <ele>1865</ele>
        <time>2020-07-12T09:07:13 02:00</time>
      </trkpt>
      <trkpt lat="45.06485" lon="5.92017">
        <ele>1865</ele>
        <time>2020-07-12T09:07:16 02:00</time>
      </trkpt>
      <trkpt lat="45.06486" lon="5.92017">
        <ele>1864.8</ele>
        <time>2020-07-12T09:07:17 02:00</time>
      </trkpt>
      <trkpt lat="45.06487" lon="5.92018">
        <ele>1864.2</ele>
        <time>2020-07-12T09:07:23 02:00</time>
      </trkpt>
      <trkpt lat="45.06488" lon="5.92019">
        <ele>1863.8</ele>
        <time>2020-07-12T09:07:25 02:00</time>
      </trkpt>
      <trkpt lat="45.0649" lon="5.92023">
        <ele>1863.4</ele>
        <time>2020-07-12T09:07:29 02:00</time>
      </trkpt>
      <trkpt lat="45.06492" lon="5.92024">
        <ele>1862.8</ele>
        <time>2020-07-12T09:07:32 02:00</time>
      </trkpt>
      <trkpt lat="45.06495" lon="5.92028">
        <ele>1861.8</ele>
        <time>2020-07-12T09:07:35 02:00</time>
      </trkpt>
      <trkpt lat="45.06497" lon="5.9203">
        <ele>1861.2</ele>
        <time>2020-07-12T09:07:38 02:00</time>
      </trkpt>
      <trkpt lat="45.065" lon="5.92032">
        <ele>1860.6</ele>
        <time>2020-07-12T09:07:41 02:00</time>
      </trkpt>
      <trkpt lat="45.06503" lon="5.92034">
        <ele>1860.2</ele>
        <time>2020-07-12T09:07:44 02:00</time>
      </trkpt>
      <trkpt lat="45.06507" lon="5.92036">
        <ele>1860.2</ele>
        <time>2020-07-12T09:07:47 02:00</time>
      </trkpt>
      <trkpt lat="45.0651" lon="5.92038">
        <ele>1860.8</ele>
        <time>2020-07-12T09:07:50 02:00</time>
      </trkpt>
      <trkpt lat="45.06513" lon="5.9204">
        <ele>1861.2</ele>
        <time>2020-07-12T09:07:52 02:00</time>
      </trkpt>
      <trkpt lat="45.06516" lon="5.92041">
        <ele>1861.6</ele>
        <time>2020-07-12T09:07:55 02:00</time>
      </trkpt>
      <trkpt lat="45.06519" lon="5.92044">
        <ele>1861.8</ele>
        <time>2020-07-12T09:07:58 02:00</time>
      </trkpt>
      <trkpt lat="45.06522" lon="5.92047">
        <ele>1862.2</ele>
        <time>2020-07-12T09:08:01 02:00</time>
      </trkpt>
      <trkpt lat="45.06526" lon="5.92048">
        <ele>1862.4</ele>
        <time>2020-07-12T09:08:04 02:00</time>
      </trkpt>
      <trkpt lat="45.06529" lon="5.92048">
        <ele>1862.6</ele>
        <time>2020-07-12T09:08:07 02:00</time>
      </trkpt>
      <trkpt lat="45.06532" lon="5.92047">
        <ele>1862.6</ele>
        <time>2020-07-12T09:08:10 02:00</time>
      </trkpt>
      <trkpt lat="45.06536" lon="5.92045">
        <ele>1862.6</ele>
        <time>2020-07-12T09:08:12 02:00</time>
      </trkpt>
      <trkpt lat="45.06538" lon="5.92044">
        <ele>1862.4</ele>
        <time>2020-07-12T09:08:15 02:00</time>
      </trkpt>
      <trkpt lat="45.06541" lon="5.92044">
        <ele>1862.4</ele>
        <time>2020-07-12T09:08:19 02:00</time>
      </trkpt>
      <trkpt lat="45.06545" lon="5.92044">
        <ele>1862.4</ele>
        <time>2020-07-12T09:08:23 02:00</time>
      </trkpt>
      <trkpt lat="45.06548" lon="5.92045">
        <ele>1862.6</ele>
        <time>2020-07-12T09:08:25 02:00</time>
      </trkpt>
      <trkpt lat="45.06551" lon="5.92048">
        <ele>1862.8</ele>
        <time>2020-07-12T09:08:29 02:00</time>
      </trkpt>
      <trkpt lat="45.06552" lon="5.92051">
        <ele>1863</ele>
        <time>2020-07-12T09:08:31 02:00</time>
      </trkpt>
      <trkpt lat="45.06553" lon="5.92053">
        <ele>1863</ele>
        <time>2020-07-12T09:08:33 02:00</time>
      </trkpt>
      <trkpt lat="45.06554" lon="5.92057">
        <ele>1863</ele>
        <time>2020-07-12T09:08:35 02:00</time>
      </trkpt>
      <trkpt lat="45.06556" lon="5.92062">
        <ele>1863</ele>
        <time>2020-07-12T09:08:38 02:00</time>
      </trkpt>
      <trkpt lat="45.06556" lon="5.92063">
        <ele>1863</ele>
        <time>2020-07-12T09:08:39 02:00</time>
      </trkpt>
      <trkpt lat="45.06558" lon="5.92065">
        <ele>1863.2</ele>
        <time>2020-07-12T09:08:41 02:00</time>
      </trkpt>
      <trkpt lat="45.0656" lon="5.9207">
        <ele>1863.4</ele>
        <time>2020-07-12T09:08:44 02:00</time>
      </trkpt>
      <trkpt lat="45.06562" lon="5.92074">
        <ele>1863.6</ele>
        <time>2020-07-12T09:08:47 02:00</time>
      </trkpt>
      <trkpt lat="45.06564" lon="5.92077">
        <ele>1863.8</ele>
        <time>2020-07-12T09:08:49 02:00</time>
      </trkpt>
      <trkpt lat="45.06566" lon="5.92081">
        <ele>1864.2</ele>
        <time>2020-07-12T09:08:52 02:00</time>
      </trkpt>
      <trkpt lat="45.06571" lon="5.92088">
        <ele>1865.2</ele>
        <time>2020-07-12T09:09:02 02:00</time>
      </trkpt>
      <trkpt lat="45.06571" lon="5.92088">
        <ele>1866.2</ele>
        <time>2020-07-12T09:09:03 02:00</time>
      </trkpt>
      <trkpt lat="45.06576" lon="5.92087">
        <ele>1867</ele>
        <time>2020-07-12T09:09:08 02:00</time>
      </trkpt>
      <trkpt lat="45.06578" lon="5.92086">
        <ele>1867.8</ele>
        <time>2020-07-12T09:09:11 02:00</time>
      </trkpt>
      <trkpt lat="45.0658" lon="5.92086">
        <ele>1868.4</ele>
        <time>2020-07-12T09:09:12 02:00</time>
      </trkpt>
      <trkpt lat="45.06582" lon="5.92084">
        <ele>1867.8</ele>
        <time>2020-07-12T09:09:14 02:00</time>
      </trkpt>
      <trkpt lat="45.06582" lon="5.92083">
        <ele>1867.4</ele>
        <time>2020-07-12T09:09:15 02:00</time>
      </trkpt>
      <trkpt lat="45.06587" lon="5.92083">
        <ele>1867.4</ele>
        <time>2020-07-12T09:09:18 02:00</time>
      </trkpt>
      <trkpt lat="45.0659" lon="5.92084">
        <ele>1867.4</ele>
        <time>2020-07-12T09:09:20 02:00</time>
      </trkpt>
      <trkpt lat="45.06591" lon="5.92084">
        <ele>1867.4</ele>
        <time>2020-07-12T09:09:22 02:00</time>
      </trkpt>
      <trkpt lat="45.06603" lon="5.92086">
        <ele>1868</ele>
        <time>2020-07-12T09:09:44 02:00</time>
      </trkpt>
      <trkpt lat="45.06604" lon="5.92088">
        <ele>1868.6</ele>
        <time>2020-07-12T09:09:46 02:00</time>
      </trkpt>
      <trkpt lat="45.06605" lon="5.92091">
        <ele>1869.2</ele>
        <time>2020-07-12T09:09:49 02:00</time>
      </trkpt>
      <trkpt lat="45.06605" lon="5.92091">
        <ele>1869.8</ele>
        <time>2020-07-12T09:09:50 02:00</time>
      </trkpt>
      <trkpt lat="45.06607" lon="5.92094">
        <ele>1870.6</ele>
        <time>2020-07-12T09:09:55 02:00</time>
      </trkpt>
      <trkpt lat="45.06608" lon="5.92095">
        <ele>1871</ele>
        <time>2020-07-12T09:09:56 02:00</time>
      </trkpt>
      <trkpt lat="45.06614" lon="5.92102">
        <ele>1871.8</ele>
        <time>2020-07-12T09:10:06 02:00</time>
      </trkpt>
      <trkpt lat="45.06618" lon="5.92103">
        <ele>1872.6</ele>
        <time>2020-07-12T09:10:09 02:00</time>
      </trkpt>
      <trkpt lat="45.0662" lon="5.92105">
        <ele>1873.4</ele>
        <time>2020-07-12T09:10:12 02:00</time>
      </trkpt>
      <trkpt lat="45.06622" lon="5.92108">
        <ele>1874.2</ele>
        <time>2020-07-12T09:10:15 02:00</time>
      </trkpt>
      <trkpt lat="45.06625" lon="5.92109">
        <ele>1875.2</ele>
        <time>2020-07-12T09:10:18 02:00</time>
      </trkpt>
      <trkpt lat="45.06628" lon="5.9211">
        <ele>1875.4</ele>
        <time>2020-07-12T09:10:21 02:00</time>
      </trkpt>
      <trkpt lat="45.06631" lon="5.92112">
        <ele>1875.4</ele>
        <time>2020-07-12T09:10:24 02:00</time>
      </trkpt>
      <trkpt lat="45.06634" lon="5.92113">
        <ele>1875.2</ele>
        <time>2020-07-12T09:10:26 02:00</time>
      </trkpt>
      <trkpt lat="45.06634" lon="5.92114">
        <ele>1874.8</ele>
        <time>2020-07-12T09:10:27 02:00</time>
      </trkpt>
      <trkpt lat="45.06636" lon="5.92118">
        <ele>1874.4</ele>
        <time>2020-07-12T09:10:31 02:00</time>
      </trkpt>
      <trkpt lat="45.06638" lon="5.9212">
        <ele>1874.2</ele>
        <time>2020-07-12T09:10:34 02:00</time>
      </trkpt>
      <trkpt lat="45.06638" lon="5.9212">
        <ele>1874.2</ele>
        <time>2020-07-12T09:10:35 02:00</time>
      </trkpt>
      <trkpt lat="45.06642" lon="5.92121">
        <ele>1874.4</ele>
        <time>2020-07-12T09:10:38 02:00</time>
      </trkpt>
      <trkpt lat="45.06645" lon="5.92121">
        <ele>1874.6</ele>
        <time>2020-07-12T09:10:41 02:00</time>
      </trkpt>
      <trkpt lat="45.06648" lon="5.92124">
        <ele>1874.8</ele>
        <time>2020-07-12T09:10:44 02:00</time>
      </trkpt>
      <trkpt lat="45.06648" lon="5.92124">
        <ele>1875</ele>
        <time>2020-07-12T09:10:45 02:00</time>
      </trkpt>
      <trkpt lat="45.06649" lon="5.92125">
        <ele>1875</ele>
        <time>2020-07-12T09:10:46 02:00</time>
      </trkpt>
      <trkpt lat="45.06651" lon="5.92126">
        <ele>1875</ele>
        <time>2020-07-12T09:10:48 02:00</time>
      </trkpt>
      <trkpt lat="45.06651" lon="5.92126">
        <ele>1875</ele>
        <time>2020-07-12T09:10:49 02:00</time>
      </trkpt>
      <trkpt lat="45.06653" lon="5.92127">
        <ele>1875</ele>
        <time>2020-07-12T09:10:50 02:00</time>
      </trkpt>
      <trkpt lat="45.06654" lon="5.92131">
        <ele>1875</ele>
        <time>2020-07-12T09:10:55 02:00</time>
      </trkpt>
      <trkpt lat="45.06655" lon="5.92134">
        <ele>1875</ele>
        <time>2020-07-12T09:10:57 02:00</time>
      </trkpt>
      <trkpt lat="45.06655" lon="5.92135">
        <ele>1875</ele>
        <time>2020-07-12T09:10:58 02:00</time>
      </trkpt>
      <trkpt lat="45.06656" lon="5.92136">
        <ele>1875</ele>
        <time>2020-07-12T09:10:59 02:00</time>
      </trkpt>
      <trkpt lat="45.06657" lon="5.92138">
        <ele>1875</ele>
        <time>2020-07-12T09:11:04 02:00</time>
      </trkpt>
      <trkpt lat="45.06659" lon="5.92139">
        <ele>1875.2</ele>
        <time>2020-07-12T09:11:05 02:00</time>
      </trkpt>
      <trkpt lat="45.06659" lon="5.9214">
        <ele>1875.4</ele>
        <time>2020-07-12T09:11:06 02:00</time>
      </trkpt>
      <trkpt lat="45.0666" lon="5.92141">
        <ele>1875.6</ele>
        <time>2020-07-12T09:11:07 02:00</time>
      </trkpt>
      <trkpt lat="45.06661" lon="5.92143">
        <ele>1876.2</ele>
        <time>2020-07-12T09:11:10 02:00</time>
      </trkpt>
      <trkpt lat="45.06661" lon="5.92144">
        <ele>1876.6</ele>
        <time>2020-07-12T09:11:11 02:00</time>
      </trkpt>
      <trkpt lat="45.06662" lon="5.92145">
        <ele>1876.8</ele>
        <time>2020-07-12T09:11:12 02:00</time>
      </trkpt>
      <trkpt lat="45.06663" lon="5.92148">
        <ele>1877.2</ele>
        <time>2020-07-12T09:11:14 02:00</time>
      </trkpt>
      <trkpt lat="45.06664" lon="5.9215">
        <ele>1877.4</ele>
        <time>2020-07-12T09:11:16 02:00</time>
      </trkpt>
      <trkpt lat="45.06665" lon="5.92151">
        <ele>1877.2</ele>
        <time>2020-07-12T09:11:17 02:00</time>
      </trkpt>
      <trkpt lat="45.06665" lon="5.92152">
        <ele>1877.2</ele>
        <time>2020-07-12T09:11:18 02:00</time>
      </trkpt>
      <trkpt lat="45.06667" lon="5.92153">
        <ele>1877.2</ele>
        <time>2020-07-12T09:11:20 02:00</time>
      </trkpt>
      <trkpt lat="45.06667" lon="5.92155">
        <ele>1877</ele>
        <time>2020-07-12T09:11:21 02:00</time>
      </trkpt>
      <trkpt lat="45.0667" lon="5.92157">
        <ele>1877.2</ele>
        <time>2020-07-12T09:11:24 02:00</time>
      </trkpt>
      <trkpt lat="45.06673" lon="5.92159">
        <ele>1877.6</ele>
        <time>2020-07-12T09:11:27 02:00</time>
      </trkpt>
      <trkpt lat="45.06673" lon="5.92159">
        <ele>1878</ele>
        <time>2020-07-12T09:11:28 02:00</time>
      </trkpt>
      <trkpt lat="45.06677" lon="5.9216">
        <ele>1878.6</ele>
        <time>2020-07-12T09:11:31 02:00</time>
      </trkpt>
      <trkpt lat="45.0668" lon="5.92161">
        <ele>1879.2</ele>
        <time>2020-07-12T09:11:35 02:00</time>
      </trkpt>
      <trkpt lat="45.06683" lon="5.92163">
        <ele>1879.6</ele>
        <time>2020-07-12T09:11:38 02:00</time>
      </trkpt>
      <trkpt lat="45.06686" lon="5.92165">
        <ele>1879.8</ele>
        <time>2020-07-12T09:11:41 02:00</time>
      </trkpt>
      <trkpt lat="45.06686" lon="5.92166">
        <ele>1879.8</ele>
        <time>2020-07-12T09:11:42 02:00</time>
      </trkpt>
      <trkpt lat="45.06689" lon="5.92167">
        <ele>1879.6</ele>
        <time>2020-07-12T09:11:45 02:00</time>
      </trkpt>
      <trkpt lat="45.06692" lon="5.92167">
        <ele>1879.4</ele>
        <time>2020-07-12T09:11:47 02:00</time>
      </trkpt>
      <trkpt lat="45.06694" lon="5.92168">
        <ele>1879.4</ele>
        <time>2020-07-12T09:11:51 02:00</time>
      </trkpt>
      <trkpt lat="45.06698" lon="5.9217">
        <ele>1879.2</ele>
        <time>2020-07-12T09:11:55 02:00</time>
      </trkpt>
      <trkpt lat="45.06698" lon="5.92171">
        <ele>1879</ele>
        <time>2020-07-12T09:11:57 02:00</time>
      </trkpt>
      <trkpt lat="45.06699" lon="5.92172">
        <ele>1878.8</ele>
        <time>2020-07-12T09:11:58 02:00</time>
      </trkpt>
      <trkpt lat="45.067" lon="5.92172">
        <ele>1878.6</ele>
        <time>2020-07-12T09:11:59 02:00</time>
      </trkpt>
      <trkpt lat="45.06702" lon="5.92175">
        <ele>1878.2</ele>
        <time>2020-07-12T09:12:02 02:00</time>
      </trkpt>
      <trkpt lat="45.06703" lon="5.92176">
        <ele>1878</ele>
        <time>2020-07-12T09:12:03 02:00</time>
      </trkpt>
      <trkpt lat="45.06703" lon="5.92177">
        <ele>1878</ele>
        <time>2020-07-12T09:12:04 02:00</time>
      </trkpt>
      <trkpt lat="45.06703" lon="5.92178">
        <ele>1878</ele>
        <time>2020-07-12T09:12:05 02:00</time>
      </trkpt>
      <trkpt lat="45.06704" lon="5.92182">
        <ele>1878</ele>
        <time>2020-07-12T09:12:09 02:00</time>
      </trkpt>
      <trkpt lat="45.06705" lon="5.92183">
        <ele>1877.8</ele>
        <time>2020-07-12T09:12:10 02:00</time>
      </trkpt>
      <trkpt lat="45.0671" lon="5.92195">
        <ele>1877.4</ele>
        <time>2020-07-12T09:12:28 02:00</time>
      </trkpt>
      <trkpt lat="45.06712" lon="5.92197">
        <ele>1877.2</ele>
        <time>2020-07-12T09:12:30 02:00</time>
      </trkpt>
      <trkpt lat="45.06713" lon="5.92199">
        <ele>1876.8</ele>
        <time>2020-07-12T09:12:33 02:00</time>
      </trkpt>
      <trkpt lat="45.06713" lon="5.92199">
        <ele>1876.2</ele>
        <time>2020-07-12T09:12:34 02:00</time>
      </trkpt>
      <trkpt lat="45.06714" lon="5.92203">
        <ele>1876.4</ele>
        <time>2020-07-12T09:12:38 02:00</time>
      </trkpt>
      <trkpt lat="45.06714" lon="5.92204">
        <ele>1876.8</ele>
        <time>2020-07-12T09:12:39 02:00</time>
      </trkpt>
      <trkpt lat="45.06716" lon="5.9221">
        <ele>1876.8</ele>
        <time>2020-07-12T09:12:44 02:00</time>
      </trkpt>
      <trkpt lat="45.06716" lon="5.92211">
        <ele>1877.2</ele>
        <time>2020-07-12T09:12:45 02:00</time>
      </trkpt>
      <trkpt lat="45.06722" lon="5.92216">
        <ele>1877.8</ele>
        <time>2020-07-12T09:13:01 02:00</time>
      </trkpt>
      <trkpt lat="45.06722" lon="5.92216">
        <ele>1877.8</ele>
        <time>2020-07-12T09:13:02 02:00</time>
      </trkpt>
      <trkpt lat="45.06724" lon="5.92213">
        <ele>1877.8</ele>
        <time>2020-07-12T09:13:05 02:00</time>
      </trkpt>
      <trkpt lat="45.06724" lon="5.92211">
        <ele>1878</ele>
        <time>2020-07-12T09:13:06 02:00</time>
      </trkpt>
      <trkpt lat="45.06725" lon="5.92208">
        <ele>1877.8</ele>
        <time>2020-07-12T09:13:09 02:00</time>
      </trkpt>
      <trkpt lat="45.06725" lon="5.92208">
        <ele>1877.6</ele>
        <time>2020-07-12T09:13:10 02:00</time>
      </trkpt>
      <trkpt lat="45.06729" lon="5.9222">
        <ele>1877.8</ele>
        <time>2020-07-12T09:13:24 02:00</time>
      </trkpt>
      <trkpt lat="45.06729" lon="5.92221">
        <ele>1878.2</ele>
        <time>2020-07-12T09:13:25 02:00</time>
      </trkpt>
      <trkpt lat="45.06729" lon="5.92222">
        <ele>1878.6</ele>
        <time>2020-07-12T09:13:43 02:00</time>
      </trkpt>
      <trkpt lat="45.06729" lon="5.92223">
        <ele>1879</ele>
        <time>2020-07-12T09:13:44 02:00</time>
      </trkpt>
      <trkpt lat="45.0673" lon="5.92225">
        <ele>1879.6</ele>
        <time>2020-07-12T09:13:46 02:00</time>
      </trkpt>
      <trkpt lat="45.0673" lon="5.92226">
        <ele>1879.8</ele>
        <time>2020-07-12T09:13:47 02:00</time>
      </trkpt>
      <trkpt lat="45.06732" lon="5.92228">
        <ele>1879.8</ele>
        <time>2020-07-12T09:13:50 02:00</time>
      </trkpt>
      <trkpt lat="45.06733" lon="5.92228">
        <ele>1879.8</ele>
        <time>2020-07-12T09:13:51 02:00</time>
      </trkpt>
      <trkpt lat="45.0674" lon="5.92235">
        <ele>1879.8</ele>
        <time>2020-07-12T09:14:12 02:00</time>
      </trkpt>
      <trkpt lat="45.06741" lon="5.92237">
        <ele>1879.8</ele>
        <time>2020-07-12T09:14:14 02:00</time>
      </trkpt>
      <trkpt lat="45.06743" lon="5.92241">
        <ele>1880</ele>
        <time>2020-07-12T09:14:19 02:00</time>
      </trkpt>
      <trkpt lat="45.06744" lon="5.92241">
        <ele>1880</ele>
        <time>2020-07-12T09:14:21 02:00</time>
      </trkpt>
      <trkpt lat="45.06752" lon="5.92248">
        <ele>1881.2</ele>
        <time>2020-07-12T09:14:43 02:00</time>
      </trkpt>
      <trkpt lat="45.06752" lon="5.92249">
        <ele>1882.6</ele>
        <time>2020-07-12T09:14:44 02:00</time>
      </trkpt>
      <trkpt lat="45.06757" lon="5.92277">
        <ele>1884.8</ele>
        <time>2020-07-12T09:15:16 02:00</time>
      </trkpt>
      <trkpt lat="45.06759" lon="5.92279">
        <ele>1886.8</ele>
        <time>2020-07-12T09:15:17 02:00</time>
      </trkpt>
      <trkpt lat="45.06762" lon="5.92284">
        <ele>1888.6</ele>
        <time>2020-07-12T09:15:23 02:00</time>
      </trkpt>
      <trkpt lat="45.06763" lon="5.92286">
        <ele>1889</ele>
        <time>2020-07-12T09:15:26 02:00</time>
      </trkpt>
      <trkpt lat="45.06776" lon="5.92319">
        <ele>1891.2</ele>
        <time>2020-07-12T09:16:14 02:00</time>
      </trkpt>
      <trkpt lat="45.06776" lon="5.9232">
        <ele>1892.4</ele>
        <time>2020-07-12T09:16:15 02:00</time>
      </trkpt>
      <trkpt lat="45.06775" lon="5.92321">
        <ele>1893.8</ele>
        <time>2020-07-12T09:16:16 02:00</time>
      </trkpt>
      <trkpt lat="45.06775" lon="5.92325">
        <ele>1895.6</ele>
        <time>2020-07-12T09:16:18 02:00</time>
      </trkpt>
      <trkpt lat="45.06774" lon="5.92334">
        <ele>1897.8</ele>
        <time>2020-07-12T09:16:36 02:00</time>
      </trkpt>
      <trkpt lat="45.06775" lon="5.92338">
        <ele>1898.4</ele>
        <time>2020-07-12T09:16:39 02:00</time>
      </trkpt>
      <trkpt lat="45.06773" lon="5.92343">
        <ele>1899</ele>
        <time>2020-07-12T09:16:42 02:00</time>
      </trkpt>
      <trkpt lat="45.06773" lon="5.92344">
        <ele>1899.4</ele>
        <time>2020-07-12T09:16:43 02:00</time>
      </trkpt>
      <trkpt lat="45.06771" lon="5.92345">
        <ele>1900</ele>
        <time>2020-07-12T09:16:45 02:00</time>
      </trkpt>
      <trkpt lat="45.06771" lon="5.92348">
        <ele>1900.4</ele>
        <time>2020-07-12T09:16:48 02:00</time>
      </trkpt>
      <trkpt lat="45.06773" lon="5.92344">
        <ele>1900.8</ele>
        <time>2020-07-12T09:17:35 02:00</time>
      </trkpt>
      <trkpt lat="45.06774" lon="5.92343">
        <ele>1901.2</ele>
        <time>2020-07-12T09:17:36 02:00</time>
      </trkpt>
      <trkpt lat="45.06774" lon="5.92342">
        <ele>1901.6</ele>
        <time>2020-07-12T09:17:37 02:00</time>
      </trkpt>
      <trkpt lat="45.06774" lon="5.92341">
        <ele>1902</ele>
        <time>2020-07-12T09:17:38 02:00</time>
      </trkpt>
      <trkpt lat="45.06775" lon="5.92339">
        <ele>1902.6</ele>
        <time>2020-07-12T09:17:40 02:00</time>
      </trkpt>
      <trkpt lat="45.06775" lon="5.92338">
        <ele>1902.8</ele>
        <time>2020-07-12T09:17:41 02:00</time>
      </trkpt>
      <trkpt lat="45.06775" lon="5.92336">
        <ele>1903.2</ele>
        <time>2020-07-12T09:17:42 02:00</time>
      </trkpt>
      <trkpt lat="45.06776" lon="5.92333">
        <ele>1903.6</ele>
        <time>2020-07-12T09:17:44 02:00</time>
      </trkpt>
      <trkpt lat="45.06777" lon="5.92331">
        <ele>1904</ele>
        <time>2020-07-12T09:17:46 02:00</time>
      </trkpt>
      <trkpt lat="45.06777" lon="5.92329">
        <ele>1904.2</ele>
        <time>2020-07-12T09:17:48 02:00</time>
      </trkpt>
      <trkpt lat="45.06777" lon="5.92328">
        <ele>1904.4</ele>
        <time>2020-07-12T09:17:49 02:00</time>
      </trkpt>
      <trkpt lat="45.06776" lon="5.92322">
        <ele>1904.6</ele>
        <time>2020-07-12T09:17:52 02:00</time>
      </trkpt>
      <trkpt lat="45.06775" lon="5.92318">
        <ele>1904.8</ele>
        <time>2020-07-12T09:17:56 02:00</time>
      </trkpt>
      <trkpt lat="45.06775" lon="5.92313">
        <ele>1904.8</ele>
        <time>2020-07-12T09:18:00 02:00</time>
      </trkpt>
      <trkpt lat="45.06776" lon="5.92309">
        <ele>1904.8</ele>
        <time>2020-07-12T09:18:04 02:00</time>
      </trkpt>
      <trkpt lat="45.06776" lon="5.92308">
        <ele>1904.8</ele>
        <time>2020-07-12T09:18:05 02:00</time>
      </trkpt>
      <trkpt lat="45.06776" lon="5.92306">
        <ele>1904.4</ele>
        <time>2020-07-12T09:18:07 02:00</time>
      </trkpt>
      <trkpt lat="45.06786" lon="5.92301">
        <ele>1904.2</ele>
        <time>2020-07-12T09:18:42 02:00</time>
      </trkpt>
      <trkpt lat="45.06786" lon="5.92302">
        <ele>1904</ele>
        <time>2020-07-12T09:18:43 02:00</time>
      </trkpt>
      <trkpt lat="45.06787" lon="5.92311">
        <ele>1904.6</ele>
        <time>2020-07-12T09:18:57 02:00</time>
      </trkpt>
      <trkpt lat="45.06787" lon="5.92312">
        <ele>1905.6</ele>
        <time>2020-07-12T09:18:58 02:00</time>
      </trkpt>
      <trkpt lat="45.06799" lon="5.92337">
        <ele>1907.8</ele>
        <time>2020-07-12T09:19:43 02:00</time>
      </trkpt>
      <trkpt lat="45.06799" lon="5.92338">
        <ele>1909.8</ele>
        <time>2020-07-12T09:19:44 02:00</time>
      </trkpt>
      <trkpt lat="45.06805" lon="5.92354">
        <ele>1912.6</ele>
        <time>2020-07-12T09:20:14 02:00</time>
      </trkpt>
      <trkpt lat="45.06805" lon="5.92355">
        <ele>1914.6</ele>
        <time>2020-07-12T09:20:15 02:00</time>
      </trkpt>
      <trkpt lat="45.06809" lon="5.9236">
        <ele>1916.6</ele>
        <time>2020-07-12T09:20:29 02:00</time>
      </trkpt>
      <trkpt lat="45.0681" lon="5.9236">
        <ele>1917.8</ele>
        <time>2020-07-12T09:20:31 02:00</time>
      </trkpt>
      <trkpt lat="45.06815" lon="5.92369">
        <ele>1920</ele>
        <time>2020-07-12T09:20:52 02:00</time>
      </trkpt>
      <trkpt lat="45.06816" lon="5.92367">
        <ele>1921.2</ele>
        <time>2020-07-12T09:20:54 02:00</time>
      </trkpt>
      <trkpt lat="45.06841" lon="5.92384">
        <ele>1925.4</ele>
        <time>2020-07-12T09:22:15 02:00</time>
      </trkpt>
      <trkpt lat="45.06841" lon="5.92385">
        <ele>1929.4</ele>
        <time>2020-07-12T09:22:16 02:00</time>
      </trkpt>
      <trkpt lat="45.06848" lon="5.92402">
        <ele>1933.8</ele>
        <time>2020-07-12T09:22:46 02:00</time>
      </trkpt>
      <trkpt lat="45.06849" lon="5.92403">
        <ele>1937.4</ele>
        <time>2020-07-12T09:22:48 02:00</time>
      </trkpt>
      <trkpt lat="45.06858" lon="5.92406">
        <ele>1942</ele>
        <time>2020-07-12T09:23:10 02:00</time>
      </trkpt>
      <trkpt lat="45.06858" lon="5.92407">
        <ele>1943.6</ele>
        <time>2020-07-12T09:23:11 02:00</time>
      </trkpt>
      <trkpt lat="45.0687" lon="5.92401">
        <ele>1946.2</ele>
        <time>2020-07-12T09:23:38 02:00</time>
      </trkpt>
      <trkpt lat="45.06873" lon="5.92402">
        <ele>1948.4</ele>
        <time>2020-07-12T09:23:41 02:00</time>
      </trkpt>
      <trkpt lat="45.06884" lon="5.924">
        <ele>1950.8</ele>
        <time>2020-07-12T09:24:13 02:00</time>
      </trkpt>
      <trkpt lat="45.06885" lon="5.924">
        <ele>1952.4</ele>
        <time>2020-07-12T09:24:14 02:00</time>
      </trkpt>
      <trkpt lat="45.06888" lon="5.92404">
        <ele>1953.6</ele>
        <time>2020-07-12T09:24:19 02:00</time>
      </trkpt>
      <trkpt lat="45.06891" lon="5.92405">
        <ele>1954</ele>
        <time>2020-07-12T09:24:22 02:00</time>
      </trkpt>
      <trkpt lat="45.06894" lon="5.92407">
        <ele>1954.2</ele>
        <time>2020-07-12T09:24:25 02:00</time>
      </trkpt>
      <trkpt lat="45.06894" lon="5.92407">
        <ele>1954</ele>
        <time>2020-07-12T09:24:26 02:00</time>
      </trkpt>
      <trkpt lat="45.06895" lon="5.92408">
        <ele>1953.8</ele>
        <time>2020-07-12T09:24:27 02:00</time>
      </trkpt>
      <trkpt lat="45.06895" lon="5.92408">
        <ele>1954</ele>
        <time>2020-07-12T09:24:28 02:00</time>
      </trkpt>
      <trkpt lat="45.06898" lon="5.92409">
        <ele>1954.2</ele>
        <time>2020-07-12T09:24:31 02:00</time>
      </trkpt>
      <trkpt lat="45.069" lon="5.92409">
        <ele>1954.2</ele>
        <time>2020-07-12T09:24:38 02:00</time>
      </trkpt>
      <trkpt lat="45.06903" lon="5.9241">
        <ele>1954.2</ele>
        <time>2020-07-12T09:24:42 02:00</time>
      </trkpt>
      <trkpt lat="45.06905" lon="5.92411">
        <ele>1954.2</ele>
        <time>2020-07-12T09:24:44 02:00</time>
      </trkpt>
      <trkpt lat="45.06906" lon="5.92411">
        <ele>1954.4</ele>
        <time>2020-07-12T09:24:45 02:00</time>
      </trkpt>
      <trkpt lat="45.06909" lon="5.92413">
        <ele>1954.4</ele>
        <time>2020-07-12T09:24:49 02:00</time>
      </trkpt>
      <trkpt lat="45.06912" lon="5.92414">
        <ele>1954.4</ele>
        <time>2020-07-12T09:24:53 02:00</time>
      </trkpt>
      <trkpt lat="45.06915" lon="5.92418">
        <ele>1954.2</ele>
        <time>2020-07-12T09:24:57 02:00</time>
      </trkpt>
      <trkpt lat="45.06915" lon="5.92419">
        <ele>1954</ele>
        <time>2020-07-12T09:24:59 02:00</time>
      </trkpt>
      <trkpt lat="45.06917" lon="5.92423">
        <ele>1953.8</ele>
        <time>2020-07-12T09:25:03 02:00</time>
      </trkpt>
      <trkpt lat="45.06917" lon="5.92423">
        <ele>1953.6</ele>
        <time>2020-07-12T09:25:04 02:00</time>
      </trkpt>
      <trkpt lat="45.06923" lon="5.92432">
        <ele>1954</ele>
        <time>2020-07-12T09:25:19 02:00</time>
      </trkpt>
      <trkpt lat="45.06923" lon="5.92433">
        <ele>1954.6</ele>
        <time>2020-07-12T09:25:20 02:00</time>
      </trkpt>
      <trkpt lat="45.06925" lon="5.92435">
        <ele>1955.2</ele>
        <time>2020-07-12T09:25:25 02:00</time>
      </trkpt>
      <trkpt lat="45.06926" lon="5.92436">
        <ele>1955.6</ele>
        <time>2020-07-12T09:25:26 02:00</time>
      </trkpt>
      <trkpt lat="45.06928" lon="5.9246">
        <ele>1956.8</ele>
        <time>2020-07-12T09:26:23 02:00</time>
      </trkpt>
      <trkpt lat="45.06928" lon="5.92462">
        <ele>1957.4</ele>
        <time>2020-07-12T09:26:24 02:00</time>
      </trkpt>
      <trkpt lat="45.06928" lon="5.92484">
        <ele>1958.2</ele>
        <time>2020-07-12T09:27:41 02:00</time>
      </trkpt>
      <trkpt lat="45.06929" lon="5.92485">
        <ele>1959</ele>
        <time>2020-07-12T09:27:42 02:00</time>
      </trkpt>
      <trkpt lat="45.06934" lon="5.92482">
        <ele>1959.8</ele>
        <time>2020-07-12T09:28:28 02:00</time>
      </trkpt>
      <trkpt lat="45.06933" lon="5.92479">
        <ele>1959.8</ele>
        <time>2020-07-12T09:28:31 02:00</time>
      </trkpt>
      <trkpt lat="45.06932" lon="5.92479">
        <ele>1960</ele>
        <time>2020-07-12T09:28:32 02:00</time>
      </trkpt>
      <trkpt lat="45.06932" lon="5.92478">
        <ele>1960</ele>
        <time>2020-07-12T09:28:33 02:00</time>
      </trkpt>
      <trkpt lat="45.06931" lon="5.9248">
        <ele>1960.4</ele>
        <time>2020-07-12T09:29:01 02:00</time>
      </trkpt>
      <trkpt lat="45.06932" lon="5.9248">
        <ele>1960.8</ele>
        <time>2020-07-12T09:29:02 02:00</time>
      </trkpt>
      <trkpt lat="45.06937" lon="5.92481">
        <ele>1961</ele>
        <time>2020-07-12T09:29:10 02:00</time>
      </trkpt>
      <trkpt lat="45.06939" lon="5.92482">
        <ele>1961.2</ele>
        <time>2020-07-12T09:29:11 02:00</time>
      </trkpt>
      <trkpt lat="45.06957" lon="5.92486">
        <ele>1959.8</ele>
        <time>2020-07-12T09:29:59 02:00</time>
      </trkpt>
      <trkpt lat="45.06958" lon="5.92486">
        <ele>1958.2</ele>
        <time>2020-07-12T09:30:00 02:00</time>
      </trkpt>
      <trkpt lat="45.06968" lon="5.925">
        <ele>1956.6</ele>
        <time>2020-07-12T09:30:24 02:00</time>
      </trkpt>
      <trkpt lat="45.0697" lon="5.925">
        <ele>1955.2</ele>
        <time>2020-07-12T09:30:25 02:00</time>
      </trkpt>
      <trkpt lat="45.06971" lon="5.92501">
        <ele>1953.6</ele>
        <time>2020-07-12T09:30:27 02:00</time>
      </trkpt>
      <trkpt lat="45.06971" lon="5.92502">
        <ele>1953.6</ele>
        <time>2020-07-12T09:30:28 02:00</time>
      </trkpt>
      <trkpt lat="45.06971" lon="5.92505">
        <ele>1953.4</ele>
        <time>2020-07-12T09:30:30 02:00</time>
      </trkpt>
      <trkpt lat="45.06972" lon="5.92506">
        <ele>1953.2</ele>
        <time>2020-07-12T09:30:31 02:00</time>
      </trkpt>
      <trkpt lat="45.06979" lon="5.92506">
        <ele>1953</ele>
        <time>2020-07-12T09:32:57 02:00</time>
      </trkpt>
      <trkpt lat="45.06981" lon="5.92508">
        <ele>1953.2</ele>
        <time>2020-07-12T09:32:59 02:00</time>
      </trkpt>
      <trkpt lat="45.06983" lon="5.92513">
        <ele>1953.4</ele>
        <time>2020-07-12T09:33:04 02:00</time>
      </trkpt>
      <trkpt lat="45.06986" lon="5.92515">
        <ele>1953.8</ele>
        <time>2020-07-12T09:33:07 02:00</time>
      </trkpt>
      <trkpt lat="45.06987" lon="5.92516">
        <ele>1954.6</ele>
        <time>2020-07-12T09:33:13 02:00</time>
      </trkpt>
      <trkpt lat="45.06987" lon="5.92517">
        <ele>1955.4</ele>
        <time>2020-07-12T09:33:14 02:00</time>
      </trkpt>
      <trkpt lat="45.0699" lon="5.9252">
        <ele>1956.2</ele>
        <time>2020-07-12T09:33:17 02:00</time>
      </trkpt>
      <trkpt lat="45.0699" lon="5.92521">
        <ele>1957</ele>
        <time>2020-07-12T09:33:18 02:00</time>
      </trkpt>
      <trkpt lat="45.06991" lon="5.92526">
        <ele>1958.2</ele>
        <time>2020-07-12T09:33:28 02:00</time>
      </trkpt>
      <trkpt lat="45.06992" lon="5.92526">
        <ele>1959</ele>
        <time>2020-07-12T09:33:29 02:00</time>
      </trkpt>
      <trkpt lat="45.06993" lon="5.92531">
        <ele>1960</ele>
        <time>2020-07-12T09:33:38 02:00</time>
      </trkpt>
      <trkpt lat="45.06993" lon="5.92532">
        <ele>1960.8</ele>
        <time>2020-07-12T09:33:39 02:00</time>
      </trkpt>
      <trkpt lat="45.06994" lon="5.92537">
        <ele>1962.2</ele>
        <time>2020-07-12T09:33:45 02:00</time>
      </trkpt>
      <trkpt lat="45.06994" lon="5.92538">
        <ele>1963</ele>
        <time>2020-07-12T09:33:46 02:00</time>
      </trkpt>
      <trkpt lat="45.06996" lon="5.92545">
        <ele>1964.2</ele>
        <time>2020-07-12T09:33:53 02:00</time>
      </trkpt>
      <trkpt lat="45.06997" lon="5.92545">
        <ele>1965.2</ele>
        <time>2020-07-12T09:33:54 02:00</time>
      </trkpt>
      <trkpt lat="45.06998" lon="5.92546">
        <ele>1966</ele>
        <time>2020-07-12T09:33:55 02:00</time>
      </trkpt>
      <trkpt lat="45.06999" lon="5.92545">
        <ele>1966.2</ele>
        <time>2020-07-12T09:33:56 02:00</time>
      </trkpt>
      <trkpt lat="45.07002" lon="5.92546">
        <ele>1966.2</ele>
        <time>2020-07-12T09:34:00 02:00</time>
      </trkpt>
      <trkpt lat="45.07003" lon="5.92546">
        <ele>1965.8</ele>
        <time>2020-07-12T09:34:01 02:00</time>
      </trkpt>
      <trkpt lat="45.07008" lon="5.92548">
        <ele>1965.2</ele>
        <time>2020-07-12T09:34:07 02:00</time>
      </trkpt>
      <trkpt lat="45.07008" lon="5.92548">
        <ele>1964.8</ele>
        <time>2020-07-12T09:34:08 02:00</time>
      </trkpt>
      <trkpt lat="45.0701" lon="5.92548">
        <ele>1964.4</ele>
        <time>2020-07-12T09:34:09 02:00</time>
      </trkpt>
      <trkpt lat="45.0701" lon="5.92549">
        <ele>1964</ele>
        <time>2020-07-12T09:34:10 02:00</time>
      </trkpt>
      <trkpt lat="45.07017" lon="5.92549">
        <ele>1964.2</ele>
        <time>2020-07-12T09:34:25 02:00</time>
      </trkpt>
      <trkpt lat="45.07018" lon="5.92549">
        <ele>1964.6</ele>
        <time>2020-07-12T09:34:26 02:00</time>
      </trkpt>
      <trkpt lat="45.07021" lon="5.92551">
        <ele>1964.8</ele>
        <time>2020-07-12T09:34:33 02:00</time>
      </trkpt>
      <trkpt lat="45.07022" lon="5.9255">
        <ele>1965.2</ele>
        <time>2020-07-12T09:34:34 02:00</time>
      </trkpt>
      <trkpt lat="45.07036" lon="5.92552">
        <ele>1966.6</ele>
        <time>2020-07-12T09:35:01 02:00</time>
      </trkpt>
      <trkpt lat="45.07038" lon="5.92552">
        <ele>1967.6</ele>
        <time>2020-07-12T09:35:04 02:00</time>
      </trkpt>
      <trkpt lat="45.07047" lon="5.92566">
        <ele>1969.6</ele>
        <time>2020-07-12T09:35:53 02:00</time>
      </trkpt>
      <trkpt lat="45.07047" lon="5.92566">
        <ele>1971.8</ele>
        <time>2020-07-12T09:35:54 02:00</time>
      </trkpt>
      <trkpt lat="45.07049" lon="5.92568">
        <ele>1973.8</ele>
        <time>2020-07-12T09:36:03 02:00</time>
      </trkpt>
      <trkpt lat="45.07049" lon="5.92569">
        <ele>1975.2</ele>
        <time>2020-07-12T09:36:04 02:00</time>
      </trkpt>
      <trkpt lat="45.07055" lon="5.92573">
        <ele>1976.6</ele>
        <time>2020-07-12T09:36:19 02:00</time>
      </trkpt>
      <trkpt lat="45.07053" lon="5.92574">
        <ele>1977</ele>
        <time>2020-07-12T09:36:20 02:00</time>
      </trkpt>
      <trkpt lat="45.07075" lon="5.92589">
        <ele>1979.4</ele>
        <time>2020-07-12T09:37:19 02:00</time>
      </trkpt>
      <trkpt lat="45.07074" lon="5.92589">
        <ele>1981.8</ele>
        <time>2020-07-12T09:37:20 02:00</time>
      </trkpt>
      <trkpt lat="45.07118" lon="5.92598">
        <ele>1987.2</ele>
        <time>2020-07-12T09:39:08 02:00</time>
      </trkpt>
      <trkpt lat="45.0712" lon="5.92599">
        <ele>1992.6</ele>
        <time>2020-07-12T09:39:09 02:00</time>
      </trkpt>
      <trkpt lat="45.07123" lon="5.92601">
        <ele>1998.2</ele>
        <time>2020-07-12T09:39:15 02:00</time>
      </trkpt>
      <trkpt lat="45.07126" lon="5.92602">
        <ele>2001.8</ele>
        <time>2020-07-12T09:39:18 02:00</time>
      </trkpt>
      <trkpt lat="45.07139" lon="5.92609">
        <ele>2006.2</ele>
        <time>2020-07-12T09:39:41 02:00</time>
      </trkpt>
      <trkpt lat="45.0714" lon="5.9261">
        <ele>2007.4</ele>
        <time>2020-07-12T09:39:42 02:00</time>
      </trkpt>
      <trkpt lat="45.07141" lon="5.9261">
        <ele>2008.6</ele>
        <time>2020-07-12T09:39:43 02:00</time>
      </trkpt>
      <trkpt lat="45.07142" lon="5.9261">
        <ele>2009.6</ele>
        <time>2020-07-12T09:39:44 02:00</time>
      </trkpt>
      <trkpt lat="45.07143" lon="5.92609">
        <ele>2010.6</ele>
        <time>2020-07-12T09:39:46 02:00</time>
      </trkpt>
      <trkpt lat="45.07145" lon="5.92609">
        <ele>2010.8</ele>
        <time>2020-07-12T09:39:47 02:00</time>
      </trkpt>
      <trkpt lat="45.07147" lon="5.9261">
        <ele>2011.2</ele>
        <time>2020-07-12T09:39:51 02:00</time>
      </trkpt>
      <trkpt lat="45.07148" lon="5.9261">
        <ele>2011.4</ele>
        <time>2020-07-12T09:39:52 02:00</time>
      </trkpt>
      <trkpt lat="45.07151" lon="5.92611">
        <ele>2011.6</ele>
        <time>2020-07-12T09:39:56 02:00</time>
      </trkpt>
      <trkpt lat="45.07153" lon="5.92612">
        <ele>2011.8</ele>
        <time>2020-07-12T09:39:58 02:00</time>
      </trkpt>
      <trkpt lat="45.07158" lon="5.92617">
        <ele>2012</ele>
        <time>2020-07-12T09:40:10 02:00</time>
      </trkpt>
      <trkpt lat="45.07158" lon="5.92617">
        <ele>2012</ele>
        <time>2020-07-12T09:40:11 02:00</time>
      </trkpt>
      <trkpt lat="45.07173" lon="5.92619">
        <ele>2012.8</ele>
        <time>2020-07-12T09:40:38 02:00</time>
      </trkpt>
      <trkpt lat="45.07174" lon="5.92619">
        <ele>2013.6</ele>
        <time>2020-07-12T09:40:39 02:00</time>
      </trkpt>
      <trkpt lat="45.07174" lon="5.92619">
        <ele>2014.4</ele>
        <time>2020-07-12T09:40:40 02:00</time>
      </trkpt>
      <trkpt lat="45.07176" lon="5.9262">
        <ele>2015.2</ele>
        <time>2020-07-12T09:40:42 02:00</time>
      </trkpt>
      <trkpt lat="45.07186" lon="5.92621">
        <ele>2016.8</ele>
        <time>2020-07-12T09:41:01 02:00</time>
      </trkpt>
      <trkpt lat="45.07186" lon="5.92621">
        <ele>2017.6</ele>
        <time>2020-07-12T09:41:02 02:00</time>
      </trkpt>
      <trkpt lat="45.07187" lon="5.92621">
        <ele>2018.8</ele>
        <time>2020-07-12T09:41:04 02:00</time>
      </trkpt>
      <trkpt lat="45.07188" lon="5.92621">
        <ele>2020</ele>
        <time>2020-07-12T09:41:05 02:00</time>
      </trkpt>
      <trkpt lat="45.0719" lon="5.92622">
        <ele>2021.2</ele>
        <time>2020-07-12T09:41:06 02:00</time>
      </trkpt>
      <trkpt lat="45.0719" lon="5.92622">
        <ele>2021.6</ele>
        <time>2020-07-12T09:41:07 02:00</time>
      </trkpt>
      <trkpt lat="45.07191" lon="5.92623">
        <ele>2022.2</ele>
        <time>2020-07-12T09:41:08 02:00</time>
      </trkpt>
      <trkpt lat="45.07195" lon="5.92623">
        <ele>2022.4</ele>
        <time>2020-07-12T09:41:11 02:00</time>
      </trkpt>
      <trkpt lat="45.07196" lon="5.92622">
        <ele>2022.6</ele>
        <time>2020-07-12T09:41:14 02:00</time>
      </trkpt>
      <trkpt lat="45.07214" lon="5.9263">
        <ele>2023.6</ele>
        <time>2020-07-12T09:41:42 02:00</time>
      </trkpt>
      <trkpt lat="45.07214" lon="5.92631">
        <ele>2024.6</ele>
        <time>2020-07-12T09:41:43 02:00</time>
      </trkpt>
      <trkpt lat="45.07221" lon="5.92635">
        <ele>2025.6</ele>
        <time>2020-07-12T09:41:57 02:00</time>
      </trkpt>
      <trkpt lat="45.07223" lon="5.92635">
        <ele>2026.6</ele>
        <time>2020-07-12T09:42:00 02:00</time>
      </trkpt>
      <trkpt lat="45.07231" lon="5.92638">
        <ele>2028</ele>
        <time>2020-07-12T09:42:14 02:00</time>
      </trkpt>
      <trkpt lat="45.07232" lon="5.92638">
        <ele>2028.6</ele>
        <time>2020-07-12T09:42:15 02:00</time>
      </trkpt>
      <trkpt lat="45.07235" lon="5.92639">
        <ele>2029.4</ele>
        <time>2020-07-12T09:42:18 02:00</time>
      </trkpt>
      <trkpt lat="45.07235" lon="5.92639">
        <ele>2030</ele>
        <time>2020-07-12T09:42:19 02:00</time>
      </trkpt>
      <trkpt lat="45.07235" lon="5.92639">
        <ele>2030.8</ele>
        <time>2020-07-12T09:42:21 02:00</time>
      </trkpt>
      <trkpt lat="45.07237" lon="5.92639">
        <ele>2031.2</ele>
        <time>2020-07-12T09:42:22 02:00</time>
      </trkpt>
      <trkpt lat="45.07253" lon="5.92647">
        <ele>2032.6</ele>
        <time>2020-07-12T09:42:59 02:00</time>
      </trkpt>
      <trkpt lat="45.07254" lon="5.92647">
        <ele>2033.8</ele>
        <time>2020-07-12T09:43:00 02:00</time>
      </trkpt>
      <trkpt lat="45.0727" lon="5.92651">
        <ele>2035.8</ele>
        <time>2020-07-12T09:43:35 02:00</time>
      </trkpt>
      <trkpt lat="45.0727" lon="5.92652">
        <ele>2037.8</ele>
        <time>2020-07-12T09:43:36 02:00</time>
      </trkpt>
      <trkpt lat="45.07272" lon="5.92653">
        <ele>2039.8</ele>
        <time>2020-07-12T09:43:45 02:00</time>
      </trkpt>
      <trkpt lat="45.07274" lon="5.92654">
        <ele>2040.8</ele>
        <time>2020-07-12T09:43:47 02:00</time>
      </trkpt>
      <trkpt lat="45.07279" lon="5.92655">
        <ele>2042.2</ele>
        <time>2020-07-12T09:43:56 02:00</time>
      </trkpt>
      <trkpt lat="45.07279" lon="5.92655">
        <ele>2042.8</ele>
        <time>2020-07-12T09:43:57 02:00</time>
      </trkpt>
      <trkpt lat="45.07282" lon="5.92656">
        <ele>2043.2</ele>
        <time>2020-07-12T09:44:02 02:00</time>
      </trkpt>
      <trkpt lat="45.07283" lon="5.92656">
        <ele>2043.6</ele>
        <time>2020-07-12T09:44:03 02:00</time>
      </trkpt>
      <trkpt lat="45.07288" lon="5.92657">
        <ele>2044.2</ele>
        <time>2020-07-12T09:44:13 02:00</time>
      </trkpt>
      <trkpt lat="45.07289" lon="5.92657">
        <ele>2044.4</ele>
        <time>2020-07-12T09:44:14 02:00</time>
      </trkpt>
      <trkpt lat="45.0729" lon="5.92658">
        <ele>2044.6</ele>
        <time>2020-07-12T09:44:16 02:00</time>
      </trkpt>
      <trkpt lat="45.07293" lon="5.92659">
        <ele>2045</ele>
        <time>2020-07-12T09:44:19 02:00</time>
      </trkpt>
      <trkpt lat="45.07298" lon="5.92661">
        <ele>2045.6</ele>
        <time>2020-07-12T09:44:26 02:00</time>
      </trkpt>
      <trkpt lat="45.073" lon="5.92662">
        <ele>2046</ele>
        <time>2020-07-12T09:44:29 02:00</time>
      </trkpt>
      <trkpt lat="45.07303" lon="5.92662">
        <ele>2046.4</ele>
        <time>2020-07-12T09:44:31 02:00</time>
      </trkpt>
      <trkpt lat="45.07304" lon="5.92663">
        <ele>2046.8</ele>
        <time>2020-07-12T09:44:35 02:00</time>
      </trkpt>
      <trkpt lat="45.07305" lon="5.92663">
        <ele>2047.2</ele>
        <time>2020-07-12T09:44:36 02:00</time>
      </trkpt>
      <trkpt lat="45.0731" lon="5.92664">
        <ele>2047.4</ele>
        <time>2020-07-12T09:44:43 02:00</time>
      </trkpt>
      <trkpt lat="45.07311" lon="5.92664">
        <ele>2047.6</ele>
        <time>2020-07-12T09:44:44 02:00</time>
      </trkpt>
      <trkpt lat="45.07311" lon="5.92664">
        <ele>2047.8</ele>
        <time>2020-07-12T09:44:45 02:00</time>
      </trkpt>
      <trkpt lat="45.07313" lon="5.92664">
        <ele>2048.2</ele>
        <time>2020-07-12T09:44:48 02:00</time>
      </trkpt>
      <trkpt lat="45.07322" lon="5.92668">
        <ele>2049</ele>
        <time>2020-07-12T09:45:06 02:00</time>
      </trkpt>
      <trkpt lat="45.07323" lon="5.92668">
        <ele>2049.8</ele>
        <time>2020-07-12T09:45:07 02:00</time>
      </trkpt>
      <trkpt lat="45.07326" lon="5.92669">
        <ele>2050.8</ele>
        <time>2020-07-12T09:45:14 02:00</time>
      </trkpt>
      <trkpt lat="45.07327" lon="5.9267">
        <ele>2052</ele>
        <time>2020-07-12T09:45:15 02:00</time>
      </trkpt>
      <trkpt lat="45.07342" lon="5.92673">
        <ele>2054</ele>
        <time>2020-07-12T09:45:41 02:00</time>
      </trkpt>
      <trkpt lat="45.07344" lon="5.92673">
        <ele>2055.4</ele>
        <time>2020-07-12T09:45:43 02:00</time>
      </trkpt>
      <trkpt lat="45.07347" lon="5.92674">
        <ele>2056.8</ele>
        <time>2020-07-12T09:45:48 02:00</time>
      </trkpt>
      <trkpt lat="45.07349" lon="5.92673">
        <ele>2058.2</ele>
        <time>2020-07-12T09:45:50 02:00</time>
      </trkpt>
      <trkpt lat="45.07352" lon="5.92675">
        <ele>2059.6</ele>
        <time>2020-07-12T09:45:55 02:00</time>
      </trkpt>
      <trkpt lat="45.07352" lon="5.92675">
        <ele>2060</ele>
        <time>2020-07-12T09:45:56 02:00</time>
      </trkpt>
      <trkpt lat="45.07353" lon="5.92678">
        <ele>2060.2</ele>
        <time>2020-07-12T09:46:00 02:00</time>
      </trkpt>
      <trkpt lat="45.07354" lon="5.92678">
        <ele>2060.4</ele>
        <time>2020-07-12T09:46:01 02:00</time>
      </trkpt>
      <trkpt lat="45.07368" lon="5.92676">
        <ele>2061.2</ele>
        <time>2020-07-12T09:46:23 02:00</time>
      </trkpt>
      <trkpt lat="45.07369" lon="5.92677">
        <ele>2061.8</ele>
        <time>2020-07-12T09:46:24 02:00</time>
      </trkpt>
      <trkpt lat="45.0738" lon="5.92676">
        <ele>2063.2</ele>
        <time>2020-07-12T09:46:42 02:00</time>
      </trkpt>
      <trkpt lat="45.07381" lon="5.92677">
        <ele>2064.8</ele>
        <time>2020-07-12T09:46:44 02:00</time>
      </trkpt>
      <trkpt lat="45.07384" lon="5.92677">
        <ele>2066.4</ele>
        <time>2020-07-12T09:46:46 02:00</time>
      </trkpt>
      <trkpt lat="45.07385" lon="5.92677">
        <ele>2067.2</ele>
        <time>2020-07-12T09:46:47 02:00</time>
      </trkpt>
      <trkpt lat="45.07389" lon="5.92676">
        <ele>2068.4</ele>
        <time>2020-07-12T09:46:55 02:00</time>
      </trkpt>
      <trkpt lat="45.0739" lon="5.92676">
        <ele>2068.8</ele>
        <time>2020-07-12T09:46:56 02:00</time>
      </trkpt>
      <trkpt lat="45.07394" lon="5.92677">
        <ele>2069.2</ele>
        <time>2020-07-12T09:47:02 02:00</time>
      </trkpt>
      <trkpt lat="45.07394" lon="5.92677">
        <ele>2069.6</ele>
        <time>2020-07-12T09:47:03 02:00</time>
      </trkpt>
      <trkpt lat="45.07405" lon="5.92676">
        <ele>2070.4</ele>
        <time>2020-07-12T09:47:20 02:00</time>
      </trkpt>
      <trkpt lat="45.07405" lon="5.92676">
        <ele>2070.8</ele>
        <time>2020-07-12T09:47:21 02:00</time>
      </trkpt>
      <trkpt lat="45.07411" lon="5.92675">
        <ele>2071</ele>
        <time>2020-07-12T09:47:34 02:00</time>
      </trkpt>
      <trkpt lat="45.07412" lon="5.92676">
        <ele>2071.2</ele>
        <time>2020-07-12T09:47:36 02:00</time>
      </trkpt>
      <trkpt lat="45.07414" lon="5.92676">
        <ele>2071.8</ele>
        <time>2020-07-12T09:47:39 02:00</time>
      </trkpt>
      <trkpt lat="45.07415" lon="5.92675">
        <ele>2072</ele>
        <time>2020-07-12T09:47:40 02:00</time>
      </trkpt>
      <trkpt lat="45.0743" lon="5.9267">
        <ele>2073</ele>
        <time>2020-07-12T09:48:10 02:00</time>
      </trkpt>
      <trkpt lat="45.0743" lon="5.9267">
        <ele>2074</ele>
        <time>2020-07-12T09:48:11 02:00</time>
      </trkpt>
      <trkpt lat="45.07431" lon="5.92669">
        <ele>2075</ele>
        <time>2020-07-12T09:48:14 02:00</time>
      </trkpt>
      <trkpt lat="45.07433" lon="5.9267">
        <ele>2075.6</ele>
        <time>2020-07-12T09:48:16 02:00</time>
      </trkpt>
      <trkpt lat="45.07438" lon="5.92671">
        <ele>2076.4</ele>
        <time>2020-07-12T09:48:27 02:00</time>
      </trkpt>
      <trkpt lat="45.07439" lon="5.92671">
        <ele>2076.6</ele>
        <time>2020-07-12T09:48:28 02:00</time>
      </trkpt>
      <trkpt lat="45.07441" lon="5.92672">
        <ele>2077.2</ele>
        <time>2020-07-12T09:48:32 02:00</time>
      </trkpt>
      <trkpt lat="45.07442" lon="5.92672">
        <ele>2077.8</ele>
        <time>2020-07-12T09:48:33 02:00</time>
      </trkpt>
      <trkpt lat="45.07453" lon="5.92674">
        <ele>2080</ele>
        <time>2020-07-12T09:51:20 02:00</time>
      </trkpt>
      <trkpt lat="45.07453" lon="5.92673">
        <ele>2082</ele>
        <time>2020-07-12T09:51:21 02:00</time>
      </trkpt>
      <trkpt lat="45.07453" lon="5.92674">
        <ele>2084</ele>
        <time>2020-07-12T09:51:34 02:00</time>
      </trkpt>
      <trkpt lat="45.07453" lon="5.92674">
        <ele>2085.8</ele>
        <time>2020-07-12T09:51:35 02:00</time>
      </trkpt>
      <trkpt lat="45.07452" lon="5.92674">
        <ele>2088</ele>
        <time>2020-07-12T10:01:21 02:00</time>
      </trkpt>
      <trkpt lat="45.07451" lon="5.92674">
        <ele>2088.6</ele>
        <time>2020-07-12T10:01:22 02:00</time>
      </trkpt>
      <trkpt lat="45.07475" lon="5.92699">
        <ele>2092.2</ele>
        <time>2020-07-12T10:04:23 02:00</time>
      </trkpt>
      <trkpt lat="45.07476" lon="5.92699">
        <ele>2095.6</ele>
        <time>2020-07-12T10:04:24 02:00</time>
      </trkpt>
      <trkpt lat="45.07502" lon="5.92717">
        <ele>2099.8</ele>
        <time>2020-07-12T10:05:25 02:00</time>
      </trkpt>
      <trkpt lat="45.07502" lon="5.92718">
        <ele>2103.6</ele>
        <time>2020-07-12T10:05:26 02:00</time>
      </trkpt>
      <trkpt lat="45.07506" lon="5.92721">
        <ele>2107.6</ele>
        <time>2020-07-12T10:05:35 02:00</time>
      </trkpt>
      <trkpt lat="45.07506" lon="5.92721">
        <ele>2108.6</ele>
        <time>2020-07-12T10:05:36 02:00</time>
      </trkpt>
      <trkpt lat="45.07519" lon="5.9274">
        <ele>2111</ele>
        <time>2020-07-12T10:06:11 02:00</time>
      </trkpt>
      <trkpt lat="45.07519" lon="5.92742">
        <ele>2112.8</ele>
        <time>2020-07-12T10:06:13 02:00</time>
      </trkpt>
      <trkpt lat="45.07521" lon="5.9275">
        <ele>2115</ele>
        <time>2020-07-12T10:06:23 02:00</time>
      </trkpt>
      <trkpt lat="45.07523" lon="5.92752">
        <ele>2117.2</ele>
        <time>2020-07-12T10:06:25 02:00</time>
      </trkpt>
      <trkpt lat="45.07528" lon="5.92755">
        <ele>2119.6</ele>
        <time>2020-07-12T10:06:33 02:00</time>
      </trkpt>
      <trkpt lat="45.0753" lon="5.92758">
        <ele>2120.6</ele>
        <time>2020-07-12T10:06:36 02:00</time>
      </trkpt>
      <trkpt lat="45.07544" lon="5.92785">
        <ele>2123.8</ele>
        <time>2020-07-12T10:09:59 02:00</time>
      </trkpt>
      <trkpt lat="45.07546" lon="5.92787">
        <ele>2126.4</ele>
        <time>2020-07-12T10:10:02 02:00</time>
      </trkpt>
      <trkpt lat="45.07546" lon="5.92788">
        <ele>2128.8</ele>
        <time>2020-07-12T10:10:03 02:00</time>
      </trkpt>
      <trkpt lat="45.07548" lon="5.9279">
        <ele>2130.8</ele>
        <time>2020-07-12T10:10:06 02:00</time>
      </trkpt>
      <trkpt lat="45.07548" lon="5.92791">
        <ele>2133</ele>
        <time>2020-07-12T10:10:07 02:00</time>
      </trkpt>
      <trkpt lat="45.07549" lon="5.92791">
        <ele>2132.8</ele>
        <time>2020-07-12T10:10:08 02:00</time>
      </trkpt>
      <trkpt lat="45.07549" lon="5.92793">
        <ele>2132.8</ele>
        <time>2020-07-12T10:10:10 02:00</time>
      </trkpt>
      <trkpt lat="45.07551" lon="5.92795">
        <ele>2133</ele>
        <time>2020-07-12T10:10:12 02:00</time>
      </trkpt>
      <trkpt lat="45.07555" lon="5.928">
        <ele>2133.4</ele>
        <time>2020-07-12T10:10:21 02:00</time>
      </trkpt>
      <trkpt lat="45.07556" lon="5.92802">
        <ele>2133.8</ele>
        <time>2020-07-12T10:10:23 02:00</time>
      </trkpt>
      <trkpt lat="45.07559" lon="5.92806">
        <ele>2134.2</ele>
        <time>2020-07-12T10:10:31 02:00</time>
      </trkpt>
      <trkpt lat="45.0756" lon="5.92806">
        <ele>2134.6</ele>
        <time>2020-07-12T10:10:32 02:00</time>
      </trkpt>
      <trkpt lat="45.07563" lon="5.92808">
        <ele>2134.8</ele>
        <time>2020-07-12T10:10:40 02:00</time>
      </trkpt>
      <trkpt lat="45.07564" lon="5.92809">
        <ele>2135.2</ele>
        <time>2020-07-12T10:10:41 02:00</time>
      </trkpt>
      <trkpt lat="45.0757" lon="5.92813">
        <ele>2136</ele>
        <time>2020-07-12T10:10:54 02:00</time>
      </trkpt>
      <trkpt lat="45.0757" lon="5.92814">
        <ele>2137</ele>
        <time>2020-07-12T10:10:55 02:00</time>
      </trkpt>
      <trkpt lat="45.07578" lon="5.9282">
        <ele>2138.6</ele>
        <time>2020-07-12T10:11:16 02:00</time>
      </trkpt>
      <trkpt lat="45.07581" lon="5.92823">
        <ele>2140.4</ele>
        <time>2020-07-12T10:11:19 02:00</time>
      </trkpt>
      <trkpt lat="45.07581" lon="5.92823">
        <ele>2142</ele>
        <time>2020-07-12T10:11:20 02:00</time>
      </trkpt>
      <trkpt lat="45.07582" lon="5.92823">
        <ele>2143</ele>
        <time>2020-07-12T10:11:21 02:00</time>
      </trkpt>
      <trkpt lat="45.07589" lon="5.9283">
        <ele>2144.2</ele>
        <time>2020-07-12T10:11:38 02:00</time>
      </trkpt>
      <trkpt lat="45.0759" lon="5.92831">
        <ele>2144.8</ele>
        <time>2020-07-12T10:11:39 02:00</time>
      </trkpt>
      <trkpt lat="45.07592" lon="5.92835">
        <ele>2145.4</ele>
        <time>2020-07-12T10:11:45 02:00</time>
      </trkpt>
      <trkpt lat="45.07592" lon="5.92836">
        <ele>2146</ele>
        <time>2020-07-12T10:11:46 02:00</time>
      </trkpt>
      <trkpt lat="45.07595" lon="5.9284">
        <ele>2147</ele>
        <time>2020-07-12T10:11:52 02:00</time>
      </trkpt>
      <trkpt lat="45.07595" lon="5.9284">
        <ele>2147.6</ele>
        <time>2020-07-12T10:11:53 02:00</time>
      </trkpt>
      <trkpt lat="45.07596" lon="5.9284">
        <ele>2148.2</ele>
        <time>2020-07-12T10:11:54 02:00</time>
      </trkpt>
      <trkpt lat="45.07597" lon="5.92841">
        <ele>2148.6</ele>
        <time>2020-07-12T10:11:55 02:00</time>
      </trkpt>
      <trkpt lat="45.07597" lon="5.92842">
        <ele>2149</ele>
        <time>2020-07-12T10:11:56 02:00</time>
      </trkpt>
      <trkpt lat="45.07599" lon="5.92843">
        <ele>2149.2</ele>
        <time>2020-07-12T10:11:58 02:00</time>
      </trkpt>
      <trkpt lat="45.07604" lon="5.92847">
        <ele>2149.6</ele>
        <time>2020-07-12T10:12:11 02:00</time>
      </trkpt>
      <trkpt lat="45.07606" lon="5.92849">
        <ele>2150.2</ele>
        <time>2020-07-12T10:12:13 02:00</time>
      </trkpt>
      <trkpt lat="45.07607" lon="5.9285">
        <ele>2150.8</ele>
        <time>2020-07-12T10:12:14 02:00</time>
      </trkpt>
      <trkpt lat="45.07607" lon="5.92851">
        <ele>2151.4</ele>
        <time>2020-07-12T10:12:15 02:00</time>
      </trkpt>
      <trkpt lat="45.07608" lon="5.92851">
        <ele>2151.8</ele>
        <time>2020-07-12T10:12:16 02:00</time>
      </trkpt>
      <trkpt lat="45.07609" lon="5.92851">
        <ele>2152</ele>
        <time>2020-07-12T10:12:17 02:00</time>
      </trkpt>
      <trkpt lat="45.0761" lon="5.92852">
        <ele>2152.2</ele>
        <time>2020-07-12T10:12:19 02:00</time>
      </trkpt>
      <trkpt lat="45.07612" lon="5.92854">
        <ele>2152.8</ele>
        <time>2020-07-12T10:12:22 02:00</time>
      </trkpt>
      <trkpt lat="45.07613" lon="5.92854">
        <ele>2153.4</ele>
        <time>2020-07-12T10:12:24 02:00</time>
      </trkpt>
      <trkpt lat="45.07613" lon="5.92855">
        <ele>2154</ele>
        <time>2020-07-12T10:12:25 02:00</time>
      </trkpt>
      <trkpt lat="45.07614" lon="5.92856">
        <ele>2154.6</ele>
        <time>2020-07-12T10:12:26 02:00</time>
      </trkpt>
      <trkpt lat="45.07615" lon="5.92856">
        <ele>2155</ele>
        <time>2020-07-12T10:12:27 02:00</time>
      </trkpt>
      <trkpt lat="45.07616" lon="5.92856">
        <ele>2155.2</ele>
        <time>2020-07-12T10:12:32 02:00</time>
      </trkpt>
      <trkpt lat="45.0762" lon="5.92856">
        <ele>2155.4</ele>
        <time>2020-07-12T10:12:35 02:00</time>
      </trkpt>
      <trkpt lat="45.0762" lon="5.92857">
        <ele>2155.6</ele>
        <time>2020-07-12T10:12:36 02:00</time>
      </trkpt>
      <trkpt lat="45.07625" lon="5.9286">
        <ele>2156</ele>
        <time>2020-07-12T10:12:47 02:00</time>
      </trkpt>
      <trkpt lat="45.07626" lon="5.9286">
        <ele>2156.4</ele>
        <time>2020-07-12T10:12:48 02:00</time>
      </trkpt>
      <trkpt lat="45.07632" lon="5.92862">
        <ele>2156.8</ele>
        <time>2020-07-12T10:12:55 02:00</time>
      </trkpt>
      <trkpt lat="45.07633" lon="5.92862">
        <ele>2157</ele>
        <time>2020-07-12T10:12:56 02:00</time>
      </trkpt>
      <trkpt lat="45.07634" lon="5.92862">
        <ele>2157.4</ele>
        <time>2020-07-12T10:12:57 02:00</time>
      </trkpt>
      <trkpt lat="45.07634" lon="5.92862">
        <ele>2157.6</ele>
        <time>2020-07-12T10:12:58 02:00</time>
      </trkpt>
      <trkpt lat="45.07639" lon="5.92863">
        <ele>2157.8</ele>
        <time>2020-07-12T10:13:04 02:00</time>
      </trkpt>
      <trkpt lat="45.0764" lon="5.92863">
        <ele>2157.8</ele>
        <time>2020-07-12T10:13:05 02:00</time>
      </trkpt>
      <trkpt lat="45.07644" lon="5.92866">
        <ele>2158.2</ele>
        <time>2020-07-12T10:13:11 02:00</time>
      </trkpt>
      <trkpt lat="45.07647" lon="5.92866">
        <ele>2158.4</ele>
        <time>2020-07-12T10:13:14 02:00</time>
      </trkpt>
      <trkpt lat="45.07648" lon="5.92866">
        <ele>2158.6</ele>
        <time>2020-07-12T10:13:15 02:00</time>
      </trkpt>
      <trkpt lat="45.07649" lon="5.92866">
        <ele>2158.8</ele>
        <time>2020-07-12T10:13:16 02:00</time>
      </trkpt>
      <trkpt lat="45.0765" lon="5.92867">
        <ele>2159</ele>
        <time>2020-07-12T10:13:17 02:00</time>
      </trkpt>
      <trkpt lat="45.07653" lon="5.92867">
        <ele>2159.2</ele>
        <time>2020-07-12T10:13:22 02:00</time>
      </trkpt>
      <trkpt lat="45.07653" lon="5.92867">
        <ele>2159.4</ele>
        <time>2020-07-12T10:13:23 02:00</time>
      </trkpt>
      <trkpt lat="45.07676" lon="5.92879">
        <ele>2161</ele>
        <time>2020-07-12T10:14:16 02:00</time>
      </trkpt>
      <trkpt lat="45.07678" lon="5.92879">
        <ele>2162.8</ele>
        <time>2020-07-12T10:14:18 02:00</time>
      </trkpt>
      <trkpt lat="45.07681" lon="5.92881">
        <ele>2165</ele>
        <time>2020-07-12T10:14:26 02:00</time>
      </trkpt>
      <trkpt lat="45.07682" lon="5.92881">
        <ele>2167</ele>
        <time>2020-07-12T10:14:27 02:00</time>
      </trkpt>
      <trkpt lat="45.07684" lon="5.92884">
        <ele>2169.2</ele>
        <time>2020-07-12T10:14:31 02:00</time>
      </trkpt>
      <trkpt lat="45.07686" lon="5.92885">
        <ele>2170</ele>
        <time>2020-07-12T10:14:33 02:00</time>
      </trkpt>
      <trkpt lat="45.07687" lon="5.92885">
        <ele>2170.6</ele>
        <time>2020-07-12T10:14:35 02:00</time>
      </trkpt>
      <trkpt lat="45.07688" lon="5.92885">
        <ele>2170.8</ele>
        <time>2020-07-12T10:14:36 02:00</time>
      </trkpt>
      <trkpt lat="45.0769" lon="5.92886">
        <ele>2171.2</ele>
        <time>2020-07-12T10:14:43 02:00</time>
      </trkpt>
      <trkpt lat="45.07693" lon="5.92887">
        <ele>2171.6</ele>
        <time>2020-07-12T10:14:46 02:00</time>
      </trkpt>
      <trkpt lat="45.07694" lon="5.92888">
        <ele>2172.2</ele>
        <time>2020-07-12T10:14:48 02:00</time>
      </trkpt>
      <trkpt lat="45.07695" lon="5.92888">
        <ele>2172.6</ele>
        <time>2020-07-12T10:14:49 02:00</time>
      </trkpt>
      <trkpt lat="45.07697" lon="5.92889">
        <ele>2173</ele>
        <time>2020-07-12T10:14:50 02:00</time>
      </trkpt>
      <trkpt lat="45.07698" lon="5.92889">
        <ele>2173.4</ele>
        <time>2020-07-12T10:14:52 02:00</time>
      </trkpt>
      <trkpt lat="45.077" lon="5.92889">
        <ele>2173.8</ele>
        <time>2020-07-12T10:14:55 02:00</time>
      </trkpt>
      <trkpt lat="45.07703" lon="5.92889">
        <ele>2173.8</ele>
        <time>2020-07-12T10:14:58 02:00</time>
      </trkpt>
      <trkpt lat="45.07709" lon="5.92891">
        <ele>2174.2</ele>
        <time>2020-07-12T10:15:08 02:00</time>
      </trkpt>
      <trkpt lat="45.07709" lon="5.92891">
        <ele>2174.6</ele>
        <time>2020-07-12T10:15:09 02:00</time>
      </trkpt>
      <trkpt lat="45.07723" lon="5.92895">
        <ele>2176</ele>
        <time>2020-07-12T10:16:15 02:00</time>
      </trkpt>
      <trkpt lat="45.07723" lon="5.92896">
        <ele>2177.2</ele>
        <time>2020-07-12T10:16:16 02:00</time>
      </trkpt>
      <trkpt lat="45.07725" lon="5.92898">
        <ele>2178.6</ele>
        <time>2020-07-12T10:16:22 02:00</time>
      </trkpt>
      <trkpt lat="45.07726" lon="5.92899">
        <ele>2179.8</ele>
        <time>2020-07-12T10:16:23 02:00</time>
      </trkpt>
      <trkpt lat="45.07727" lon="5.92899">
        <ele>2180.8</ele>
        <time>2020-07-12T10:16:25 02:00</time>
      </trkpt>
      <trkpt lat="45.07727" lon="5.92899">
        <ele>2180.6</ele>
        <time>2020-07-12T10:16:26 02:00</time>
      </trkpt>
      <trkpt lat="45.07744" lon="5.92904">
        <ele>2181.4</ele>
        <time>2020-07-12T10:16:53 02:00</time>
      </trkpt>
      <trkpt lat="45.07746" lon="5.92905">
        <ele>2182.6</ele>
        <time>2020-07-12T10:16:55 02:00</time>
      </trkpt>
      <trkpt lat="45.07751" lon="5.92906">
        <ele>2184</ele>
        <time>2020-07-12T10:17:32 02:00</time>
      </trkpt>
      <trkpt lat="45.07752" lon="5.92906">
        <ele>2185.6</ele>
        <time>2020-07-12T10:17:33 02:00</time>
      </trkpt>
      <trkpt lat="45.07772" lon="5.92913">
        <ele>2188.2</ele>
        <time>2020-07-12T10:18:13 02:00</time>
      </trkpt>
      <trkpt lat="45.07773" lon="5.92914">
        <ele>2189.8</ele>
        <time>2020-07-12T10:18:14 02:00</time>
      </trkpt>
      <trkpt lat="45.07778" lon="5.92913">
        <ele>2191.2</ele>
        <time>2020-07-12T10:18:20 02:00</time>
      </trkpt>
      <trkpt lat="45.07779" lon="5.92914">
        <ele>2192.6</ele>
        <time>2020-07-12T10:18:21 02:00</time>
      </trkpt>
      <trkpt lat="45.0778" lon="5.92916">
        <ele>2193.8</ele>
        <time>2020-07-12T10:18:25 02:00</time>
      </trkpt>
      <trkpt lat="45.0778" lon="5.92917">
        <ele>2193.8</ele>
        <time>2020-07-12T10:18:26 02:00</time>
      </trkpt>
      <trkpt lat="45.07783" lon="5.92919">
        <ele>2194</ele>
        <time>2020-07-12T10:18:30 02:00</time>
      </trkpt>
      <trkpt lat="45.07785" lon="5.9292">
        <ele>2193.8</ele>
        <time>2020-07-12T10:18:32 02:00</time>
      </trkpt>
      <trkpt lat="45.07787" lon="5.92921">
        <ele>2193.6</ele>
        <time>2020-07-12T10:18:34 02:00</time>
      </trkpt>
      <trkpt lat="45.07788" lon="5.92921">
        <ele>2193.6</ele>
        <time>2020-07-12T10:18:35 02:00</time>
      </trkpt>
      <trkpt lat="45.07806" lon="5.92926">
        <ele>2194.6</ele>
        <time>2020-07-12T10:19:05 02:00</time>
      </trkpt>
      <trkpt lat="45.07806" lon="5.92927">
        <ele>2195.4</ele>
        <time>2020-07-12T10:19:06 02:00</time>
      </trkpt>
      <trkpt lat="45.07813" lon="5.92932">
        <ele>2196.6</ele>
        <time>2020-07-12T10:19:19 02:00</time>
      </trkpt>
      <trkpt lat="45.07814" lon="5.92933">
        <ele>2197.6</ele>
        <time>2020-07-12T10:19:21 02:00</time>
      </trkpt>
      <trkpt lat="45.07837" lon="5.92948">
        <ele>2199.4</ele>
        <time>2020-07-12T10:20:28 02:00</time>
      </trkpt>
      <trkpt lat="45.07839" lon="5.92949">
        <ele>2200.6</ele>
        <time>2020-07-12T10:20:30 02:00</time>
      </trkpt>
      <trkpt lat="45.0784" lon="5.92952">
        <ele>2202</ele>
        <time>2020-07-12T10:20:35 02:00</time>
      </trkpt>
      <trkpt lat="45.07841" lon="5.92952">
        <ele>2203.2</ele>
        <time>2020-07-12T10:20:36 02:00</time>
      </trkpt>
      <trkpt lat="45.07845" lon="5.92955">
        <ele>2204.6</ele>
        <time>2020-07-12T10:24:31 02:00</time>
      </trkpt>
      <trkpt lat="45.07845" lon="5.92956">
        <ele>2205.4</ele>
        <time>2020-07-12T10:24:32 02:00</time>
      </trkpt>
      <trkpt lat="45.07857" lon="5.92964">
        <ele>2206.8</ele>
        <time>2020-07-12T10:24:55 02:00</time>
      </trkpt>
      <trkpt lat="45.07858" lon="5.92964">
        <ele>2208.4</ele>
        <time>2020-07-12T10:24:58 02:00</time>
      </trkpt>
      <trkpt lat="45.07859" lon="5.92966">
        <ele>2210</ele>
        <time>2020-07-12T10:25:00 02:00</time>
      </trkpt>
      <trkpt lat="45.07861" lon="5.92969">
        <ele>2211.4</ele>
        <time>2020-07-12T10:25:03 02:00</time>
      </trkpt>
      <trkpt lat="45.07866" lon="5.92975">
        <ele>2212.6</ele>
        <time>2020-07-12T10:25:15 02:00</time>
      </trkpt>
      <trkpt lat="45.07866" lon="5.92976">
        <ele>2213</ele>
        <time>2020-07-12T10:25:16 02:00</time>
      </trkpt>
      <trkpt lat="45.07874" lon="5.92984">
        <ele>2213.6</ele>
        <time>2020-07-12T10:25:32 02:00</time>
      </trkpt>
      <trkpt lat="45.07875" lon="5.92985">
        <ele>2214.2</ele>
        <time>2020-07-12T10:25:34 02:00</time>
      </trkpt>
      <trkpt lat="45.07878" lon="5.92986">
        <ele>2214.8</ele>
        <time>2020-07-12T10:25:37 02:00</time>
      </trkpt>
      <trkpt lat="45.07879" lon="5.92988">
        <ele>2215.6</ele>
        <time>2020-07-12T10:25:39 02:00</time>
      </trkpt>
      <trkpt lat="45.07889" lon="5.92998">
        <ele>2216.6</ele>
        <time>2020-07-12T10:26:01 02:00</time>
      </trkpt>
      <trkpt lat="45.0789" lon="5.93">
        <ele>2217</ele>
        <time>2020-07-12T10:26:03 02:00</time>
      </trkpt>
      <trkpt lat="45.07898" lon="5.93007">
        <ele>2217.8</ele>
        <time>2020-07-12T10:26:19 02:00</time>
      </trkpt>
      <trkpt lat="45.07899" lon="5.93007">
        <ele>2218.6</ele>
        <time>2020-07-12T10:26:20 02:00</time>
      </trkpt>
      <trkpt lat="45.07906" lon="5.93013">
        <ele>2219.4</ele>
        <time>2020-07-12T10:26:31 02:00</time>
      </trkpt>
      <trkpt lat="45.07907" lon="5.93016">
        <ele>2220</ele>
        <time>2020-07-12T10:26:34 02:00</time>
      </trkpt>
      <trkpt lat="45.07911" lon="5.93022">
        <ele>2221</ele>
        <time>2020-07-12T10:26:43 02:00</time>
      </trkpt>
      <trkpt lat="45.07912" lon="5.93022">
        <ele>2221.6</ele>
        <time>2020-07-12T10:26:44 02:00</time>
      </trkpt>
      <trkpt lat="45.07925" lon="5.93032">
        <ele>2222.4</ele>
        <time>2020-07-12T10:27:06 02:00</time>
      </trkpt>
      <trkpt lat="45.07927" lon="5.93031">
        <ele>2223</ele>
        <time>2020-07-12T10:27:07 02:00</time>
      </trkpt>
      <trkpt lat="45.0793" lon="5.93035">
        <ele>2223.8</ele>
        <time>2020-07-12T10:27:14 02:00</time>
      </trkpt>
      <trkpt lat="45.07932" lon="5.93038">
        <ele>2224.2</ele>
        <time>2020-07-12T10:27:17 02:00</time>
      </trkpt>
      <trkpt lat="45.07935" lon="5.93039">
        <ele>2224.6</ele>
        <time>2020-07-12T10:27:20 02:00</time>
      </trkpt>
      <trkpt lat="45.07937" lon="5.9304">
        <ele>2224.8</ele>
        <time>2020-07-12T10:27:22 02:00</time>
      </trkpt>
      <trkpt lat="45.07937" lon="5.93041">
        <ele>2225.2</ele>
        <time>2020-07-12T10:27:23 02:00</time>
      </trkpt>
      <trkpt lat="45.07938" lon="5.93042">
        <ele>2225.4</ele>
        <time>2020-07-12T10:27:25 02:00</time>
      </trkpt>
      <trkpt lat="45.07939" lon="5.93043">
        <ele>2225.8</ele>
        <time>2020-07-12T10:27:26 02:00</time>
      </trkpt>
      <trkpt lat="45.07941" lon="5.93044">
        <ele>2226.2</ele>
        <time>2020-07-12T10:27:28 02:00</time>
      </trkpt>
      <trkpt lat="45.07952" lon="5.93055">
        <ele>2226.8</ele>
        <time>2020-07-12T10:27:51 02:00</time>
      </trkpt>
      <trkpt lat="45.07953" lon="5.93056">
        <ele>2227.2</ele>
        <time>2020-07-12T10:27:52 02:00</time>
      </trkpt>
      <trkpt lat="45.07956" lon="5.93058">
        <ele>2227.8</ele>
        <time>2020-07-12T10:27:57 02:00</time>
      </trkpt>
      <trkpt lat="45.07956" lon="5.93059">
        <ele>2228</ele>
        <time>2020-07-12T10:27:58 02:00</time>
      </trkpt>
      <trkpt lat="45.07957" lon="5.9306">
        <ele>2228.4</ele>
        <time>2020-07-12T10:27:59 02:00</time>
      </trkpt>
      <trkpt lat="45.07958" lon="5.93061">
        <ele>2228.6</ele>
        <time>2020-07-12T10:28:01 02:00</time>
      </trkpt>
      <trkpt lat="45.07959" lon="5.93063">
        <ele>2228.8</ele>
        <time>2020-07-12T10:28:03 02:00</time>
      </trkpt>
      <trkpt lat="45.07961" lon="5.93067">
        <ele>2228.8</ele>
        <time>2020-07-12T10:28:07 02:00</time>
      </trkpt>
      <trkpt lat="45.07962" lon="5.93069">
        <ele>2229.2</ele>
        <time>2020-07-12T10:28:08 02:00</time>
      </trkpt>
      <trkpt lat="45.07962" lon="5.9307">
        <ele>2229.2</ele>
        <time>2020-07-12T10:28:09 02:00</time>
      </trkpt>
      <trkpt lat="45.07962" lon="5.93074">
        <ele>2229.4</ele>
        <time>2020-07-12T10:28:12 02:00</time>
      </trkpt>
      <trkpt lat="45.07962" lon="5.93075">
        <ele>2229.6</ele>
        <time>2020-07-12T10:28:13 02:00</time>
      </trkpt>
      <trkpt lat="45.07963" lon="5.93077">
        <ele>2229.8</ele>
        <time>2020-07-12T10:28:14 02:00</time>
      </trkpt>
      <trkpt lat="45.07964" lon="5.93079">
        <ele>2229.8</ele>
        <time>2020-07-12T10:28:16 02:00</time>
      </trkpt>
      <trkpt lat="45.07965" lon="5.93082">
        <ele>2230.2</ele>
        <time>2020-07-12T10:28:19 02:00</time>
      </trkpt>
      <trkpt lat="45.07967" lon="5.93086">
        <ele>2230.4</ele>
        <time>2020-07-12T10:28:23 02:00</time>
      </trkpt>
      <trkpt lat="45.07967" lon="5.93087">
        <ele>2230.6</ele>
        <time>2020-07-12T10:28:24 02:00</time>
      </trkpt>
      <trkpt lat="45.07967" lon="5.93089">
        <ele>2230.8</ele>
        <time>2020-07-12T10:28:26 02:00</time>
      </trkpt>
      <trkpt lat="45.07967" lon="5.9309">
        <ele>2231</ele>
        <time>2020-07-12T10:28:27 02:00</time>
      </trkpt>
      <trkpt lat="45.07967" lon="5.93091">
        <ele>2231</ele>
        <time>2020-07-12T10:28:28 02:00</time>
      </trkpt>
      <trkpt lat="45.07968" lon="5.93091">
        <ele>2231.2</ele>
        <time>2020-07-12T10:28:29 02:00</time>
      </trkpt>
      <trkpt lat="45.07969" lon="5.93093">
        <ele>2231.2</ele>
        <time>2020-07-12T10:28:31 02:00</time>
      </trkpt>
      <trkpt lat="45.07969" lon="5.93094">
        <ele>2231.2</ele>
        <time>2020-07-12T10:28:32 02:00</time>
      </trkpt>
      <trkpt lat="45.07969" lon="5.93095">
        <ele>2231.2</ele>
        <time>2020-07-12T10:28:33 02:00</time>
      </trkpt>
      <trkpt lat="45.0797" lon="5.93098">
        <ele>2231.4</ele>
        <time>2020-07-12T10:28:36 02:00</time>
      </trkpt>
      <trkpt lat="45.0797" lon="5.93101">
        <ele>2231.4</ele>
        <time>2020-07-12T10:28:39 02:00</time>
      </trkpt>
      <trkpt lat="45.07971" lon="5.93105">
        <ele>2231.4</ele>
        <time>2020-07-12T10:28:42 02:00</time>
      </trkpt>
      <trkpt lat="45.07972" lon="5.93106">
        <ele>2231.4</ele>
        <time>2020-07-12T10:28:44 02:00</time>
      </trkpt>
      <trkpt lat="45.07973" lon="5.93107">
        <ele>2231.6</ele>
        <time>2020-07-12T10:28:45 02:00</time>
      </trkpt>
      <trkpt lat="45.07976" lon="5.9311">
        <ele>2231.8</ele>
        <time>2020-07-12T10:28:49 02:00</time>
      </trkpt>
      <trkpt lat="45.07978" lon="5.93114">
        <ele>2232</ele>
        <time>2020-07-12T10:28:54 02:00</time>
      </trkpt>
      <trkpt lat="45.07978" lon="5.93115">
        <ele>2232.6</ele>
        <time>2020-07-12T10:28:56 02:00</time>
      </trkpt>
      <trkpt lat="45.07978" lon="5.93116">
        <ele>2233.2</ele>
        <time>2020-07-12T10:28:57 02:00</time>
      </trkpt>
      <trkpt lat="45.07978" lon="5.93117">
        <ele>2233.6</ele>
        <time>2020-07-12T10:28:58 02:00</time>
      </trkpt>
      <trkpt lat="45.07981" lon="5.93123">
        <ele>2233.6</ele>
        <time>2020-07-12T10:29:06 02:00</time>
      </trkpt>
      <trkpt lat="45.07982" lon="5.93124">
        <ele>2233.6</ele>
        <time>2020-07-12T10:29:07 02:00</time>
      </trkpt>
      <trkpt lat="45.07982" lon="5.93124">
        <ele>2233.4</ele>
        <time>2020-07-12T10:29:08 02:00</time>
      </trkpt>
      <trkpt lat="45.07982" lon="5.93125">
        <ele>2233.2</ele>
        <time>2020-07-12T10:29:09 02:00</time>
      </trkpt>
      <trkpt lat="45.07987" lon="5.93129">
        <ele>2233.2</ele>
        <time>2020-07-12T10:29:15 02:00</time>
      </trkpt>
      <trkpt lat="45.07988" lon="5.93132">
        <ele>2233.4</ele>
        <time>2020-07-12T10:29:18 02:00</time>
      </trkpt>
      <trkpt lat="45.0799" lon="5.93135">
        <ele>2233.6</ele>
        <time>2020-07-12T10:29:23 02:00</time>
      </trkpt>
      <trkpt lat="45.07993" lon="5.93139">
        <ele>2233.8</ele>
        <time>2020-07-12T10:29:27 02:00</time>
      </trkpt>
      <trkpt lat="45.07993" lon="5.9314">
        <ele>2234</ele>
        <time>2020-07-12T10:29:28 02:00</time>
      </trkpt>
      <trkpt lat="45.07995" lon="5.93145">
        <ele>2233.6</ele>
        <time>2020-07-12T10:29:33 02:00</time>
      </trkpt>
      <trkpt lat="45.07997" lon="5.93148">
        <ele>2233.4</ele>
        <time>2020-07-12T10:29:37 02:00</time>
      </trkpt>
      <trkpt lat="45.07997" lon="5.93149">
        <ele>2233.2</ele>
        <time>2020-07-12T10:29:38 02:00</time>
      </trkpt>
      <trkpt lat="45.07998" lon="5.9315">
        <ele>2233.2</ele>
        <time>2020-07-12T10:29:40 02:00</time>
      </trkpt>
      <trkpt lat="45.07999" lon="5.93152">
        <ele>2233</ele>
        <time>2020-07-12T10:29:42 02:00</time>
      </trkpt>
      <trkpt lat="45.07999" lon="5.93153">
        <ele>2233</ele>
        <time>2020-07-12T10:29:43 02:00</time>
      </trkpt>
      <trkpt lat="45.08" lon="5.93154">
        <ele>2232.6</ele>
        <time>2020-07-12T10:29:44 02:00</time>
      </trkpt>
      <trkpt lat="45.08003" lon="5.93166">
        <ele>2232.4</ele>
        <time>2020-07-12T10:29:57 02:00</time>
      </trkpt>
      <trkpt lat="45.08003" lon="5.93168">
        <ele>2232</ele>
        <time>2020-07-12T10:30:00 02:00</time>
      </trkpt>
      <trkpt lat="45.08003" lon="5.9317">
        <ele>2231.8</ele>
        <time>2020-07-12T10:30:17 02:00</time>
      </trkpt>
      <trkpt lat="45.08004" lon="5.93175">
        <ele>2231.8</ele>
        <time>2020-07-12T10:30:20 02:00</time>
      </trkpt>
      <trkpt lat="45.08005" lon="5.93179">
        <ele>2232</ele>
        <time>2020-07-12T10:30:23 02:00</time>
      </trkpt>
      <trkpt lat="45.08006" lon="5.93181">
        <ele>2232</ele>
        <time>2020-07-12T10:30:25 02:00</time>
      </trkpt>
      <trkpt lat="45.08008" lon="5.93182">
        <ele>2232</ele>
        <time>2020-07-12T10:30:27 02:00</time>
      </trkpt>
      <trkpt lat="45.08008" lon="5.93184">
        <ele>2232</ele>
        <time>2020-07-12T10:30:28 02:00</time>
      </trkpt>
      <trkpt lat="45.08009" lon="5.93185">
        <ele>2232.2</ele>
        <time>2020-07-12T10:30:30 02:00</time>
      </trkpt>
      <trkpt lat="45.08009" lon="5.93187">
        <ele>2232.4</ele>
        <time>2020-07-12T10:30:31 02:00</time>
      </trkpt>
      <trkpt lat="45.08011" lon="5.93189">
        <ele>2232.6</ele>
        <time>2020-07-12T10:30:33 02:00</time>
      </trkpt>
      <trkpt lat="45.08012" lon="5.93192">
        <ele>2232.8</ele>
        <time>2020-07-12T10:30:36 02:00</time>
      </trkpt>
      <trkpt lat="45.08012" lon="5.93197">
        <ele>2233</ele>
        <time>2020-07-12T10:30:39 02:00</time>
      </trkpt>
      <trkpt lat="45.08012" lon="5.93199">
        <ele>2233</ele>
        <time>2020-07-12T10:30:41 02:00</time>
      </trkpt>
      <trkpt lat="45.08012" lon="5.932">
        <ele>2233</ele>
        <time>2020-07-12T10:30:42 02:00</time>
      </trkpt>
      <trkpt lat="45.08012" lon="5.93202">
        <ele>2233.2</ele>
        <time>2020-07-12T10:30:44 02:00</time>
      </trkpt>
      <trkpt lat="45.08014" lon="5.93208">
        <ele>2233.4</ele>
        <time>2020-07-12T10:30:50 02:00</time>
      </trkpt>
      <trkpt lat="45.08015" lon="5.93209">
        <ele>2233.4</ele>
        <time>2020-07-12T10:30:51 02:00</time>
      </trkpt>
      <trkpt lat="45.08019" lon="5.93215">
        <ele>2233.4</ele>
        <time>2020-07-12T10:31:15 02:00</time>
      </trkpt>
      <trkpt lat="45.08021" lon="5.93217">
        <ele>2233.4</ele>
        <time>2020-07-12T10:31:17 02:00</time>
      </trkpt>
      <trkpt lat="45.08021" lon="5.9322">
        <ele>2233.2</ele>
        <time>2020-07-12T10:31:21 02:00</time>
      </trkpt>
      <trkpt lat="45.08022" lon="5.93223">
        <ele>2233</ele>
        <time>2020-07-12T10:31:24 02:00</time>
      </trkpt>
      <trkpt lat="45.08023" lon="5.93226">
        <ele>2233</ele>
        <time>2020-07-12T10:31:27 02:00</time>
      </trkpt>
      <trkpt lat="45.08025" lon="5.93228">
        <ele>2233.2</ele>
        <time>2020-07-12T10:31:29 02:00</time>
      </trkpt>
      <trkpt lat="45.08026" lon="5.9323">
        <ele>2233.2</ele>
        <time>2020-07-12T10:31:32 02:00</time>
      </trkpt>
      <trkpt lat="45.08026" lon="5.93232">
        <ele>2233.2</ele>
        <time>2020-07-12T10:31:34 02:00</time>
      </trkpt>
      <trkpt lat="45.08027" lon="5.93233">
        <ele>2233.2</ele>
        <time>2020-07-12T10:31:35 02:00</time>
      </trkpt>
      <trkpt lat="45.08027" lon="5.93237">
        <ele>2233</ele>
        <time>2020-07-12T10:31:38 02:00</time>
      </trkpt>
      <trkpt lat="45.08028" lon="5.93241">
        <ele>2232.6</ele>
        <time>2020-07-12T10:31:41 02:00</time>
      </trkpt>
      <trkpt lat="45.0803" lon="5.93245">
        <ele>2232.4</ele>
        <time>2020-07-12T10:31:46 02:00</time>
      </trkpt>
      <trkpt lat="45.0803" lon="5.93248">
        <ele>2232.2</ele>
        <time>2020-07-12T10:31:50 02:00</time>
      </trkpt>
      <trkpt lat="45.08041" lon="5.93273">
        <ele>2232</ele>
        <time>2020-07-12T10:32:20 02:00</time>
      </trkpt>
      <trkpt lat="45.08042" lon="5.93274">
        <ele>2232</ele>
        <time>2020-07-12T10:32:21 02:00</time>
      </trkpt>
      <trkpt lat="45.08042" lon="5.93277">
        <ele>2232</ele>
        <time>2020-07-12T10:32:23 02:00</time>
      </trkpt>
      <trkpt lat="45.08043" lon="5.93281">
        <ele>2232.2</ele>
        <time>2020-07-12T10:32:26 02:00</time>
      </trkpt>
      <trkpt lat="45.08042" lon="5.93284">
        <ele>2232.4</ele>
        <time>2020-07-12T10:32:28 02:00</time>
      </trkpt>
      <trkpt lat="45.08046" lon="5.93292">
        <ele>2232.8</ele>
        <time>2020-07-12T10:32:38 02:00</time>
      </trkpt>
      <trkpt lat="45.08046" lon="5.93293">
        <ele>2233.2</ele>
        <time>2020-07-12T10:32:39 02:00</time>
      </trkpt>
      <trkpt lat="45.08046" lon="5.93295">
        <ele>2233.6</ele>
        <time>2020-07-12T10:32:41 02:00</time>
      </trkpt>
      <trkpt lat="45.08046" lon="5.93297">
        <ele>2233.8</ele>
        <time>2020-07-12T10:32:42 02:00</time>
      </trkpt>
      <trkpt lat="45.08046" lon="5.933">
        <ele>2234</ele>
        <time>2020-07-12T10:32:44 02:00</time>
      </trkpt>
      <trkpt lat="45.08045" lon="5.93304">
        <ele>2234</ele>
        <time>2020-07-12T10:32:47 02:00</time>
      </trkpt>
      <trkpt lat="45.08045" lon="5.93309">
        <ele>2234</ele>
        <time>2020-07-12T10:32:50 02:00</time>
      </trkpt>
      <trkpt lat="45.08045" lon="5.93312">
        <ele>2233.8</ele>
        <time>2020-07-12T10:32:52 02:00</time>
      </trkpt>
      <trkpt lat="45.08045" lon="5.93312">
        <ele>2233.6</ele>
        <time>2020-07-12T10:32:53 02:00</time>
      </trkpt>
      <trkpt lat="45.08045" lon="5.93316">
        <ele>2233.4</ele>
        <time>2020-07-12T10:32:57 02:00</time>
      </trkpt>
      <trkpt lat="45.08046" lon="5.93318">
        <ele>2233.2</ele>
        <time>2020-07-12T10:32:59 02:00</time>
      </trkpt>
      <trkpt lat="45.08047" lon="5.93325">
        <ele>2233</ele>
        <time>2020-07-12T10:33:05 02:00</time>
      </trkpt>
      <trkpt lat="45.08049" lon="5.93328">
        <ele>2232.8</ele>
        <time>2020-07-12T10:33:08 02:00</time>
      </trkpt>
      <trkpt lat="45.08049" lon="5.93329">
        <ele>2232.6</ele>
        <time>2020-07-12T10:33:09 02:00</time>
      </trkpt>
      <trkpt lat="45.08049" lon="5.93331">
        <ele>2232.4</ele>
        <time>2020-07-12T10:33:10 02:00</time>
      </trkpt>
      <trkpt lat="45.0805" lon="5.93332">
        <ele>2232.4</ele>
        <time>2020-07-12T10:33:11 02:00</time>
      </trkpt>
      <trkpt lat="45.0805" lon="5.93333">
        <ele>2232.4</ele>
        <time>2020-07-12T10:33:12 02:00</time>
      </trkpt>
      <trkpt lat="45.08051" lon="5.93333">
        <ele>2232.8</ele>
        <time>2020-07-12T10:33:13 02:00</time>
      </trkpt>
      <trkpt lat="45.08052" lon="5.93338">
        <ele>2233</ele>
        <time>2020-07-12T10:33:19 02:00</time>
      </trkpt>
      <trkpt lat="45.08053" lon="5.93339">
        <ele>2233.2</ele>
        <time>2020-07-12T10:33:20 02:00</time>
      </trkpt>
      <trkpt lat="45.08053" lon="5.93341">
        <ele>2233.2</ele>
        <time>2020-07-12T10:33:21 02:00</time>
      </trkpt>
      <trkpt lat="45.08054" lon="5.93343">
        <ele>2233</ele>
        <time>2020-07-12T10:33:23 02:00</time>
      </trkpt>
      <trkpt lat="45.08054" lon="5.93345">
        <ele>2232.6</ele>
        <time>2020-07-12T10:33:24 02:00</time>
      </trkpt>
      <trkpt lat="45.08055" lon="5.93348">
        <ele>2232.4</ele>
        <time>2020-07-12T10:33:26 02:00</time>
      </trkpt>
      <trkpt lat="45.08055" lon="5.9335">
        <ele>2232.2</ele>
        <time>2020-07-12T10:33:28 02:00</time>
      </trkpt>
      <trkpt lat="45.08056" lon="5.93355">
        <ele>2232</ele>
        <time>2020-07-12T10:33:31 02:00</time>
      </trkpt>
      <trkpt lat="45.08055" lon="5.93359">
        <ele>2232</ele>
        <time>2020-07-12T10:33:34 02:00</time>
      </trkpt>
      <trkpt lat="45.08055" lon="5.93363">
        <ele>2232</ele>
        <time>2020-07-12T10:33:37 02:00</time>
      </trkpt>
      <trkpt lat="45.08054" lon="5.93368">
        <ele>2232.2</ele>
        <time>2020-07-12T10:33:40 02:00</time>
      </trkpt>
      <trkpt lat="45.08053" lon="5.93373">
        <ele>2232.4</ele>
        <time>2020-07-12T10:33:44 02:00</time>
      </trkpt>
      <trkpt lat="45.08053" lon="5.93374">
        <ele>2232.6</ele>
        <time>2020-07-12T10:33:45 02:00</time>
      </trkpt>
      <trkpt lat="45.08053" lon="5.93379">
        <ele>2232.6</ele>
        <time>2020-07-12T10:33:49 02:00</time>
      </trkpt>
      <trkpt lat="45.08053" lon="5.93383">
        <ele>2232.4</ele>
        <time>2020-07-12T10:33:52 02:00</time>
      </trkpt>
      <trkpt lat="45.08053" lon="5.93389">
        <ele>2231.8</ele>
        <time>2020-07-12T10:33:56 02:00</time>
      </trkpt>
      <trkpt lat="45.08053" lon="5.93391">
        <ele>2231.2</ele>
        <time>2020-07-12T10:33:58 02:00</time>
      </trkpt>
      <trkpt lat="45.08054" lon="5.93396">
        <ele>2230.2</ele>
        <time>2020-07-12T10:34:04 02:00</time>
      </trkpt>
      <trkpt lat="45.08054" lon="5.934">
        <ele>2229.4</ele>
        <time>2020-07-12T10:34:07 02:00</time>
      </trkpt>
      <trkpt lat="45.08055" lon="5.93401">
        <ele>2228.8</ele>
        <time>2020-07-12T10:34:08 02:00</time>
      </trkpt>
      <trkpt lat="45.08057" lon="5.93405">
        <ele>2228.4</ele>
        <time>2020-07-12T10:34:12 02:00</time>
      </trkpt>
      <trkpt lat="45.08057" lon="5.93408">
        <ele>2227.8</ele>
        <time>2020-07-12T10:34:15 02:00</time>
      </trkpt>
      <trkpt lat="45.08057" lon="5.93409">
        <ele>2227.6</ele>
        <time>2020-07-12T10:34:16 02:00</time>
      </trkpt>
      <trkpt lat="45.08057" lon="5.9341">
        <ele>2227.6</ele>
        <time>2020-07-12T10:34:17 02:00</time>
      </trkpt>
      <trkpt lat="45.08056" lon="5.93411">
        <ele>2227.6</ele>
        <time>2020-07-12T10:34:18 02:00</time>
      </trkpt>
      <trkpt lat="45.08057" lon="5.93415">
        <ele>2227.6</ele>
        <time>2020-07-12T10:34:21 02:00</time>
      </trkpt>
      <trkpt lat="45.08058" lon="5.93421">
        <ele>2227.8</ele>
        <time>2020-07-12T10:34:26 02:00</time>
      </trkpt>
      <trkpt lat="45.08057" lon="5.93424">
        <ele>2228</ele>
        <time>2020-07-12T10:34:29 02:00</time>
      </trkpt>
      <trkpt lat="45.08056" lon="5.93425">
        <ele>2228.2</ele>
        <time>2020-07-12T10:34:31 02:00</time>
      </trkpt>
      <trkpt lat="45.08054" lon="5.93428">
        <ele>2228.4</ele>
        <time>2020-07-12T10:34:34 02:00</time>
      </trkpt>
      <trkpt lat="45.08054" lon="5.93429">
        <ele>2228.6</ele>
        <time>2020-07-12T10:34:35 02:00</time>
      </trkpt>
      <trkpt lat="45.08054" lon="5.93431">
        <ele>2228.6</ele>
        <time>2020-07-12T10:34:37 02:00</time>
      </trkpt>
      <trkpt lat="45.08055" lon="5.93441">
        <ele>2228.2</ele>
        <time>2020-07-12T10:34:48 02:00</time>
      </trkpt>
      <trkpt lat="45.08055" lon="5.93442">
        <ele>2227.6</ele>
        <time>2020-07-12T10:34:49 02:00</time>
      </trkpt>
      <trkpt lat="45.0806" lon="5.93456">
        <ele>2227</ele>
        <time>2020-07-12T10:35:02 02:00</time>
      </trkpt>
      <trkpt lat="45.08061" lon="5.93457">
        <ele>2226.4</ele>
        <time>2020-07-12T10:35:03 02:00</time>
      </trkpt>
      <trkpt lat="45.08061" lon="5.93457">
        <ele>2225.8</ele>
        <time>2020-07-12T10:35:05 02:00</time>
      </trkpt>
      <trkpt lat="45.08064" lon="5.9346">
        <ele>2225.4</ele>
        <time>2020-07-12T10:35:07 02:00</time>
      </trkpt>
      <trkpt lat="45.08064" lon="5.93461">
        <ele>2225</ele>
        <time>2020-07-12T10:35:08 02:00</time>
      </trkpt>
      <trkpt lat="45.08065" lon="5.93463">
        <ele>2224.4</ele>
        <time>2020-07-12T10:35:10 02:00</time>
      </trkpt>
      <trkpt lat="45.08065" lon="5.93464">
        <ele>2223.8</ele>
        <time>2020-07-12T10:35:11 02:00</time>
      </trkpt>
      <trkpt lat="45.08065" lon="5.93466">
        <ele>2223.4</ele>
        <time>2020-07-12T10:35:12 02:00</time>
      </trkpt>
      <trkpt lat="45.08067" lon="5.9347">
        <ele>2223.2</ele>
        <time>2020-07-12T10:35:15 02:00</time>
      </trkpt>
      <trkpt lat="45.08069" lon="5.93475">
        <ele>2222.8</ele>
        <time>2020-07-12T10:35:18 02:00</time>
      </trkpt>
      <trkpt lat="45.0807" lon="5.93477">
        <ele>2222.6</ele>
        <time>2020-07-12T10:35:21 02:00</time>
      </trkpt>
      <trkpt lat="45.08071" lon="5.93479">
        <ele>2222.4</ele>
        <time>2020-07-12T10:35:22 02:00</time>
      </trkpt>
      <trkpt lat="45.08072" lon="5.93481">
        <ele>2222</ele>
        <time>2020-07-12T10:35:24 02:00</time>
      </trkpt>
      <trkpt lat="45.08073" lon="5.93482">
        <ele>2221.6</ele>
        <time>2020-07-12T10:35:26 02:00</time>
      </trkpt>
      <trkpt lat="45.08073" lon="5.93484">
        <ele>2221.4</ele>
        <time>2020-07-12T10:35:28 02:00</time>
      </trkpt>
      <trkpt lat="45.08073" lon="5.93487">
        <ele>2221.2</ele>
        <time>2020-07-12T10:35:30 02:00</time>
      </trkpt>
      <trkpt lat="45.08074" lon="5.9349">
        <ele>2220.8</ele>
        <time>2020-07-12T10:35:32 02:00</time>
      </trkpt>
      <trkpt lat="45.08077" lon="5.93496">
        <ele>2220.6</ele>
        <time>2020-07-12T10:35:38 02:00</time>
      </trkpt>
      <trkpt lat="45.08079" lon="5.935">
        <ele>2220.4</ele>
        <time>2020-07-12T10:35:41 02:00</time>
      </trkpt>
      <trkpt lat="45.08079" lon="5.93505">
        <ele>2220</ele>
        <time>2020-07-12T10:35:45 02:00</time>
      </trkpt>
      <trkpt lat="45.08079" lon="5.93506">
        <ele>2219.6</ele>
        <time>2020-07-12T10:35:46 02:00</time>
      </trkpt>
      <trkpt lat="45.0808" lon="5.93509">
        <ele>2219.4</ele>
        <time>2020-07-12T10:35:58 02:00</time>
      </trkpt>
      <trkpt lat="45.08081" lon="5.93513">
        <ele>2219.2</ele>
        <time>2020-07-12T10:36:01 02:00</time>
      </trkpt>
      <trkpt lat="45.08082" lon="5.93515">
        <ele>2218.8</ele>
        <time>2020-07-12T10:36:03 02:00</time>
      </trkpt>
      <trkpt lat="45.08083" lon="5.93516">
        <ele>2218.6</ele>
        <time>2020-07-12T10:36:04 02:00</time>
      </trkpt>
      <trkpt lat="45.08084" lon="5.93517">
        <ele>2218.4</ele>
        <time>2020-07-12T10:36:05 02:00</time>
      </trkpt>
      <trkpt lat="45.08085" lon="5.93518">
        <ele>2218.2</ele>
        <time>2020-07-12T10:36:06 02:00</time>
      </trkpt>
      <trkpt lat="45.08086" lon="5.93519">
        <ele>2218</ele>
        <time>2020-07-12T10:36:07 02:00</time>
      </trkpt>
      <trkpt lat="45.08089" lon="5.93522">
        <ele>2218</ele>
        <time>2020-07-12T10:36:10 02:00</time>
      </trkpt>
      <trkpt lat="45.08089" lon="5.93527">
        <ele>2218</ele>
        <time>2020-07-12T10:36:13 02:00</time>
      </trkpt>
      <trkpt lat="45.08092" lon="5.93531">
        <ele>2218</ele>
        <time>2020-07-12T10:36:17 02:00</time>
      </trkpt>
      <trkpt lat="45.08094" lon="5.93534">
        <ele>2218</ele>
        <time>2020-07-12T10:36:19 02:00</time>
      </trkpt>
      <trkpt lat="45.08096" lon="5.93537">
        <ele>2218</ele>
        <time>2020-07-12T10:36:22 02:00</time>
      </trkpt>
      <trkpt lat="45.08099" lon="5.9354">
        <ele>2218</ele>
        <time>2020-07-12T10:36:25 02:00</time>
      </trkpt>
      <trkpt lat="45.08102" lon="5.93543">
        <ele>2218</ele>
        <time>2020-07-12T10:36:28 02:00</time>
      </trkpt>
      <trkpt lat="45.08104" lon="5.93546">
        <ele>2218</ele>
        <time>2020-07-12T10:36:31 02:00</time>
      </trkpt>
      <trkpt lat="45.08105" lon="5.93547">
        <ele>2218.2</ele>
        <time>2020-07-12T10:36:32 02:00</time>
      </trkpt>
      <trkpt lat="45.08107" lon="5.93551">
        <ele>2218.4</ele>
        <time>2020-07-12T10:36:36 02:00</time>
      </trkpt>
      <trkpt lat="45.08107" lon="5.93552">
        <ele>2218.6</ele>
        <time>2020-07-12T10:36:37 02:00</time>
      </trkpt>
      <trkpt lat="45.08108" lon="5.93553">
        <ele>2218.8</ele>
        <time>2020-07-12T10:36:38 02:00</time>
      </trkpt>
      <trkpt lat="45.08109" lon="5.93554">
        <ele>2219</ele>
        <time>2020-07-12T10:36:39 02:00</time>
      </trkpt>
      <trkpt lat="45.0811" lon="5.93555">
        <ele>2219</ele>
        <time>2020-07-12T10:36:40 02:00</time>
      </trkpt>
      <trkpt lat="45.08112" lon="5.93558">
        <ele>2219.4</ele>
        <time>2020-07-12T10:36:43 02:00</time>
      </trkpt>
      <trkpt lat="45.08112" lon="5.93559">
        <ele>2219.6</ele>
        <time>2020-07-12T10:36:44 02:00</time>
      </trkpt>
      <trkpt lat="45.08113" lon="5.93563">
        <ele>2219.8</ele>
        <time>2020-07-12T10:36:48 02:00</time>
      </trkpt>
      <trkpt lat="45.08114" lon="5.93564">
        <ele>2220</ele>
        <time>2020-07-12T10:36:49 02:00</time>
      </trkpt>
      <trkpt lat="45.08114" lon="5.93564">
        <ele>2220.2</ele>
        <time>2020-07-12T10:36:50 02:00</time>
      </trkpt>
      <trkpt lat="45.08115" lon="5.93566">
        <ele>2220.2</ele>
        <time>2020-07-12T10:36:52 02:00</time>
      </trkpt>
      <trkpt lat="45.08117" lon="5.93566">
        <ele>2220.4</ele>
        <time>2020-07-12T10:36:54 02:00</time>
      </trkpt>
      <trkpt lat="45.08118" lon="5.93566">
        <ele>2220.6</ele>
        <time>2020-07-12T10:36:55 02:00</time>
      </trkpt>
      <trkpt lat="45.08119" lon="5.93568">
        <ele>2220.8</ele>
        <time>2020-07-12T10:36:57 02:00</time>
      </trkpt>
      <trkpt lat="45.08119" lon="5.93569">
        <ele>2220.8</ele>
        <time>2020-07-12T10:36:58 02:00</time>
      </trkpt>
      <trkpt lat="45.0812" lon="5.9357">
        <ele>2220.6</ele>
        <time>2020-07-12T10:36:59 02:00</time>
      </trkpt>
      <trkpt lat="45.08122" lon="5.93571">
        <ele>2220.6</ele>
        <time>2020-07-12T10:37:00 02:00</time>
      </trkpt>
      <trkpt lat="45.08128" lon="5.93577">
        <ele>2220.8</ele>
        <time>2020-07-12T10:37:08 02:00</time>
      </trkpt>
      <trkpt lat="45.0813" lon="5.9358">
        <ele>2221.2</ele>
        <time>2020-07-12T10:37:11 02:00</time>
      </trkpt>
      <trkpt lat="45.08131" lon="5.93582">
        <ele>2222</ele>
        <time>2020-07-12T10:37:14 02:00</time>
      </trkpt>
      <trkpt lat="45.08133" lon="5.93584">
        <ele>2222.6</ele>
        <time>2020-07-12T10:37:16 02:00</time>
      </trkpt>
      <trkpt lat="45.08135" lon="5.93587">
        <ele>2223.2</ele>
        <time>2020-07-12T10:37:19 02:00</time>
      </trkpt>
      <trkpt lat="45.08137" lon="5.9359">
        <ele>2223.4</ele>
        <time>2020-07-12T10:37:23 02:00</time>
      </trkpt>
      <trkpt lat="45.08138" lon="5.93591">
        <ele>2223.4</ele>
        <time>2020-07-12T10:37:24 02:00</time>
      </trkpt>
      <trkpt lat="45.08139" lon="5.93592">
        <ele>2223.4</ele>
        <time>2020-07-12T10:37:25 02:00</time>
      </trkpt>
      <trkpt lat="45.08141" lon="5.93594">
        <ele>2223.6</ele>
        <time>2020-07-12T10:37:29 02:00</time>
      </trkpt>
      <trkpt lat="45.08143" lon="5.93595">
        <ele>2223.4</ele>
        <time>2020-07-12T10:37:31 02:00</time>
      </trkpt>
      <trkpt lat="45.08144" lon="5.93601">
        <ele>2223.6</ele>
        <time>2020-07-12T10:37:38 02:00</time>
      </trkpt>
      <trkpt lat="45.08145" lon="5.93606">
        <ele>2223.6</ele>
        <time>2020-07-12T10:37:41 02:00</time>
      </trkpt>
      <trkpt lat="45.08145" lon="5.93607">
        <ele>2223.4</ele>
        <time>2020-07-12T10:37:42 02:00</time>
      </trkpt>
      <trkpt lat="45.08146" lon="5.93611">
        <ele>2223.2</ele>
        <time>2020-07-12T10:37:45 02:00</time>
      </trkpt>
      <trkpt lat="45.08147" lon="5.93615">
        <ele>2223.4</ele>
        <time>2020-07-12T10:37:48 02:00</time>
      </trkpt>
      <trkpt lat="45.08149" lon="5.93619">
        <ele>2223.4</ele>
        <time>2020-07-12T10:37:52 02:00</time>
      </trkpt>
      <trkpt lat="45.08151" lon="5.93623">
        <ele>2223.6</ele>
        <time>2020-07-12T10:37:55 02:00</time>
      </trkpt>
      <trkpt lat="45.08151" lon="5.93625">
        <ele>2223.8</ele>
        <time>2020-07-12T10:37:57 02:00</time>
      </trkpt>
      <trkpt lat="45.08151" lon="5.93625">
        <ele>2224</ele>
        <time>2020-07-12T10:37:58 02:00</time>
      </trkpt>
      <trkpt lat="45.08154" lon="5.9363">
        <ele>2224</ele>
        <time>2020-07-12T10:38:02 02:00</time>
      </trkpt>
      <trkpt lat="45.08155" lon="5.93633">
        <ele>2224</ele>
        <time>2020-07-12T10:38:05 02:00</time>
      </trkpt>
      <trkpt lat="45.08157" lon="5.93636">
        <ele>2224</ele>
        <time>2020-07-12T10:38:08 02:00</time>
      </trkpt>
      <trkpt lat="45.08158" lon="5.93638">
        <ele>2224</ele>
        <time>2020-07-12T10:38:11 02:00</time>
      </trkpt>
      <trkpt lat="45.08161" lon="5.93644">
        <ele>2224</ele>
        <time>2020-07-12T10:38:19 02:00</time>
      </trkpt>
      <trkpt lat="45.08161" lon="5.93646">
        <ele>2224</ele>
        <time>2020-07-12T10:38:20 02:00</time>
      </trkpt>
      <trkpt lat="45.08162" lon="5.9365">
        <ele>2224.2</ele>
        <time>2020-07-12T10:38:27 02:00</time>
      </trkpt>
      <trkpt lat="45.08163" lon="5.93653">
        <ele>2224.4</ele>
        <time>2020-07-12T10:38:29 02:00</time>
      </trkpt>
      <trkpt lat="45.08164" lon="5.93654">
        <ele>2224.6</ele>
        <time>2020-07-12T10:38:32 02:00</time>
      </trkpt>
      <trkpt lat="45.08165" lon="5.93658">
        <ele>2224.8</ele>
        <time>2020-07-12T10:38:36 02:00</time>
      </trkpt>
      <trkpt lat="45.08166" lon="5.93662">
        <ele>2225.2</ele>
        <time>2020-07-12T10:38:44 02:00</time>
      </trkpt>
      <trkpt lat="45.08166" lon="5.93664">
        <ele>2225.4</ele>
        <time>2020-07-12T10:38:46 02:00</time>
      </trkpt>
      <trkpt lat="45.08167" lon="5.93665">
        <ele>2225.6</ele>
        <time>2020-07-12T10:38:47 02:00</time>
      </trkpt>
      <trkpt lat="45.08168" lon="5.93669">
        <ele>2225.8</ele>
        <time>2020-07-12T10:38:51 02:00</time>
      </trkpt>
      <trkpt lat="45.0817" lon="5.93671">
        <ele>2226.2</ele>
        <time>2020-07-12T10:38:53 02:00</time>
      </trkpt>
      <trkpt lat="45.08171" lon="5.93673">
        <ele>2226.4</ele>
        <time>2020-07-12T10:38:55 02:00</time>
      </trkpt>
      <trkpt lat="45.08171" lon="5.93673">
        <ele>2226.4</ele>
        <time>2020-07-12T10:38:55 02:00</time>
      </trkpt>
      <trkpt lat="45.08174" lon="5.93676">
        <ele>2226.4</ele>
        <time>2020-07-12T10:38:58 02:00</time>
      </trkpt>
      <trkpt lat="45.08176" lon="5.93679">
        <ele>2226.4</ele>
        <time>2020-07-12T10:39:03 02:00</time>
      </trkpt>
      <trkpt lat="45.08176" lon="5.9368">
        <ele>2226.2</ele>
        <time>2020-07-12T10:39:04 02:00</time>
      </trkpt>
      <trkpt lat="45.08178" lon="5.93681">
        <ele>2226</ele>
        <time>2020-07-12T10:39:06 02:00</time>
      </trkpt>
      <trkpt lat="45.08178" lon="5.9368">
        <ele>2226</ele>
        <time>2020-07-12T10:39:07 02:00</time>
      </trkpt>
      <trkpt lat="45.08187" lon="5.93687">
        <ele>2226.4</ele>
        <time>2020-07-12T10:42:02 02:00</time>
      </trkpt>
      <trkpt lat="45.08188" lon="5.93687">
        <ele>2226.8</ele>
        <time>2020-07-12T10:42:03 02:00</time>
      </trkpt>
      <trkpt lat="45.08188" lon="5.93688">
        <ele>2227.4</ele>
        <time>2020-07-12T10:42:04 02:00</time>
      </trkpt>
      <trkpt lat="45.08188" lon="5.93693">
        <ele>2228</ele>
        <time>2020-07-12T10:42:07 02:00</time>
      </trkpt>
      <trkpt lat="45.08189" lon="5.93696">
        <ele>2228.6</ele>
        <time>2020-07-12T10:42:10 02:00</time>
      </trkpt>
      <trkpt lat="45.08189" lon="5.93701">
        <ele>2228.6</ele>
        <time>2020-07-12T10:42:14 02:00</time>
      </trkpt>
      <trkpt lat="45.08191" lon="5.93704">
        <ele>2228.8</ele>
        <time>2020-07-12T10:42:18 02:00</time>
      </trkpt>
      <trkpt lat="45.08191" lon="5.93705">
        <ele>2228.8</ele>
        <time>2020-07-12T10:42:21 02:00</time>
      </trkpt>
      <trkpt lat="45.08192" lon="5.93707">
        <ele>2228.8</ele>
        <time>2020-07-12T10:42:23 02:00</time>
      </trkpt>
      <trkpt lat="45.08193" lon="5.93708">
        <ele>2228.6</ele>
        <time>2020-07-12T10:42:24 02:00</time>
      </trkpt>
      <trkpt lat="45.08193" lon="5.93709">
        <ele>2228.8</ele>
        <time>2020-07-12T10:42:25 02:00</time>
      </trkpt>
      <trkpt lat="45.08195" lon="5.93711">
        <ele>2228.8</ele>
        <time>2020-07-12T10:42:28 02:00</time>
      </trkpt>
      <trkpt lat="45.08197" lon="5.93715">
        <ele>2228.6</ele>
        <time>2020-07-12T10:42:31 02:00</time>
      </trkpt>
      <trkpt lat="45.08199" lon="5.93718">
        <ele>2228.4</ele>
        <time>2020-07-12T10:42:35 02:00</time>
      </trkpt>
      <trkpt lat="45.08201" lon="5.93722">
        <ele>2228.4</ele>
        <time>2020-07-12T10:42:39 02:00</time>
      </trkpt>
      <trkpt lat="45.08203" lon="5.93725">
        <ele>2228.2</ele>
        <time>2020-07-12T10:42:44 02:00</time>
      </trkpt>
      <trkpt lat="45.08205" lon="5.93728">
        <ele>2228</ele>
        <time>2020-07-12T10:42:47 02:00</time>
      </trkpt>
      <trkpt lat="45.08207" lon="5.93732">
        <ele>2228</ele>
        <time>2020-07-12T10:42:50 02:00</time>
      </trkpt>
      <trkpt lat="45.08207" lon="5.93732">
        <ele>2228.2</ele>
        <time>2020-07-12T10:42:51 02:00</time>
      </trkpt>
      <trkpt lat="45.08208" lon="5.93734">
        <ele>2228.4</ele>
        <time>2020-07-12T10:42:53 02:00</time>
      </trkpt>
      <trkpt lat="45.08209" lon="5.93736">
        <ele>2228.6</ele>
        <time>2020-07-12T10:42:55 02:00</time>
      </trkpt>
      <trkpt lat="45.08209" lon="5.93736">
        <ele>2228.8</ele>
        <time>2020-07-12T10:42:56 02:00</time>
      </trkpt>
      <trkpt lat="45.0821" lon="5.93739">
        <ele>2229.2</ele>
        <time>2020-07-12T10:42:59 02:00</time>
      </trkpt>
      <trkpt lat="45.08212" lon="5.9374">
        <ele>2229.4</ele>
        <time>2020-07-12T10:43:01 02:00</time>
      </trkpt>
      <trkpt lat="45.08216" lon="5.93749">
        <ele>2229.4</ele>
        <time>2020-07-12T10:43:15 02:00</time>
      </trkpt>
      <trkpt lat="45.08218" lon="5.93752">
        <ele>2229.6</ele>
        <time>2020-07-12T10:43:18 02:00</time>
      </trkpt>
      <trkpt lat="45.08219" lon="5.93754">
        <ele>2229.8</ele>
        <time>2020-07-12T10:43:21 02:00</time>
      </trkpt>
      <trkpt lat="45.08221" lon="5.93757">
        <ele>2230</ele>
        <time>2020-07-12T10:43:25 02:00</time>
      </trkpt>
      <trkpt lat="45.08221" lon="5.93758">
        <ele>2230.2</ele>
        <time>2020-07-12T10:43:26 02:00</time>
      </trkpt>
      <trkpt lat="45.08223" lon="5.93761">
        <ele>2230.6</ele>
        <time>2020-07-12T10:43:30 02:00</time>
      </trkpt>
      <trkpt lat="45.08223" lon="5.93762">
        <ele>2230.8</ele>
        <time>2020-07-12T10:43:31 02:00</time>
      </trkpt>
      <trkpt lat="45.08223" lon="5.93765">
        <ele>2231</ele>
        <time>2020-07-12T10:43:34 02:00</time>
      </trkpt>
      <trkpt lat="45.08225" lon="5.93767">
        <ele>2231</ele>
        <time>2020-07-12T10:43:36 02:00</time>
      </trkpt>
      <trkpt lat="45.08225" lon="5.93768">
        <ele>2231</ele>
        <time>2020-07-12T10:43:37 02:00</time>
      </trkpt>
      <trkpt lat="45.08226" lon="5.93771">
        <ele>2231.2</ele>
        <time>2020-07-12T10:43:40 02:00</time>
      </trkpt>
      <trkpt lat="45.08226" lon="5.93772">
        <ele>2231.4</ele>
        <time>2020-07-12T10:43:41 02:00</time>
      </trkpt>
      <trkpt lat="45.08229" lon="5.93779">
        <ele>2232.2</ele>
        <time>2020-07-12T10:43:49 02:00</time>
      </trkpt>
      <trkpt lat="45.08229" lon="5.9378">
        <ele>2233</ele>
        <time>2020-07-12T10:43:50 02:00</time>
      </trkpt>
      <trkpt lat="45.08229" lon="5.93781">
        <ele>2234</ele>
        <time>2020-07-12T10:43:51 02:00</time>
      </trkpt>
      <trkpt lat="45.08232" lon="5.93783">
        <ele>2234.8</ele>
        <time>2020-07-12T10:43:55 02:00</time>
      </trkpt>
      <trkpt lat="45.08233" lon="5.93788">
        <ele>2235.8</ele>
        <time>2020-07-12T10:43:59 02:00</time>
      </trkpt>
      <trkpt lat="45.08234" lon="5.93789">
        <ele>2236</ele>
        <time>2020-07-12T10:44:00 02:00</time>
      </trkpt>
      <trkpt lat="45.08234" lon="5.9379">
        <ele>2236.2</ele>
        <time>2020-07-12T10:44:01 02:00</time>
      </trkpt>
      <trkpt lat="45.08235" lon="5.93795">
        <ele>2236.2</ele>
        <time>2020-07-12T10:44:05 02:00</time>
      </trkpt>
      <trkpt lat="45.08235" lon="5.93796">
        <ele>2236.2</ele>
        <time>2020-07-12T10:44:06 02:00</time>
      </trkpt>
      <trkpt lat="45.08235" lon="5.938">
        <ele>2236</ele>
        <time>2020-07-12T10:44:10 02:00</time>
      </trkpt>
      <trkpt lat="45.08235" lon="5.93802">
        <ele>2236</ele>
        <time>2020-07-12T10:44:12 02:00</time>
      </trkpt>
      <trkpt lat="45.08236" lon="5.93805">
        <ele>2236</ele>
        <time>2020-07-12T10:44:15 02:00</time>
      </trkpt>
      <trkpt lat="45.08235" lon="5.93807">
        <ele>2236</ele>
        <time>2020-07-12T10:44:16 02:00</time>
      </trkpt>
      <trkpt lat="45.08236" lon="5.93809">
        <ele>2236</ele>
        <time>2020-07-12T10:44:18 02:00</time>
      </trkpt>
      <trkpt lat="45.08237" lon="5.9381">
        <ele>2236</ele>
        <time>2020-07-12T10:44:19 02:00</time>
      </trkpt>
      <trkpt lat="45.08238" lon="5.93815">
        <ele>2236.4</ele>
        <time>2020-07-12T10:44:23 02:00</time>
      </trkpt>
      <trkpt lat="45.08238" lon="5.93816">
        <ele>2236.8</ele>
        <time>2020-07-12T10:44:24 02:00</time>
      </trkpt>
      <trkpt lat="45.08238" lon="5.93817">
        <ele>2237.2</ele>
        <time>2020-07-12T10:44:26 02:00</time>
      </trkpt>
      <trkpt lat="45.08238" lon="5.93818">
        <ele>2237.4</ele>
        <time>2020-07-12T10:44:27 02:00</time>
      </trkpt>
      <trkpt lat="45.08238" lon="5.93821">
        <ele>2237.6</ele>
        <time>2020-07-12T10:44:29 02:00</time>
      </trkpt>
      <trkpt lat="45.08238" lon="5.93825">
        <ele>2237.4</ele>
        <time>2020-07-12T10:44:32 02:00</time>
      </trkpt>
      <trkpt lat="45.08239" lon="5.93826">
        <ele>2237.4</ele>
        <time>2020-07-12T10:44:34 02:00</time>
      </trkpt>
      <trkpt lat="45.0824" lon="5.93829">
        <ele>2237.2</ele>
        <time>2020-07-12T10:44:37 02:00</time>
      </trkpt>
      <trkpt lat="45.08241" lon="5.93831">
        <ele>2237.2</ele>
        <time>2020-07-12T10:44:39 02:00</time>
      </trkpt>
      <trkpt lat="45.08241" lon="5.93834">
        <ele>2237.4</ele>
        <time>2020-07-12T10:44:41 02:00</time>
      </trkpt>
      <trkpt lat="45.08241" lon="5.93835">
        <ele>2237.6</ele>
        <time>2020-07-12T10:44:42 02:00</time>
      </trkpt>
      <trkpt lat="45.08242" lon="5.9384">
        <ele>2237.4</ele>
        <time>2020-07-12T10:44:46 02:00</time>
      </trkpt>
      <trkpt lat="45.08243" lon="5.93843">
        <ele>2237.2</ele>
        <time>2020-07-12T10:44:49 02:00</time>
      </trkpt>
      <trkpt lat="45.08243" lon="5.93845">
        <ele>2237</ele>
        <time>2020-07-12T10:44:51 02:00</time>
      </trkpt>
      <trkpt lat="45.08242" lon="5.93848">
        <ele>2236.6</ele>
        <time>2020-07-12T10:44:53 02:00</time>
      </trkpt>
      <trkpt lat="45.08243" lon="5.93848">
        <ele>2236.2</ele>
        <time>2020-07-12T10:44:54 02:00</time>
      </trkpt>
      <trkpt lat="45.08243" lon="5.93852">
        <ele>2236</ele>
        <time>2020-07-12T10:44:57 02:00</time>
      </trkpt>
      <trkpt lat="45.08243" lon="5.93853">
        <ele>2236</ele>
        <time>2020-07-12T10:44:58 02:00</time>
      </trkpt>
      <trkpt lat="45.08244" lon="5.93857">
        <ele>2235.8</ele>
        <time>2020-07-12T10:45:01 02:00</time>
      </trkpt>
      <trkpt lat="45.08244" lon="5.93858">
        <ele>2235.8</ele>
        <time>2020-07-12T10:45:02 02:00</time>
      </trkpt>
      <trkpt lat="45.08244" lon="5.93861">
        <ele>2235.8</ele>
        <time>2020-07-12T10:45:05 02:00</time>
      </trkpt>
      <trkpt lat="45.08244" lon="5.93862">
        <ele>2235.8</ele>
        <time>2020-07-12T10:45:06 02:00</time>
      </trkpt>
      <trkpt lat="45.08244" lon="5.93863">
        <ele>2235.8</ele>
        <time>2020-07-12T10:45:07 02:00</time>
      </trkpt>
      <trkpt lat="45.08244" lon="5.93865">
        <ele>2235.8</ele>
        <time>2020-07-12T10:45:08 02:00</time>
      </trkpt>
      <trkpt lat="45.08244" lon="5.93869">
        <ele>2235.6</ele>
        <time>2020-07-12T10:45:12 02:00</time>
      </trkpt>
      <trkpt lat="45.08244" lon="5.9387">
        <ele>2235.4</ele>
        <time>2020-07-12T10:45:13 02:00</time>
      </trkpt>
      <trkpt lat="45.08244" lon="5.93871">
        <ele>2235.2</ele>
        <time>2020-07-12T10:45:14 02:00</time>
      </trkpt>
      <trkpt lat="45.08245" lon="5.93875">
        <ele>2235</ele>
        <time>2020-07-12T10:45:17 02:00</time>
      </trkpt>
      <trkpt lat="45.08245" lon="5.93876">
        <ele>2235</ele>
        <time>2020-07-12T10:45:18 02:00</time>
      </trkpt>
      <trkpt lat="45.08245" lon="5.93879">
        <ele>2235</ele>
        <time>2020-07-12T10:45:21 02:00</time>
      </trkpt>
      <trkpt lat="45.08245" lon="5.93879">
        <ele>2235</ele>
        <time>2020-07-12T10:45:22 02:00</time>
      </trkpt>
      <trkpt lat="45.08245" lon="5.93881">
        <ele>2234.8</ele>
        <time>2020-07-12T10:45:24 02:00</time>
      </trkpt>
      <trkpt lat="45.08246" lon="5.93885">
        <ele>2234.8</ele>
        <time>2020-07-12T10:45:27 02:00</time>
      </trkpt>
      <trkpt lat="45.08246" lon="5.93886">
        <ele>2234.8</ele>
        <time>2020-07-12T10:45:28 02:00</time>
      </trkpt>
      <trkpt lat="45.08245" lon="5.93888">
        <ele>2234.6</ele>
        <time>2020-07-12T10:45:29 02:00</time>
      </trkpt>
      <trkpt lat="45.08246" lon="5.93893">
        <ele>2234.6</ele>
        <time>2020-07-12T10:45:32 02:00</time>
      </trkpt>
      <trkpt lat="45.08246" lon="5.93893">
        <ele>2234.8</ele>
        <time>2020-07-12T10:45:33 02:00</time>
      </trkpt>
      <trkpt lat="45.08247" lon="5.93902">
        <ele>2234.6</ele>
        <time>2020-07-12T10:45:50 02:00</time>
      </trkpt>
      <trkpt lat="45.08248" lon="5.93907">
        <ele>2234.4</ele>
        <time>2020-07-12T10:45:54 02:00</time>
      </trkpt>
      <trkpt lat="45.08248" lon="5.93908">
        <ele>2234.4</ele>
        <time>2020-07-12T10:45:55 02:00</time>
      </trkpt>
      <trkpt lat="45.08248" lon="5.93912">
        <ele>2234.4</ele>
        <time>2020-07-12T10:45:59 02:00</time>
      </trkpt>
      <trkpt lat="45.08248" lon="5.93913">
        <ele>2234.2</ele>
        <time>2020-07-12T10:46:00 02:00</time>
      </trkpt>
      <trkpt lat="45.08249" lon="5.93914">
        <ele>2234.2</ele>
        <time>2020-07-12T10:46:01 02:00</time>
      </trkpt>
      <trkpt lat="45.08249" lon="5.93914">
        <ele>2234.2</ele>
        <time>2020-07-12T10:46:02 02:00</time>
      </trkpt>
      <trkpt lat="45.08249" lon="5.93918">
        <ele>2234.4</ele>
        <time>2020-07-12T10:46:05 02:00</time>
      </trkpt>
      <trkpt lat="45.08249" lon="5.93921">
        <ele>2234.2</ele>
        <time>2020-07-12T10:46:08 02:00</time>
      </trkpt>
      <trkpt lat="45.08249" lon="5.93926">
        <ele>2234.4</ele>
        <time>2020-07-12T10:46:12 02:00</time>
      </trkpt>
      <trkpt lat="45.08249" lon="5.93927">
        <ele>2234.6</ele>
        <time>2020-07-12T10:46:13 02:00</time>
      </trkpt>
      <trkpt lat="45.08249" lon="5.93929">
        <ele>2234.8</ele>
        <time>2020-07-12T10:46:15 02:00</time>
      </trkpt>
      <trkpt lat="45.0825" lon="5.93943">
        <ele>2234.8</ele>
        <time>2020-07-12T10:46:31 02:00</time>
      </trkpt>
      <trkpt lat="45.0825" lon="5.93945">
        <ele>2235.2</ele>
        <time>2020-07-12T10:46:33 02:00</time>
      </trkpt>
      <trkpt lat="45.08254" lon="5.93956">
        <ele>2235.4</ele>
        <time>2020-07-12T10:46:52 02:00</time>
      </trkpt>
      <trkpt lat="45.08253" lon="5.9396">
        <ele>2235.4</ele>
        <time>2020-07-12T10:46:55 02:00</time>
      </trkpt>
      <trkpt lat="45.08254" lon="5.93962">
        <ele>2235.4</ele>
        <time>2020-07-12T10:46:56 02:00</time>
      </trkpt>
      <trkpt lat="45.08254" lon="5.93966">
        <ele>2235.6</ele>
        <time>2020-07-12T10:46:59 02:00</time>
      </trkpt>
      <trkpt lat="45.08254" lon="5.93971">
        <ele>2235.6</ele>
        <time>2020-07-12T10:47:03 02:00</time>
      </trkpt>
      <trkpt lat="45.08255" lon="5.93974">
        <ele>2235.4</ele>
        <time>2020-07-12T10:47:07 02:00</time>
      </trkpt>
      <trkpt lat="45.08257" lon="5.93979">
        <ele>2235.4</ele>
        <time>2020-07-12T10:47:10 02:00</time>
      </trkpt>
      <trkpt lat="45.08258" lon="5.93983">
        <ele>2235.4</ele>
        <time>2020-07-12T10:47:14 02:00</time>
      </trkpt>
      <trkpt lat="45.0826" lon="5.93987">
        <ele>2235.2</ele>
        <time>2020-07-12T10:47:18 02:00</time>
      </trkpt>
      <trkpt lat="45.08262" lon="5.93992">
        <ele>2235</ele>
        <time>2020-07-12T10:47:22 02:00</time>
      </trkpt>
      <trkpt lat="45.08262" lon="5.93995">
        <ele>2235</ele>
        <time>2020-07-12T10:47:25 02:00</time>
      </trkpt>
      <trkpt lat="45.08263" lon="5.93996">
        <ele>2234.8</ele>
        <time>2020-07-12T10:47:26 02:00</time>
      </trkpt>
      <trkpt lat="45.08265" lon="5.93999">
        <ele>2234.8</ele>
        <time>2020-07-12T10:47:29 02:00</time>
      </trkpt>
      <trkpt lat="45.08266" lon="5.94003">
        <ele>2234.8</ele>
        <time>2020-07-12T10:47:32 02:00</time>
      </trkpt>
      <trkpt lat="45.08267" lon="5.94007">
        <ele>2234.8</ele>
        <time>2020-07-12T10:47:35 02:00</time>
      </trkpt>
      <trkpt lat="45.08268" lon="5.9401">
        <ele>2234.8</ele>
        <time>2020-07-12T10:47:38 02:00</time>
      </trkpt>
      <trkpt lat="45.0827" lon="5.94015">
        <ele>2235</ele>
        <time>2020-07-12T10:47:42 02:00</time>
      </trkpt>
      <trkpt lat="45.08272" lon="5.94018">
        <ele>2235</ele>
        <time>2020-07-12T10:47:46 02:00</time>
      </trkpt>
      <trkpt lat="45.08274" lon="5.94022">
        <ele>2235.2</ele>
        <time>2020-07-12T10:47:50 02:00</time>
      </trkpt>
      <trkpt lat="45.08275" lon="5.94027">
        <ele>2235.4</ele>
        <time>2020-07-12T10:47:54 02:00</time>
      </trkpt>
      <trkpt lat="45.08277" lon="5.94031">
        <ele>2235.6</ele>
        <time>2020-07-12T10:47:58 02:00</time>
      </trkpt>
      <trkpt lat="45.08278" lon="5.94035">
        <ele>2235.6</ele>
        <time>2020-07-12T10:48:01 02:00</time>
      </trkpt>
      <trkpt lat="45.08279" lon="5.94039">
        <ele>2235.6</ele>
        <time>2020-07-12T10:48:04 02:00</time>
      </trkpt>
      <trkpt lat="45.08281" lon="5.94043">
        <ele>2235.4</ele>
        <time>2020-07-12T10:48:07 02:00</time>
      </trkpt>
      <trkpt lat="45.08282" lon="5.94047">
        <ele>2235.2</ele>
        <time>2020-07-12T10:48:10 02:00</time>
      </trkpt>
      <trkpt lat="45.08282" lon="5.94051">
        <ele>2235</ele>
        <time>2020-07-12T10:48:13 02:00</time>
      </trkpt>
      <trkpt lat="45.08283" lon="5.94054">
        <ele>2234.8</ele>
        <time>2020-07-12T10:48:16 02:00</time>
      </trkpt>
      <trkpt lat="45.08284" lon="5.94058">
        <ele>2234.8</ele>
        <time>2020-07-12T10:48:19 02:00</time>
      </trkpt>
      <trkpt lat="45.08285" lon="5.94062">
        <ele>2234.8</ele>
        <time>2020-07-12T10:48:22 02:00</time>
      </trkpt>
      <trkpt lat="45.08286" lon="5.94067">
        <ele>2234.8</ele>
        <time>2020-07-12T10:48:25 02:00</time>
      </trkpt>
      <trkpt lat="45.08286" lon="5.94068">
        <ele>2234.8</ele>
        <time>2020-07-12T10:48:26 02:00</time>
      </trkpt>
      <trkpt lat="45.08287" lon="5.9407">
        <ele>2235</ele>
        <time>2020-07-12T10:48:29 02:00</time>
      </trkpt>
      <trkpt lat="45.08289" lon="5.94075">
        <ele>2235</ele>
        <time>2020-07-12T10:48:33 02:00</time>
      </trkpt>
      <trkpt lat="45.0829" lon="5.94079">
        <ele>2235</ele>
        <time>2020-07-12T10:48:36 02:00</time>
      </trkpt>
      <trkpt lat="45.08291" lon="5.94084">
        <ele>2234.8</ele>
        <time>2020-07-12T10:48:40 02:00</time>
      </trkpt>
      <trkpt lat="45.08292" lon="5.94086">
        <ele>2234.8</ele>
        <time>2020-07-12T10:48:42 02:00</time>
      </trkpt>
      <trkpt lat="45.08292" lon="5.94088">
        <ele>2234.8</ele>
        <time>2020-07-12T10:48:43 02:00</time>
      </trkpt>
      <trkpt lat="45.08294" lon="5.94094">
        <ele>2234.8</ele>
        <time>2020-07-12T10:48:48 02:00</time>
      </trkpt>
      <trkpt lat="45.08295" lon="5.94098">
        <ele>2234.8</ele>
        <time>2020-07-12T10:48:51 02:00</time>
      </trkpt>
      <trkpt lat="45.08295" lon="5.94102">
        <ele>2234.8</ele>
        <time>2020-07-12T10:48:54 02:00</time>
      </trkpt>
      <trkpt lat="45.08297" lon="5.94107">
        <ele>2234.6</ele>
        <time>2020-07-12T10:48:57 02:00</time>
      </trkpt>
      <trkpt lat="45.08298" lon="5.94111">
        <ele>2234.4</ele>
        <time>2020-07-12T10:49:01 02:00</time>
      </trkpt>
      <trkpt lat="45.08299" lon="5.94116">
        <ele>2234</ele>
        <time>2020-07-12T10:49:04 02:00</time>
      </trkpt>
      <trkpt lat="45.083" lon="5.9412">
        <ele>2233.6</ele>
        <time>2020-07-12T10:49:07 02:00</time>
      </trkpt>
      <trkpt lat="45.083" lon="5.94125">
        <ele>2233.6</ele>
        <time>2020-07-12T10:49:10 02:00</time>
      </trkpt>
      <trkpt lat="45.08302" lon="5.9413">
        <ele>2233.6</ele>
        <time>2020-07-12T10:49:13 02:00</time>
      </trkpt>
      <trkpt lat="45.08301" lon="5.94135">
        <ele>2233.6</ele>
        <time>2020-07-12T10:49:17 02:00</time>
      </trkpt>
      <trkpt lat="45.083" lon="5.94138">
        <ele>2233.8</ele>
        <time>2020-07-12T10:49:20 02:00</time>
      </trkpt>
      <trkpt lat="45.083" lon="5.94142">
        <ele>2234</ele>
        <time>2020-07-12T10:49:23 02:00</time>
      </trkpt>
      <trkpt lat="45.08301" lon="5.94147">
        <ele>2234</ele>
        <time>2020-07-12T10:49:26 02:00</time>
      </trkpt>
      <trkpt lat="45.08302" lon="5.9415">
        <ele>2234</ele>
        <time>2020-07-12T10:49:29 02:00</time>
      </trkpt>
      <trkpt lat="45.08303" lon="5.94154">
        <ele>2234</ele>
        <time>2020-07-12T10:49:32 02:00</time>
      </trkpt>
      <trkpt lat="45.08304" lon="5.94158">
        <ele>2234.2</ele>
        <time>2020-07-12T10:49:35 02:00</time>
      </trkpt>
      <trkpt lat="45.08305" lon="5.94162">
        <ele>2234.4</ele>
        <time>2020-07-12T10:49:39 02:00</time>
      </trkpt>
      <trkpt lat="45.08306" lon="5.94166">
        <ele>2234.4</ele>
        <time>2020-07-12T10:49:42 02:00</time>
      </trkpt>
      <trkpt lat="45.08307" lon="5.94167">
        <ele>2234.4</ele>
        <time>2020-07-12T10:49:43 02:00</time>
      </trkpt>
      <trkpt lat="45.08308" lon="5.94171">
        <ele>2234.2</ele>
        <time>2020-07-12T10:49:46 02:00</time>
      </trkpt>
      <trkpt lat="45.08309" lon="5.94175">
        <ele>2234</ele>
        <time>2020-07-12T10:49:49 02:00</time>
      </trkpt>
      <trkpt lat="45.08309" lon="5.9418">
        <ele>2233.6</ele>
        <time>2020-07-12T10:49:52 02:00</time>
      </trkpt>
      <trkpt lat="45.0831" lon="5.94185">
        <ele>2233.4</ele>
        <time>2020-07-12T10:49:55 02:00</time>
      </trkpt>
      <trkpt lat="45.0831" lon="5.94186">
        <ele>2233.2</ele>
        <time>2020-07-12T10:49:56 02:00</time>
      </trkpt>
      <trkpt lat="45.0831" lon="5.94187">
        <ele>2233.2</ele>
        <time>2020-07-12T10:49:57 02:00</time>
      </trkpt>
      <trkpt lat="45.08312" lon="5.94192">
        <ele>2233</ele>
        <time>2020-07-12T10:50:01 02:00</time>
      </trkpt>
      <trkpt lat="45.08313" lon="5.94197">
        <ele>2232.8</ele>
        <time>2020-07-12T10:50:05 02:00</time>
      </trkpt>
      <trkpt lat="45.08313" lon="5.94201">
        <ele>2232.6</ele>
        <time>2020-07-12T10:50:07 02:00</time>
      </trkpt>
      <trkpt lat="45.08314" lon="5.94205">
        <ele>2232.6</ele>
        <time>2020-07-12T10:50:10 02:00</time>
      </trkpt>
      <trkpt lat="45.08315" lon="5.9421">
        <ele>2232.4</ele>
        <time>2020-07-12T10:50:13 02:00</time>
      </trkpt>
      <trkpt lat="45.08316" lon="5.94214">
        <ele>2232.2</ele>
        <time>2020-07-12T10:50:16 02:00</time>
      </trkpt>
      <trkpt lat="45.08318" lon="5.94218">
        <ele>2232.2</ele>
        <time>2020-07-12T10:50:19 02:00</time>
      </trkpt>
      <trkpt lat="45.08321" lon="5.94222">
        <ele>2232.2</ele>
        <time>2020-07-12T10:50:24 02:00</time>
      </trkpt>
      <trkpt lat="45.08323" lon="5.94226">
        <ele>2232</ele>
        <time>2020-07-12T10:50:28 02:00</time>
      </trkpt>
      <trkpt lat="45.08325" lon="5.94229">
        <ele>2232</ele>
        <time>2020-07-12T10:50:30 02:00</time>
      </trkpt>
      <trkpt lat="45.08328" lon="5.94232">
        <ele>2232</ele>
        <time>2020-07-12T10:50:33 02:00</time>
      </trkpt>
      <trkpt lat="45.08331" lon="5.94236">
        <ele>2232</ele>
        <time>2020-07-12T10:50:36 02:00</time>
      </trkpt>
      <trkpt lat="45.08332" lon="5.9424">
        <ele>2231.8</ele>
        <time>2020-07-12T10:50:39 02:00</time>
      </trkpt>
      <trkpt lat="45.08335" lon="5.94245">
        <ele>2231.8</ele>
        <time>2020-07-12T10:50:44 02:00</time>
      </trkpt>
      <trkpt lat="45.08336" lon="5.94249">
        <ele>2231.8</ele>
        <time>2020-07-12T10:50:47 02:00</time>
      </trkpt>
      <trkpt lat="45.08339" lon="5.94253">
        <ele>2231.8</ele>
        <time>2020-07-12T10:50:50 02:00</time>
      </trkpt>
      <trkpt lat="45.08341" lon="5.94256">
        <ele>2231.8</ele>
        <time>2020-07-12T10:50:53 02:00</time>
      </trkpt>
      <trkpt lat="45.08342" lon="5.94259">
        <ele>2232</ele>
        <time>2020-07-12T10:50:56 02:00</time>
      </trkpt>
      <trkpt lat="45.08344" lon="5.94262">
        <ele>2232</ele>
        <time>2020-07-12T10:50:58 02:00</time>
      </trkpt>
      <trkpt lat="45.08344" lon="5.94262">
        <ele>2232</ele>
        <time>2020-07-12T10:50:59 02:00</time>
      </trkpt>
      <trkpt lat="45.08344" lon="5.94263">
        <ele>2232</ele>
        <time>2020-07-12T10:51:00 02:00</time>
      </trkpt>
      <trkpt lat="45.08347" lon="5.94267">
        <ele>2232</ele>
        <time>2020-07-12T10:51:04 02:00</time>
      </trkpt>
      <trkpt lat="45.08348" lon="5.94269">
        <ele>2231.8</ele>
        <time>2020-07-12T10:51:06 02:00</time>
      </trkpt>
      <trkpt lat="45.0835" lon="5.94273">
        <ele>2231.4</ele>
        <time>2020-07-12T10:51:09 02:00</time>
      </trkpt>
      <trkpt lat="45.0835" lon="5.94278">
        <ele>2231</ele>
        <time>2020-07-12T10:51:12 02:00</time>
      </trkpt>
      <trkpt lat="45.08351" lon="5.9428">
        <ele>2230.6</ele>
        <time>2020-07-12T10:51:14 02:00</time>
      </trkpt>
      <trkpt lat="45.08352" lon="5.94284">
        <ele>2230.2</ele>
        <time>2020-07-12T10:51:18 02:00</time>
      </trkpt>
      <trkpt lat="45.08353" lon="5.94289">
        <ele>2230</ele>
        <time>2020-07-12T10:51:21 02:00</time>
      </trkpt>
      <trkpt lat="45.08354" lon="5.94292">
        <ele>2230</ele>
        <time>2020-07-12T10:51:23 02:00</time>
      </trkpt>
      <trkpt lat="45.08355" lon="5.94297">
        <ele>2229.8</ele>
        <time>2020-07-12T10:51:26 02:00</time>
      </trkpt>
      <trkpt lat="45.08356" lon="5.94301">
        <ele>2229.6</ele>
        <time>2020-07-12T10:51:29 02:00</time>
      </trkpt>
      <trkpt lat="45.08356" lon="5.94306">
        <ele>2229.4</ele>
        <time>2020-07-12T10:51:32 02:00</time>
      </trkpt>
      <trkpt lat="45.08358" lon="5.94309">
        <ele>2229</ele>
        <time>2020-07-12T10:51:35 02:00</time>
      </trkpt>
      <trkpt lat="45.08358" lon="5.94309">
        <ele>2228.6</ele>
        <time>2020-07-12T10:51:36 02:00</time>
      </trkpt>
      <trkpt lat="45.08358" lon="5.94312">
        <ele>2228.6</ele>
        <time>2020-07-12T10:51:42 02:00</time>
      </trkpt>
      <trkpt lat="45.0836" lon="5.94316">
        <ele>2228.8</ele>
        <time>2020-07-12T10:51:45 02:00</time>
      </trkpt>
      <trkpt lat="45.0836" lon="5.94317">
        <ele>2229</ele>
        <time>2020-07-12T10:51:46 02:00</time>
      </trkpt>
      <trkpt lat="45.08361" lon="5.94318">
        <ele>2229.4</ele>
        <time>2020-07-12T10:51:47 02:00</time>
      </trkpt>
      <trkpt lat="45.08361" lon="5.94321">
        <ele>2229.8</ele>
        <time>2020-07-12T10:51:49 02:00</time>
      </trkpt>
      <trkpt lat="45.08361" lon="5.94323">
        <ele>2230</ele>
        <time>2020-07-12T10:51:51 02:00</time>
      </trkpt>
      <trkpt lat="45.08361" lon="5.94324">
        <ele>2230</ele>
        <time>2020-07-12T10:51:52 02:00</time>
      </trkpt>
      <trkpt lat="45.08361" lon="5.94325">
        <ele>2229.8</ele>
        <time>2020-07-12T10:51:53 02:00</time>
      </trkpt>
      <trkpt lat="45.08363" lon="5.94328">
        <ele>2229.6</ele>
        <time>2020-07-12T10:51:55 02:00</time>
      </trkpt>
      <trkpt lat="45.08363" lon="5.9433">
        <ele>2229.4</ele>
        <time>2020-07-12T10:51:57 02:00</time>
      </trkpt>
      <trkpt lat="45.08364" lon="5.94334">
        <ele>2229.2</ele>
        <time>2020-07-12T10:52:01 02:00</time>
      </trkpt>
      <trkpt lat="45.08363" lon="5.94335">
        <ele>2228.8</ele>
        <time>2020-07-12T10:52:02 02:00</time>
      </trkpt>
      <trkpt lat="45.08364" lon="5.94336">
        <ele>2228.6</ele>
        <time>2020-07-12T10:52:03 02:00</time>
      </trkpt>
      <trkpt lat="45.08365" lon="5.94338">
        <ele>2228.4</ele>
        <time>2020-07-12T10:52:05 02:00</time>
      </trkpt>
      <trkpt lat="45.08365" lon="5.94339">
        <ele>2228.2</ele>
        <time>2020-07-12T10:52:06 02:00</time>
      </trkpt>
      <trkpt lat="45.08365" lon="5.94341">
        <ele>2228</ele>
        <time>2020-07-12T10:52:08 02:00</time>
      </trkpt>
      <trkpt lat="45.08365" lon="5.94345">
        <ele>2228</ele>
        <time>2020-07-12T10:52:12 02:00</time>
      </trkpt>
      <trkpt lat="45.08365" lon="5.94347">
        <ele>2228</ele>
        <time>2020-07-12T10:52:12 02:00</time>
      </trkpt>
      <trkpt lat="45.08366" lon="5.9435">
        <ele>2228.2</ele>
        <time>2020-07-12T10:52:15 02:00</time>
      </trkpt>
      <trkpt lat="45.08367" lon="5.94355">
        <ele>2228.2</ele>
        <time>2020-07-12T10:52:19 02:00</time>
      </trkpt>
      <trkpt lat="45.08368" lon="5.94359">
        <ele>2228.2</ele>
        <time>2020-07-12T10:52:22 02:00</time>
      </trkpt>
      <trkpt lat="45.08369" lon="5.94363">
        <ele>2228.2</ele>
        <time>2020-07-12T10:52:26 02:00</time>
      </trkpt>
      <trkpt lat="45.08373" lon="5.94365">
        <ele>2228</ele>
        <time>2020-07-12T10:52:29 02:00</time>
      </trkpt>
      <trkpt lat="45.08374" lon="5.94369">
        <ele>2227.6</ele>
        <time>2020-07-12T10:52:32 02:00</time>
      </trkpt>
      <trkpt lat="45.08376" lon="5.94372">
        <ele>2227.4</ele>
        <time>2020-07-12T10:52:35 02:00</time>
      </trkpt>
      <trkpt lat="45.08376" lon="5.94375">
        <ele>2227.4</ele>
        <time>2020-07-12T10:52:37 02:00</time>
      </trkpt>
      <trkpt lat="45.08381" lon="5.94381">
        <ele>2227.4</ele>
        <time>2020-07-12T10:52:48 02:00</time>
      </trkpt>
      <trkpt lat="45.08382" lon="5.94384">
        <ele>2227.6</ele>
        <time>2020-07-12T10:52:51 02:00</time>
      </trkpt>
      <trkpt lat="45.08382" lon="5.94385">
        <ele>2227.8</ele>
        <time>2020-07-12T10:52:52 02:00</time>
      </trkpt>
      <trkpt lat="45.08381" lon="5.94389">
        <ele>2228.2</ele>
        <time>2020-07-12T10:52:56 02:00</time>
      </trkpt>
      <trkpt lat="45.08381" lon="5.94394">
        <ele>2228.4</ele>
        <time>2020-07-12T10:52:59 02:00</time>
      </trkpt>
      <trkpt lat="45.08379" lon="5.94398">
        <ele>2228.6</ele>
        <time>2020-07-12T10:53:03 02:00</time>
      </trkpt>
      <trkpt lat="45.0838" lon="5.944">
        <ele>2228.8</ele>
        <time>2020-07-12T10:53:04 02:00</time>
      </trkpt>
      <trkpt lat="45.0838" lon="5.94401">
        <ele>2229</ele>
        <time>2020-07-12T10:53:04 02:00</time>
      </trkpt>
      <trkpt lat="45.0838" lon="5.94403">
        <ele>2229.4</ele>
        <time>2020-07-12T10:53:06 02:00</time>
      </trkpt>
      <trkpt lat="45.08382" lon="5.94412">
        <ele>2229.8</ele>
        <time>2020-07-12T10:53:17 02:00</time>
      </trkpt>
      <trkpt lat="45.08382" lon="5.94412">
        <ele>2230.4</ele>
        <time>2020-07-12T10:53:18 02:00</time>
      </trkpt>
      <trkpt lat="45.08382" lon="5.94414">
        <ele>2231</ele>
        <time>2020-07-12T10:53:20 02:00</time>
      </trkpt>
      <trkpt lat="45.08382" lon="5.94419">
        <ele>2231.8</ele>
        <time>2020-07-12T10:53:24 02:00</time>
      </trkpt>
      <trkpt lat="45.08382" lon="5.94422">
        <ele>2232.2</ele>
        <time>2020-07-12T10:53:26 02:00</time>
      </trkpt>
      <trkpt lat="45.08383" lon="5.94426">
        <ele>2232.6</ele>
        <time>2020-07-12T10:53:30 02:00</time>
      </trkpt>
      <trkpt lat="45.08383" lon="5.94428">
        <ele>2233</ele>
        <time>2020-07-12T10:53:32 02:00</time>
      </trkpt>
      <trkpt lat="45.08382" lon="5.94433">
        <ele>2233.4</ele>
        <time>2020-07-12T10:53:36 02:00</time>
      </trkpt>
      <trkpt lat="45.08383" lon="5.94434">
        <ele>2233.6</ele>
        <time>2020-07-12T10:53:37 02:00</time>
      </trkpt>
      <trkpt lat="45.08386" lon="5.94441">
        <ele>2233.6</ele>
        <time>2020-07-12T10:54:03 02:00</time>
      </trkpt>
      <trkpt lat="45.08386" lon="5.94442">
        <ele>2233.6</ele>
        <time>2020-07-12T10:54:05 02:00</time>
      </trkpt>
      <trkpt lat="45.08387" lon="5.94445">
        <ele>2233.6</ele>
        <time>2020-07-12T10:55:58 02:00</time>
      </trkpt>
      <trkpt lat="45.08387" lon="5.94449">
        <ele>2233.8</ele>
        <time>2020-07-12T10:56:01 02:00</time>
      </trkpt>
      <trkpt lat="45.08387" lon="5.9445">
        <ele>2234</ele>
        <time>2020-07-12T10:56:02 02:00</time>
      </trkpt>
      <trkpt lat="45.08388" lon="5.94451">
        <ele>2234.4</ele>
        <time>2020-07-12T10:56:04 02:00</time>
      </trkpt>
      <trkpt lat="45.08388" lon="5.94454">
        <ele>2234.6</ele>
        <time>2020-07-12T10:56:06 02:00</time>
      </trkpt>
      <trkpt lat="45.08388" lon="5.94457">
        <ele>2234.8</ele>
        <time>2020-07-12T10:56:08 02:00</time>
      </trkpt>
      <trkpt lat="45.08388" lon="5.9446">
        <ele>2234.6</ele>
        <time>2020-07-12T10:56:11 02:00</time>
      </trkpt>
      <trkpt lat="45.08389" lon="5.94461">
        <ele>2234.6</ele>
        <time>2020-07-12T10:56:12 02:00</time>
      </trkpt>
      <trkpt lat="45.08389" lon="5.94466">
        <ele>2234.6</ele>
        <time>2020-07-12T10:56:16 02:00</time>
      </trkpt>
      <trkpt lat="45.08389" lon="5.94467">
        <ele>2234.8</ele>
        <time>2020-07-12T10:56:17 02:00</time>
      </trkpt>
      <trkpt lat="45.0839" lon="5.94471">
        <ele>2234.8</ele>
        <time>2020-07-12T10:56:20 02:00</time>
      </trkpt>
      <trkpt lat="45.0839" lon="5.94473">
        <ele>2235</ele>
        <time>2020-07-12T10:56:22 02:00</time>
      </trkpt>
      <trkpt lat="45.08391" lon="5.94475">
        <ele>2235</ele>
        <time>2020-07-12T10:56:24 02:00</time>
      </trkpt>
      <trkpt lat="45.08391" lon="5.94479">
        <ele>2235.2</ele>
        <time>2020-07-12T10:56:28 02:00</time>
      </trkpt>
      <trkpt lat="45.08392" lon="5.94481">
        <ele>2235.4</ele>
        <time>2020-07-12T10:56:30 02:00</time>
      </trkpt>
      <trkpt lat="45.08392" lon="5.94484">
        <ele>2235.6</ele>
        <time>2020-07-12T10:56:32 02:00</time>
      </trkpt>
      <trkpt lat="45.08392" lon="5.94486">
        <ele>2235.8</ele>
        <time>2020-07-12T10:56:33 02:00</time>
      </trkpt>
      <trkpt lat="45.08392" lon="5.94488">
        <ele>2236.2</ele>
        <time>2020-07-12T10:56:35 02:00</time>
      </trkpt>
      <trkpt lat="45.08394" lon="5.94492">
        <ele>2236.4</ele>
        <time>2020-07-12T10:56:39 02:00</time>
      </trkpt>
      <trkpt lat="45.08396" lon="5.94496">
        <ele>2236.6</ele>
        <time>2020-07-12T10:56:43 02:00</time>
      </trkpt>
      <trkpt lat="45.08397" lon="5.94497">
        <ele>2236.8</ele>
        <time>2020-07-12T10:56:45 02:00</time>
      </trkpt>
      <trkpt lat="45.08398" lon="5.94498">
        <ele>2237.2</ele>
        <time>2020-07-12T10:56:46 02:00</time>
      </trkpt>
      <trkpt lat="45.08398" lon="5.94499">
        <ele>2237.4</ele>
        <time>2020-07-12T10:56:47 02:00</time>
      </trkpt>
      <trkpt lat="45.08398" lon="5.945">
        <ele>2237.6</ele>
        <time>2020-07-12T10:56:48 02:00</time>
      </trkpt>
      <trkpt lat="45.08398" lon="5.94501">
        <ele>2237.8</ele>
        <time>2020-07-12T10:56:49 02:00</time>
      </trkpt>
      <trkpt lat="45.08405" lon="5.94547">
        <ele>2239.4</ele>
        <time>2020-07-12T10:57:51 02:00</time>
      </trkpt>
      <trkpt lat="45.08406" lon="5.94547">
        <ele>2240.8</ele>
        <time>2020-07-12T10:57:52 02:00</time>
      </trkpt>
      <trkpt lat="45.08411" lon="5.94576">
        <ele>2243.6</ele>
        <time>2020-07-12T10:58:35 02:00</time>
      </trkpt>
      <trkpt lat="45.08411" lon="5.94578">
        <ele>2246.4</ele>
        <time>2020-07-12T10:58:36 02:00</time>
      </trkpt>
      <trkpt lat="45.0841" lon="5.94592">
        <ele>2249.4</ele>
        <time>2020-07-12T10:58:50 02:00</time>
      </trkpt>
      <trkpt lat="45.0841" lon="5.94593">
        <ele>2251.2</ele>
        <time>2020-07-12T10:58:51 02:00</time>
      </trkpt>
      <trkpt lat="45.08409" lon="5.94596">
        <ele>2253.2</ele>
        <time>2020-07-12T10:58:54 02:00</time>
      </trkpt>
      <trkpt lat="45.08408" lon="5.94597">
        <ele>2253.8</ele>
        <time>2020-07-12T10:58:55 02:00</time>
      </trkpt>
      <trkpt lat="45.08409" lon="5.94614">
        <ele>2254.8</ele>
        <time>2020-07-12T10:59:19 02:00</time>
      </trkpt>
      <trkpt lat="45.08409" lon="5.94616">
        <ele>2255.6</ele>
        <time>2020-07-12T10:59:21 02:00</time>
      </trkpt>
      <trkpt lat="45.08406" lon="5.94666">
        <ele>2258</ele>
        <time>2020-07-12T11:00:25 02:00</time>
      </trkpt>
      <trkpt lat="45.08406" lon="5.94667">
        <ele>2260.2</ele>
        <time>2020-07-12T11:00:26 02:00</time>
      </trkpt>
      <trkpt lat="45.08406" lon="5.94681">
        <ele>2263</ele>
        <time>2020-07-12T11:00:43 02:00</time>
      </trkpt>
      <trkpt lat="45.08406" lon="5.94683">
        <ele>2265.4</ele>
        <time>2020-07-12T11:00:44 02:00</time>
      </trkpt>
      <trkpt lat="45.08407" lon="5.94693">
        <ele>2267.8</ele>
        <time>2020-07-12T11:00:54 02:00</time>
      </trkpt>
      <trkpt lat="45.08407" lon="5.94694">
        <ele>2268.4</ele>
        <time>2020-07-12T11:00:55 02:00</time>
      </trkpt>
      <trkpt lat="45.08407" lon="5.94696">
        <ele>2269.2</ele>
        <time>2020-07-12T11:00:57 02:00</time>
      </trkpt>
      <trkpt lat="45.08407" lon="5.947">
        <ele>2269.4</ele>
        <time>2020-07-12T11:01:00 02:00</time>
      </trkpt>
      <trkpt lat="45.08408" lon="5.94703">
        <ele>2269.6</ele>
        <time>2020-07-12T11:01:03 02:00</time>
      </trkpt>
      <trkpt lat="45.08408" lon="5.94704">
        <ele>2269.8</ele>
        <time>2020-07-12T11:01:04 02:00</time>
      </trkpt>
      <trkpt lat="45.08408" lon="5.94707">
        <ele>2270</ele>
        <time>2020-07-12T11:01:07 02:00</time>
      </trkpt>
      <trkpt lat="45.08409" lon="5.94708">
        <ele>2270</ele>
        <time>2020-07-12T11:01:09 02:00</time>
      </trkpt>
      <trkpt lat="45.0841" lon="5.9471">
        <ele>2270</ele>
        <time>2020-07-12T11:01:11 02:00</time>
      </trkpt>
      <trkpt lat="45.0841" lon="5.94712">
        <ele>2270</ele>
        <time>2020-07-12T11:01:12 02:00</time>
      </trkpt>
      <trkpt lat="45.08413" lon="5.94727">
        <ele>2269.8</ele>
        <time>2020-07-12T11:01:29 02:00</time>
      </trkpt>
      <trkpt lat="45.08413" lon="5.94728">
        <ele>2269.6</ele>
        <time>2020-07-12T11:01:30 02:00</time>
      </trkpt>
      <trkpt lat="45.08413" lon="5.94732">
        <ele>2269.6</ele>
        <time>2020-07-12T11:01:33 02:00</time>
      </trkpt>
      <trkpt lat="45.08413" lon="5.94733">
        <ele>2269.6</ele>
        <time>2020-07-12T11:01:34 02:00</time>
      </trkpt>
      <trkpt lat="45.08413" lon="5.94735">
        <ele>2269.8</ele>
        <time>2020-07-12T11:01:36 02:00</time>
      </trkpt>
      <trkpt lat="45.08413" lon="5.94736">
        <ele>2270.2</ele>
        <time>2020-07-12T11:01:37 02:00</time>
      </trkpt>
      <trkpt lat="45.08413" lon="5.94739">
        <ele>2270.6</ele>
        <time>2020-07-12T11:01:40 02:00</time>
      </trkpt>
      <trkpt lat="45.08413" lon="5.94742">
        <ele>2271</ele>
        <time>2020-07-12T11:01:42 02:00</time>
      </trkpt>
      <trkpt lat="45.08413" lon="5.94743">
        <ele>2271.2</ele>
        <time>2020-07-12T11:01:43 02:00</time>
      </trkpt>
      <trkpt lat="45.08414" lon="5.94744">
        <ele>2271.2</ele>
        <time>2020-07-12T11:01:44 02:00</time>
      </trkpt>
      <trkpt lat="45.08415" lon="5.94747">
        <ele>2271.2</ele>
        <time>2020-07-12T11:01:47 02:00</time>
      </trkpt>
      <trkpt lat="45.08416" lon="5.94749">
        <ele>2271.4</ele>
        <time>2020-07-12T11:01:49 02:00</time>
      </trkpt>
      <trkpt lat="45.08416" lon="5.94751">
        <ele>2271.6</ele>
        <time>2020-07-12T11:01:51 02:00</time>
      </trkpt>
      <trkpt lat="45.08417" lon="5.94752">
        <ele>2272.2</ele>
        <time>2020-07-12T11:01:52 02:00</time>
      </trkpt>
      <trkpt lat="45.08419" lon="5.94761">
        <ele>2272.8</ele>
        <time>2020-07-12T11:02:02 02:00</time>
      </trkpt>
      <trkpt lat="45.0842" lon="5.94763">
        <ele>2273.6</ele>
        <time>2020-07-12T11:02:04 02:00</time>
      </trkpt>
      <trkpt lat="45.08423" lon="5.94767">
        <ele>2274</ele>
        <time>2020-07-12T11:02:08 02:00</time>
      </trkpt>
      <trkpt lat="45.08423" lon="5.94768">
        <ele>2274.2</ele>
        <time>2020-07-12T11:02:09 02:00</time>
      </trkpt>
      <trkpt lat="45.08424" lon="5.94769">
        <ele>2274.4</ele>
        <time>2020-07-12T11:02:10 02:00</time>
      </trkpt>
      <trkpt lat="45.08424" lon="5.9477">
        <ele>2274.8</ele>
        <time>2020-07-12T11:02:11 02:00</time>
      </trkpt>
      <trkpt lat="45.08424" lon="5.9477">
        <ele>2275</ele>
        <time>2020-07-12T11:02:12 02:00</time>
      </trkpt>
      <trkpt lat="45.08424" lon="5.94773">
        <ele>2275.4</ele>
        <time>2020-07-12T11:02:14 02:00</time>
      </trkpt>
      <trkpt lat="45.08424" lon="5.94774">
        <ele>2275.8</ele>
        <time>2020-07-12T11:02:15 02:00</time>
      </trkpt>
      <trkpt lat="45.08424" lon="5.94775">
        <ele>2276</ele>
        <time>2020-07-12T11:02:16 02:00</time>
      </trkpt>
      <trkpt lat="45.08426" lon="5.9478">
        <ele>2276.2</ele>
        <time>2020-07-12T11:02:22 02:00</time>
      </trkpt>
      <trkpt lat="45.08425" lon="5.94782">
        <ele>2276.2</ele>
        <time>2020-07-12T11:02:24 02:00</time>
      </trkpt>
      <trkpt lat="45.08426" lon="5.94786">
        <ele>2276.2</ele>
        <time>2020-07-12T11:02:28 02:00</time>
      </trkpt>
      <trkpt lat="45.08426" lon="5.94786">
        <ele>2276.2</ele>
        <time>2020-07-12T11:02:30 02:00</time>
      </trkpt>
      <trkpt lat="45.08427" lon="5.94787">
        <ele>2276.2</ele>
        <time>2020-07-12T11:02:31 02:00</time>
      </trkpt>
      <trkpt lat="45.08427" lon="5.9479">
        <ele>2276</ele>
        <time>2020-07-12T11:02:33 02:00</time>
      </trkpt>
      <trkpt lat="45.08429" lon="5.94798">
        <ele>2276.6</ele>
        <time>2020-07-12T11:02:41 02:00</time>
      </trkpt>
      <trkpt lat="45.0843" lon="5.94798">
        <ele>2277.2</ele>
        <time>2020-07-12T11:02:42 02:00</time>
      </trkpt>
      <trkpt lat="45.08431" lon="5.94802">
        <ele>2277.6</ele>
        <time>2020-07-12T11:02:46 02:00</time>
      </trkpt>
      <trkpt lat="45.08431" lon="5.94804">
        <ele>2278</ele>
        <time>2020-07-12T11:02:47 02:00</time>
      </trkpt>
      <trkpt lat="45.08431" lon="5.94805">
        <ele>2278.4</ele>
        <time>2020-07-12T11:02:48 02:00</time>
      </trkpt>
      <trkpt lat="45.0843" lon="5.94807">
        <ele>2278.2</ele>
        <time>2020-07-12T11:02:49 02:00</time>
      </trkpt>
      <trkpt lat="45.08429" lon="5.9481">
        <ele>2278.2</ele>
        <time>2020-07-12T11:02:51 02:00</time>
      </trkpt>
      <trkpt lat="45.08429" lon="5.94812">
        <ele>2278.2</ele>
        <time>2020-07-12T11:02:53 02:00</time>
      </trkpt>
      <trkpt lat="45.08429" lon="5.94813">
        <ele>2278.2</ele>
        <time>2020-07-12T11:02:54 02:00</time>
      </trkpt>
      <trkpt lat="45.08429" lon="5.94815">
        <ele>2278.4</ele>
        <time>2020-07-12T11:02:55 02:00</time>
      </trkpt>
      <trkpt lat="45.08431" lon="5.94827">
        <ele>2278.8</ele>
        <time>2020-07-12T11:03:08 02:00</time>
      </trkpt>
      <trkpt lat="45.08432" lon="5.9483">
        <ele>2279</ele>
        <time>2020-07-12T11:03:11 02:00</time>
      </trkpt>
      <trkpt lat="45.08434" lon="5.94834">
        <ele>2279.8</ele>
        <time>2020-07-12T11:03:15 02:00</time>
      </trkpt>
      <trkpt lat="45.08436" lon="5.94837">
        <ele>2280.6</ele>
        <time>2020-07-12T11:03:18 02:00</time>
      </trkpt>
      <trkpt lat="45.08437" lon="5.94839">
        <ele>2281.4</ele>
        <time>2020-07-12T11:03:20 02:00</time>
      </trkpt>
      <trkpt lat="45.0845" lon="5.94839">
        <ele>2282.8</ele>
        <time>2020-07-12T11:04:05 02:00</time>
      </trkpt>
      <trkpt lat="45.0845" lon="5.94839">
        <ele>2284.2</ele>
        <time>2020-07-12T11:04:06 02:00</time>
      </trkpt>
      <trkpt lat="45.08451" lon="5.94839">
        <ele>2285.2</ele>
        <time>2020-07-12T11:04:07 02:00</time>
      </trkpt>
      <trkpt lat="45.08452" lon="5.94841">
        <ele>2286.2</ele>
        <time>2020-07-12T11:04:09 02:00</time>
      </trkpt>
      <trkpt lat="45.08452" lon="5.94841">
        <ele>2287.2</ele>
        <time>2020-07-12T11:04:10 02:00</time>
      </trkpt>
      <trkpt lat="45.08453" lon="5.94842">
        <ele>2287.4</ele>
        <time>2020-07-12T11:04:11 02:00</time>
      </trkpt>
      <trkpt lat="45.08468" lon="5.94852">
        <ele>2288.6</ele>
        <time>2020-07-12T11:04:46 02:00</time>
      </trkpt>
      <trkpt lat="45.08468" lon="5.94854">
        <ele>2290</ele>
        <time>2020-07-12T11:04:48 02:00</time>
      </trkpt>
      <trkpt lat="45.08468" lon="5.94867">
        <ele>2292.2</ele>
        <time>2020-07-12T11:05:10 02:00</time>
      </trkpt>
      <trkpt lat="45.08468" lon="5.94868">
        <ele>2294.2</ele>
        <time>2020-07-12T11:05:11 02:00</time>
      </trkpt>
      <trkpt lat="45.08473" lon="5.94885">
        <ele>2296.4</ele>
        <time>2020-07-12T11:05:32 02:00</time>
      </trkpt>
      <trkpt lat="45.08472" lon="5.94887">
        <ele>2297.8</ele>
        <time>2020-07-12T11:05:33 02:00</time>
      </trkpt>
      <trkpt lat="45.08474" lon="5.94892">
        <ele>2299</ele>
        <time>2020-07-12T11:05:39 02:00</time>
      </trkpt>
      <trkpt lat="45.08474" lon="5.94893">
        <ele>2299.6</ele>
        <time>2020-07-12T11:05:40 02:00</time>
      </trkpt>
      <trkpt lat="45.08476" lon="5.94895">
        <ele>2300.6</ele>
        <time>2020-07-12T11:05:43 02:00</time>
      </trkpt>
      <trkpt lat="45.08477" lon="5.94895">
        <ele>2301.4</ele>
        <time>2020-07-12T11:05:44 02:00</time>
      </trkpt>
      <trkpt lat="45.08485" lon="5.94918">
        <ele>2303.4</ele>
        <time>2020-07-12T11:07:56 02:00</time>
      </trkpt>
      <trkpt lat="45.08485" lon="5.94917">
        <ele>2305.4</ele>
        <time>2020-07-12T11:07:57 02:00</time>
      </trkpt>
      <trkpt lat="45.08485" lon="5.94916">
        <ele>2307</ele>
        <time>2020-07-12T11:07:58 02:00</time>
      </trkpt>
      <trkpt lat="45.08485" lon="5.94915">
        <ele>2308.2</ele>
        <time>2020-07-12T11:07:59 02:00</time>
      </trkpt>
      <trkpt lat="45.08485" lon="5.94913">
        <ele>2309.4</ele>
        <time>2020-07-12T11:08:01 02:00</time>
      </trkpt>
      <trkpt lat="45.08485" lon="5.94909">
        <ele>2309.2</ele>
        <time>2020-07-12T11:08:04 02:00</time>
      </trkpt>
      <trkpt lat="45.08484" lon="5.95084">
        <ele>2314.4</ele>
        <time>2020-07-12T11:14:26 02:00</time>
      </trkpt>
      <trkpt lat="45.08485" lon="5.95083">
        <ele>2320</ele>
        <time>2020-07-12T11:14:28 02:00</time>
      </trkpt>
      <trkpt lat="45.08485" lon="5.95082">
        <ele>2325.8</ele>
        <time>2020-07-12T11:14:29 02:00</time>
      </trkpt>
      <trkpt lat="45.08487" lon="5.95082">
        <ele>2331.6</ele>
        <time>2020-07-12T11:14:30 02:00</time>
      </trkpt>
      <trkpt lat="45.08496" lon="5.95088">
        <ele>2337.8</ele>
        <time>2020-07-12T11:14:55 02:00</time>
      </trkpt>
      <trkpt lat="45.08497" lon="5.95087">
        <ele>2338.6</ele>
        <time>2020-07-12T11:14:56 02:00</time>
      </trkpt>
      <trkpt lat="45.08497" lon="5.95087">
        <ele>2339.2</ele>
        <time>2020-07-12T11:14:57 02:00</time>
      </trkpt>
      <trkpt lat="45.08498" lon="5.95087">
        <ele>2339.8</ele>
        <time>2020-07-12T11:14:58 02:00</time>
      </trkpt>
      <trkpt lat="45.08507" lon="5.95101">
        <ele>2341.2</ele>
        <time>2020-07-12T11:15:58 02:00</time>
      </trkpt>
      <trkpt lat="45.08508" lon="5.95102">
        <ele>2342.2</ele>
        <time>2020-07-12T11:15:59 02:00</time>
      </trkpt>
      <trkpt lat="45.08508" lon="5.95104">
        <ele>2343</ele>
        <time>2020-07-12T11:16:25 02:00</time>
      </trkpt>
      <trkpt lat="45.08509" lon="5.95108">
        <ele>2343.8</ele>
        <time>2020-07-12T11:16:28 02:00</time>
      </trkpt>
      <trkpt lat="45.08506" lon="5.95114">
        <ele>2344.4</ele>
        <time>2020-07-12T11:16:31 02:00</time>
      </trkpt>
      <trkpt lat="45.08506" lon="5.95118">
        <ele>2344.4</ele>
        <time>2020-07-12T11:16:34 02:00</time>
      </trkpt>
      <trkpt lat="45.08507" lon="5.95121">
        <ele>2344.4</ele>
        <time>2020-07-12T11:16:56 02:00</time>
      </trkpt>
      <trkpt lat="45.08508" lon="5.95126">
        <ele>2344.6</ele>
        <time>2020-07-12T11:16:59 02:00</time>
      </trkpt>
      <trkpt lat="45.08508" lon="5.95131">
        <ele>2345</ele>
        <time>2020-07-12T11:17:02 02:00</time>
      </trkpt>
      <trkpt lat="45.08508" lon="5.95133">
        <ele>2345.2</ele>
        <time>2020-07-12T11:17:04 02:00</time>
      </trkpt>
      <trkpt lat="45.08508" lon="5.95136">
        <ele>2345.2</ele>
        <time>2020-07-12T11:17:06 02:00</time>
      </trkpt>
      <trkpt lat="45.08508" lon="5.9514">
        <ele>2345.2</ele>
        <time>2020-07-12T11:17:09 02:00</time>
      </trkpt>
      <trkpt lat="45.08508" lon="5.95147">
        <ele>2344.8</ele>
        <time>2020-07-12T11:17:17 02:00</time>
      </trkpt>
      <trkpt lat="45.08508" lon="5.95151">
        <ele>2344.2</ele>
        <time>2020-07-12T11:17:20 02:00</time>
      </trkpt>
      <trkpt lat="45.08509" lon="5.95154">
        <ele>2343.8</ele>
        <time>2020-07-12T11:17:23 02:00</time>
      </trkpt>
      <trkpt lat="45.08511" lon="5.95159">
        <ele>2343.2</ele>
        <time>2020-07-12T11:17:26 02:00</time>
      </trkpt>
      <trkpt lat="45.08512" lon="5.95163">
        <ele>2342.6</ele>
        <time>2020-07-12T11:17:30 02:00</time>
      </trkpt>
      <trkpt lat="45.08513" lon="5.95163">
        <ele>2342.6</ele>
        <time>2020-07-12T11:17:31 02:00</time>
      </trkpt>
      <trkpt lat="45.08513" lon="5.95165">
        <ele>2342.6</ele>
        <time>2020-07-12T11:17:33 02:00</time>
      </trkpt>
      <trkpt lat="45.08514" lon="5.95168">
        <ele>2342.6</ele>
        <time>2020-07-12T11:17:36 02:00</time>
      </trkpt>
      <trkpt lat="45.08514" lon="5.95169">
        <ele>2342.8</ele>
        <time>2020-07-12T11:17:37 02:00</time>
      </trkpt>
      <trkpt lat="45.08519" lon="5.95173">
        <ele>2343.4</ele>
        <time>2020-07-12T11:17:44 02:00</time>
      </trkpt>
      <trkpt lat="45.0852" lon="5.95174">
        <ele>2344</ele>
        <time>2020-07-12T11:17:45 02:00</time>
      </trkpt>
      <trkpt lat="45.08521" lon="5.95176">
        <ele>2344.4</ele>
        <time>2020-07-12T11:17:47 02:00</time>
      </trkpt>
      <trkpt lat="45.08522" lon="5.95178">
        <ele>2344.8</ele>
        <time>2020-07-12T11:17:49 02:00</time>
      </trkpt>
      <trkpt lat="45.08524" lon="5.95181">
        <ele>2345.6</ele>
        <time>2020-07-12T11:17:56 02:00</time>
      </trkpt>
      <trkpt lat="45.08525" lon="5.95182">
        <ele>2346</ele>
        <time>2020-07-12T11:17:57 02:00</time>
      </trkpt>
      <trkpt lat="45.08526" lon="5.95184">
        <ele>2346.4</ele>
        <time>2020-07-12T11:18:03 02:00</time>
      </trkpt>
      <trkpt lat="45.08526" lon="5.95185">
        <ele>2347</ele>
        <time>2020-07-12T11:18:04 02:00</time>
      </trkpt>
      <trkpt lat="45.0853" lon="5.9519">
        <ele>2347.6</ele>
        <time>2020-07-12T11:18:13 02:00</time>
      </trkpt>
      <trkpt lat="45.0853" lon="5.95191">
        <ele>2347.8</ele>
        <time>2020-07-12T11:18:14 02:00</time>
      </trkpt>
      <trkpt lat="45.08533" lon="5.95198">
        <ele>2348.4</ele>
        <time>2020-07-12T11:18:23 02:00</time>
      </trkpt>
      <trkpt lat="45.08533" lon="5.95198">
        <ele>2349</ele>
        <time>2020-07-12T11:18:24 02:00</time>
      </trkpt>
      <trkpt lat="45.08566" lon="5.9523">
        <ele>2352.8</ele>
        <time>2020-07-12T11:19:59 02:00</time>
      </trkpt>
      <trkpt lat="45.08566" lon="5.95229">
        <ele>2356.6</ele>
        <time>2020-07-12T11:20:00 02:00</time>
      </trkpt>
      <trkpt lat="45.08587" lon="5.95237">
        <ele>2362.8</ele>
        <time>2020-07-12T11:21:07 02:00</time>
      </trkpt>
      <trkpt lat="45.08588" lon="5.95236">
        <ele>2368.6</ele>
        <time>2020-07-12T11:21:08 02:00</time>
      </trkpt>
      <trkpt lat="45.08604" lon="5.95223">
        <ele>2376.4</ele>
        <time>2020-07-12T11:22:05 02:00</time>
      </trkpt>
      <trkpt lat="45.08604" lon="5.95222">
        <ele>2381</ele>
        <time>2020-07-12T11:22:06 02:00</time>
      </trkpt>
      <trkpt lat="45.0861" lon="5.95223">
        <ele>2386</ele>
        <time>2020-07-12T11:22:20 02:00</time>
      </trkpt>
      <trkpt lat="45.08611" lon="5.95223">
        <ele>2388.6</ele>
        <time>2020-07-12T11:22:21 02:00</time>
      </trkpt>
      <trkpt lat="45.0864" lon="5.95257">
        <ele>2394.8</ele>
        <time>2020-07-12T11:24:04 02:00</time>
      </trkpt>
      <trkpt lat="45.08641" lon="5.95257">
        <ele>2398.8</ele>
        <time>2020-07-12T11:24:05 02:00</time>
      </trkpt>
      <trkpt lat="45.08651" lon="5.95266">
        <ele>2403.4</ele>
        <time>2020-07-12T11:24:32 02:00</time>
      </trkpt>
      <trkpt lat="45.08651" lon="5.95266">
        <ele>2407.6</ele>
        <time>2020-07-12T11:24:33 02:00</time>
      </trkpt>
      <trkpt lat="45.08661" lon="5.95281">
        <ele>2413.2</ele>
        <time>2020-07-12T11:25:04 02:00</time>
      </trkpt>
      <trkpt lat="45.08661" lon="5.95282">
        <ele>2415.4</ele>
        <time>2020-07-12T11:25:05 02:00</time>
      </trkpt>
      <trkpt lat="45.08663" lon="5.95297">
        <ele>2417.8</ele>
        <time>2020-07-12T11:25:24 02:00</time>
      </trkpt>
      <trkpt lat="45.08663" lon="5.95298">
        <ele>2419.6</ele>
        <time>2020-07-12T11:25:25 02:00</time>
      </trkpt>
      <trkpt lat="45.08664" lon="5.95303">
        <ele>2421.6</ele>
        <time>2020-07-12T11:25:30 02:00</time>
      </trkpt>
      <trkpt lat="45.08664" lon="5.95305">
        <ele>2422.4</ele>
        <time>2020-07-12T11:25:31 02:00</time>
      </trkpt>
      <trkpt lat="45.08664" lon="5.95309">
        <ele>2423</ele>
        <time>2020-07-12T11:25:40 02:00</time>
      </trkpt>
      <trkpt lat="45.08666" lon="5.95314">
        <ele>2423.4</ele>
        <time>2020-07-12T11:25:44 02:00</time>
      </trkpt>
      <trkpt lat="45.08692" lon="5.95326">
        <ele>2425.8</ele>
        <time>2020-07-12T11:26:58 02:00</time>
      </trkpt>
      <trkpt lat="45.08693" lon="5.95327">
        <ele>2428</ele>
        <time>2020-07-12T11:26:59 02:00</time>
      </trkpt>
      <trkpt lat="45.08725" lon="5.95334">
        <ele>2432.8</ele>
        <time>2020-07-12T11:28:09 02:00</time>
      </trkpt>
      <trkpt lat="45.08725" lon="5.95334">
        <ele>2437.6</ele>
        <time>2020-07-12T11:28:10 02:00</time>
      </trkpt>
      <trkpt lat="45.08725" lon="5.95335">
        <ele>2442.4</ele>
        <time>2020-07-12T11:28:11 02:00</time>
      </trkpt>
      <trkpt lat="45.08725" lon="5.95335">
        <ele>2445.2</ele>
        <time>2020-07-12T11:28:12 02:00</time>
      </trkpt>
      <trkpt lat="45.08749" lon="5.95353">
        <ele>2450</ele>
        <time>2020-07-12T11:29:47 02:00</time>
      </trkpt>
      <trkpt lat="45.0875" lon="5.95354">
        <ele>2451.8</ele>
        <time>2020-07-12T11:29:49 02:00</time>
      </trkpt>
      <trkpt lat="45.08773" lon="5.95389">
        <ele>2455.8</ele>
        <time>2020-07-12T11:34:40 02:00</time>
      </trkpt>
      <trkpt lat="45.08773" lon="5.95389">
        <ele>2459.8</ele>
        <time>2020-07-12T11:34:42 02:00</time>
      </trkpt>
      <trkpt lat="45.08781" lon="5.95417">
        <ele>2464.8</ele>
        <time>2020-07-12T11:35:40 02:00</time>
      </trkpt>
      <trkpt lat="45.08781" lon="5.95417">
        <ele>2467.8</ele>
        <time>2020-07-12T11:35:42 02:00</time>
      </trkpt>
      <trkpt lat="45.08788" lon="5.95455">
        <ele>2473.6</ele>
        <time>2020-07-12T11:37:07 02:00</time>
      </trkpt>
      <trkpt lat="45.08789" lon="5.95456">
        <ele>2477.4</ele>
        <time>2020-07-12T11:37:08 02:00</time>
      </trkpt>
      <trkpt lat="45.088" lon="5.9549">
        <ele>2483.6</ele>
        <time>2020-07-12T11:38:25 02:00</time>
      </trkpt>
      <trkpt lat="45.088" lon="5.95491">
        <ele>2488.8</ele>
        <time>2020-07-12T11:38:26 02:00</time>
      </trkpt>
      <trkpt lat="45.08836" lon="5.95602">
        <ele>2500.6</ele>
        <time>2020-07-12T11:41:46 02:00</time>
      </trkpt>
      <trkpt lat="45.08836" lon="5.95603">
        <ele>2509.8</ele>
        <time>2020-07-12T11:41:47 02:00</time>
      </trkpt>
      <trkpt lat="45.08838" lon="5.95606">
        <ele>2519</ele>
        <time>2020-07-12T11:41:51 02:00</time>
      </trkpt>
      <trkpt lat="45.08838" lon="5.95607">
        <ele>2525.8</ele>
        <time>2020-07-12T11:41:52 02:00</time>
      </trkpt>
      <trkpt lat="45.08846" lon="5.95629">
        <ele>2533.8</ele>
        <time>2020-07-12T11:42:22 02:00</time>
      </trkpt>
      <trkpt lat="45.08846" lon="5.95629">
        <ele>2535.2</ele>
        <time>2020-07-12T11:42:22 02:00</time>
      </trkpt>
      <trkpt lat="45.08858" lon="5.95647">
        <ele>2537</ele>
        <time>2020-07-12T11:42:57 02:00</time>
      </trkpt>
      <trkpt lat="45.08858" lon="5.95648">
        <ele>2538.6</ele>
        <time>2020-07-12T11:42:58 02:00</time>
      </trkpt>
      <trkpt lat="45.08861" lon="5.95651">
        <ele>2540.4</ele>
        <time>2020-07-12T11:43:22 02:00</time>
      </trkpt>
      <trkpt lat="45.08861" lon="5.95654">
        <ele>2541.2</ele>
        <time>2020-07-12T11:43:25 02:00</time>
      </trkpt>
      <trkpt lat="45.08866" lon="5.95669">
        <ele>2542.6</ele>
        <time>2020-07-12T11:43:54 02:00</time>
      </trkpt>
      <trkpt lat="45.08867" lon="5.95671">
        <ele>2543.8</ele>
        <time>2020-07-12T11:43:56 02:00</time>
      </trkpt>
      <trkpt lat="45.08871" lon="5.95689">
        <ele>2545.8</ele>
        <time>2020-07-12T11:46:56 02:00</time>
      </trkpt>
      <trkpt lat="45.08872" lon="5.95693">
        <ele>2547.8</ele>
        <time>2020-07-12T11:46:59 02:00</time>
      </trkpt>
      <trkpt lat="45.08872" lon="5.9569">
        <ele>2549.4</ele>
        <time>2020-07-12T11:50:07 02:00</time>
      </trkpt>
      <trkpt lat="45.08873" lon="5.95689">
        <ele>2550.4</ele>
        <time>2020-07-12T11:50:09 02:00</time>
      </trkpt>
      <trkpt lat="45.08872" lon="5.95696">
        <ele>2551</ele>
        <time>2020-07-12T11:53:34 02:00</time>
      </trkpt>
      <trkpt lat="45.08873" lon="5.957">
        <ele>2550.8</ele>
        <time>2020-07-12T11:53:37 02:00</time>
      </trkpt>
      <trkpt lat="45.08874" lon="5.95705">
        <ele>2550.4</ele>
        <time>2020-07-12T11:53:40 02:00</time>
      </trkpt>
      <trkpt lat="45.08876" lon="5.95709">
        <ele>2550.2</ele>
        <time>2020-07-12T11:53:44 02:00</time>
      </trkpt>
      <trkpt lat="45.08876" lon="5.95711">
        <ele>2550.2</ele>
        <time>2020-07-12T11:53:45 02:00</time>
      </trkpt>
      <trkpt lat="45.08877" lon="5.95712">
        <ele>2550.4</ele>
        <time>2020-07-12T11:53:47 02:00</time>
      </trkpt>
      <trkpt lat="45.08878" lon="5.95715">
        <ele>2550.4</ele>
        <time>2020-07-12T11:53:50 02:00</time>
      </trkpt>
      <trkpt lat="45.08878" lon="5.9572">
        <ele>2550.6</ele>
        <time>2020-07-12T11:53:52 02:00</time>
      </trkpt>
      <trkpt lat="45.0888" lon="5.95723">
        <ele>2550.8</ele>
        <time>2020-07-12T11:53:55 02:00</time>
      </trkpt>
      <trkpt lat="45.08881" lon="5.95727">
        <ele>2550.8</ele>
        <time>2020-07-12T11:53:58 02:00</time>
      </trkpt>
      <trkpt lat="45.08882" lon="5.95727">
        <ele>2551</ele>
        <time>2020-07-12T11:54:00 02:00</time>
      </trkpt>
      <trkpt lat="45.08882" lon="5.9573">
        <ele>2551.2</ele>
        <time>2020-07-12T11:54:01 02:00</time>
      </trkpt>
      <trkpt lat="45.08882" lon="5.95734">
        <ele>2551.2</ele>
        <time>2020-07-12T11:54:05 02:00</time>
      </trkpt>
      <trkpt lat="45.08883" lon="5.95735">
        <ele>2551.2</ele>
        <time>2020-07-12T11:54:06 02:00</time>
      </trkpt>
      <trkpt lat="45.08884" lon="5.95739">
        <ele>2551</ele>
        <time>2020-07-12T11:54:09 02:00</time>
      </trkpt>
      <trkpt lat="45.08884" lon="5.9574">
        <ele>2550.6</ele>
        <time>2020-07-12T11:54:11 02:00</time>
      </trkpt>
      <trkpt lat="45.08884" lon="5.95743">
        <ele>2550.2</ele>
        <time>2020-07-12T11:54:12 02:00</time>
      </trkpt>
      <trkpt lat="45.08886" lon="5.95755">
        <ele>2549.4</ele>
        <time>2020-07-12T11:54:24 02:00</time>
      </trkpt>
      <trkpt lat="45.08887" lon="5.95756">
        <ele>2548.6</ele>
        <time>2020-07-12T11:54:26 02:00</time>
      </trkpt>
      <trkpt lat="45.08887" lon="5.95756">
        <ele>2548</ele>
        <time>2020-07-12T11:54:27 02:00</time>
      </trkpt>
      <trkpt lat="45.08888" lon="5.95757">
        <ele>2547.6</ele>
        <time>2020-07-12T11:54:28 02:00</time>
      </trkpt>
      <trkpt lat="45.08889" lon="5.9576">
        <ele>2547.4</ele>
        <time>2020-07-12T11:54:30 02:00</time>
      </trkpt>
      <trkpt lat="45.0889" lon="5.95761">
        <ele>2547.6</ele>
        <time>2020-07-12T11:54:31 02:00</time>
      </trkpt>
      <trkpt lat="45.08891" lon="5.95762">
        <ele>2547.8</ele>
        <time>2020-07-12T11:54:32 02:00</time>
      </trkpt>
      <trkpt lat="45.08891" lon="5.95763">
        <ele>2548</ele>
        <time>2020-07-12T11:54:34 02:00</time>
      </trkpt>
      <trkpt lat="45.08892" lon="5.95764">
        <ele>2548</ele>
        <time>2020-07-12T11:54:35 02:00</time>
      </trkpt>
      <trkpt lat="45.08892" lon="5.95765">
        <ele>2548</ele>
        <time>2020-07-12T11:54:36 02:00</time>
      </trkpt>
      <trkpt lat="45.08896" lon="5.95769">
        <ele>2548</ele>
        <time>2020-07-12T11:54:42 02:00</time>
      </trkpt>
      <trkpt lat="45.08896" lon="5.95769">
        <ele>2548.2</ele>
        <time>2020-07-12T11:54:43 02:00</time>
      </trkpt>
      <trkpt lat="45.08907" lon="5.95777">
        <ele>2548.8</ele>
        <time>2020-07-12T11:55:08 02:00</time>
      </trkpt>
      <trkpt lat="45.08907" lon="5.95778">
        <ele>2549.4</ele>
        <time>2020-07-12T11:55:09 02:00</time>
      </trkpt>
      <trkpt lat="45.08909" lon="5.95781">
        <ele>2550.2</ele>
        <time>2020-07-12T11:55:13 02:00</time>
      </trkpt>
      <trkpt lat="45.08909" lon="5.95782">
        <ele>2551</ele>
        <time>2020-07-12T11:55:14 02:00</time>
      </trkpt>
      <trkpt lat="45.08913" lon="5.95789">
        <ele>2551.6</ele>
        <time>2020-07-12T11:55:22 02:00</time>
      </trkpt>
      <trkpt lat="45.08913" lon="5.9579">
        <ele>2551.8</ele>
        <time>2020-07-12T11:55:24 02:00</time>
      </trkpt>
      <trkpt lat="45.08915" lon="5.95794">
        <ele>2552</ele>
        <time>2020-07-12T11:55:29 02:00</time>
      </trkpt>
      <trkpt lat="45.08915" lon="5.95796">
        <ele>2552.2</ele>
        <time>2020-07-12T11:55:30 02:00</time>
      </trkpt>
      <trkpt lat="45.0892" lon="5.958">
        <ele>2552.4</ele>
        <time>2020-07-12T11:55:40 02:00</time>
      </trkpt>
      <trkpt lat="45.08921" lon="5.95801">
        <ele>2552.6</ele>
        <time>2020-07-12T11:55:41 02:00</time>
      </trkpt>
      <trkpt lat="45.08927" lon="5.95806">
        <ele>2552.8</ele>
        <time>2020-07-12T11:55:51 02:00</time>
      </trkpt>
      <trkpt lat="45.08928" lon="5.95807">
        <ele>2553</ele>
        <time>2020-07-12T11:55:52 02:00</time>
      </trkpt>
      <trkpt lat="45.08929" lon="5.95808">
        <ele>2553</ele>
        <time>2020-07-12T11:55:53 02:00</time>
      </trkpt>
      <trkpt lat="45.08929" lon="5.95809">
        <ele>2553.2</ele>
        <time>2020-07-12T11:55:54 02:00</time>
      </trkpt>
      <trkpt lat="45.08935" lon="5.95815">
        <ele>2553.4</ele>
        <time>2020-07-12T11:56:05 02:00</time>
      </trkpt>
      <trkpt lat="45.08936" lon="5.95816">
        <ele>2553.6</ele>
        <time>2020-07-12T11:56:06 02:00</time>
      </trkpt>
      <trkpt lat="45.08937" lon="5.95817">
        <ele>2553.8</ele>
        <time>2020-07-12T11:56:07 02:00</time>
      </trkpt>
      <trkpt lat="45.08938" lon="5.95817">
        <ele>2554</ele>
        <time>2020-07-12T11:56:08 02:00</time>
      </trkpt>
      <trkpt lat="45.08953" lon="5.95825">
        <ele>2555.2</ele>
        <time>2020-07-12T11:59:56 02:00</time>
      </trkpt>
      <trkpt lat="45.08952" lon="5.95825">
        <ele>2556.4</ele>
        <time>2020-07-12T11:59:57 02:00</time>
      </trkpt>
      <trkpt lat="45.08946" lon="5.95824">
        <ele>2556.8</ele>
        <time>2020-07-12T12:00:13 02:00</time>
      </trkpt>
      <trkpt lat="45.08945" lon="5.95825">
        <ele>2557.2</ele>
        <time>2020-07-12T12:00:14 02:00</time>
      </trkpt>
      <trkpt lat="45.08942" lon="5.95827">
        <ele>2557.4</ele>
        <time>2020-07-12T12:00:17 02:00</time>
      </trkpt>
      <trkpt lat="45.08942" lon="5.95827">
        <ele>2556.4</ele>
        <time>2020-07-12T12:00:18 02:00</time>
      </trkpt>
      <trkpt lat="45.08939" lon="5.9583">
        <ele>2555</ele>
        <time>2020-07-12T12:00:26 02:00</time>
      </trkpt>
      <trkpt lat="45.08937" lon="5.9583">
        <ele>2554.4</ele>
        <time>2020-07-12T12:00:29 02:00</time>
      </trkpt>
      <trkpt lat="45.08931" lon="5.95834">
        <ele>2553</ele>
        <time>2020-07-12T12:00:41 02:00</time>
      </trkpt>
      <trkpt lat="45.08931" lon="5.95835">
        <ele>2551.8</ele>
        <time>2020-07-12T12:00:43 02:00</time>
      </trkpt>
      <trkpt lat="45.08927" lon="5.95839">
        <ele>2550</ele>
        <time>2020-07-12T12:00:57 02:00</time>
      </trkpt>
      <trkpt lat="45.08926" lon="5.95839">
        <ele>2548.4</ele>
        <time>2020-07-12T12:00:58 02:00</time>
      </trkpt>
      <trkpt lat="45.08923" lon="5.95841">
        <ele>2546.4</ele>
        <time>2020-07-12T12:01:08 02:00</time>
      </trkpt>
      <trkpt lat="45.08921" lon="5.95841">
        <ele>2545.2</ele>
        <time>2020-07-12T12:01:10 02:00</time>
      </trkpt>
      <trkpt lat="45.08921" lon="5.95844">
        <ele>2543.8</ele>
        <time>2020-07-12T12:01:13 02:00</time>
      </trkpt>
      <trkpt lat="45.0892" lon="5.95845">
        <ele>2542.8</ele>
        <time>2020-07-12T12:01:14 02:00</time>
      </trkpt>
      <trkpt lat="45.0891" lon="5.95856">
        <ele>2540.8</ele>
        <time>2020-07-12T12:01:55 02:00</time>
      </trkpt>
      <trkpt lat="45.0891" lon="5.95857">
        <ele>2539.2</ele>
        <time>2020-07-12T12:01:56 02:00</time>
      </trkpt>
      <trkpt lat="45.08908" lon="5.95863">
        <ele>2537.4</ele>
        <time>2020-07-12T12:02:06 02:00</time>
      </trkpt>
      <trkpt lat="45.08907" lon="5.95863">
        <ele>2535.8</ele>
        <time>2020-07-12T12:02:07 02:00</time>
      </trkpt>
      <trkpt lat="45.08905" lon="5.95873">
        <ele>2533.6</ele>
        <time>2020-07-12T12:02:21 02:00</time>
      </trkpt>
      <trkpt lat="45.08905" lon="5.95873">
        <ele>2532.4</ele>
        <time>2020-07-12T12:02:22 02:00</time>
      </trkpt>
      <trkpt lat="45.08904" lon="5.95874">
        <ele>2531</ele>
        <time>2020-07-12T12:02:25 02:00</time>
      </trkpt>
      <trkpt lat="45.08904" lon="5.95875">
        <ele>2529.8</ele>
        <time>2020-07-12T12:02:26 02:00</time>
      </trkpt>
      <trkpt lat="45.08903" lon="5.95876">
        <ele>2528.6</ele>
        <time>2020-07-12T12:02:27 02:00</time>
      </trkpt>
      <trkpt lat="45.08903" lon="5.95876">
        <ele>2528.2</ele>
        <time>2020-07-12T12:02:28 02:00</time>
      </trkpt>
      <trkpt lat="45.08903" lon="5.95876">
        <ele>2527.8</ele>
        <time>2020-07-12T12:02:29 02:00</time>
      </trkpt>
      <trkpt lat="45.08902" lon="5.95875">
        <ele>2527.6</ele>
        <time>2020-07-12T12:02:30 02:00</time>
      </trkpt>
      <trkpt lat="45.08901" lon="5.95874">
        <ele>2527.4</ele>
        <time>2020-07-12T12:02:34 02:00</time>
      </trkpt>
      <trkpt lat="45.089" lon="5.95874">
        <ele>2527.2</ele>
        <time>2020-07-12T12:02:35 02:00</time>
      </trkpt>
      <trkpt lat="45.08901" lon="5.95884">
        <ele>2526.4</ele>
        <time>2020-07-12T12:02:45 02:00</time>
      </trkpt>
      <trkpt lat="45.08901" lon="5.95887">
        <ele>2526</ele>
        <time>2020-07-12T12:02:46 02:00</time>
      </trkpt>
      <trkpt lat="45.08901" lon="5.95888">
        <ele>2525.4</ele>
        <time>2020-07-12T12:02:47 02:00</time>
      </trkpt>
      <trkpt lat="45.08901" lon="5.95894">
        <ele>2524.6</ele>
        <time>2020-07-12T12:02:52 02:00</time>
      </trkpt>
      <trkpt lat="45.089" lon="5.95899">
        <ele>2523.6</ele>
        <time>2020-07-12T12:02:59 02:00</time>
      </trkpt>
      <trkpt lat="45.08899" lon="5.959">
        <ele>2523.2</ele>
        <time>2020-07-12T12:03:00 02:00</time>
      </trkpt>
      <trkpt lat="45.08899" lon="5.95901">
        <ele>2522.6</ele>
        <time>2020-07-12T12:03:01 02:00</time>
      </trkpt>
      <trkpt lat="45.08899" lon="5.95901">
        <ele>2522.2</ele>
        <time>2020-07-12T12:03:02 02:00</time>
      </trkpt>
      <trkpt lat="45.08897" lon="5.95905">
        <ele>2522</ele>
        <time>2020-07-12T12:03:09 02:00</time>
      </trkpt>
      <trkpt lat="45.08896" lon="5.95906">
        <ele>2521.8</ele>
        <time>2020-07-12T12:03:11 02:00</time>
      </trkpt>
      <trkpt lat="45.08895" lon="5.95908">
        <ele>2521.4</ele>
        <time>2020-07-12T12:03:14 02:00</time>
      </trkpt>
      <trkpt lat="45.08892" lon="5.95911">
        <ele>2520.6</ele>
        <time>2020-07-12T12:03:18 02:00</time>
      </trkpt>
      <trkpt lat="45.08892" lon="5.95911">
        <ele>2519.8</ele>
        <time>2020-07-12T12:03:19 02:00</time>
      </trkpt>
      <trkpt lat="45.08889" lon="5.95913">
        <ele>2518.8</ele>
        <time>2020-07-12T12:03:23 02:00</time>
      </trkpt>
      <trkpt lat="45.08886" lon="5.95916">
        <ele>2517.6</ele>
        <time>2020-07-12T12:03:27 02:00</time>
      </trkpt>
      <trkpt lat="45.08886" lon="5.9592">
        <ele>2516.6</ele>
        <time>2020-07-12T12:03:30 02:00</time>
      </trkpt>
      <trkpt lat="45.08885" lon="5.95922">
        <ele>2515.6</ele>
        <time>2020-07-12T12:03:34 02:00</time>
      </trkpt>
      <trkpt lat="45.08884" lon="5.95923">
        <ele>2514.6</ele>
        <time>2020-07-12T12:03:36 02:00</time>
      </trkpt>
      <trkpt lat="45.08881" lon="5.95924">
        <ele>2513.8</ele>
        <time>2020-07-12T12:03:39 02:00</time>
      </trkpt>
      <trkpt lat="45.0888" lon="5.95924">
        <ele>2513.2</ele>
        <time>2020-07-12T12:03:40 02:00</time>
      </trkpt>
      <trkpt lat="45.08877" lon="5.95925">
        <ele>2512.4</ele>
        <time>2020-07-12T12:03:44 02:00</time>
      </trkpt>
      <trkpt lat="45.08876" lon="5.95925">
        <ele>2511.8</ele>
        <time>2020-07-12T12:03:46 02:00</time>
      </trkpt>
      <trkpt lat="45.08873" lon="5.95926">
        <ele>2511.2</ele>
        <time>2020-07-12T12:03:49 02:00</time>
      </trkpt>
      <trkpt lat="45.0887" lon="5.95926">
        <ele>2510.4</ele>
        <time>2020-07-12T12:03:52 02:00</time>
      </trkpt>
      <trkpt lat="45.08867" lon="5.95925">
        <ele>2509.6</ele>
        <time>2020-07-12T12:03:55 02:00</time>
      </trkpt>
      <trkpt lat="45.08865" lon="5.95925">
        <ele>2508.6</ele>
        <time>2020-07-12T12:03:58 02:00</time>
      </trkpt>
      <trkpt lat="45.08865" lon="5.95926">
        <ele>2507.8</ele>
        <time>2020-07-12T12:03:59 02:00</time>
      </trkpt>
      <trkpt lat="45.08864" lon="5.95927">
        <ele>2506.8</ele>
        <time>2020-07-12T12:04:00 02:00</time>
      </trkpt>
      <trkpt lat="45.08862" lon="5.95928">
        <ele>2506</ele>
        <time>2020-07-12T12:04:04 02:00</time>
      </trkpt>
      <trkpt lat="45.08861" lon="5.95928">
        <ele>2505.2</ele>
        <time>2020-07-12T12:04:05 02:00</time>
      </trkpt>
      <trkpt lat="45.08859" lon="5.95932">
        <ele>2504.6</ele>
        <time>2020-07-12T12:04:11 02:00</time>
      </trkpt>
      <trkpt lat="45.08857" lon="5.95931">
        <ele>2503.6</ele>
        <time>2020-07-12T12:04:14 02:00</time>
      </trkpt>
      <trkpt lat="45.08855" lon="5.95932">
        <ele>2502.6</ele>
        <time>2020-07-12T12:04:16 02:00</time>
      </trkpt>
      <trkpt lat="45.08853" lon="5.95935">
        <ele>2501.6</ele>
        <time>2020-07-12T12:04:20 02:00</time>
      </trkpt>
      <trkpt lat="45.08853" lon="5.95937">
        <ele>2500.6</ele>
        <time>2020-07-12T12:04:22 02:00</time>
      </trkpt>
      <trkpt lat="45.08851" lon="5.95939">
        <ele>2499.8</ele>
        <time>2020-07-12T12:04:24 02:00</time>
      </trkpt>
      <trkpt lat="45.08851" lon="5.9594">
        <ele>2499.2</ele>
        <time>2020-07-12T12:04:25 02:00</time>
      </trkpt>
      <trkpt lat="45.08851" lon="5.95944">
        <ele>2498.6</ele>
        <time>2020-07-12T12:04:28 02:00</time>
      </trkpt>
      <trkpt lat="45.0885" lon="5.95945">
        <ele>2498</ele>
        <time>2020-07-12T12:04:29 02:00</time>
      </trkpt>
      <trkpt lat="45.08849" lon="5.95945">
        <ele>2497.6</ele>
        <time>2020-07-12T12:04:31 02:00</time>
      </trkpt>
      <trkpt lat="45.08846" lon="5.95946">
        <ele>2497</ele>
        <time>2020-07-12T12:04:34 02:00</time>
      </trkpt>
      <trkpt lat="45.08845" lon="5.95948">
        <ele>2496.4</ele>
        <time>2020-07-12T12:04:38 02:00</time>
      </trkpt>
      <trkpt lat="45.08843" lon="5.95951">
        <ele>2495.8</ele>
        <time>2020-07-12T12:04:41 02:00</time>
      </trkpt>
      <trkpt lat="45.08842" lon="5.95951">
        <ele>2495.2</ele>
        <time>2020-07-12T12:04:42 02:00</time>
      </trkpt>
      <trkpt lat="45.08841" lon="5.95951">
        <ele>2494.6</ele>
        <time>2020-07-12T12:04:43 02:00</time>
      </trkpt>
      <trkpt lat="45.0884" lon="5.95951">
        <ele>2494.2</ele>
        <time>2020-07-12T12:04:44 02:00</time>
      </trkpt>
      <trkpt lat="45.08839" lon="5.95951">
        <ele>2493.8</ele>
        <time>2020-07-12T12:04:45 02:00</time>
      </trkpt>
      <trkpt lat="45.08836" lon="5.9595">
        <ele>2493.4</ele>
        <time>2020-07-12T12:04:49 02:00</time>
      </trkpt>
      <trkpt lat="45.08835" lon="5.95951">
        <ele>2493</ele>
        <time>2020-07-12T12:04:51 02:00</time>
      </trkpt>
      <trkpt lat="45.08834" lon="5.95951">
        <ele>2492.4</ele>
        <time>2020-07-12T12:04:52 02:00</time>
      </trkpt>
      <trkpt lat="45.08831" lon="5.95952">
        <ele>2491.8</ele>
        <time>2020-07-12T12:04:55 02:00</time>
      </trkpt>
      <trkpt lat="45.0883" lon="5.95952">
        <ele>2491.4</ele>
        <time>2020-07-12T12:04:56 02:00</time>
      </trkpt>
      <trkpt lat="45.08829" lon="5.95953">
        <ele>2491</ele>
        <time>2020-07-12T12:04:59 02:00</time>
      </trkpt>
      <trkpt lat="45.08825" lon="5.95953">
        <ele>2490.2</ele>
        <time>2020-07-12T12:05:03 02:00</time>
      </trkpt>
      <trkpt lat="45.08823" lon="5.95954">
        <ele>2489.4</ele>
        <time>2020-07-12T12:05:06 02:00</time>
      </trkpt>
      <trkpt lat="45.08823" lon="5.95955">
        <ele>2488.6</ele>
        <time>2020-07-12T12:05:07 02:00</time>
      </trkpt>
      <trkpt lat="45.08799" lon="5.95954">
        <ele>2486.2</ele>
        <time>2020-07-12T12:05:51 02:00</time>
      </trkpt>
      <trkpt lat="45.08797" lon="5.95955">
        <ele>2484.2</ele>
        <time>2020-07-12T12:05:54 02:00</time>
      </trkpt>
      <trkpt lat="45.08794" lon="5.95954">
        <ele>2482.4</ele>
        <time>2020-07-12T12:05:59 02:00</time>
      </trkpt>
      <trkpt lat="45.08791" lon="5.95952">
        <ele>2480.8</ele>
        <time>2020-07-12T12:06:03 02:00</time>
      </trkpt>
      <trkpt lat="45.08788" lon="5.9595">
        <ele>2479</ele>
        <time>2020-07-12T12:06:06 02:00</time>
      </trkpt>
      <trkpt lat="45.08786" lon="5.95951">
        <ele>2478.8</ele>
        <time>2020-07-12T12:06:08 02:00</time>
      </trkpt>
      <trkpt lat="45.08786" lon="5.95951">
        <ele>2478.2</ele>
        <time>2020-07-12T12:06:09 02:00</time>
      </trkpt>
      <trkpt lat="45.08784" lon="5.95949">
        <ele>2478</ele>
        <time>2020-07-12T12:06:11 02:00</time>
      </trkpt>
      <trkpt lat="45.08783" lon="5.95949">
        <ele>2477.6</ele>
        <time>2020-07-12T12:06:13 02:00</time>
      </trkpt>
      <trkpt lat="45.08781" lon="5.95948">
        <ele>2477.4</ele>
        <time>2020-07-12T12:06:15 02:00</time>
      </trkpt>
      <trkpt lat="45.0878" lon="5.95948">
        <ele>2477.2</ele>
        <time>2020-07-12T12:06:17 02:00</time>
      </trkpt>
      <trkpt lat="45.08777" lon="5.95946">
        <ele>2477</ele>
        <time>2020-07-12T12:06:20 02:00</time>
      </trkpt>
      <trkpt lat="45.08776" lon="5.95943">
        <ele>2476.6</ele>
        <time>2020-07-12T12:06:23 02:00</time>
      </trkpt>
      <trkpt lat="45.08775" lon="5.95943">
        <ele>2476.4</ele>
        <time>2020-07-12T12:06:24 02:00</time>
      </trkpt>
      <trkpt lat="45.08772" lon="5.95941">
        <ele>2476.2</ele>
        <time>2020-07-12T12:06:27 02:00</time>
      </trkpt>
      <trkpt lat="45.08772" lon="5.9594">
        <ele>2475.8</ele>
        <time>2020-07-12T12:06:28 02:00</time>
      </trkpt>
      <trkpt lat="45.0877" lon="5.9594">
        <ele>2475.6</ele>
        <time>2020-07-12T12:06:30 02:00</time>
      </trkpt>
      <trkpt lat="45.08768" lon="5.95937">
        <ele>2475.6</ele>
        <time>2020-07-12T12:06:33 02:00</time>
      </trkpt>
      <trkpt lat="45.08765" lon="5.95935">
        <ele>2475.6</ele>
        <time>2020-07-12T12:06:36 02:00</time>
      </trkpt>
      <trkpt lat="45.08762" lon="5.95932">
        <ele>2475.2</ele>
        <time>2020-07-12T12:06:39 02:00</time>
      </trkpt>
      <trkpt lat="45.0876" lon="5.9593">
        <ele>2475</ele>
        <time>2020-07-12T12:06:42 02:00</time>
      </trkpt>
      <trkpt lat="45.08757" lon="5.95929">
        <ele>2474.8</ele>
        <time>2020-07-12T12:06:45 02:00</time>
      </trkpt>
      <trkpt lat="45.08754" lon="5.95927">
        <ele>2474.2</ele>
        <time>2020-07-12T12:06:49 02:00</time>
      </trkpt>
      <trkpt lat="45.08753" lon="5.95925">
        <ele>2473.6</ele>
        <time>2020-07-12T12:06:51 02:00</time>
      </trkpt>
      <trkpt lat="45.08753" lon="5.95924">
        <ele>2473.4</ele>
        <time>2020-07-12T12:06:52 02:00</time>
      </trkpt>
      <trkpt lat="45.0875" lon="5.95921">
        <ele>2473</ele>
        <time>2020-07-12T12:06:55 02:00</time>
      </trkpt>
      <trkpt lat="45.08748" lon="5.95919">
        <ele>2472.8</ele>
        <time>2020-07-12T12:06:58 02:00</time>
      </trkpt>
      <trkpt lat="45.08744" lon="5.95917">
        <ele>2472.6</ele>
        <time>2020-07-12T12:07:02 02:00</time>
      </trkpt>
      <trkpt lat="45.08743" lon="5.95915">
        <ele>2472.2</ele>
        <time>2020-07-12T12:07:06 02:00</time>
      </trkpt>
      <trkpt lat="45.08739" lon="5.95913">
        <ele>2471.6</ele>
        <time>2020-07-12T12:07:09 02:00</time>
      </trkpt>
      <trkpt lat="45.08736" lon="5.95912">
        <ele>2471.2</ele>
        <time>2020-07-12T12:07:12 02:00</time>
      </trkpt>
      <trkpt lat="45.08733" lon="5.9591">
        <ele>2470.6</ele>
        <time>2020-07-12T12:07:16 02:00</time>
      </trkpt>
      <trkpt lat="45.0873" lon="5.95908">
        <ele>2470</ele>
        <time>2020-07-12T12:07:21 02:00</time>
      </trkpt>
      <trkpt lat="45.08729" lon="5.95907">
        <ele>2469.6</ele>
        <time>2020-07-12T12:07:23 02:00</time>
      </trkpt>
      <trkpt lat="45.08729" lon="5.95907">
        <ele>2469.4</ele>
        <time>2020-07-12T12:08:01 02:00</time>
      </trkpt>
      <trkpt lat="45.08728" lon="5.95904">
        <ele>2469</ele>
        <time>2020-07-12T12:08:05 02:00</time>
      </trkpt>
      <trkpt lat="45.08727" lon="5.95903">
        <ele>2468.6</ele>
        <time>2020-07-12T12:08:06 02:00</time>
      </trkpt>
      <trkpt lat="45.08727" lon="5.95903">
        <ele>2468.4</ele>
        <time>2020-07-12T12:08:07 02:00</time>
      </trkpt>
      <trkpt lat="45.08726" lon="5.95903">
        <ele>2468.2</ele>
        <time>2020-07-12T12:08:08 02:00</time>
      </trkpt>
      <trkpt lat="45.08726" lon="5.95903">
        <ele>2467.8</ele>
        <time>2020-07-12T12:08:09 02:00</time>
      </trkpt>
      <trkpt lat="45.08724" lon="5.95901">
        <ele>2467.6</ele>
        <time>2020-07-12T12:08:12 02:00</time>
      </trkpt>
      <trkpt lat="45.08722" lon="5.959">
        <ele>2467.2</ele>
        <time>2020-07-12T12:08:37 02:00</time>
      </trkpt>
      <trkpt lat="45.0872" lon="5.95898">
        <ele>2466.8</ele>
        <time>2020-07-12T12:08:41 02:00</time>
      </trkpt>
      <trkpt lat="45.08717" lon="5.95895">
        <ele>2466.4</ele>
        <time>2020-07-12T12:08:45 02:00</time>
      </trkpt>
      <trkpt lat="45.08714" lon="5.95893">
        <ele>2466.4</ele>
        <time>2020-07-12T12:08:48 02:00</time>
      </trkpt>
      <trkpt lat="45.08712" lon="5.9589">
        <ele>2466.2</ele>
        <time>2020-07-12T12:08:52 02:00</time>
      </trkpt>
      <trkpt lat="45.08709" lon="5.95888">
        <ele>2466.4</ele>
        <time>2020-07-12T12:08:56 02:00</time>
      </trkpt>
      <trkpt lat="45.08709" lon="5.95887">
        <ele>2466.4</ele>
        <time>2020-07-12T12:08:57 02:00</time>
      </trkpt>
      <trkpt lat="45.08709" lon="5.95885">
        <ele>2466.4</ele>
        <time>2020-07-12T12:08:58 02:00</time>
      </trkpt>
      <trkpt lat="45.08706" lon="5.95883">
        <ele>2466.4</ele>
        <time>2020-07-12T12:09:01 02:00</time>
      </trkpt>
      <trkpt lat="45.08703" lon="5.95881">
        <ele>2466.6</ele>
        <time>2020-07-12T12:09:03 02:00</time>
      </trkpt>
      <trkpt lat="45.087" lon="5.95878">
        <ele>2466.6</ele>
        <time>2020-07-12T12:09:06 02:00</time>
      </trkpt>
      <trkpt lat="45.08698" lon="5.95874">
        <ele>2466.8</ele>
        <time>2020-07-12T12:09:10 02:00</time>
      </trkpt>
      <trkpt lat="45.08695" lon="5.95871">
        <ele>2466.8</ele>
        <time>2020-07-12T12:09:12 02:00</time>
      </trkpt>
      <trkpt lat="45.08692" lon="5.95868">
        <ele>2466.2</ele>
        <time>2020-07-12T12:09:16 02:00</time>
      </trkpt>
      <trkpt lat="45.0869" lon="5.95864">
        <ele>2465.6</ele>
        <time>2020-07-12T12:09:19 02:00</time>
      </trkpt>
      <trkpt lat="45.0869" lon="5.9586">
        <ele>2465</ele>
        <time>2020-07-12T12:09:22 02:00</time>
      </trkpt>
      <trkpt lat="45.0869" lon="5.9586">
        <ele>2464.4</ele>
        <time>2020-07-12T12:09:23 02:00</time>
      </trkpt>
      <trkpt lat="45.08688" lon="5.95859">
        <ele>2463.6</ele>
        <time>2020-07-12T12:09:27 02:00</time>
      </trkpt>
      <trkpt lat="45.08686" lon="5.95855">
        <ele>2463.2</ele>
        <time>2020-07-12T12:09:30 02:00</time>
      </trkpt>
      <trkpt lat="45.08685" lon="5.95852">
        <ele>2462.6</ele>
        <time>2020-07-12T12:09:33 02:00</time>
      </trkpt>
      <trkpt lat="45.08682" lon="5.95849">
        <ele>2462.2</ele>
        <time>2020-07-12T12:09:35 02:00</time>
      </trkpt>
      <trkpt lat="45.08681" lon="5.95845">
        <ele>2461.6</ele>
        <time>2020-07-12T12:09:38 02:00</time>
      </trkpt>
      <trkpt lat="45.0868" lon="5.95841">
        <ele>2461.2</ele>
        <time>2020-07-12T12:09:42 02:00</time>
      </trkpt>
      <trkpt lat="45.08678" lon="5.95837">
        <ele>2460.6</ele>
        <time>2020-07-12T12:09:46 02:00</time>
      </trkpt>
      <trkpt lat="45.08676" lon="5.95832">
        <ele>2460.4</ele>
        <time>2020-07-12T12:09:49 02:00</time>
      </trkpt>
      <trkpt lat="45.08674" lon="5.95829">
        <ele>2459.6</ele>
        <time>2020-07-12T12:09:52 02:00</time>
      </trkpt>
      <trkpt lat="45.08672" lon="5.95825">
        <ele>2458.8</ele>
        <time>2020-07-12T12:09:56 02:00</time>
      </trkpt>
      <trkpt lat="45.0867" lon="5.95821">
        <ele>2458.2</ele>
        <time>2020-07-12T12:10:00 02:00</time>
      </trkpt>
      <trkpt lat="45.0867" lon="5.9582">
        <ele>2457.8</ele>
        <time>2020-07-12T12:10:01 02:00</time>
      </trkpt>
      <trkpt lat="45.0867" lon="5.95819">
        <ele>2457.2</ele>
        <time>2020-07-12T12:10:02 02:00</time>
      </trkpt>
      <trkpt lat="45.08668" lon="5.95816">
        <ele>2456.8</ele>
        <time>2020-07-12T12:10:05 02:00</time>
      </trkpt>
      <trkpt lat="45.08666" lon="5.95812">
        <ele>2456.6</ele>
        <time>2020-07-12T12:10:07 02:00</time>
      </trkpt>
      <trkpt lat="45.08664" lon="5.95809">
        <ele>2456.2</ele>
        <time>2020-07-12T12:10:11 02:00</time>
      </trkpt>
      <trkpt lat="45.08662" lon="5.95805">
        <ele>2455.6</ele>
        <time>2020-07-12T12:10:13 02:00</time>
      </trkpt>
      <trkpt lat="45.0866" lon="5.95801">
        <ele>2455</ele>
        <time>2020-07-12T12:10:16 02:00</time>
      </trkpt>
      <trkpt lat="45.08658" lon="5.95798">
        <ele>2454.2</ele>
        <time>2020-07-12T12:10:19 02:00</time>
      </trkpt>
      <trkpt lat="45.08655" lon="5.95795">
        <ele>2453.4</ele>
        <time>2020-07-12T12:10:22 02:00</time>
      </trkpt>
      <trkpt lat="45.08653" lon="5.95792">
        <ele>2452.6</ele>
        <time>2020-07-12T12:10:25 02:00</time>
      </trkpt>
      <trkpt lat="45.08653" lon="5.9579">
        <ele>2451.8</ele>
        <time>2020-07-12T12:10:27 02:00</time>
      </trkpt>
      <trkpt lat="45.08653" lon="5.9579">
        <ele>2451</ele>
        <time>2020-07-12T12:10:30 02:00</time>
      </trkpt>
      <trkpt lat="45.08651" lon="5.95789">
        <ele>2450.6</ele>
        <time>2020-07-12T12:10:32 02:00</time>
      </trkpt>
      <trkpt lat="45.08649" lon="5.95788">
        <ele>2450.2</ele>
        <time>2020-07-12T12:10:35 02:00</time>
      </trkpt>
      <trkpt lat="45.08647" lon="5.95785">
        <ele>2450</ele>
        <time>2020-07-12T12:10:38 02:00</time>
      </trkpt>
      <trkpt lat="45.08645" lon="5.95783">
        <ele>2450</ele>
        <time>2020-07-12T12:10:40 02:00</time>
      </trkpt>
      <trkpt lat="45.08641" lon="5.95779">
        <ele>2450</ele>
        <time>2020-07-12T12:10:43 02:00</time>
      </trkpt>
      <trkpt lat="45.08639" lon="5.95776">
        <ele>2450</ele>
        <time>2020-07-12T12:10:46 02:00</time>
      </trkpt>
      <trkpt lat="45.08637" lon="5.95773">
        <ele>2450</ele>
        <time>2020-07-12T12:10:49 02:00</time>
      </trkpt>
      <trkpt lat="45.08633" lon="5.9577">
        <ele>2449.8</ele>
        <time>2020-07-12T12:10:52 02:00</time>
      </trkpt>
      <trkpt lat="45.08631" lon="5.95768">
        <ele>2449.6</ele>
        <time>2020-07-12T12:10:55 02:00</time>
      </trkpt>
      <trkpt lat="45.0863" lon="5.95764">
        <ele>2449.4</ele>
        <time>2020-07-12T12:10:58 02:00</time>
      </trkpt>
      <trkpt lat="45.08628" lon="5.95761">
        <ele>2449.2</ele>
        <time>2020-07-12T12:11:01 02:00</time>
      </trkpt>
      <trkpt lat="45.08627" lon="5.95757">
        <ele>2448.8</ele>
        <time>2020-07-12T12:11:04 02:00</time>
      </trkpt>
      <trkpt lat="45.08625" lon="5.95753">
        <ele>2448.6</ele>
        <time>2020-07-12T12:11:08 02:00</time>
      </trkpt>
      <trkpt lat="45.08624" lon="5.9575">
        <ele>2448.4</ele>
        <time>2020-07-12T12:11:11 02:00</time>
      </trkpt>
      <trkpt lat="45.08622" lon="5.95747">
        <ele>2448</ele>
        <time>2020-07-12T12:11:15 02:00</time>
      </trkpt>
      <trkpt lat="45.08621" lon="5.95745">
        <ele>2447.4</ele>
        <time>2020-07-12T12:11:17 02:00</time>
      </trkpt>
      <trkpt lat="45.0862" lon="5.95744">
        <ele>2447.2</ele>
        <time>2020-07-12T12:11:19 02:00</time>
      </trkpt>
      <trkpt lat="45.08617" lon="5.95743">
        <ele>2446.8</ele>
        <time>2020-07-12T12:11:23 02:00</time>
      </trkpt>
      <trkpt lat="45.08614" lon="5.9574">
        <ele>2446.2</ele>
        <time>2020-07-12T12:11:27 02:00</time>
      </trkpt>
      <trkpt lat="45.08613" lon="5.95736">
        <ele>2445.4</ele>
        <time>2020-07-12T12:11:31 02:00</time>
      </trkpt>
      <trkpt lat="45.08612" lon="5.95735">
        <ele>2444.8</ele>
        <time>2020-07-12T12:11:32 02:00</time>
      </trkpt>
      <trkpt lat="45.08612" lon="5.95734">
        <ele>2444</ele>
        <time>2020-07-12T12:11:33 02:00</time>
      </trkpt>
      <trkpt lat="45.0861" lon="5.9573">
        <ele>2443.4</ele>
        <time>2020-07-12T12:11:37 02:00</time>
      </trkpt>
      <trkpt lat="45.0861" lon="5.95725">
        <ele>2442.8</ele>
        <time>2020-07-12T12:11:41 02:00</time>
      </trkpt>
      <trkpt lat="45.0861" lon="5.95721">
        <ele>2442.6</ele>
        <time>2020-07-12T12:11:45 02:00</time>
      </trkpt>
      <trkpt lat="45.0861" lon="5.95719">
        <ele>2442.2</ele>
        <time>2020-07-12T12:11:47 02:00</time>
      </trkpt>
      <trkpt lat="45.0861" lon="5.95716">
        <ele>2441.6</ele>
        <time>2020-07-12T12:11:51 02:00</time>
      </trkpt>
      <trkpt lat="45.0861" lon="5.95712">
        <ele>2440.8</ele>
        <time>2020-07-12T12:11:55 02:00</time>
      </trkpt>
      <trkpt lat="45.08609" lon="5.95708">
        <ele>2440.4</ele>
        <time>2020-07-12T12:11:58 02:00</time>
      </trkpt>
      <trkpt lat="45.08609" lon="5.95707">
        <ele>2440</ele>
        <time>2020-07-12T12:12:00 02:00</time>
      </trkpt>
      <trkpt lat="45.08608" lon="5.95704">
        <ele>2439.8</ele>
        <time>2020-07-12T12:12:01 02:00</time>
      </trkpt>
      <trkpt lat="45.08609" lon="5.95701">
        <ele>2439.6</ele>
        <time>2020-07-12T12:12:04 02:00</time>
      </trkpt>
      <trkpt lat="45.08609" lon="5.957">
        <ele>2439.2</ele>
        <time>2020-07-12T12:12:06 02:00</time>
      </trkpt>
      <trkpt lat="45.08609" lon="5.957">
        <ele>2438.6</ele>
        <time>2020-07-12T12:12:07 02:00</time>
      </trkpt>
      <trkpt lat="45.08609" lon="5.95695">
        <ele>2437.6</ele>
        <time>2020-07-12T12:12:11 02:00</time>
      </trkpt>
      <trkpt lat="45.08609" lon="5.95691">
        <ele>2436.6</ele>
        <time>2020-07-12T12:12:14 02:00</time>
      </trkpt>
      <trkpt lat="45.08611" lon="5.95688">
        <ele>2435.4</ele>
        <time>2020-07-12T12:12:18 02:00</time>
      </trkpt>
      <trkpt lat="45.08611" lon="5.95686">
        <ele>2434.6</ele>
        <time>2020-07-12T12:12:20 02:00</time>
      </trkpt>
      <trkpt lat="45.08611" lon="5.95685">
        <ele>2433.8</ele>
        <time>2020-07-12T12:12:21 02:00</time>
      </trkpt>
      <trkpt lat="45.08612" lon="5.9568">
        <ele>2433.2</ele>
        <time>2020-07-12T12:12:25 02:00</time>
      </trkpt>
      <trkpt lat="45.08612" lon="5.95675">
        <ele>2432.6</ele>
        <time>2020-07-12T12:12:28 02:00</time>
      </trkpt>
      <trkpt lat="45.08613" lon="5.95671">
        <ele>2432.4</ele>
        <time>2020-07-12T12:12:31 02:00</time>
      </trkpt>
      <trkpt lat="45.08614" lon="5.95667">
        <ele>2432</ele>
        <time>2020-07-12T12:12:35 02:00</time>
      </trkpt>
      <trkpt lat="45.08614" lon="5.95666">
        <ele>2431.4</ele>
        <time>2020-07-12T12:12:36 02:00</time>
      </trkpt>
      <trkpt lat="45.08617" lon="5.95666">
        <ele>2431</ele>
        <time>2020-07-12T12:12:39 02:00</time>
      </trkpt>
      <trkpt lat="45.08621" lon="5.95663">
        <ele>2430.2</ele>
        <time>2020-07-12T12:12:42 02:00</time>
      </trkpt>
      <trkpt lat="45.08623" lon="5.95661">
        <ele>2429.2</ele>
        <time>2020-07-12T12:12:44 02:00</time>
      </trkpt>
      <trkpt lat="45.08625" lon="5.95657">
        <ele>2428.4</ele>
        <time>2020-07-12T12:12:47 02:00</time>
      </trkpt>
      <trkpt lat="45.08625" lon="5.95656">
        <ele>2427.6</ele>
        <time>2020-07-12T12:12:50 02:00</time>
      </trkpt>
      <trkpt lat="45.08627" lon="5.9565">
        <ele>2426.6</ele>
        <time>2020-07-12T12:12:57 02:00</time>
      </trkpt>
      <trkpt lat="45.08627" lon="5.95649">
        <ele>2425.8</ele>
        <time>2020-07-12T12:12:58 02:00</time>
      </trkpt>
      <trkpt lat="45.08628" lon="5.95645">
        <ele>2425.4</ele>
        <time>2020-07-12T12:13:03 02:00</time>
      </trkpt>
      <trkpt lat="45.08629" lon="5.95643">
        <ele>2424.6</ele>
        <time>2020-07-12T12:13:05 02:00</time>
      </trkpt>
      <trkpt lat="45.0863" lon="5.95642">
        <ele>2424</ele>
        <time>2020-07-12T12:13:06 02:00</time>
      </trkpt>
      <trkpt lat="45.0863" lon="5.9564">
        <ele>2423.8</ele>
        <time>2020-07-12T12:13:08 02:00</time>
      </trkpt>
      <trkpt lat="45.08631" lon="5.95637">
        <ele>2423.8</ele>
        <time>2020-07-12T12:13:13 02:00</time>
      </trkpt>
      <trkpt lat="45.0863" lon="5.95635">
        <ele>2423.6</ele>
        <time>2020-07-12T12:13:14 02:00</time>
      </trkpt>
      <trkpt lat="45.0863" lon="5.95633">
        <ele>2423.8</ele>
        <time>2020-07-12T12:13:16 02:00</time>
      </trkpt>
      <trkpt lat="45.0863" lon="5.95631">
        <ele>2423.8</ele>
        <time>2020-07-12T12:13:17 02:00</time>
      </trkpt>
      <trkpt lat="45.08629" lon="5.95624">
        <ele>2423.6</ele>
        <time>2020-07-12T12:13:24 02:00</time>
      </trkpt>
      <trkpt lat="45.08627" lon="5.95623">
        <ele>2423.2</ele>
        <time>2020-07-12T12:13:26 02:00</time>
      </trkpt>
      <trkpt lat="45.08627" lon="5.95623">
        <ele>2422.8</ele>
        <time>2020-07-12T12:13:27 02:00</time>
      </trkpt>
      <trkpt lat="45.08627" lon="5.95623">
        <ele>2422.4</ele>
        <time>2020-07-12T12:13:28 02:00</time>
      </trkpt>
      <trkpt lat="45.08625" lon="5.95622">
        <ele>2422</ele>
        <time>2020-07-12T12:13:29 02:00</time>
      </trkpt>
      <trkpt lat="45.08624" lon="5.95621">
        <ele>2421.6</ele>
        <time>2020-07-12T12:13:31 02:00</time>
      </trkpt>
      <trkpt lat="45.08621" lon="5.95623">
        <ele>2421.6</ele>
        <time>2020-07-12T12:14:02 02:00</time>
      </trkpt>
      <trkpt lat="45.0862" lon="5.95623">
        <ele>2421.6</ele>
        <time>2020-07-12T12:14:03 02:00</time>
      </trkpt>
      <trkpt lat="45.0862" lon="5.95621">
        <ele>2421.6</ele>
        <time>2020-07-12T12:14:06 02:00</time>
      </trkpt>
      <trkpt lat="45.08619" lon="5.95619">
        <ele>2421.8</ele>
        <time>2020-07-12T12:14:08 02:00</time>
      </trkpt>
      <trkpt lat="45.08619" lon="5.95617">
        <ele>2421.8</ele>
        <time>2020-07-12T12:14:10 02:00</time>
      </trkpt>
      <trkpt lat="45.0862" lon="5.95613">
        <ele>2421.2</ele>
        <time>2020-07-12T12:14:13 02:00</time>
      </trkpt>
      <trkpt lat="45.08622" lon="5.9561">
        <ele>2420.4</ele>
        <time>2020-07-12T12:14:17 02:00</time>
      </trkpt>
      <trkpt lat="45.08622" lon="5.95609">
        <ele>2419.6</ele>
        <time>2020-07-12T12:14:17 02:00</time>
      </trkpt>
      <trkpt lat="45.08632" lon="5.95593">
        <ele>2417.2</ele>
        <time>2020-07-12T12:14:44 02:00</time>
      </trkpt>
      <trkpt lat="45.08634" lon="5.95593">
        <ele>2415</ele>
        <time>2020-07-12T12:14:46 02:00</time>
      </trkpt>
      <trkpt lat="45.08633" lon="5.95587">
        <ele>2413.2</ele>
        <time>2020-07-12T12:14:51 02:00</time>
      </trkpt>
      <trkpt lat="45.08635" lon="5.95584">
        <ele>2411.6</ele>
        <time>2020-07-12T12:14:55 02:00</time>
      </trkpt>
      <trkpt lat="45.08636" lon="5.95581">
        <ele>2410</ele>
        <time>2020-07-12T12:14:58 02:00</time>
      </trkpt>
      <trkpt lat="45.08637" lon="5.9558">
        <ele>2409.8</ele>
        <time>2020-07-12T12:14:58 02:00</time>
      </trkpt>
      <trkpt lat="45.08644" lon="5.95559">
        <ele>2408.6</ele>
        <time>2020-07-12T12:15:40 02:00</time>
      </trkpt>
      <trkpt lat="45.08644" lon="5.95557">
        <ele>2407.4</ele>
        <time>2020-07-12T12:15:41 02:00</time>
      </trkpt>
      <trkpt lat="45.08639" lon="5.95549">
        <ele>2405.8</ele>
        <time>2020-07-12T12:15:56 02:00</time>
      </trkpt>
      <trkpt lat="45.08639" lon="5.95547">
        <ele>2404.2</ele>
        <time>2020-07-12T12:15:57 02:00</time>
      </trkpt>
      <trkpt lat="45.08639" lon="5.95546">
        <ele>2402.8</ele>
        <time>2020-07-12T12:15:59 02:00</time>
      </trkpt>
      <trkpt lat="45.08639" lon="5.95545">
        <ele>2402.4</ele>
        <time>2020-07-12T12:16:00 02:00</time>
      </trkpt>
      <trkpt lat="45.08636" lon="5.95538">
        <ele>2401.6</ele>
        <time>2020-07-12T12:16:13 02:00</time>
      </trkpt>
      <trkpt lat="45.08636" lon="5.95537">
        <ele>2401.2</ele>
        <time>2020-07-12T12:16:14 02:00</time>
      </trkpt>
      <trkpt lat="45.0863" lon="5.95529">
        <ele>2400.6</ele>
        <time>2020-07-12T12:16:32 02:00</time>
      </trkpt>
      <trkpt lat="45.08629" lon="5.95527">
        <ele>2400</ele>
        <time>2020-07-12T12:16:33 02:00</time>
      </trkpt>
      <trkpt lat="45.08628" lon="5.95523">
        <ele>2399.2</ele>
        <time>2020-07-12T12:16:39 02:00</time>
      </trkpt>
      <trkpt lat="45.08627" lon="5.95522">
        <ele>2398.8</ele>
        <time>2020-07-12T12:16:40 02:00</time>
      </trkpt>
      <trkpt lat="45.08618" lon="5.95522">
        <ele>2397.8</ele>
        <time>2020-07-12T12:17:00 02:00</time>
      </trkpt>
      <trkpt lat="45.08616" lon="5.95523">
        <ele>2396.8</ele>
        <time>2020-07-12T12:17:01 02:00</time>
      </trkpt>
      <trkpt lat="45.08619" lon="5.95525">
        <ele>2395.2</ele>
        <time>2020-07-12T12:18:16 02:00</time>
      </trkpt>
      <trkpt lat="45.08619" lon="5.95525">
        <ele>2393.8</ele>
        <time>2020-07-12T12:18:17 02:00</time>
      </trkpt>
      <trkpt lat="45.08617" lon="5.95523">
        <ele>2392.2</ele>
        <time>2020-07-12T12:18:30 02:00</time>
      </trkpt>
      <trkpt lat="45.08615" lon="5.95519">
        <ele>2391</ele>
        <time>2020-07-12T12:18:33 02:00</time>
      </trkpt>
      <trkpt lat="45.08614" lon="5.95518">
        <ele>2390</ele>
        <time>2020-07-12T12:18:34 02:00</time>
      </trkpt>
      <trkpt lat="45.08614" lon="5.95516">
        <ele>2389.6</ele>
        <time>2020-07-12T12:18:36 02:00</time>
      </trkpt>
      <trkpt lat="45.08613" lon="5.95516">
        <ele>2389.2</ele>
        <time>2020-07-12T12:18:37 02:00</time>
      </trkpt>
      <trkpt lat="45.08613" lon="5.95515">
        <ele>2389</ele>
        <time>2020-07-12T12:18:38 02:00</time>
      </trkpt>
      <trkpt lat="45.08611" lon="5.95512">
        <ele>2388.8</ele>
        <time>2020-07-12T12:18:48 02:00</time>
      </trkpt>
      <trkpt lat="45.08613" lon="5.95509">
        <ele>2388.6</ele>
        <time>2020-07-12T12:18:54 02:00</time>
      </trkpt>
      <trkpt lat="45.08614" lon="5.95508">
        <ele>2388.4</ele>
        <time>2020-07-12T12:18:55 02:00</time>
      </trkpt>
      <trkpt lat="45.08614" lon="5.95507">
        <ele>2388.2</ele>
        <time>2020-07-12T12:18:56 02:00</time>
      </trkpt>
      <trkpt lat="45.08613" lon="5.95507">
        <ele>2388</ele>
        <time>2020-07-12T12:18:57 02:00</time>
      </trkpt>
      <trkpt lat="45.08612" lon="5.95504">
        <ele>2387.8</ele>
        <time>2020-07-12T12:19:00 02:00</time>
      </trkpt>
      <trkpt lat="45.08614" lon="5.95504">
        <ele>2387.4</ele>
        <time>2020-07-12T12:19:01 02:00</time>
      </trkpt>
      <trkpt lat="45.08613" lon="5.95501">
        <ele>2386.8</ele>
        <time>2020-07-12T12:19:03 02:00</time>
      </trkpt>
      <trkpt lat="45.08611" lon="5.95502">
        <ele>2386.4</ele>
        <time>2020-07-12T12:19:06 02:00</time>
      </trkpt>
      <trkpt lat="45.08609" lon="5.95501">
        <ele>2385.8</ele>
        <time>2020-07-12T12:19:08 02:00</time>
      </trkpt>
      <trkpt lat="45.08609" lon="5.95499">
        <ele>2385.2</ele>
        <time>2020-07-12T12:19:10 02:00</time>
      </trkpt>
      <trkpt lat="45.08608" lon="5.95498">
        <ele>2384.8</ele>
        <time>2020-07-12T12:19:11 02:00</time>
      </trkpt>
      <trkpt lat="45.08605" lon="5.95496">
        <ele>2384.6</ele>
        <time>2020-07-12T12:19:14 02:00</time>
      </trkpt>
      <trkpt lat="45.08604" lon="5.95496">
        <ele>2384</ele>
        <time>2020-07-12T12:19:16 02:00</time>
      </trkpt>
      <trkpt lat="45.08599" lon="5.95493">
        <ele>2383.6</ele>
        <time>2020-07-12T12:19:22 02:00</time>
      </trkpt>
      <trkpt lat="45.08598" lon="5.95493">
        <ele>2383.6</ele>
        <time>2020-07-12T12:19:23 02:00</time>
      </trkpt>
      <trkpt lat="45.08597" lon="5.95493">
        <ele>2383.4</ele>
        <time>2020-07-12T12:19:24 02:00</time>
      </trkpt>
      <trkpt lat="45.08594" lon="5.95496">
        <ele>2383</ele>
        <time>2020-07-12T12:19:27 02:00</time>
      </trkpt>
      <trkpt lat="45.08593" lon="5.95496">
        <ele>2382.6</ele>
        <time>2020-07-12T12:19:28 02:00</time>
      </trkpt>
      <trkpt lat="45.0859" lon="5.95495">
        <ele>2382.2</ele>
        <time>2020-07-12T12:19:32 02:00</time>
      </trkpt>
      <trkpt lat="45.08588" lon="5.95496">
        <ele>2381.4</ele>
        <time>2020-07-12T12:19:34 02:00</time>
      </trkpt>
      <trkpt lat="45.08587" lon="5.95495">
        <ele>2380.6</ele>
        <time>2020-07-12T12:19:37 02:00</time>
      </trkpt>
      <trkpt lat="45.08587" lon="5.95496">
        <ele>2380</ele>
        <time>2020-07-12T12:19:38 02:00</time>
      </trkpt>
      <trkpt lat="45.08582" lon="5.95501">
        <ele>2379.4</ele>
        <time>2020-07-12T12:19:46 02:00</time>
      </trkpt>
      <trkpt lat="45.08581" lon="5.95501">
        <ele>2378.8</ele>
        <time>2020-07-12T12:19:47 02:00</time>
      </trkpt>
      <trkpt lat="45.08579" lon="5.95502">
        <ele>2378.4</ele>
        <time>2020-07-12T12:19:50 02:00</time>
      </trkpt>
      <trkpt lat="45.08579" lon="5.95502">
        <ele>2378</ele>
        <time>2020-07-12T12:19:51 02:00</time>
      </trkpt>
      <trkpt lat="45.08577" lon="5.95501">
        <ele>2377</ele>
        <time>2020-07-12T12:20:15 02:00</time>
      </trkpt>
      <trkpt lat="45.08573" lon="5.955">
        <ele>2376</ele>
        <time>2020-07-12T12:20:18 02:00</time>
      </trkpt>
      <trkpt lat="45.08573" lon="5.95499">
        <ele>2375</ele>
        <time>2020-07-12T12:20:19 02:00</time>
      </trkpt>
      <trkpt lat="45.08566" lon="5.95502">
        <ele>2373</ele>
        <time>2020-07-12T12:20:41 02:00</time>
      </trkpt>
      <trkpt lat="45.08564" lon="5.95502">
        <ele>2371</ele>
        <time>2020-07-12T12:20:43 02:00</time>
      </trkpt>
      <trkpt lat="45.08562" lon="5.955">
        <ele>2369.4</ele>
        <time>2020-07-12T12:20:46 02:00</time>
      </trkpt>
      <trkpt lat="45.08561" lon="5.95498">
        <ele>2368.2</ele>
        <time>2020-07-12T12:20:48 02:00</time>
      </trkpt>
      <trkpt lat="45.08554" lon="5.95492">
        <ele>2366.4</ele>
        <time>2020-07-12T12:21:13 02:00</time>
      </trkpt>
      <trkpt lat="45.08554" lon="5.95491">
        <ele>2365.6</ele>
        <time>2020-07-12T12:21:14 02:00</time>
      </trkpt>
      <trkpt lat="45.08553" lon="5.9549">
        <ele>2364.8</ele>
        <time>2020-07-12T12:21:15 02:00</time>
      </trkpt>
      <trkpt lat="45.08554" lon="5.9549">
        <ele>2364.2</ele>
        <time>2020-07-12T12:21:16 02:00</time>
      </trkpt>
      <trkpt lat="45.08553" lon="5.95487">
        <ele>2362.4</ele>
        <time>2020-07-12T12:21:27 02:00</time>
      </trkpt>
      <trkpt lat="45.08551" lon="5.95484">
        <ele>2360.8</ele>
        <time>2020-07-12T12:21:30 02:00</time>
      </trkpt>
      <trkpt lat="45.08549" lon="5.95482">
        <ele>2359</ele>
        <time>2020-07-12T12:21:33 02:00</time>
      </trkpt>
      <trkpt lat="45.08548" lon="5.95481">
        <ele>2357.4</ele>
        <time>2020-07-12T12:21:35 02:00</time>
      </trkpt>
      <trkpt lat="45.08548" lon="5.9548">
        <ele>2356</ele>
        <time>2020-07-12T12:21:36 02:00</time>
      </trkpt>
      <trkpt lat="45.08547" lon="5.95478">
        <ele>2355.2</ele>
        <time>2020-07-12T12:21:45 02:00</time>
      </trkpt>
      <trkpt lat="45.08546" lon="5.95476">
        <ele>2354.8</ele>
        <time>2020-07-12T12:21:48 02:00</time>
      </trkpt>
      <trkpt lat="45.08546" lon="5.95475">
        <ele>2354.4</ele>
        <time>2020-07-12T12:21:51 02:00</time>
      </trkpt>
      <trkpt lat="45.08545" lon="5.95474">
        <ele>2354</ele>
        <time>2020-07-12T12:21:52 02:00</time>
      </trkpt>
      <trkpt lat="45.08545" lon="5.95473">
        <ele>2353</ele>
        <time>2020-07-12T12:21:58 02:00</time>
      </trkpt>
      <trkpt lat="45.08545" lon="5.95469">
        <ele>2352.2</ele>
        <time>2020-07-12T12:22:03 02:00</time>
      </trkpt>
      <trkpt lat="45.08543" lon="5.95469">
        <ele>2351.4</ele>
        <time>2020-07-12T12:22:05 02:00</time>
      </trkpt>
      <trkpt lat="45.0854" lon="5.95469">
        <ele>2350.8</ele>
        <time>2020-07-12T12:22:07 02:00</time>
      </trkpt>
      <trkpt lat="45.08538" lon="5.95466">
        <ele>2350</ele>
        <time>2020-07-12T12:22:10 02:00</time>
      </trkpt>
      <trkpt lat="45.08538" lon="5.95465">
        <ele>2349.6</ele>
        <time>2020-07-12T12:22:12 02:00</time>
      </trkpt>
      <trkpt lat="45.08538" lon="5.95465">
        <ele>2349.2</ele>
        <time>2020-07-12T12:22:13 02:00</time>
      </trkpt>
      <trkpt lat="45.08538" lon="5.9546">
        <ele>2348.6</ele>
        <time>2020-07-12T12:22:18 02:00</time>
      </trkpt>
      <trkpt lat="45.08536" lon="5.95458">
        <ele>2347.8</ele>
        <time>2020-07-12T12:22:21 02:00</time>
      </trkpt>
      <trkpt lat="45.08535" lon="5.95458">
        <ele>2347.2</ele>
        <time>2020-07-12T12:22:22 02:00</time>
      </trkpt>
      <trkpt lat="45.08534" lon="5.95457">
        <ele>2346.6</ele>
        <time>2020-07-12T12:22:23 02:00</time>
      </trkpt>
      <trkpt lat="45.08532" lon="5.95456">
        <ele>2345.8</ele>
        <time>2020-07-12T12:22:25 02:00</time>
      </trkpt>
      <trkpt lat="45.08532" lon="5.95456">
        <ele>2345.2</ele>
        <time>2020-07-12T12:22:26 02:00</time>
      </trkpt>
      <trkpt lat="45.0853" lon="5.95455">
        <ele>2344.8</ele>
        <time>2020-07-12T12:22:28 02:00</time>
      </trkpt>
      <trkpt lat="45.08528" lon="5.95454">
        <ele>2344.6</ele>
        <time>2020-07-12T12:22:30 02:00</time>
      </trkpt>
      <trkpt lat="45.08526" lon="5.95451">
        <ele>2344.4</ele>
        <time>2020-07-12T12:22:32 02:00</time>
      </trkpt>
      <trkpt lat="45.08522" lon="5.9545">
        <ele>2344.6</ele>
        <time>2020-07-12T12:22:36 02:00</time>
      </trkpt>
      <trkpt lat="45.08519" lon="5.9545">
        <ele>2344.6</ele>
        <time>2020-07-12T12:22:39 02:00</time>
      </trkpt>
      <trkpt lat="45.08518" lon="5.95449">
        <ele>2344.6</ele>
        <time>2020-07-12T12:22:42 02:00</time>
      </trkpt>
      <trkpt lat="45.08515" lon="5.95451">
        <ele>2344.4</ele>
        <time>2020-07-12T12:22:45 02:00</time>
      </trkpt>
      <trkpt lat="45.08515" lon="5.95451">
        <ele>2344.2</ele>
        <time>2020-07-12T12:22:46 02:00</time>
      </trkpt>
      <trkpt lat="45.08515" lon="5.95452">
        <ele>2344</ele>
        <time>2020-07-12T12:22:46 02:00</time>
      </trkpt>
      <trkpt lat="45.08513" lon="5.95452">
        <ele>2343.8</ele>
        <time>2020-07-12T12:22:49 02:00</time>
      </trkpt>
      <trkpt lat="45.08512" lon="5.95452">
        <ele>2343.4</ele>
        <time>2020-07-12T12:22:51 02:00</time>
      </trkpt>
      <trkpt lat="45.08511" lon="5.95452">
        <ele>2342.8</ele>
        <time>2020-07-12T12:22:52 02:00</time>
      </trkpt>
      <trkpt lat="45.08511" lon="5.95453">
        <ele>2342.2</ele>
        <time>2020-07-12T12:22:54 02:00</time>
      </trkpt>
      <trkpt lat="45.08507" lon="5.95451">
        <ele>2341.4</ele>
        <time>2020-07-12T12:22:57 02:00</time>
      </trkpt>
      <trkpt lat="45.08506" lon="5.95452">
        <ele>2340.6</ele>
        <time>2020-07-12T12:22:57 02:00</time>
      </trkpt>
      <trkpt lat="45.08506" lon="5.95451">
        <ele>2340</ele>
        <time>2020-07-12T12:22:58 02:00</time>
      </trkpt>
      <trkpt lat="45.08503" lon="5.95448">
        <ele>2339</ele>
        <time>2020-07-12T12:23:03 02:00</time>
      </trkpt>
      <trkpt lat="45.08503" lon="5.95449">
        <ele>2338.6</ele>
        <time>2020-07-12T12:23:13 02:00</time>
      </trkpt>
      <trkpt lat="45.08501" lon="5.9545">
        <ele>2338.2</ele>
        <time>2020-07-12T12:23:15 02:00</time>
      </trkpt>
      <trkpt lat="45.085" lon="5.9545">
        <ele>2338</ele>
        <time>2020-07-12T12:23:16 02:00</time>
      </trkpt>
      <trkpt lat="45.08497" lon="5.95448">
        <ele>2337.6</ele>
        <time>2020-07-12T12:23:20 02:00</time>
      </trkpt>
      <trkpt lat="45.08495" lon="5.95446">
        <ele>2337.8</ele>
        <time>2020-07-12T12:23:22 02:00</time>
      </trkpt>
      <trkpt lat="45.08497" lon="5.95446">
        <ele>2335.8</ele>
        <time>2020-07-12T12:23:59 02:00</time>
      </trkpt>
      <trkpt lat="45.08494" lon="5.95445">
        <ele>2333.6</ele>
        <time>2020-07-12T12:24:02 02:00</time>
      </trkpt>
      <trkpt lat="45.08491" lon="5.95443">
        <ele>2331.2</ele>
        <time>2020-07-12T12:24:06 02:00</time>
      </trkpt>
      <trkpt lat="45.08489" lon="5.95443">
        <ele>2329</ele>
        <time>2020-07-12T12:24:09 02:00</time>
      </trkpt>
      <trkpt lat="45.08488" lon="5.95443">
        <ele>2326.6</ele>
        <time>2020-07-12T12:24:10 02:00</time>
      </trkpt>
      <trkpt lat="45.08485" lon="5.95442">
        <ele>2325.8</ele>
        <time>2020-07-12T12:24:13 02:00</time>
      </trkpt>
      <trkpt lat="45.08479" lon="5.95436">
        <ele>2324.6</ele>
        <time>2020-07-12T12:24:25 02:00</time>
      </trkpt>
      <trkpt lat="45.08479" lon="5.95435">
        <ele>2323.4</ele>
        <time>2020-07-12T12:24:26 02:00</time>
      </trkpt>
      <trkpt lat="45.08477" lon="5.95431">
        <ele>2322</ele>
        <time>2020-07-12T12:24:31 02:00</time>
      </trkpt>
      <trkpt lat="45.08475" lon="5.95432">
        <ele>2320.6</ele>
        <time>2020-07-12T12:24:33 02:00</time>
      </trkpt>
      <trkpt lat="45.08474" lon="5.95431">
        <ele>2319.2</ele>
        <time>2020-07-12T12:24:34 02:00</time>
      </trkpt>
      <trkpt lat="45.08473" lon="5.95429">
        <ele>2318.6</ele>
        <time>2020-07-12T12:24:36 02:00</time>
      </trkpt>
      <trkpt lat="45.08472" lon="5.95428">
        <ele>2318.2</ele>
        <time>2020-07-12T12:24:37 02:00</time>
      </trkpt>
      <trkpt lat="45.08473" lon="5.95424">
        <ele>2317.6</ele>
        <time>2020-07-12T12:24:41 02:00</time>
      </trkpt>
      <trkpt lat="45.08473" lon="5.95419">
        <ele>2317.2</ele>
        <time>2020-07-12T12:24:43 02:00</time>
      </trkpt>
      <trkpt lat="45.08471" lon="5.95415">
        <ele>2316.6</ele>
        <time>2020-07-12T12:24:47 02:00</time>
      </trkpt>
      <trkpt lat="45.0847" lon="5.9541">
        <ele>2315.8</ele>
        <time>2020-07-12T12:24:50 02:00</time>
      </trkpt>
      <trkpt lat="45.08468" lon="5.95405">
        <ele>2315</ele>
        <time>2020-07-12T12:24:54 02:00</time>
      </trkpt>
      <trkpt lat="45.08465" lon="5.95404">
        <ele>2314.4</ele>
        <time>2020-07-12T12:24:56 02:00</time>
      </trkpt>
      <trkpt lat="45.08463" lon="5.95401">
        <ele>2313.6</ele>
        <time>2020-07-12T12:24:59 02:00</time>
      </trkpt>
      <trkpt lat="45.08462" lon="5.95401">
        <ele>2312.8</ele>
        <time>2020-07-12T12:25:00 02:00</time>
      </trkpt>
      <trkpt lat="45.08459" lon="5.95398">
        <ele>2312.2</ele>
        <time>2020-07-12T12:25:06 02:00</time>
      </trkpt>
      <trkpt lat="45.08456" lon="5.95395">
        <ele>2311.4</ele>
        <time>2020-07-12T12:25:08 02:00</time>
      </trkpt>
      <trkpt lat="45.08453" lon="5.95393">
        <ele>2310.6</ele>
        <time>2020-07-12T12:25:10 02:00</time>
      </trkpt>
      <trkpt lat="45.08449" lon="5.95393">
        <ele>2310.2</ele>
        <time>2020-07-12T12:25:13 02:00</time>
      </trkpt>
      <trkpt lat="45.08445" lon="5.95392">
        <ele>2309.6</ele>
        <time>2020-07-12T12:25:17 02:00</time>
      </trkpt>
      <trkpt lat="45.08442" lon="5.95391">
        <ele>2308.8</ele>
        <time>2020-07-12T12:25:19 02:00</time>
      </trkpt>
      <trkpt lat="45.08439" lon="5.95389">
        <ele>2308</ele>
        <time>2020-07-12T12:25:21 02:00</time>
      </trkpt>
      <trkpt lat="45.08435" lon="5.95389">
        <ele>2307.4</ele>
        <time>2020-07-12T12:25:25 02:00</time>
      </trkpt>
      <trkpt lat="45.08434" lon="5.95389">
        <ele>2306.4</ele>
        <time>2020-07-12T12:25:26 02:00</time>
      </trkpt>
      <trkpt lat="45.08433" lon="5.95388">
        <ele>2305.8</ele>
        <time>2020-07-12T12:25:27 02:00</time>
      </trkpt>
      <trkpt lat="45.08431" lon="5.95389">
        <ele>2305.6</ele>
        <time>2020-07-12T12:25:31 02:00</time>
      </trkpt>
      <trkpt lat="45.08429" lon="5.95389">
        <ele>2305.4</ele>
        <time>2020-07-12T12:25:33 02:00</time>
      </trkpt>
      <trkpt lat="45.08427" lon="5.95385">
        <ele>2305</ele>
        <time>2020-07-12T12:25:38 02:00</time>
      </trkpt>
      <trkpt lat="45.08424" lon="5.95384">
        <ele>2304.4</ele>
        <time>2020-07-12T12:25:41 02:00</time>
      </trkpt>
      <trkpt lat="45.08421" lon="5.95384">
        <ele>2303.6</ele>
        <time>2020-07-12T12:25:44 02:00</time>
      </trkpt>
      <trkpt lat="45.08419" lon="5.95384">
        <ele>2302.4</ele>
        <time>2020-07-12T12:25:45 02:00</time>
      </trkpt>
      <trkpt lat="45.08418" lon="5.95384">
        <ele>2301.6</ele>
        <time>2020-07-12T12:25:47 02:00</time>
      </trkpt>
      <trkpt lat="45.08415" lon="5.95383">
        <ele>2300.8</ele>
        <time>2020-07-12T12:25:50 02:00</time>
      </trkpt>
      <trkpt lat="45.08413" lon="5.95382">
        <ele>2300.4</ele>
        <time>2020-07-12T12:25:52 02:00</time>
      </trkpt>
      <trkpt lat="45.08412" lon="5.95382">
        <ele>2300</ele>
        <time>2020-07-12T12:25:53 02:00</time>
      </trkpt>
      <trkpt lat="45.08409" lon="5.9538">
        <ele>2299.6</ele>
        <time>2020-07-12T12:25:56 02:00</time>
      </trkpt>
      <trkpt lat="45.08406" lon="5.9538">
        <ele>2298.6</ele>
        <time>2020-07-12T12:25:59 02:00</time>
      </trkpt>
      <trkpt lat="45.08403" lon="5.9538">
        <ele>2297.8</ele>
        <time>2020-07-12T12:26:01 02:00</time>
      </trkpt>
      <trkpt lat="45.084" lon="5.95379">
        <ele>2297</ele>
        <time>2020-07-12T12:26:04 02:00</time>
      </trkpt>
      <trkpt lat="45.08396" lon="5.95378">
        <ele>2295.8</ele>
        <time>2020-07-12T12:26:07 02:00</time>
      </trkpt>
      <trkpt lat="45.08393" lon="5.95378">
        <ele>2294.8</ele>
        <time>2020-07-12T12:26:09 02:00</time>
      </trkpt>
      <trkpt lat="45.0839" lon="5.95377">
        <ele>2294</ele>
        <time>2020-07-12T12:26:11 02:00</time>
      </trkpt>
      <trkpt lat="45.08387" lon="5.95377">
        <ele>2293</ele>
        <time>2020-07-12T12:26:14 02:00</time>
      </trkpt>
      <trkpt lat="45.08383" lon="5.95376">
        <ele>2292</ele>
        <time>2020-07-12T12:26:17 02:00</time>
      </trkpt>
      <trkpt lat="45.08381" lon="5.95375">
        <ele>2291.6</ele>
        <time>2020-07-12T12:26:19 02:00</time>
      </trkpt>
      <trkpt lat="45.08377" lon="5.95377">
        <ele>2291.2</ele>
        <time>2020-07-12T12:26:23 02:00</time>
      </trkpt>
      <trkpt lat="45.08375" lon="5.95379">
        <ele>2291.2</ele>
        <time>2020-07-12T12:26:26 02:00</time>
      </trkpt>
      <trkpt lat="45.08373" lon="5.9538">
        <ele>2291.4</ele>
        <time>2020-07-12T12:26:28 02:00</time>
      </trkpt>
      <trkpt lat="45.08373" lon="5.95381">
        <ele>2291.6</ele>
        <time>2020-07-12T12:26:29 02:00</time>
      </trkpt>
      <trkpt lat="45.08371" lon="5.9538">
        <ele>2291.6</ele>
        <time>2020-07-12T12:26:36 02:00</time>
      </trkpt>
      <trkpt lat="45.08368" lon="5.95379">
        <ele>2291.6</ele>
        <time>2020-07-12T12:26:38 02:00</time>
      </trkpt>
      <trkpt lat="45.08365" lon="5.9538">
        <ele>2291.4</ele>
        <time>2020-07-12T12:26:41 02:00</time>
      </trkpt>
      <trkpt lat="45.08363" lon="5.95377">
        <ele>2291.4</ele>
        <time>2020-07-12T12:26:45 02:00</time>
      </trkpt>
      <trkpt lat="45.08359" lon="5.95377">
        <ele>2291</ele>
        <time>2020-07-12T12:26:49 02:00</time>
      </trkpt>
      <trkpt lat="45.08356" lon="5.95376">
        <ele>2290.8</ele>
        <time>2020-07-12T12:26:53 02:00</time>
      </trkpt>
      <trkpt lat="45.08355" lon="5.95377">
        <ele>2290.6</ele>
        <time>2020-07-12T12:26:54 02:00</time>
      </trkpt>
      <trkpt lat="45.08353" lon="5.95377">
        <ele>2290.4</ele>
        <time>2020-07-12T12:26:56 02:00</time>
      </trkpt>
      <trkpt lat="45.0835" lon="5.95377">
        <ele>2289.8</ele>
        <time>2020-07-12T12:26:59 02:00</time>
      </trkpt>
      <trkpt lat="45.08349" lon="5.95376">
        <ele>2289.8</ele>
        <time>2020-07-12T12:27:02 02:00</time>
      </trkpt>
      <trkpt lat="45.08347" lon="5.95377">
        <ele>2289.4</ele>
        <time>2020-07-12T12:27:05 02:00</time>
      </trkpt>
      <trkpt lat="45.08342" lon="5.95376">
        <ele>2288.8</ele>
        <time>2020-07-12T12:27:08 02:00</time>
      </trkpt>
      <trkpt lat="45.0834" lon="5.95375">
        <ele>2288</ele>
        <time>2020-07-12T12:27:10 02:00</time>
      </trkpt>
      <trkpt lat="45.08336" lon="5.95374">
        <ele>2287.2</ele>
        <time>2020-07-12T12:27:12 02:00</time>
      </trkpt>
      <trkpt lat="45.08334" lon="5.95373">
        <ele>2286.2</ele>
        <time>2020-07-12T12:27:15 02:00</time>
      </trkpt>
      <trkpt lat="45.08331" lon="5.95373">
        <ele>2285.6</ele>
        <time>2020-07-12T12:27:18 02:00</time>
      </trkpt>
      <trkpt lat="45.08327" lon="5.95373">
        <ele>2285.2</ele>
        <time>2020-07-12T12:27:22 02:00</time>
      </trkpt>
      <trkpt lat="45.08327" lon="5.95374">
        <ele>2285</ele>
        <time>2020-07-12T12:27:23 02:00</time>
      </trkpt>
      <trkpt lat="45.08325" lon="5.95375">
        <ele>2284.8</ele>
        <time>2020-07-12T12:27:28 02:00</time>
      </trkpt>
      <trkpt lat="45.08321" lon="5.95375">
        <ele>2284.6</ele>
        <time>2020-07-12T12:27:31 02:00</time>
      </trkpt>
      <trkpt lat="45.08318" lon="5.95375">
        <ele>2284.4</ele>
        <time>2020-07-12T12:27:34 02:00</time>
      </trkpt>
      <trkpt lat="45.08315" lon="5.95375">
        <ele>2284.2</ele>
        <time>2020-07-12T12:27:37 02:00</time>
      </trkpt>
      <trkpt lat="45.08314" lon="5.95376">
        <ele>2283.8</ele>
        <time>2020-07-12T12:27:40 02:00</time>
      </trkpt>
      <trkpt lat="45.08313" lon="5.95376">
        <ele>2283.6</ele>
        <time>2020-07-12T12:27:41 02:00</time>
      </trkpt>
      <trkpt lat="45.0831" lon="5.95375">
        <ele>2283.2</ele>
        <time>2020-07-12T12:27:45 02:00</time>
      </trkpt>
      <trkpt lat="45.08307" lon="5.95375">
        <ele>2282.8</ele>
        <time>2020-07-12T12:27:48 02:00</time>
      </trkpt>
      <trkpt lat="45.08306" lon="5.95377">
        <ele>2282</ele>
        <time>2020-07-12T12:27:54 02:00</time>
      </trkpt>
      <trkpt lat="45.08302" lon="5.95376">
        <ele>2281.4</ele>
        <time>2020-07-12T12:27:57 02:00</time>
      </trkpt>
      <trkpt lat="45.083" lon="5.95375">
        <ele>2280.4</ele>
        <time>2020-07-12T12:28:00 02:00</time>
      </trkpt>
      <trkpt lat="45.08297" lon="5.95373">
        <ele>2279.8</ele>
        <time>2020-07-12T12:28:03 02:00</time>
      </trkpt>
      <trkpt lat="45.08294" lon="5.95371">
        <ele>2279</ele>
        <time>2020-07-12T12:28:07 02:00</time>
      </trkpt>
      <trkpt lat="45.08291" lon="5.9537">
        <ele>2278.6</ele>
        <time>2020-07-12T12:28:10 02:00</time>
      </trkpt>
      <trkpt lat="45.08288" lon="5.95372">
        <ele>2277.8</ele>
        <time>2020-07-12T12:28:12 02:00</time>
      </trkpt>
      <trkpt lat="45.08285" lon="5.95373">
        <ele>2277.6</ele>
        <time>2020-07-12T12:28:15 02:00</time>
      </trkpt>
      <trkpt lat="45.08282" lon="5.95373">
        <ele>2276.8</ele>
        <time>2020-07-12T12:28:18 02:00</time>
      </trkpt>
      <trkpt lat="45.08278" lon="5.95374">
        <ele>2276.2</ele>
        <time>2020-07-12T12:28:22 02:00</time>
      </trkpt>
      <trkpt lat="45.08275" lon="5.95375">
        <ele>2275.6</ele>
        <time>2020-07-12T12:28:25 02:00</time>
      </trkpt>
      <trkpt lat="45.08271" lon="5.95375">
        <ele>2275.2</ele>
        <time>2020-07-12T12:28:28 02:00</time>
      </trkpt>
      <trkpt lat="45.08268" lon="5.95372">
        <ele>2274.6</ele>
        <time>2020-07-12T12:28:31 02:00</time>
      </trkpt>
      <trkpt lat="45.08266" lon="5.95371">
        <ele>2274</ele>
        <time>2020-07-12T12:28:34 02:00</time>
      </trkpt>
      <trkpt lat="45.08266" lon="5.95371">
        <ele>2273.4</ele>
        <time>2020-07-12T12:28:39 02:00</time>
      </trkpt>
      <trkpt lat="45.08263" lon="5.95372">
        <ele>2272.8</ele>
        <time>2020-07-12T12:28:42 02:00</time>
      </trkpt>
      <trkpt lat="45.08262" lon="5.95371">
        <ele>2272.4</ele>
        <time>2020-07-12T12:28:43 02:00</time>
      </trkpt>
      <trkpt lat="45.08261" lon="5.95372">
        <ele>2271.8</ele>
        <time>2020-07-12T12:28:45 02:00</time>
      </trkpt>
      <trkpt lat="45.08257" lon="5.95371">
        <ele>2271.6</ele>
        <time>2020-07-12T12:28:48 02:00</time>
      </trkpt>
      <trkpt lat="45.08256" lon="5.95371">
        <ele>2271.2</ele>
        <time>2020-07-12T12:28:49 02:00</time>
      </trkpt>
      <trkpt lat="45.08253" lon="5.95371">
        <ele>2270.8</ele>
        <time>2020-07-12T12:28:52 02:00</time>
      </trkpt>
      <trkpt lat="45.0825" lon="5.95372">
        <ele>2270</ele>
        <time>2020-07-12T12:28:55 02:00</time>
      </trkpt>
      <trkpt lat="45.08247" lon="5.95373">
        <ele>2269.4</ele>
        <time>2020-07-12T12:28:58 02:00</time>
      </trkpt>
      <trkpt lat="45.08244" lon="5.95373">
        <ele>2268.6</ele>
        <time>2020-07-12T12:29:00 02:00</time>
      </trkpt>
      <trkpt lat="45.08241" lon="5.95372">
        <ele>2268</ele>
        <time>2020-07-12T12:29:03 02:00</time>
      </trkpt>
      <trkpt lat="45.08238" lon="5.95372">
        <ele>2267</ele>
        <time>2020-07-12T12:29:06 02:00</time>
      </trkpt>
      <trkpt lat="45.08235" lon="5.95372">
        <ele>2266.4</ele>
        <time>2020-07-12T12:29:09 02:00</time>
      </trkpt>
      <trkpt lat="45.08231" lon="5.95371">
        <ele>2266</ele>
        <time>2020-07-12T12:29:12 02:00</time>
      </trkpt>
      <trkpt lat="45.08228" lon="5.9537">
        <ele>2265.8</ele>
        <time>2020-07-12T12:29:15 02:00</time>
      </trkpt>
      <trkpt lat="45.08225" lon="5.9537">
        <ele>2265.4</ele>
        <time>2020-07-12T12:29:17 02:00</time>
      </trkpt>
      <trkpt lat="45.08221" lon="5.9537">
        <ele>2265.6</ele>
        <time>2020-07-12T12:29:20 02:00</time>
      </trkpt>
      <trkpt lat="45.08219" lon="5.95372">
        <ele>2265.6</ele>
        <time>2020-07-12T12:29:22 02:00</time>
      </trkpt>
      <trkpt lat="45.08216" lon="5.95374">
        <ele>2265.2</ele>
        <time>2020-07-12T12:29:25 02:00</time>
      </trkpt>
      <trkpt lat="45.08212" lon="5.95374">
        <ele>2265</ele>
        <time>2020-07-12T12:29:28 02:00</time>
      </trkpt>
      <trkpt lat="45.08209" lon="5.95374">
        <ele>2264.6</ele>
        <time>2020-07-12T12:29:31 02:00</time>
      </trkpt>
      <trkpt lat="45.08205" lon="5.95374">
        <ele>2264</ele>
        <time>2020-07-12T12:29:33 02:00</time>
      </trkpt>
      <trkpt lat="45.08202" lon="5.95373">
        <ele>2263.6</ele>
        <time>2020-07-12T12:29:36 02:00</time>
      </trkpt>
      <trkpt lat="45.082" lon="5.95371">
        <ele>2263.4</ele>
        <time>2020-07-12T12:29:39 02:00</time>
      </trkpt>
      <trkpt lat="45.08197" lon="5.9537">
        <ele>2262.8</ele>
        <time>2020-07-12T12:29:43 02:00</time>
      </trkpt>
      <trkpt lat="45.08194" lon="5.95371">
        <ele>2262.6</ele>
        <time>2020-07-12T12:29:46 02:00</time>
      </trkpt>
      <trkpt lat="45.08194" lon="5.95372">
        <ele>2262.2</ele>
        <time>2020-07-12T12:29:47 02:00</time>
      </trkpt>
      <trkpt lat="45.08193" lon="5.95372">
        <ele>2261.8</ele>
        <time>2020-07-12T12:29:48 02:00</time>
      </trkpt>
      <trkpt lat="45.08193" lon="5.95372">
        <ele>2261.2</ele>
        <time>2020-07-12T12:29:49 02:00</time>
      </trkpt>
      <trkpt lat="45.08193" lon="5.95371">
        <ele>2260.8</ele>
        <time>2020-07-12T12:29:50 02:00</time>
      </trkpt>
      <trkpt lat="45.08192" lon="5.95371">
        <ele>2260.4</ele>
        <time>2020-07-12T12:29:51 02:00</time>
      </trkpt>
      <trkpt lat="45.08189" lon="5.95372">
        <ele>2260</ele>
        <time>2020-07-12T12:29:54 02:00</time>
      </trkpt>
      <trkpt lat="45.08186" lon="5.95372">
        <ele>2259.6</ele>
        <time>2020-07-12T12:29:57 02:00</time>
      </trkpt>
      <trkpt lat="45.08183" lon="5.95373">
        <ele>2259.4</ele>
        <time>2020-07-12T12:30:00 02:00</time>
      </trkpt>
      <trkpt lat="45.0818" lon="5.95374">
        <ele>2259.2</ele>
        <time>2020-07-12T12:30:03 02:00</time>
      </trkpt>
      <trkpt lat="45.08177" lon="5.95374">
        <ele>2259</ele>
        <time>2020-07-12T12:30:06 02:00</time>
      </trkpt>
      <trkpt lat="45.08173" lon="5.95374">
        <ele>2259</ele>
        <time>2020-07-12T12:30:09 02:00</time>
      </trkpt>
      <trkpt lat="45.0817" lon="5.95373">
        <ele>2259</ele>
        <time>2020-07-12T12:30:12 02:00</time>
      </trkpt>
      <trkpt lat="45.08169" lon="5.95374">
        <ele>2259.2</ele>
        <time>2020-07-12T12:30:13 02:00</time>
      </trkpt>
      <trkpt lat="45.08168" lon="5.95374">
        <ele>2259.2</ele>
        <time>2020-07-12T12:30:21 02:00</time>
      </trkpt>
      <trkpt lat="45.08165" lon="5.95373">
        <ele>2259.2</ele>
        <time>2020-07-12T12:30:24 02:00</time>
      </trkpt>
      <trkpt lat="45.08162" lon="5.95374">
        <ele>2259</ele>
        <time>2020-07-12T12:30:26 02:00</time>
      </trkpt>
      <trkpt lat="45.08161" lon="5.95375">
        <ele>2258.8</ele>
        <time>2020-07-12T12:30:28 02:00</time>
      </trkpt>
      <trkpt lat="45.08161" lon="5.95376">
        <ele>2257.8</ele>
        <time>2020-07-12T12:30:38 02:00</time>
      </trkpt>
      <trkpt lat="45.08159" lon="5.95375">
        <ele>2257</ele>
        <time>2020-07-12T12:30:40 02:00</time>
      </trkpt>
      <trkpt lat="45.08155" lon="5.95376">
        <ele>2256.2</ele>
        <time>2020-07-12T12:30:42 02:00</time>
      </trkpt>
      <trkpt lat="45.08155" lon="5.95376">
        <ele>2255.8</ele>
        <time>2020-07-12T12:30:43 02:00</time>
      </trkpt>
      <trkpt lat="45.08154" lon="5.95376">
        <ele>2255.4</ele>
        <time>2020-07-12T12:30:44 02:00</time>
      </trkpt>
      <trkpt lat="45.08151" lon="5.95376">
        <ele>2255.6</ele>
        <time>2020-07-12T12:30:48 02:00</time>
      </trkpt>
      <trkpt lat="45.08147" lon="5.95376">
        <ele>2256</ele>
        <time>2020-07-12T12:30:51 02:00</time>
      </trkpt>
      <trkpt lat="45.08144" lon="5.95375">
        <ele>2256.4</ele>
        <time>2020-07-12T12:30:55 02:00</time>
      </trkpt>
      <trkpt lat="45.08141" lon="5.95376">
        <ele>2256.4</ele>
        <time>2020-07-12T12:30:58 02:00</time>
      </trkpt>
      <trkpt lat="45.08141" lon="5.95376">
        <ele>2256.6</ele>
        <time>2020-07-12T12:30:59 02:00</time>
      </trkpt>
      <trkpt lat="45.08139" lon="5.95375">
        <ele>2256.6</ele>
        <time>2020-07-12T12:31:01 02:00</time>
      </trkpt>
      <trkpt lat="45.08139" lon="5.95375">
        <ele>2256.4</ele>
        <time>2020-07-12T12:31:02 02:00</time>
      </trkpt>
      <trkpt lat="45.08138" lon="5.95374">
        <ele>2256.2</ele>
        <time>2020-07-12T12:31:03 02:00</time>
      </trkpt>
      <trkpt lat="45.08136" lon="5.95374">
        <ele>2256</ele>
        <time>2020-07-12T12:31:05 02:00</time>
      </trkpt>
      <trkpt lat="45.08132" lon="5.95375">
        <ele>2255.6</ele>
        <time>2020-07-12T12:31:08 02:00</time>
      </trkpt>
      <trkpt lat="45.08129" lon="5.95377">
        <ele>2255.2</ele>
        <time>2020-07-12T12:31:11 02:00</time>
      </trkpt>
      <trkpt lat="45.08125" lon="5.95378">
        <ele>2254.6</ele>
        <time>2020-07-12T12:31:15 02:00</time>
      </trkpt>
      <trkpt lat="45.08122" lon="5.95379">
        <ele>2254</ele>
        <time>2020-07-12T12:31:18 02:00</time>
      </trkpt>
      <trkpt lat="45.08118" lon="5.9538">
        <ele>2253.4</ele>
        <time>2020-07-12T12:31:21 02:00</time>
      </trkpt>
      <trkpt lat="45.08115" lon="5.9538">
        <ele>2252.8</ele>
        <time>2020-07-12T12:31:24 02:00</time>
      </trkpt>
      <trkpt lat="45.08112" lon="5.95379">
        <ele>2252.2</ele>
        <time>2020-07-12T12:31:27 02:00</time>
      </trkpt>
      <trkpt lat="45.08108" lon="5.95378">
        <ele>2251.8</ele>
        <time>2020-07-12T12:31:30 02:00</time>
      </trkpt>
      <trkpt lat="45.08106" lon="5.95376">
        <ele>2251.2</ele>
        <time>2020-07-12T12:31:33 02:00</time>
      </trkpt>
      <trkpt lat="45.08105" lon="5.95376">
        <ele>2250.8</ele>
        <time>2020-07-12T12:31:34 02:00</time>
      </trkpt>
      <trkpt lat="45.08102" lon="5.95375">
        <ele>2250.2</ele>
        <time>2020-07-12T12:31:37 02:00</time>
      </trkpt>
      <trkpt lat="45.08098" lon="5.95376">
        <ele>2249.8</ele>
        <time>2020-07-12T12:31:40 02:00</time>
      </trkpt>
      <trkpt lat="45.08095" lon="5.95376">
        <ele>2249.4</ele>
        <time>2020-07-12T12:31:43 02:00</time>
      </trkpt>
      <trkpt lat="45.08092" lon="5.95375">
        <ele>2249.2</ele>
        <time>2020-07-12T12:31:47 02:00</time>
      </trkpt>
      <trkpt lat="45.0809" lon="5.95374">
        <ele>2249</ele>
        <time>2020-07-12T12:31:49 02:00</time>
      </trkpt>
      <trkpt lat="45.08089" lon="5.95373">
        <ele>2249</ele>
        <time>2020-07-12T12:31:50 02:00</time>
      </trkpt>
      <trkpt lat="45.08085" lon="5.95373">
        <ele>2249.2</ele>
        <time>2020-07-12T12:31:53 02:00</time>
      </trkpt>
      <trkpt lat="45.08083" lon="5.95375">
        <ele>2249.2</ele>
        <time>2020-07-12T12:31:56 02:00</time>
      </trkpt>
      <trkpt lat="45.0808" lon="5.95376">
        <ele>2249.2</ele>
        <time>2020-07-12T12:31:58 02:00</time>
      </trkpt>
      <trkpt lat="45.08077" lon="5.95377">
        <ele>2249.2</ele>
        <time>2020-07-12T12:32:00 02:00</time>
      </trkpt>
      <trkpt lat="45.08075" lon="5.9538">
        <ele>2249.2</ele>
        <time>2020-07-12T12:32:02 02:00</time>
      </trkpt>
      <trkpt lat="45.08073" lon="5.95384">
        <ele>2248.8</ele>
        <time>2020-07-12T12:32:05 02:00</time>
      </trkpt>
      <trkpt lat="45.0807" lon="5.95385">
        <ele>2248.4</ele>
        <time>2020-07-12T12:32:09 02:00</time>
      </trkpt>
      <trkpt lat="45.08067" lon="5.95385">
        <ele>2248</ele>
        <time>2020-07-12T12:32:12 02:00</time>
      </trkpt>
      <trkpt lat="45.08064" lon="5.95387">
        <ele>2247.2</ele>
        <time>2020-07-12T12:32:15 02:00</time>
      </trkpt>
      <trkpt lat="45.08062" lon="5.95389">
        <ele>2246.4</ele>
        <time>2020-07-12T12:32:19 02:00</time>
      </trkpt>
      <trkpt lat="45.08062" lon="5.95389">
        <ele>2245.8</ele>
        <time>2020-07-12T12:32:20 02:00</time>
      </trkpt>
      <trkpt lat="45.08061" lon="5.95389">
        <ele>2245.4</ele>
        <time>2020-07-12T12:32:21 02:00</time>
      </trkpt>
      <trkpt lat="45.0806" lon="5.95389">
        <ele>2245</ele>
        <time>2020-07-12T12:32:22 02:00</time>
      </trkpt>
      <trkpt lat="45.08059" lon="5.95388">
        <ele>2245</ele>
        <time>2020-07-12T12:32:24 02:00</time>
      </trkpt>
      <trkpt lat="45.08057" lon="5.95387">
        <ele>2244.8</ele>
        <time>2020-07-12T12:32:26 02:00</time>
      </trkpt>
      <trkpt lat="45.08054" lon="5.95385">
        <ele>2244.4</ele>
        <time>2020-07-12T12:32:29 02:00</time>
      </trkpt>
      <trkpt lat="45.08051" lon="5.95384">
        <ele>2243.8</ele>
        <time>2020-07-12T12:32:32 02:00</time>
      </trkpt>
      <trkpt lat="45.08048" lon="5.95382">
        <ele>2243.2</ele>
        <time>2020-07-12T12:32:34 02:00</time>
      </trkpt>
      <trkpt lat="45.08044" lon="5.95383">
        <ele>2242.8</ele>
        <time>2020-07-12T12:32:37 02:00</time>
      </trkpt>
      <trkpt lat="45.08042" lon="5.95385">
        <ele>2242.4</ele>
        <time>2020-07-12T12:32:40 02:00</time>
      </trkpt>
      <trkpt lat="45.08039" lon="5.95388">
        <ele>2242</ele>
        <time>2020-07-12T12:32:43 02:00</time>
      </trkpt>
      <trkpt lat="45.08038" lon="5.95391">
        <ele>2241.8</ele>
        <time>2020-07-12T12:32:46 02:00</time>
      </trkpt>
      <trkpt lat="45.08035" lon="5.95394">
        <ele>2241.6</ele>
        <time>2020-07-12T12:32:50 02:00</time>
      </trkpt>
      <trkpt lat="45.08035" lon="5.95394">
        <ele>2241.4</ele>
        <time>2020-07-12T12:32:51 02:00</time>
      </trkpt>
      <trkpt lat="45.08033" lon="5.95395">
        <ele>2241.4</ele>
        <time>2020-07-12T12:32:55 02:00</time>
      </trkpt>
      <trkpt lat="45.0803" lon="5.95395">
        <ele>2241.6</ele>
        <time>2020-07-12T12:32:58 02:00</time>
      </trkpt>
      <trkpt lat="45.08027" lon="5.95396">
        <ele>2241.8</ele>
        <time>2020-07-12T12:33:01 02:00</time>
      </trkpt>
      <trkpt lat="45.08024" lon="5.95396">
        <ele>2242.2</ele>
        <time>2020-07-12T12:33:04 02:00</time>
      </trkpt>
      <trkpt lat="45.08021" lon="5.95399">
        <ele>2242.4</ele>
        <time>2020-07-12T12:33:07 02:00</time>
      </trkpt>
      <trkpt lat="45.08019" lon="5.95399">
        <ele>2242.6</ele>
        <time>2020-07-12T12:33:10 02:00</time>
      </trkpt>
      <trkpt lat="45.08016" lon="5.95398">
        <ele>2242.6</ele>
        <time>2020-07-12T12:33:13 02:00</time>
      </trkpt>
      <trkpt lat="45.08014" lon="5.95396">
        <ele>2242.4</ele>
        <time>2020-07-12T12:33:15 02:00</time>
      </trkpt>
      <trkpt lat="45.08012" lon="5.95395">
        <ele>2242</ele>
        <time>2020-07-12T12:33:18 02:00</time>
      </trkpt>
      <trkpt lat="45.08009" lon="5.95394">
        <ele>2241.6</ele>
        <time>2020-07-12T12:33:21 02:00</time>
      </trkpt>
      <trkpt lat="45.08005" lon="5.95395">
        <ele>2241.2</ele>
        <time>2020-07-12T12:33:24 02:00</time>
      </trkpt>
      <trkpt lat="45.08001" lon="5.95395">
        <ele>2241</ele>
        <time>2020-07-12T12:33:28 02:00</time>
      </trkpt>
      <trkpt lat="45.07999" lon="5.95396">
        <ele>2241</ele>
        <time>2020-07-12T12:33:31 02:00</time>
      </trkpt>
      <trkpt lat="45.07996" lon="5.95397">
        <ele>2240.8</ele>
        <time>2020-07-12T12:33:34 02:00</time>
      </trkpt>
      <trkpt lat="45.07995" lon="5.95396">
        <ele>2240.8</ele>
        <time>2020-07-12T12:33:36 02:00</time>
      </trkpt>
      <trkpt lat="45.07993" lon="5.95396">
        <ele>2240.6</ele>
        <time>2020-07-12T12:33:38 02:00</time>
      </trkpt>
      <trkpt lat="45.07989" lon="5.95395">
        <ele>2240.4</ele>
        <time>2020-07-12T12:33:42 02:00</time>
      </trkpt>
      <trkpt lat="45.07987" lon="5.95398">
        <ele>2240.2</ele>
        <time>2020-07-12T12:33:45 02:00</time>
      </trkpt>
      <trkpt lat="45.07986" lon="5.95399">
        <ele>2240.2</ele>
        <time>2020-07-12T12:33:46 02:00</time>
      </trkpt>
      <trkpt lat="45.07983" lon="5.95402">
        <ele>2240</ele>
        <time>2020-07-12T12:33:49 02:00</time>
      </trkpt>
      <trkpt lat="45.07982" lon="5.95402">
        <ele>2239.8</ele>
        <time>2020-07-12T12:33:51 02:00</time>
      </trkpt>
      <trkpt lat="45.07981" lon="5.95403">
        <ele>2239.4</ele>
        <time>2020-07-12T12:33:52 02:00</time>
      </trkpt>
      <trkpt lat="45.07977" lon="5.95404">
        <ele>2238.8</ele>
        <time>2020-07-12T12:33:56 02:00</time>
      </trkpt>
      <trkpt lat="45.07973" lon="5.95404">
        <ele>2238</ele>
        <time>2020-07-12T12:34:00 02:00</time>
      </trkpt>
      <trkpt lat="45.07971" lon="5.95402">
        <ele>2237.2</ele>
        <time>2020-07-12T12:34:03 02:00</time>
      </trkpt>
      <trkpt lat="45.07968" lon="5.954">
        <ele>2236.4</ele>
        <time>2020-07-12T12:34:06 02:00</time>
      </trkpt>
      <trkpt lat="45.07965" lon="5.95399">
        <ele>2235.8</ele>
        <time>2020-07-12T12:34:09 02:00</time>
      </trkpt>
      <trkpt lat="45.07962" lon="5.95397">
        <ele>2235.4</ele>
        <time>2020-07-12T12:34:12 02:00</time>
      </trkpt>
      <trkpt lat="45.07962" lon="5.95397">
        <ele>2235.2</ele>
        <time>2020-07-12T12:34:13 02:00</time>
      </trkpt>
      <trkpt lat="45.07958" lon="5.95396">
        <ele>2235.2</ele>
        <time>2020-07-12T12:34:17 02:00</time>
      </trkpt>
      <trkpt lat="45.07958" lon="5.95395">
        <ele>2235.4</ele>
        <time>2020-07-12T12:34:18 02:00</time>
      </trkpt>
      <trkpt lat="45.07955" lon="5.95393">
        <ele>2235.8</ele>
        <time>2020-07-12T12:34:21 02:00</time>
      </trkpt>
      <trkpt lat="45.07953" lon="5.95392">
        <ele>2236.2</ele>
        <time>2020-07-12T12:34:23 02:00</time>
      </trkpt>
      <trkpt lat="45.07953" lon="5.95391">
        <ele>2236.8</ele>
        <time>2020-07-12T12:34:26 02:00</time>
      </trkpt>
      <trkpt lat="45.07953" lon="5.95391">
        <ele>2237.2</ele>
        <time>2020-07-12T12:34:27 02:00</time>
      </trkpt>
      <trkpt lat="45.07952" lon="5.95391">
        <ele>2237.6</ele>
        <time>2020-07-12T12:34:28 02:00</time>
      </trkpt>
      <trkpt lat="45.07948" lon="5.95393">
        <ele>2237.6</ele>
        <time>2020-07-12T12:34:31 02:00</time>
      </trkpt>
      <trkpt lat="45.07946" lon="5.95394">
        <ele>2237.6</ele>
        <time>2020-07-12T12:34:33 02:00</time>
      </trkpt>
      <trkpt lat="45.07943" lon="5.95394">
        <ele>2237.2</ele>
        <time>2020-07-12T12:34:36 02:00</time>
      </trkpt>
      <trkpt lat="45.0794" lon="5.95392">
        <ele>2236.8</ele>
        <time>2020-07-12T12:34:40 02:00</time>
      </trkpt>
      <trkpt lat="45.07937" lon="5.95392">
        <ele>2236.4</ele>
        <time>2020-07-12T12:34:42 02:00</time>
      </trkpt>
      <trkpt lat="45.07935" lon="5.95392">
        <ele>2236.2</ele>
        <time>2020-07-12T12:34:43 02:00</time>
      </trkpt>
      <trkpt lat="45.07935" lon="5.95393">
        <ele>2236</ele>
        <time>2020-07-12T12:34:44 02:00</time>
      </trkpt>
      <trkpt lat="45.07933" lon="5.95394">
        <ele>2236</ele>
        <time>2020-07-12T12:34:45 02:00</time>
      </trkpt>
      <trkpt lat="45.07932" lon="5.95395">
        <ele>2236.2</ele>
        <time>2020-07-12T12:34:47 02:00</time>
      </trkpt>
      <trkpt lat="45.07928" lon="5.95398">
        <ele>2236.2</ele>
        <time>2020-07-12T12:34:56 02:00</time>
      </trkpt>
      <trkpt lat="45.07925" lon="5.95396">
        <ele>2236</ele>
        <time>2020-07-12T12:34:59 02:00</time>
      </trkpt>
      <trkpt lat="45.07922" lon="5.95395">
        <ele>2235.6</ele>
        <time>2020-07-12T12:35:02 02:00</time>
      </trkpt>
      <trkpt lat="45.07919" lon="5.95395">
        <ele>2235.2</ele>
        <time>2020-07-12T12:35:04 02:00</time>
      </trkpt>
      <trkpt lat="45.07918" lon="5.95394">
        <ele>2234.6</ele>
        <time>2020-07-12T12:35:05 02:00</time>
      </trkpt>
      <trkpt lat="45.07917" lon="5.95394">
        <ele>2234</ele>
        <time>2020-07-12T12:35:06 02:00</time>
      </trkpt>
      <trkpt lat="45.07914" lon="5.95394">
        <ele>2233.6</ele>
        <time>2020-07-12T12:35:09 02:00</time>
      </trkpt>
      <trkpt lat="45.07911" lon="5.95393">
        <ele>2233.2</ele>
        <time>2020-07-12T12:35:12 02:00</time>
      </trkpt>
      <trkpt lat="45.07906" lon="5.95393">
        <ele>2232.6</ele>
        <time>2020-07-12T12:35:15 02:00</time>
      </trkpt>
      <trkpt lat="45.07903" lon="5.95394">
        <ele>2231.8</ele>
        <time>2020-07-12T12:35:18 02:00</time>
      </trkpt>
      <trkpt lat="45.07902" lon="5.95398">
        <ele>2231.2</ele>
        <time>2020-07-12T12:35:21 02:00</time>
      </trkpt>
      <trkpt lat="45.079" lon="5.95402">
        <ele>2230.6</ele>
        <time>2020-07-12T12:35:24 02:00</time>
      </trkpt>
      <trkpt lat="45.07901" lon="5.95403">
        <ele>2230.4</ele>
        <time>2020-07-12T12:35:25 02:00</time>
      </trkpt>
      <trkpt lat="45.07899" lon="5.95403">
        <ele>2230.4</ele>
        <time>2020-07-12T12:35:27 02:00</time>
      </trkpt>
      <trkpt lat="45.07897" lon="5.95403">
        <ele>2230.8</ele>
        <time>2020-07-12T12:35:29 02:00</time>
      </trkpt>
      <trkpt lat="45.07896" lon="5.95403">
        <ele>2231.4</ele>
        <time>2020-07-12T12:35:31 02:00</time>
      </trkpt>
      <trkpt lat="45.07893" lon="5.95406">
        <ele>2232</ele>
        <time>2020-07-12T12:35:35 02:00</time>
      </trkpt>
      <trkpt lat="45.07893" lon="5.9541">
        <ele>2232.6</ele>
        <time>2020-07-12T12:35:38 02:00</time>
      </trkpt>
      <trkpt lat="45.07893" lon="5.95411">
        <ele>2233.2</ele>
        <time>2020-07-12T12:35:39 02:00</time>
      </trkpt>
      <trkpt lat="45.07892" lon="5.95412">
        <ele>2233.4</ele>
        <time>2020-07-12T12:35:41 02:00</time>
      </trkpt>
      <trkpt lat="45.07891" lon="5.95413">
        <ele>2233.4</ele>
        <time>2020-07-12T12:35:42 02:00</time>
      </trkpt>
      <trkpt lat="45.07891" lon="5.95415">
        <ele>2233.4</ele>
        <time>2020-07-12T12:35:44 02:00</time>
      </trkpt>
      <trkpt lat="45.07893" lon="5.95418">
        <ele>2233</ele>
        <time>2020-07-12T12:35:48 02:00</time>
      </trkpt>
      <trkpt lat="45.07893" lon="5.95419">
        <ele>2232.4</ele>
        <time>2020-07-12T12:35:49 02:00</time>
      </trkpt>
      <trkpt lat="45.07895" lon="5.95423">
        <ele>2232.2</ele>
        <time>2020-07-12T12:35:58 02:00</time>
      </trkpt>
      <trkpt lat="45.07896" lon="5.95424">
        <ele>2232</ele>
        <time>2020-07-12T12:35:59 02:00</time>
      </trkpt>
      <trkpt lat="45.079" lon="5.95427">
        <ele>2231.8</ele>
        <time>2020-07-12T12:36:04 02:00</time>
      </trkpt>
      <trkpt lat="45.07903" lon="5.95429">
        <ele>2231.8</ele>
        <time>2020-07-12T12:36:07 02:00</time>
      </trkpt>
      <trkpt lat="45.07904" lon="5.9543">
        <ele>2232</ele>
        <time>2020-07-12T12:36:09 02:00</time>
      </trkpt>
      <trkpt lat="45.07906" lon="5.95431">
        <ele>2232.2</ele>
        <time>2020-07-12T12:36:21 02:00</time>
      </trkpt>
      <trkpt lat="45.07906" lon="5.95432">
        <ele>2232.4</ele>
        <time>2020-07-12T12:36:22 02:00</time>
      </trkpt>
      <trkpt lat="45.07904" lon="5.95433">
        <ele>2232.6</ele>
        <time>2020-07-12T12:39:31 02:00</time>
      </trkpt>
      <trkpt lat="45.07902" lon="5.95428">
        <ele>2232.8</ele>
        <time>2020-07-12T12:39:44 02:00</time>
      </trkpt>
      <trkpt lat="45.07904" lon="5.9543">
        <ele>2232.8</ele>
        <time>2020-07-12T13:16:51 02:00</time>
      </trkpt>
      <trkpt lat="45.07904" lon="5.9543">
        <ele>2232.8</ele>
        <time>2020-07-12T13:16:52 02:00</time>
      </trkpt>
      <trkpt lat="45.07903" lon="5.95428">
        <ele>2233</ele>
        <time>2020-07-12T13:18:45 02:00</time>
      </trkpt>
      <trkpt lat="45.07903" lon="5.95427">
        <ele>2233.2</ele>
        <time>2020-07-12T13:18:46 02:00</time>
      </trkpt>
      <trkpt lat="45.07905" lon="5.95427">
        <ele>2233.4</ele>
        <time>2020-07-12T13:18:50 02:00</time>
      </trkpt>
      <trkpt lat="45.07906" lon="5.95427">
        <ele>2233.8</ele>
        <time>2020-07-12T13:18:51 02:00</time>
      </trkpt>
      <trkpt lat="45.07906" lon="5.95428">
        <ele>2234</ele>
        <time>2020-07-12T13:18:52 02:00</time>
      </trkpt>
      <trkpt lat="45.07907" lon="5.9543">
        <ele>2234.2</ele>
        <time>2020-07-12T13:18:54 02:00</time>
      </trkpt>
      <trkpt lat="45.07908" lon="5.95429">
        <ele>2234.4</ele>
        <time>2020-07-12T13:22:36 02:00</time>
      </trkpt>
      <trkpt lat="45.07908" lon="5.95428">
        <ele>2234.6</ele>
        <time>2020-07-12T13:22:37 02:00</time>
      </trkpt>
      <trkpt lat="45.07908" lon="5.9543">
        <ele>2235</ele>
        <time>2020-07-12T13:28:12 02:00</time>
      </trkpt>
      <trkpt lat="45.07907" lon="5.95431">
        <ele>2235.4</ele>
        <time>2020-07-12T13:28:14 02:00</time>
      </trkpt>
      <trkpt lat="45.07907" lon="5.9543">
        <ele>2235.6</ele>
        <time>2020-07-12T13:47:33 02:00</time>
      </trkpt>
      <trkpt lat="45.07907" lon="5.9543">
        <ele>2235.8</ele>
        <time>2020-07-12T13:47:34 02:00</time>
      </trkpt>
      <trkpt lat="45.07908" lon="5.9543">
        <ele>2236.2</ele>
        <time>2020-07-12T13:53:41 02:00</time>
      </trkpt>
      <trkpt lat="45.07908" lon="5.9543">
        <ele>2236.4</ele>
        <time>2020-07-12T13:53:43 02:00</time>
      </trkpt>
      <trkpt lat="45.079" lon="5.95422">
        <ele>2236.2</ele>
        <time>2020-07-12T13:56:27 02:00</time>
      </trkpt>
      <trkpt lat="45.079" lon="5.95421">
        <ele>2236</ele>
        <time>2020-07-12T13:56:28 02:00</time>
      </trkpt>
      <trkpt lat="45.079" lon="5.95421">
        <ele>2235.6</ele>
        <time>2020-07-12T13:56:34 02:00</time>
      </trkpt>
      <trkpt lat="45.079" lon="5.9542">
        <ele>2235</ele>
        <time>2020-07-12T13:56:35 02:00</time>
      </trkpt>
      <trkpt lat="45.079" lon="5.95418">
        <ele>2234.4</ele>
        <time>2020-07-12T13:56:36 02:00</time>
      </trkpt>
      <trkpt lat="45.07899" lon="5.95414">
        <ele>2234</ele>
        <time>2020-07-12T13:56:39 02:00</time>
      </trkpt>
      <trkpt lat="45.07897" lon="5.95411">
        <ele>2233.6</ele>
        <time>2020-07-12T13:56:43 02:00</time>
      </trkpt>
      <trkpt lat="45.07894" lon="5.95409">
        <ele>2233.4</ele>
        <time>2020-07-12T13:56:46 02:00</time>
      </trkpt>
      <trkpt lat="45.07892" lon="5.95407">
        <ele>2233.2</ele>
        <time>2020-07-12T13:56:49 02:00</time>
      </trkpt>
      <trkpt lat="45.07891" lon="5.95407">
        <ele>2233</ele>
        <time>2020-07-12T13:56:50 02:00</time>
      </trkpt>
      <trkpt lat="45.07889" lon="5.95406">
        <ele>2232.8</ele>
        <time>2020-07-12T13:56:52 02:00</time>
      </trkpt>
      <trkpt lat="45.07888" lon="5.95405">
        <ele>2232.6</ele>
        <time>2020-07-12T13:56:53 02:00</time>
      </trkpt>
      <trkpt lat="45.07887" lon="5.95403">
        <ele>2232.4</ele>
        <time>2020-07-12T13:56:55 02:00</time>
      </trkpt>
      <trkpt lat="45.07886" lon="5.95403">
        <ele>2232.2</ele>
        <time>2020-07-12T13:56:56 02:00</time>
      </trkpt>
      <trkpt lat="45.07885" lon="5.95401">
        <ele>2232</ele>
        <time>2020-07-12T13:56:58 02:00</time>
      </trkpt>
      <trkpt lat="45.07883" lon="5.95399">
        <ele>2232</ele>
        <time>2020-07-12T13:57:01 02:00</time>
      </trkpt>
      <trkpt lat="45.07882" lon="5.95396">
        <ele>2232</ele>
        <time>2020-07-12T13:57:03 02:00</time>
      </trkpt>
      <trkpt lat="45.07881" lon="5.95393">
        <ele>2231.8</ele>
        <time>2020-07-12T13:57:06 02:00</time>
      </trkpt>
      <trkpt lat="45.07881" lon="5.9539">
        <ele>2231.6</ele>
        <time>2020-07-12T13:57:08 02:00</time>
      </trkpt>
      <trkpt lat="45.07881" lon="5.95389">
        <ele>2231.4</ele>
        <time>2020-07-12T13:57:09 02:00</time>
      </trkpt>
      <trkpt lat="45.07879" lon="5.95386">
        <ele>2231</ele>
        <time>2020-07-12T13:57:12 02:00</time>
      </trkpt>
      <trkpt lat="45.07877" lon="5.95382">
        <ele>2230.6</ele>
        <time>2020-07-12T13:57:15 02:00</time>
      </trkpt>
      <trkpt lat="45.07877" lon="5.95382">
        <ele>2230.4</ele>
        <time>2020-07-12T13:57:16 02:00</time>
      </trkpt>
      <trkpt lat="45.07876" lon="5.9538">
        <ele>2230.2</ele>
        <time>2020-07-12T13:57:17 02:00</time>
      </trkpt>
      <trkpt lat="45.07874" lon="5.95376">
        <ele>2230.2</ele>
        <time>2020-07-12T13:57:20 02:00</time>
      </trkpt>
      <trkpt lat="45.07871" lon="5.95373">
        <ele>2230.4</ele>
        <time>2020-07-12T13:57:24 02:00</time>
      </trkpt>
      <trkpt lat="45.07869" lon="5.95371">
        <ele>2230.4</ele>
        <time>2020-07-12T13:57:27 02:00</time>
      </trkpt>
      <trkpt lat="45.07866" lon="5.95369">
        <ele>2230</ele>
        <time>2020-07-12T13:57:46 02:00</time>
      </trkpt>
      <trkpt lat="45.07866" lon="5.95368">
        <ele>2229.4</ele>
        <time>2020-07-12T13:57:47 02:00</time>
      </trkpt>
      <trkpt lat="45.07866" lon="5.95367">
        <ele>2228.6</ele>
        <time>2020-07-12T13:57:48 02:00</time>
      </trkpt>
      <trkpt lat="45.07864" lon="5.95363">
        <ele>2227.8</ele>
        <time>2020-07-12T13:57:51 02:00</time>
      </trkpt>
      <trkpt lat="45.07862" lon="5.95361">
        <ele>2227.2</ele>
        <time>2020-07-12T13:57:54 02:00</time>
      </trkpt>
      <trkpt lat="45.07861" lon="5.9536">
        <ele>2227</ele>
        <time>2020-07-12T13:57:55 02:00</time>
      </trkpt>
      <trkpt lat="45.07861" lon="5.95358">
        <ele>2226.8</ele>
        <time>2020-07-12T13:57:57 02:00</time>
      </trkpt>
      <trkpt lat="45.07858" lon="5.95355">
        <ele>2226.4</ele>
        <time>2020-07-12T13:58:00 02:00</time>
      </trkpt>
      <trkpt lat="45.07856" lon="5.95352">
        <ele>2226</ele>
        <time>2020-07-12T13:58:05 02:00</time>
      </trkpt>
      <trkpt lat="45.07855" lon="5.95349">
        <ele>2225.6</ele>
        <time>2020-07-12T13:58:08 02:00</time>
      </trkpt>
      <trkpt lat="45.07851" lon="5.95346">
        <ele>2225</ele>
        <time>2020-07-12T13:58:11 02:00</time>
      </trkpt>
      <trkpt lat="45.0785" lon="5.95344">
        <ele>2224.6</ele>
        <time>2020-07-12T13:58:14 02:00</time>
      </trkpt>
      <trkpt lat="45.07851" lon="5.95343">
        <ele>2224.4</ele>
        <time>2020-07-12T13:58:22 02:00</time>
      </trkpt>
      <trkpt lat="45.07848" lon="5.9534">
        <ele>2224.2</ele>
        <time>2020-07-12T13:58:25 02:00</time>
      </trkpt>
      <trkpt lat="45.07845" lon="5.95338">
        <ele>2223.6</ele>
        <time>2020-07-12T13:58:28 02:00</time>
      </trkpt>
      <trkpt lat="45.07842" lon="5.95335">
        <ele>2223.2</ele>
        <time>2020-07-12T13:58:32 02:00</time>
      </trkpt>
      <trkpt lat="45.0784" lon="5.95331">
        <ele>2222.8</ele>
        <time>2020-07-12T13:58:36 02:00</time>
      </trkpt>
      <trkpt lat="45.07839" lon="5.9533">
        <ele>2222.4</ele>
        <time>2020-07-12T13:58:37 02:00</time>
      </trkpt>
      <trkpt lat="45.07837" lon="5.95328">
        <ele>2222</ele>
        <time>2020-07-12T13:58:40 02:00</time>
      </trkpt>
      <trkpt lat="45.07834" lon="5.95325">
        <ele>2222.4</ele>
        <time>2020-07-12T13:58:43 02:00</time>
      </trkpt>
      <trkpt lat="45.07832" lon="5.95325">
        <ele>2223</ele>
        <time>2020-07-12T13:58:45 02:00</time>
      </trkpt>
      <trkpt lat="45.0783" lon="5.95324">
        <ele>2223.6</ele>
        <time>2020-07-12T13:58:47 02:00</time>
      </trkpt>
      <trkpt lat="45.0783" lon="5.95323">
        <ele>2224</ele>
        <time>2020-07-12T13:58:49 02:00</time>
      </trkpt>
      <trkpt lat="45.0783" lon="5.95322">
        <ele>2224.4</ele>
        <time>2020-07-12T13:58:50 02:00</time>
      </trkpt>
      <trkpt lat="45.0783" lon="5.95319">
        <ele>2224.6</ele>
        <time>2020-07-12T13:59:18 02:00</time>
      </trkpt>
      <trkpt lat="45.07828" lon="5.95318">
        <ele>2224.6</ele>
        <time>2020-07-12T13:59:20 02:00</time>
      </trkpt>
      <trkpt lat="45.07827" lon="5.95317">
        <ele>2224.6</ele>
        <time>2020-07-12T13:59:21 02:00</time>
      </trkpt>
      <trkpt lat="45.07825" lon="5.95314">
        <ele>2224.8</ele>
        <time>2020-07-12T13:59:24 02:00</time>
      </trkpt>
      <trkpt lat="45.07824" lon="5.95313">
        <ele>2225</ele>
        <time>2020-07-12T13:59:25 02:00</time>
      </trkpt>
      <trkpt lat="45.07824" lon="5.95312">
        <ele>2225</ele>
        <time>2020-07-12T13:59:26 02:00</time>
      </trkpt>
      <trkpt lat="45.07824" lon="5.9531">
        <ele>2224.8</ele>
        <time>2020-07-12T13:59:28 02:00</time>
      </trkpt>
      <trkpt lat="45.07821" lon="5.95307">
        <ele>2224.4</ele>
        <time>2020-07-12T13:59:31 02:00</time>
      </trkpt>
      <trkpt lat="45.07819" lon="5.95304">
        <ele>2223.8</ele>
        <time>2020-07-12T13:59:34 02:00</time>
      </trkpt>
      <trkpt lat="45.07817" lon="5.95302">
        <ele>2223.4</ele>
        <time>2020-07-12T13:59:38 02:00</time>
      </trkpt>
      <trkpt lat="45.07815" lon="5.95298">
        <ele>2223</ele>
        <time>2020-07-12T13:59:41 02:00</time>
      </trkpt>
      <trkpt lat="45.07814" lon="5.95294">
        <ele>2222.8</ele>
        <time>2020-07-12T13:59:44 02:00</time>
      </trkpt>
      <trkpt lat="45.07813" lon="5.95293">
        <ele>2222.6</ele>
        <time>2020-07-12T13:59:45 02:00</time>
      </trkpt>
      <trkpt lat="45.07811" lon="5.9529">
        <ele>2222.8</ele>
        <time>2020-07-12T13:59:48 02:00</time>
      </trkpt>
      <trkpt lat="45.0781" lon="5.95289">
        <ele>2222.6</ele>
        <time>2020-07-12T13:59:49 02:00</time>
      </trkpt>
      <trkpt lat="45.0781" lon="5.95288">
        <ele>2222.4</ele>
        <time>2020-07-12T13:59:50 02:00</time>
      </trkpt>
      <trkpt lat="45.07809" lon="5.95284">
        <ele>2222.2</ele>
        <time>2020-07-12T13:59:53 02:00</time>
      </trkpt>
      <trkpt lat="45.07806" lon="5.95281">
        <ele>2222</ele>
        <time>2020-07-12T13:59:57 02:00</time>
      </trkpt>
      <trkpt lat="45.07803" lon="5.95279">
        <ele>2221.6</ele>
        <time>2020-07-12T14:00:00 02:00</time>
      </trkpt>
      <trkpt lat="45.078" lon="5.95276">
        <ele>2221.4</ele>
        <time>2020-07-12T14:00:03 02:00</time>
      </trkpt>
      <trkpt lat="45.07799" lon="5.95276">
        <ele>2221.4</ele>
        <time>2020-07-12T14:00:04 02:00</time>
      </trkpt>
      <trkpt lat="45.07798" lon="5.95275">
        <ele>2221.4</ele>
        <time>2020-07-12T14:00:05 02:00</time>
      </trkpt>
      <trkpt lat="45.07795" lon="5.95267">
        <ele>2221.4</ele>
        <time>2020-07-12T14:00:13 02:00</time>
      </trkpt>
      <trkpt lat="45.07795" lon="5.95266">
        <ele>2221.6</ele>
        <time>2020-07-12T14:00:14 02:00</time>
      </trkpt>
      <trkpt lat="45.07794" lon="5.95265">
        <ele>2221.8</ele>
        <time>2020-07-12T14:00:15 02:00</time>
      </trkpt>
      <trkpt lat="45.07793" lon="5.95264">
        <ele>2221.8</ele>
        <time>2020-07-12T14:00:16 02:00</time>
      </trkpt>
      <trkpt lat="45.07792" lon="5.9526">
        <ele>2221.4</ele>
        <time>2020-07-12T14:00:19 02:00</time>
      </trkpt>
      <trkpt lat="45.07791" lon="5.95258">
        <ele>2221.2</ele>
        <time>2020-07-12T14:00:20 02:00</time>
      </trkpt>
      <trkpt lat="45.0779" lon="5.95253">
        <ele>2220.6</ele>
        <time>2020-07-12T14:00:24 02:00</time>
      </trkpt>
      <trkpt lat="45.0779" lon="5.95251">
        <ele>2220.2</ele>
        <time>2020-07-12T14:00:26 02:00</time>
      </trkpt>
      <trkpt lat="45.07791" lon="5.95249">
        <ele>2219.6</ele>
        <time>2020-07-12T14:00:28 02:00</time>
      </trkpt>
      <trkpt lat="45.07792" lon="5.95248">
        <ele>2219.4</ele>
        <time>2020-07-12T14:00:30 02:00</time>
      </trkpt>
      <trkpt lat="45.07796" lon="5.95239">
        <ele>2219.8</ele>
        <time>2020-07-12T14:00:51 02:00</time>
      </trkpt>
      <trkpt lat="45.07798" lon="5.95239">
        <ele>2220.4</ele>
        <time>2020-07-12T14:00:53 02:00</time>
      </trkpt>
      <trkpt lat="45.07797" lon="5.95238">
        <ele>2221</ele>
        <time>2020-07-12T14:01:19 02:00</time>
      </trkpt>
      <trkpt lat="45.07795" lon="5.95238">
        <ele>2221.8</ele>
        <time>2020-07-12T14:01:21 02:00</time>
      </trkpt>
      <trkpt lat="45.07793" lon="5.95233">
        <ele>2222.6</ele>
        <time>2020-07-12T14:01:59 02:00</time>
      </trkpt>
      <trkpt lat="45.07793" lon="5.95233">
        <ele>2222.8</ele>
        <time>2020-07-12T14:02:00 02:00</time>
      </trkpt>
      <trkpt lat="45.0779" lon="5.95232">
        <ele>2223</ele>
        <time>2020-07-12T14:02:02 02:00</time>
      </trkpt>
      <trkpt lat="45.07789" lon="5.95231">
        <ele>2223</ele>
        <time>2020-07-12T14:02:04 02:00</time>
      </trkpt>
      <trkpt lat="45.07787" lon="5.95228">
        <ele>2223.2</ele>
        <time>2020-07-12T14:02:09 02:00</time>
      </trkpt>
      <trkpt lat="45.07786" lon="5.95227">
        <ele>2223.4</ele>
        <time>2020-07-12T14:02:10 02:00</time>
      </trkpt>
      <trkpt lat="45.07781" lon="5.95224">
        <ele>2223.6</ele>
        <time>2020-07-12T14:02:22 02:00</time>
      </trkpt>
      <trkpt lat="45.07781" lon="5.95223">
        <ele>2223.8</ele>
        <time>2020-07-12T14:02:23 02:00</time>
      </trkpt>
      <trkpt lat="45.07776" lon="5.95219">
        <ele>2224.2</ele>
        <time>2020-07-12T14:02:34 02:00</time>
      </trkpt>
      <trkpt lat="45.07775" lon="5.95218">
        <ele>2224.6</ele>
        <time>2020-07-12T14:02:35 02:00</time>
      </trkpt>
      <trkpt lat="45.07762" lon="5.95207">
        <ele>2226.2</ele>
        <time>2020-07-12T14:03:05 02:00</time>
      </trkpt>
      <trkpt lat="45.07761" lon="5.95207">
        <ele>2227.8</ele>
        <time>2020-07-12T14:03:06 02:00</time>
      </trkpt>
      <trkpt lat="45.07755" lon="5.95201">
        <ele>2229.6</ele>
        <time>2020-07-12T14:03:14 02:00</time>
      </trkpt>
      <trkpt lat="45.07753" lon="5.95199">
        <ele>2231.2</ele>
        <time>2020-07-12T14:03:16 02:00</time>
      </trkpt>
      <trkpt lat="45.07752" lon="5.95199">
        <ele>2232.6</ele>
        <time>2020-07-12T14:03:17 02:00</time>
      </trkpt>
      <trkpt lat="45.0775" lon="5.95198">
        <ele>2232.8</ele>
        <time>2020-07-12T14:03:19 02:00</time>
      </trkpt>
      <trkpt lat="45.07745" lon="5.95194">
        <ele>2233</ele>
        <time>2020-07-12T14:03:29 02:00</time>
      </trkpt>
      <trkpt lat="45.07742" lon="5.95194">
        <ele>2233</ele>
        <time>2020-07-12T14:03:32 02:00</time>
      </trkpt>
      <trkpt lat="45.0774" lon="5.95192">
        <ele>2233.2</ele>
        <time>2020-07-12T14:03:34 02:00</time>
      </trkpt>
      <trkpt lat="45.07737" lon="5.95191">
        <ele>2233.6</ele>
        <time>2020-07-12T14:03:37 02:00</time>
      </trkpt>
      <trkpt lat="45.07734" lon="5.9519">
        <ele>2234</ele>
        <time>2020-07-12T14:03:41 02:00</time>
      </trkpt>
      <trkpt lat="45.07734" lon="5.95189">
        <ele>2234.4</ele>
        <time>2020-07-12T14:03:42 02:00</time>
      </trkpt>
      <trkpt lat="45.07733" lon="5.95189">
        <ele>2235</ele>
        <time>2020-07-12T14:03:43 02:00</time>
      </trkpt>
      <trkpt lat="45.0773" lon="5.95187">
        <ele>2235.4</ele>
        <time>2020-07-12T14:03:46 02:00</time>
      </trkpt>
      <trkpt lat="45.07727" lon="5.95185">
        <ele>2235.6</ele>
        <time>2020-07-12T14:03:49 02:00</time>
      </trkpt>
      <trkpt lat="45.07724" lon="5.95183">
        <ele>2235.8</ele>
        <time>2020-07-12T14:03:52 02:00</time>
      </trkpt>
      <trkpt lat="45.07721" lon="5.95182">
        <ele>2236.2</ele>
        <time>2020-07-12T14:03:55 02:00</time>
      </trkpt>
      <trkpt lat="45.07719" lon="5.95181">
        <ele>2236.2</ele>
        <time>2020-07-12T14:03:57 02:00</time>
      </trkpt>
      <trkpt lat="45.07717" lon="5.9518">
        <ele>2236.2</ele>
        <time>2020-07-12T14:04:00 02:00</time>
      </trkpt>
      <trkpt lat="45.07715" lon="5.95178">
        <ele>2236.2</ele>
        <time>2020-07-12T14:04:02 02:00</time>
      </trkpt>
      <trkpt lat="45.07711" lon="5.95178">
        <ele>2236.2</ele>
        <time>2020-07-12T14:04:05 02:00</time>
      </trkpt>
      <trkpt lat="45.07707" lon="5.95178">
        <ele>2236.2</ele>
        <time>2020-07-12T14:04:08 02:00</time>
      </trkpt>
      <trkpt lat="45.07704" lon="5.95179">
        <ele>2236.2</ele>
        <time>2020-07-12T14:04:12 02:00</time>
      </trkpt>
      <trkpt lat="45.07701" lon="5.95176">
        <ele>2236.4</ele>
        <time>2020-07-12T14:04:15 02:00</time>
      </trkpt>
      <trkpt lat="45.07698" lon="5.95173">
        <ele>2236.6</ele>
        <time>2020-07-12T14:04:18 02:00</time>
      </trkpt>
      <trkpt lat="45.07695" lon="5.9517">
        <ele>2236.6</ele>
        <time>2020-07-12T14:04:22 02:00</time>
      </trkpt>
      <trkpt lat="45.07692" lon="5.95169">
        <ele>2236.6</ele>
        <time>2020-07-12T14:04:25 02:00</time>
      </trkpt>
      <trkpt lat="45.07692" lon="5.95169">
        <ele>2236.8</ele>
        <time>2020-07-12T14:04:26 02:00</time>
      </trkpt>
      <trkpt lat="45.0769" lon="5.95169">
        <ele>2237</ele>
        <time>2020-07-12T14:04:28 02:00</time>
      </trkpt>
      <trkpt lat="45.07689" lon="5.95168">
        <ele>2237</ele>
        <time>2020-07-12T14:04:29 02:00</time>
      </trkpt>
      <trkpt lat="45.07686" lon="5.95167">
        <ele>2237.4</ele>
        <time>2020-07-12T14:04:32 02:00</time>
      </trkpt>
      <trkpt lat="45.07684" lon="5.95165">
        <ele>2237.6</ele>
        <time>2020-07-12T14:04:35 02:00</time>
      </trkpt>
      <trkpt lat="45.07682" lon="5.95165">
        <ele>2237.8</ele>
        <time>2020-07-12T14:04:37 02:00</time>
      </trkpt>
      <trkpt lat="45.07682" lon="5.95163">
        <ele>2237.8</ele>
        <time>2020-07-12T14:04:38 02:00</time>
      </trkpt>
      <trkpt lat="45.07679" lon="5.9516">
        <ele>2238</ele>
        <time>2020-07-12T14:04:42 02:00</time>
      </trkpt>
      <trkpt lat="45.07678" lon="5.9516">
        <ele>2238</ele>
        <time>2020-07-12T14:04:43 02:00</time>
      </trkpt>
      <trkpt lat="45.07676" lon="5.95158">
        <ele>2238</ele>
        <time>2020-07-12T14:04:45 02:00</time>
      </trkpt>
      <trkpt lat="45.07673" lon="5.95156">
        <ele>2238</ele>
        <time>2020-07-12T14:04:48 02:00</time>
      </trkpt>
      <trkpt lat="45.07669" lon="5.95154">
        <ele>2238</ele>
        <time>2020-07-12T14:04:52 02:00</time>
      </trkpt>
      <trkpt lat="45.07666" lon="5.95153">
        <ele>2238</ele>
        <time>2020-07-12T14:04:55 02:00</time>
      </trkpt>
      <trkpt lat="45.07663" lon="5.95151">
        <ele>2237.8</ele>
        <time>2020-07-12T14:04:57 02:00</time>
      </trkpt>
      <trkpt lat="45.0766" lon="5.9515">
        <ele>2237.6</ele>
        <time>2020-07-12T14:05:00 02:00</time>
      </trkpt>
      <trkpt lat="45.07657" lon="5.9515">
        <ele>2237.6</ele>
        <time>2020-07-12T14:05:04 02:00</time>
      </trkpt>
      <trkpt lat="45.07653" lon="5.9515">
        <ele>2237.2</ele>
        <time>2020-07-12T14:05:07 02:00</time>
      </trkpt>
      <trkpt lat="45.07652" lon="5.95149">
        <ele>2237.2</ele>
        <time>2020-07-12T14:05:09 02:00</time>
      </trkpt>
      <trkpt lat="45.07651" lon="5.95148">
        <ele>2237.4</ele>
        <time>2020-07-12T14:05:10 02:00</time>
      </trkpt>
      <trkpt lat="45.0765" lon="5.95148">
        <ele>2237.8</ele>
        <time>2020-07-12T14:05:11 02:00</time>
      </trkpt>
      <trkpt lat="45.0765" lon="5.95148">
        <ele>2238</ele>
        <time>2020-07-12T14:05:12 02:00</time>
      </trkpt>
      <trkpt lat="45.07647" lon="5.95148">
        <ele>2238.6</ele>
        <time>2020-07-12T14:05:15 02:00</time>
      </trkpt>
      <trkpt lat="45.07644" lon="5.95148">
        <ele>2238.8</ele>
        <time>2020-07-12T14:05:18 02:00</time>
      </trkpt>
      <trkpt lat="45.07643" lon="5.95148">
        <ele>2239.2</ele>
        <time>2020-07-12T14:05:19 02:00</time>
      </trkpt>
      <trkpt lat="45.07642" lon="5.95147">
        <ele>2239.4</ele>
        <time>2020-07-12T14:05:20 02:00</time>
      </trkpt>
      <trkpt lat="45.07639" lon="5.95145">
        <ele>2239.8</ele>
        <time>2020-07-12T14:05:23 02:00</time>
      </trkpt>
      <trkpt lat="45.07637" lon="5.95144">
        <ele>2240.2</ele>
        <time>2020-07-12T14:05:27 02:00</time>
      </trkpt>
      <trkpt lat="45.07635" lon="5.95145">
        <ele>2240.4</ele>
        <time>2020-07-12T14:05:29 02:00</time>
      </trkpt>
      <trkpt lat="45.07634" lon="5.95145">
        <ele>2240.4</ele>
        <time>2020-07-12T14:05:30 02:00</time>
      </trkpt>
      <trkpt lat="45.07631" lon="5.95146">
        <ele>2240</ele>
        <time>2020-07-12T14:05:33 02:00</time>
      </trkpt>
      <trkpt lat="45.07628" lon="5.95145">
        <ele>2239.2</ele>
        <time>2020-07-12T14:05:36 02:00</time>
      </trkpt>
      <trkpt lat="45.07624" lon="5.95144">
        <ele>2238.2</ele>
        <time>2020-07-12T14:05:38 02:00</time>
      </trkpt>
      <trkpt lat="45.07622" lon="5.95145">
        <ele>2237.4</ele>
        <time>2020-07-12T14:05:41 02:00</time>
      </trkpt>
      <trkpt lat="45.07618" lon="5.95147">
        <ele>2236.4</ele>
        <time>2020-07-12T14:05:45 02:00</time>
      </trkpt>
      <trkpt lat="45.07617" lon="5.95148">
        <ele>2236</ele>
        <time>2020-07-12T14:05:47 02:00</time>
      </trkpt>
      <trkpt lat="45.07616" lon="5.95146">
        <ele>2235.6</ele>
        <time>2020-07-12T14:05:49 02:00</time>
      </trkpt>
      <trkpt lat="45.07616" lon="5.95145">
        <ele>2235.4</ele>
        <time>2020-07-12T14:05:50 02:00</time>
      </trkpt>
      <trkpt lat="45.07614" lon="5.95141">
        <ele>2235.2</ele>
        <time>2020-07-12T14:05:56 02:00</time>
      </trkpt>
      <trkpt lat="45.07613" lon="5.95141">
        <ele>2235.2</ele>
        <time>2020-07-12T14:05:57 02:00</time>
      </trkpt>
      <trkpt lat="45.07612" lon="5.9514">
        <ele>2235</ele>
        <time>2020-07-12T14:05:58 02:00</time>
      </trkpt>
      <trkpt lat="45.0761" lon="5.95136">
        <ele>2234.8</ele>
        <time>2020-07-12T14:06:01 02:00</time>
      </trkpt>
      <trkpt lat="45.0761" lon="5.95134">
        <ele>2234.6</ele>
        <time>2020-07-12T14:06:03 02:00</time>
      </trkpt>
      <trkpt lat="45.07607" lon="5.95131">
        <ele>2234.6</ele>
        <time>2020-07-12T14:06:06 02:00</time>
      </trkpt>
      <trkpt lat="45.07606" lon="5.95128">
        <ele>2234.8</ele>
        <time>2020-07-12T14:06:09 02:00</time>
      </trkpt>
      <trkpt lat="45.07603" lon="5.95123">
        <ele>2235</ele>
        <time>2020-07-12T14:06:16 02:00</time>
      </trkpt>
      <trkpt lat="45.076" lon="5.95122">
        <ele>2235.4</ele>
        <time>2020-07-12T14:06:19 02:00</time>
      </trkpt>
      <trkpt lat="45.07598" lon="5.9512">
        <ele>2235.8</ele>
        <time>2020-07-12T14:06:22 02:00</time>
      </trkpt>
      <trkpt lat="45.07594" lon="5.95117">
        <ele>2236.2</ele>
        <time>2020-07-12T14:06:25 02:00</time>
      </trkpt>
      <trkpt lat="45.07591" lon="5.95116">
        <ele>2236.4</ele>
        <time>2020-07-12T14:06:28 02:00</time>
      </trkpt>
      <trkpt lat="45.07589" lon="5.95115">
        <ele>2236.6</ele>
        <time>2020-07-12T14:06:30 02:00</time>
      </trkpt>
      <trkpt lat="45.07586" lon="5.95114">
        <ele>2236.8</ele>
        <time>2020-07-12T14:06:33 02:00</time>
      </trkpt>
      <trkpt lat="45.07583" lon="5.95113">
        <ele>2237</ele>
        <time>2020-07-12T14:06:37 02:00</time>
      </trkpt>
      <trkpt lat="45.07581" lon="5.95112">
        <ele>2237</ele>
        <time>2020-07-12T14:06:40 02:00</time>
      </trkpt>
      <trkpt lat="45.07577" lon="5.95111">
        <ele>2237</ele>
        <time>2020-07-12T14:06:43 02:00</time>
      </trkpt>
      <trkpt lat="45.07574" lon="5.95109">
        <ele>2237</ele>
        <time>2020-07-12T14:06:46 02:00</time>
      </trkpt>
      <trkpt lat="45.07571" lon="5.95108">
        <ele>2237</ele>
        <time>2020-07-12T14:06:49 02:00</time>
      </trkpt>
      <trkpt lat="45.07568" lon="5.95107">
        <ele>2237.2</ele>
        <time>2020-07-12T14:06:53 02:00</time>
      </trkpt>
      <trkpt lat="45.07567" lon="5.95104">
        <ele>2237.4</ele>
        <time>2020-07-12T14:06:56 02:00</time>
      </trkpt>
      <trkpt lat="45.07564" lon="5.95103">
        <ele>2237.6</ele>
        <time>2020-07-12T14:07:00 02:00</time>
      </trkpt>
      <trkpt lat="45.07562" lon="5.95102">
        <ele>2238</ele>
        <time>2020-07-12T14:07:02 02:00</time>
      </trkpt>
      <trkpt lat="45.07561" lon="5.951">
        <ele>2238.4</ele>
        <time>2020-07-12T14:07:04 02:00</time>
      </trkpt>
      <trkpt lat="45.0756" lon="5.95098">
        <ele>2238.8</ele>
        <time>2020-07-12T14:07:06 02:00</time>
      </trkpt>
      <trkpt lat="45.07551" lon="5.95099">
        <ele>2239.6</ele>
        <time>2020-07-12T14:09:06 02:00</time>
      </trkpt>
      <trkpt lat="45.07548" lon="5.95097">
        <ele>2240.4</ele>
        <time>2020-07-12T14:09:09 02:00</time>
      </trkpt>
      <trkpt lat="45.07546" lon="5.95101">
        <ele>2240.6</ele>
        <time>2020-07-12T14:09:13 02:00</time>
      </trkpt>
      <trkpt lat="45.07544" lon="5.95103">
        <ele>2240.8</ele>
        <time>2020-07-12T14:09:16 02:00</time>
      </trkpt>
      <trkpt lat="45.07542" lon="5.95103">
        <ele>2240.8</ele>
        <time>2020-07-12T14:09:18 02:00</time>
      </trkpt>
      <trkpt lat="45.07542" lon="5.95102">
        <ele>2240.4</ele>
        <time>2020-07-12T14:09:19 02:00</time>
      </trkpt>
      <trkpt lat="45.07541" lon="5.95101">
        <ele>2239.8</ele>
        <time>2020-07-12T14:09:22 02:00</time>
      </trkpt>
      <trkpt lat="45.07538" lon="5.951">
        <ele>2239.4</ele>
        <time>2020-07-12T14:09:25 02:00</time>
      </trkpt>
      <trkpt lat="45.07535" lon="5.951">
        <ele>2239</ele>
        <time>2020-07-12T14:09:28 02:00</time>
      </trkpt>
      <trkpt lat="45.07534" lon="5.951">
        <ele>2238.6</ele>
        <time>2020-07-12T14:09:29 02:00</time>
      </trkpt>
      <trkpt lat="45.07534" lon="5.951">
        <ele>2238.2</ele>
        <time>2020-07-12T14:09:30 02:00</time>
      </trkpt>
      <trkpt lat="45.07533" lon="5.95099">
        <ele>2238</ele>
        <time>2020-07-12T14:09:31 02:00</time>
      </trkpt>
      <trkpt lat="45.07531" lon="5.951">
        <ele>2238</ele>
        <time>2020-07-12T14:09:33 02:00</time>
      </trkpt>
      <trkpt lat="45.07528" lon="5.95101">
        <ele>2238</ele>
        <time>2020-07-12T14:09:36 02:00</time>
      </trkpt>
      <trkpt lat="45.07528" lon="5.95102">
        <ele>2238</ele>
        <time>2020-07-12T14:09:37 02:00</time>
      </trkpt>
      <trkpt lat="45.07527" lon="5.95102">
        <ele>2237.8</ele>
        <time>2020-07-12T14:09:41 02:00</time>
      </trkpt>
      <trkpt lat="45.07526" lon="5.95103">
        <ele>2237.8</ele>
        <time>2020-07-12T14:09:42 02:00</time>
      </trkpt>
      <trkpt lat="45.07523" lon="5.95105">
        <ele>2237.2</ele>
        <time>2020-07-12T14:09:54 02:00</time>
      </trkpt>
      <trkpt lat="45.07521" lon="5.95105">
        <ele>2236.6</ele>
        <time>2020-07-12T14:09:55 02:00</time>
      </trkpt>
      <trkpt lat="45.0752" lon="5.95107">
        <ele>2235.6</ele>
        <time>2020-07-12T14:09:59 02:00</time>
      </trkpt>
      <trkpt lat="45.07519" lon="5.95107">
        <ele>2234.8</ele>
        <time>2020-07-12T14:10:00 02:00</time>
      </trkpt>
      <trkpt lat="45.07518" lon="5.95107">
        <ele>2233.8</ele>
        <time>2020-07-12T14:10:03 02:00</time>
      </trkpt>
      <trkpt lat="45.07517" lon="5.95108">
        <ele>2233.4</ele>
        <time>2020-07-12T14:10:04 02:00</time>
      </trkpt>
      <trkpt lat="45.07516" lon="5.95108">
        <ele>2233</ele>
        <time>2020-07-12T14:10:05 02:00</time>
      </trkpt>
      <trkpt lat="45.07513" lon="5.95108">
        <ele>2233</ele>
        <time>2020-07-12T14:10:08 02:00</time>
      </trkpt>
      <trkpt lat="45.07512" lon="5.95109">
        <ele>2233</ele>
        <time>2020-07-12T14:10:10 02:00</time>
      </trkpt>
      <trkpt lat="45.07509" lon="5.95111">
        <ele>2232.8</ele>
        <time>2020-07-12T14:10:13 02:00</time>
      </trkpt>
      <trkpt lat="45.07507" lon="5.95111">
        <ele>2232.6</ele>
        <time>2020-07-12T14:10:16 02:00</time>
      </trkpt>
      <trkpt lat="45.07505" lon="5.9511">
        <ele>2232.2</ele>
        <time>2020-07-12T14:10:17 02:00</time>
      </trkpt>
      <trkpt lat="45.07504" lon="5.95111">
        <ele>2231.8</ele>
        <time>2020-07-12T14:10:19 02:00</time>
      </trkpt>
      <trkpt lat="45.07503" lon="5.95111">
        <ele>2231.2</ele>
        <time>2020-07-12T14:10:20 02:00</time>
      </trkpt>
      <trkpt lat="45.07499" lon="5.9511">
        <ele>2230.8</ele>
        <time>2020-07-12T14:10:23 02:00</time>
      </trkpt>
      <trkpt lat="45.07496" lon="5.9511">
        <ele>2230.4</ele>
        <time>2020-07-12T14:10:26 02:00</time>
      </trkpt>
      <trkpt lat="45.07492" lon="5.9511">
        <ele>2230</ele>
        <time>2020-07-12T14:10:29 02:00</time>
      </trkpt>
      <trkpt lat="45.07491" lon="5.95111">
        <ele>2229.4</ele>
        <time>2020-07-12T14:10:32 02:00</time>
      </trkpt>
      <trkpt lat="45.07488" lon="5.95111">
        <ele>2229</ele>
        <time>2020-07-12T14:10:35 02:00</time>
      </trkpt>
      <trkpt lat="45.07485" lon="5.95111">
        <ele>2228.4</ele>
        <time>2020-07-12T14:10:38 02:00</time>
      </trkpt>
      <trkpt lat="45.07483" lon="5.9511">
        <ele>2228</ele>
        <time>2020-07-12T14:10:40 02:00</time>
      </trkpt>
      <trkpt lat="45.07483" lon="5.95112">
        <ele>2227.6</ele>
        <time>2020-07-12T14:10:57 02:00</time>
      </trkpt>
      <trkpt lat="45.0748" lon="5.9511">
        <ele>2227.4</ele>
        <time>2020-07-12T14:11:01 02:00</time>
      </trkpt>
      <trkpt lat="45.07478" lon="5.95109">
        <ele>2226.8</ele>
        <time>2020-07-12T14:12:26 02:00</time>
      </trkpt>
      <trkpt lat="45.07477" lon="5.95109">
        <ele>2226.4</ele>
        <time>2020-07-12T14:12:27 02:00</time>
      </trkpt>
      <trkpt lat="45.07475" lon="5.95109">
        <ele>2225.8</ele>
        <time>2020-07-12T14:12:40 02:00</time>
      </trkpt>
      <trkpt lat="45.07472" lon="5.95109">
        <ele>2225.4</ele>
        <time>2020-07-12T14:12:43 02:00</time>
      </trkpt>
      <trkpt lat="45.07471" lon="5.95109">
        <ele>2224.8</ele>
        <time>2020-07-12T14:12:44 02:00</time>
      </trkpt>
      <trkpt lat="45.07466" lon="5.95108">
        <ele>2224.4</ele>
        <time>2020-07-12T14:12:54 02:00</time>
      </trkpt>
      <trkpt lat="45.07464" lon="5.95108">
        <ele>2224.2</ele>
        <time>2020-07-12T14:12:56 02:00</time>
      </trkpt>
      <trkpt lat="45.07463" lon="5.95109">
        <ele>2224</ele>
        <time>2020-07-12T14:12:57 02:00</time>
      </trkpt>
      <trkpt lat="45.0746" lon="5.95108">
        <ele>2223.6</ele>
        <time>2020-07-12T14:13:00 02:00</time>
      </trkpt>
      <trkpt lat="45.07457" lon="5.95107">
        <ele>2223.4</ele>
        <time>2020-07-12T14:13:03 02:00</time>
      </trkpt>
      <trkpt lat="45.07454" lon="5.95107">
        <ele>2223.6</ele>
        <time>2020-07-12T14:13:06 02:00</time>
      </trkpt>
      <trkpt lat="45.07451" lon="5.95108">
        <ele>2223.6</ele>
        <time>2020-07-12T14:13:09 02:00</time>
      </trkpt>
      <trkpt lat="45.07449" lon="5.95109">
        <ele>2223.8</ele>
        <time>2020-07-12T14:13:12 02:00</time>
      </trkpt>
      <trkpt lat="45.07449" lon="5.95109">
        <ele>2224.2</ele>
        <time>2020-07-12T14:13:13 02:00</time>
      </trkpt>
      <trkpt lat="45.07446" lon="5.95107">
        <ele>2224.2</ele>
        <time>2020-07-12T14:13:16 02:00</time>
      </trkpt>
      <trkpt lat="45.07443" lon="5.95106">
        <ele>2224</ele>
        <time>2020-07-12T14:13:19 02:00</time>
      </trkpt>
      <trkpt lat="45.07441" lon="5.95107">
        <ele>2223.6</ele>
        <time>2020-07-12T14:13:21 02:00</time>
      </trkpt>
      <trkpt lat="45.07441" lon="5.95107">
        <ele>2223</ele>
        <time>2020-07-12T14:13:22 02:00</time>
      </trkpt>
      <trkpt lat="45.07439" lon="5.95108">
        <ele>2222.4</ele>
        <time>2020-07-12T14:13:24 02:00</time>
      </trkpt>
      <trkpt lat="45.07438" lon="5.95108">
        <ele>2222.2</ele>
        <time>2020-07-12T14:13:25 02:00</time>
      </trkpt>
      <trkpt lat="45.07438" lon="5.95108">
        <ele>2222</ele>
        <time>2020-07-12T14:13:26 02:00</time>
      </trkpt>
      <trkpt lat="45.07436" lon="5.95107">
        <ele>2221.8</ele>
        <time>2020-07-12T14:13:27 02:00</time>
      </trkpt>
      <trkpt lat="45.07434" lon="5.95108">
        <ele>2221.6</ele>
        <time>2020-07-12T14:13:30 02:00</time>
      </trkpt>
      <trkpt lat="45.07431" lon="5.95109">
        <ele>2221.2</ele>
        <time>2020-07-12T14:13:32 02:00</time>
      </trkpt>
      <trkpt lat="45.07431" lon="5.95109">
        <ele>2221</ele>
        <time>2020-07-12T14:13:33 02:00</time>
      </trkpt>
      <trkpt lat="45.07428" lon="5.9511">
        <ele>2220.8</ele>
        <time>2020-07-12T14:13:36 02:00</time>
      </trkpt>
      <trkpt lat="45.07426" lon="5.95111">
        <ele>2220.8</ele>
        <time>2020-07-12T14:13:39 02:00</time>
      </trkpt>
      <trkpt lat="45.07425" lon="5.95111">
        <ele>2220.8</ele>
        <time>2020-07-12T14:13:40 02:00</time>
      </trkpt>
      <trkpt lat="45.07424" lon="5.95112">
        <ele>2221</ele>
        <time>2020-07-12T14:13:41 02:00</time>
      </trkpt>
      <trkpt lat="45.07422" lon="5.95112">
        <ele>2221</ele>
        <time>2020-07-12T14:13:44 02:00</time>
      </trkpt>
      <trkpt lat="45.0742" lon="5.95112">
        <ele>2221.2</ele>
        <time>2020-07-12T14:13:48 02:00</time>
      </trkpt>
      <trkpt lat="45.07417" lon="5.95112">
        <ele>2221.4</ele>
        <time>2020-07-12T14:13:52 02:00</time>
      </trkpt>
      <trkpt lat="45.07413" lon="5.95112">
        <ele>2221.4</ele>
        <time>2020-07-12T14:13:55 02:00</time>
      </trkpt>
      <trkpt lat="45.0741" lon="5.9511">
        <ele>2221.4</ele>
        <time>2020-07-12T14:13:58 02:00</time>
      </trkpt>
      <trkpt lat="45.07407" lon="5.95108">
        <ele>2221.4</ele>
        <time>2020-07-12T14:14:02 02:00</time>
      </trkpt>
      <trkpt lat="45.07405" lon="5.95105">
        <ele>2221.2</ele>
        <time>2020-07-12T14:14:05 02:00</time>
      </trkpt>
      <trkpt lat="45.07402" lon="5.95105">
        <ele>2220.8</ele>
        <time>2020-07-12T14:14:09 02:00</time>
      </trkpt>
      <trkpt lat="45.07399" lon="5.95103">
        <ele>2220.6</ele>
        <time>2020-07-12T14:14:12 02:00</time>
      </trkpt>
      <trkpt lat="45.07398" lon="5.95102">
        <ele>2220.4</ele>
        <time>2020-07-12T14:14:14 02:00</time>
      </trkpt>
      <trkpt lat="45.07397" lon="5.95102">
        <ele>2220</ele>
        <time>2020-07-12T14:14:15 02:00</time>
      </trkpt>
      <trkpt lat="45.07395" lon="5.95101">
        <ele>2219.4</ele>
        <time>2020-07-12T14:14:17 02:00</time>
      </trkpt>
      <trkpt lat="45.07392" lon="5.95099">
        <ele>2219</ele>
        <time>2020-07-12T14:14:22 02:00</time>
      </trkpt>
      <trkpt lat="45.07389" lon="5.95099">
        <ele>2218.6</ele>
        <time>2020-07-12T14:14:25 02:00</time>
      </trkpt>
      <trkpt lat="45.07387" lon="5.95099">
        <ele>2218</ele>
        <time>2020-07-12T14:14:27 02:00</time>
      </trkpt>
      <trkpt lat="45.07386" lon="5.95099">
        <ele>2217.6</ele>
        <time>2020-07-12T14:14:28 02:00</time>
      </trkpt>
      <trkpt lat="45.07383" lon="5.95099">
        <ele>2217.4</ele>
        <time>2020-07-12T14:14:31 02:00</time>
      </trkpt>
      <trkpt lat="45.07383" lon="5.951">
        <ele>2217.4</ele>
        <time>2020-07-12T14:14:33 02:00</time>
      </trkpt>
      <trkpt lat="45.07381" lon="5.951">
        <ele>2217.4</ele>
        <time>2020-07-12T14:14:34 02:00</time>
      </trkpt>
      <trkpt lat="45.07381" lon="5.95101">
        <ele>2217.6</ele>
        <time>2020-07-12T14:14:35 02:00</time>
      </trkpt>
      <trkpt lat="45.0738" lon="5.95101">
        <ele>2217.8</ele>
        <time>2020-07-12T14:14:36 02:00</time>
      </trkpt>
      <trkpt lat="45.07376" lon="5.95102">
        <ele>2218</ele>
        <time>2020-07-12T14:14:41 02:00</time>
      </trkpt>
      <trkpt lat="45.07373" lon="5.95101">
        <ele>2218.2</ele>
        <time>2020-07-12T14:14:44 02:00</time>
      </trkpt>
      <trkpt lat="45.07372" lon="5.951">
        <ele>2218.4</ele>
        <time>2020-07-12T14:14:46 02:00</time>
      </trkpt>
      <trkpt lat="45.07369" lon="5.95101">
        <ele>2218.8</ele>
        <time>2020-07-12T14:14:50 02:00</time>
      </trkpt>
      <trkpt lat="45.07369" lon="5.95101">
        <ele>2219.2</ele>
        <time>2020-07-12T14:14:51 02:00</time>
      </trkpt>
      <trkpt lat="45.07365" lon="5.95098">
        <ele>2219.4</ele>
        <time>2020-07-12T14:14:56 02:00</time>
      </trkpt>
      <trkpt lat="45.07362" lon="5.95099">
        <ele>2219.4</ele>
        <time>2020-07-12T14:14:59 02:00</time>
      </trkpt>
      <trkpt lat="45.07359" lon="5.95099">
        <ele>2219.6</ele>
        <time>2020-07-12T14:15:03 02:00</time>
      </trkpt>
      <trkpt lat="45.07356" lon="5.95098">
        <ele>2219.6</ele>
        <time>2020-07-12T14:15:07 02:00</time>
      </trkpt>
      <trkpt lat="45.07353" lon="5.95098">
        <ele>2219.6</ele>
        <time>2020-07-12T14:15:10 02:00</time>
      </trkpt>
      <trkpt lat="45.07349" lon="5.95098">
        <ele>2219.8</ele>
        <time>2020-07-12T14:15:14 02:00</time>
      </trkpt>
      <trkpt lat="45.07346" lon="5.95097">
        <ele>2220</ele>
        <time>2020-07-12T14:15:17 02:00</time>
      </trkpt>
      <trkpt lat="45.07343" lon="5.95098">
        <ele>2220</ele>
        <time>2020-07-12T14:15:21 02:00</time>
      </trkpt>
      <trkpt lat="45.07341" lon="5.95098">
        <ele>2219.8</ele>
        <time>2020-07-12T14:15:24 02:00</time>
      </trkpt>
      <trkpt lat="45.07339" lon="5.95098">
        <ele>2219.6</ele>
        <time>2020-07-12T14:15:26 02:00</time>
      </trkpt>
      <trkpt lat="45.07337" lon="5.95098">
        <ele>2219.2</ele>
        <time>2020-07-12T14:15:28 02:00</time>
      </trkpt>
      <trkpt lat="45.07335" lon="5.95097">
        <ele>2218.8</ele>
        <time>2020-07-12T14:15:31 02:00</time>
      </trkpt>
      <trkpt lat="45.07332" lon="5.95098">
        <ele>2218.4</ele>
        <time>2020-07-12T14:15:35 02:00</time>
      </trkpt>
      <trkpt lat="45.07328" lon="5.95098">
        <ele>2218.2</ele>
        <time>2020-07-12T14:15:38 02:00</time>
      </trkpt>
      <trkpt lat="45.07325" lon="5.95099">
        <ele>2217.8</ele>
        <time>2020-07-12T14:15:41 02:00</time>
      </trkpt>
      <trkpt lat="45.07322" lon="5.951">
        <ele>2217.6</ele>
        <time>2020-07-12T14:15:44 02:00</time>
      </trkpt>
      <trkpt lat="45.07322" lon="5.95099">
        <ele>2217.4</ele>
        <time>2020-07-12T14:15:45 02:00</time>
      </trkpt>
      <trkpt lat="45.07319" lon="5.95099">
        <ele>2217.4</ele>
        <time>2020-07-12T14:15:49 02:00</time>
      </trkpt>
      <trkpt lat="45.07315" lon="5.95099">
        <ele>2217.4</ele>
        <time>2020-07-12T14:15:52 02:00</time>
      </trkpt>
      <trkpt lat="45.07312" lon="5.95099">
        <ele>2217.4</ele>
        <time>2020-07-12T14:15:55 02:00</time>
      </trkpt>
      <trkpt lat="45.07309" lon="5.95098">
        <ele>2217.4</ele>
        <time>2020-07-12T14:15:58 02:00</time>
      </trkpt>
      <trkpt lat="45.07306" lon="5.95098">
        <ele>2217.2</ele>
        <time>2020-07-12T14:16:01 02:00</time>
      </trkpt>
      <trkpt lat="45.07303" lon="5.95098">
        <ele>2216.8</ele>
        <time>2020-07-12T14:16:04 02:00</time>
      </trkpt>
      <trkpt lat="45.073" lon="5.95096">
        <ele>2216.4</ele>
        <time>2020-07-12T14:16:07 02:00</time>
      </trkpt>
      <trkpt lat="45.07297" lon="5.95097">
        <ele>2216.2</ele>
        <time>2020-07-12T14:16:11 02:00</time>
      </trkpt>
      <trkpt lat="45.07293" lon="5.95097">
        <ele>2216</ele>
        <time>2020-07-12T14:16:15 02:00</time>
      </trkpt>
      <trkpt lat="45.0729" lon="5.95098">
        <ele>2215.8</ele>
        <time>2020-07-12T14:16:18 02:00</time>
      </trkpt>
      <trkpt lat="45.07287" lon="5.95097">
        <ele>2215.6</ele>
        <time>2020-07-12T14:16:21 02:00</time>
      </trkpt>
      <trkpt lat="45.07284" lon="5.95098">
        <ele>2215.4</ele>
        <time>2020-07-12T14:16:24 02:00</time>
      </trkpt>
      <trkpt lat="45.07281" lon="5.95097">
        <ele>2215</ele>
        <time>2020-07-12T14:16:28 02:00</time>
      </trkpt>
      <trkpt lat="45.07278" lon="5.95097">
        <ele>2214.6</ele>
        <time>2020-07-12T14:16:31 02:00</time>
      </trkpt>
      <trkpt lat="45.07275" lon="5.95098">
        <ele>2214.4</ele>
        <time>2020-07-12T14:16:34 02:00</time>
      </trkpt>
      <trkpt lat="45.07272" lon="5.95099">
        <ele>2214.2</ele>
        <time>2020-07-12T14:16:37 02:00</time>
      </trkpt>
      <trkpt lat="45.07269" lon="5.95099">
        <ele>2214.2</ele>
        <time>2020-07-12T14:16:41 02:00</time>
      </trkpt>
      <trkpt lat="45.07267" lon="5.95099">
        <ele>2214.4</ele>
        <time>2020-07-12T14:16:43 02:00</time>
      </trkpt>
      <trkpt lat="45.07264" lon="5.95101">
        <ele>2214.4</ele>
        <time>2020-07-12T14:16:46 02:00</time>
      </trkpt>
      <trkpt lat="45.07264" lon="5.95101">
        <ele>2214.4</ele>
        <time>2020-07-12T14:16:47 02:00</time>
      </trkpt>
      <trkpt lat="45.07262" lon="5.951">
        <ele>2214.6</ele>
        <time>2020-07-12T14:16:49 02:00</time>
      </trkpt>
      <trkpt lat="45.07262" lon="5.951">
        <ele>2214.6</ele>
        <time>2020-07-12T14:16:50 02:00</time>
      </trkpt>
      <trkpt lat="45.07258" lon="5.95101">
        <ele>2214.2</ele>
        <time>2020-07-12T14:16:54 02:00</time>
      </trkpt>
      <trkpt lat="45.07255" lon="5.95102">
        <ele>2214</ele>
        <time>2020-07-12T14:16:57 02:00</time>
      </trkpt>
      <trkpt lat="45.07254" lon="5.95102">
        <ele>2213.8</ele>
        <time>2020-07-12T14:16:59 02:00</time>
      </trkpt>
      <trkpt lat="45.07253" lon="5.95102">
        <ele>2213.4</ele>
        <time>2020-07-12T14:17:00 02:00</time>
      </trkpt>
      <trkpt lat="45.0725" lon="5.95101">
        <ele>2213.2</ele>
        <time>2020-07-12T14:17:03 02:00</time>
      </trkpt>
      <trkpt lat="45.07246" lon="5.951">
        <ele>2213.4</ele>
        <time>2020-07-12T14:17:07 02:00</time>
      </trkpt>
      <trkpt lat="45.07243" lon="5.951">
        <ele>2213.6</ele>
        <time>2020-07-12T14:17:10 02:00</time>
      </trkpt>
      <trkpt lat="45.0724" lon="5.95101">
        <ele>2214</ele>
        <time>2020-07-12T14:17:13 02:00</time>
      </trkpt>
      <trkpt lat="45.07237" lon="5.951">
        <ele>2214.2</ele>
        <time>2020-07-12T14:17:16 02:00</time>
      </trkpt>
      <trkpt lat="45.07235" lon="5.951">
        <ele>2214.2</ele>
        <time>2020-07-12T14:17:19 02:00</time>
      </trkpt>
      <trkpt lat="45.07233" lon="5.951">
        <ele>2214.2</ele>
        <time>2020-07-12T14:17:21 02:00</time>
      </trkpt>
      <trkpt lat="45.0723" lon="5.95099">
        <ele>2214.2</ele>
        <time>2020-07-12T14:17:25 02:00</time>
      </trkpt>
      <trkpt lat="45.07228" lon="5.95098">
        <ele>2214</ele>
        <time>2020-07-12T14:17:28 02:00</time>
      </trkpt>
      <trkpt lat="45.07225" lon="5.95097">
        <ele>2214</ele>
        <time>2020-07-12T14:17:31 02:00</time>
      </trkpt>
      <trkpt lat="45.07222" lon="5.95096">
        <ele>2214</ele>
        <time>2020-07-12T14:17:34 02:00</time>
      </trkpt>
      <trkpt lat="45.07221" lon="5.95096">
        <ele>2214</ele>
        <time>2020-07-12T14:17:35 02:00</time>
      </trkpt>
      <trkpt lat="45.0722" lon="5.95096">
        <ele>2213.8</ele>
        <time>2020-07-12T14:17:37 02:00</time>
      </trkpt>
      <trkpt lat="45.07216" lon="5.95095">
        <ele>2213.4</ele>
        <time>2020-07-12T14:17:43 02:00</time>
      </trkpt>
      <trkpt lat="45.07214" lon="5.95095">
        <ele>2212.6</ele>
        <time>2020-07-12T14:17:46 02:00</time>
      </trkpt>
      <trkpt lat="45.07212" lon="5.95096">
        <ele>2211.8</ele>
        <time>2020-07-12T14:17:48 02:00</time>
      </trkpt>
      <trkpt lat="45.0721" lon="5.95096">
        <ele>2210.8</ele>
        <time>2020-07-12T14:17:51 02:00</time>
      </trkpt>
      <trkpt lat="45.07206" lon="5.95095">
        <ele>2209.8</ele>
        <time>2020-07-12T14:17:58 02:00</time>
      </trkpt>
      <trkpt lat="45.07203" lon="5.95094">
        <ele>2209</ele>
        <time>2020-07-12T14:18:01 02:00</time>
      </trkpt>
      <trkpt lat="45.072" lon="5.95095">
        <ele>2208.8</ele>
        <time>2020-07-12T14:18:04 02:00</time>
      </trkpt>
      <trkpt lat="45.07197" lon="5.95096">
        <ele>2208.4</ele>
        <time>2020-07-12T14:18:07 02:00</time>
      </trkpt>
      <trkpt lat="45.07193" lon="5.95096">
        <ele>2207.8</ele>
        <time>2020-07-12T14:18:12 02:00</time>
      </trkpt>
      <trkpt lat="45.0719" lon="5.95096">
        <ele>2207.2</ele>
        <time>2020-07-12T14:18:16 02:00</time>
      </trkpt>
      <trkpt lat="45.07187" lon="5.95095">
        <ele>2206.4</ele>
        <time>2020-07-12T14:18:19 02:00</time>
      </trkpt>
      <trkpt lat="45.07185" lon="5.95093">
        <ele>2205.2</ele>
        <time>2020-07-12T14:18:22 02:00</time>
      </trkpt>
      <trkpt lat="45.07184" lon="5.95093">
        <ele>2204</ele>
        <time>2020-07-12T14:18:24 02:00</time>
      </trkpt>
      <trkpt lat="45.07181" lon="5.95094">
        <ele>2203.2</ele>
        <time>2020-07-12T14:18:27 02:00</time>
      </trkpt>
      <trkpt lat="45.0718" lon="5.95094">
        <ele>2202.6</ele>
        <time>2020-07-12T14:18:28 02:00</time>
      </trkpt>
      <trkpt lat="45.07179" lon="5.95094">
        <ele>2202.2</ele>
        <time>2020-07-12T14:18:29 02:00</time>
      </trkpt>
      <trkpt lat="45.07178" lon="5.95094">
        <ele>2202</ele>
        <time>2020-07-12T14:18:30 02:00</time>
      </trkpt>
      <trkpt lat="45.07174" lon="5.95094">
        <ele>2201.8</ele>
        <time>2020-07-12T14:18:34 02:00</time>
      </trkpt>
      <trkpt lat="45.07171" lon="5.95095">
        <ele>2201.4</ele>
        <time>2020-07-12T14:18:38 02:00</time>
      </trkpt>
      <trkpt lat="45.07169" lon="5.95095">
        <ele>2201.4</ele>
        <time>2020-07-12T14:18:40 02:00</time>
      </trkpt>
      <trkpt lat="45.07166" lon="5.95095">
        <ele>2201.2</ele>
        <time>2020-07-12T14:18:42 02:00</time>
      </trkpt>
      <trkpt lat="45.07164" lon="5.95095">
        <ele>2201</ele>
        <time>2020-07-12T14:18:45 02:00</time>
      </trkpt>
      <trkpt lat="45.07163" lon="5.95096">
        <ele>2201</ele>
        <time>2020-07-12T14:18:46 02:00</time>
      </trkpt>
      <trkpt lat="45.07162" lon="5.95096">
        <ele>2201.4</ele>
        <time>2020-07-12T14:18:47 02:00</time>
      </trkpt>
      <trkpt lat="45.0716" lon="5.95096">
        <ele>2201.4</ele>
        <time>2020-07-12T14:18:49 02:00</time>
      </trkpt>
      <trkpt lat="45.0716" lon="5.95096">
        <ele>2201.6</ele>
        <time>2020-07-12T14:18:50 02:00</time>
      </trkpt>
      <trkpt lat="45.0716" lon="5.95096">
        <ele>2201.6</ele>
        <time>2020-07-12T14:18:51 02:00</time>
      </trkpt>
      <trkpt lat="45.07158" lon="5.95097">
        <ele>2201.6</ele>
        <time>2020-07-12T14:18:54 02:00</time>
      </trkpt>
      <trkpt lat="45.07155" lon="5.95097">
        <ele>2201.4</ele>
        <time>2020-07-12T14:18:57 02:00</time>
      </trkpt>
      <trkpt lat="45.07152" lon="5.95094">
        <ele>2201</ele>
        <time>2020-07-12T14:19:00 02:00</time>
      </trkpt>
      <trkpt lat="45.07149" lon="5.95092">
        <ele>2200.4</ele>
        <time>2020-07-12T14:19:03 02:00</time>
      </trkpt>
      <trkpt lat="45.07148" lon="5.95092">
        <ele>2200</ele>
        <time>2020-07-12T14:19:04 02:00</time>
      </trkpt>
      <trkpt lat="45.07148" lon="5.95092">
        <ele>2199.8</ele>
        <time>2020-07-12T14:19:05 02:00</time>
      </trkpt>
      <trkpt lat="45.07145" lon="5.95092">
        <ele>2199.4</ele>
        <time>2020-07-12T14:19:08 02:00</time>
      </trkpt>
      <trkpt lat="45.07144" lon="5.95092">
        <ele>2199.2</ele>
        <time>2020-07-12T14:19:09 02:00</time>
      </trkpt>
      <trkpt lat="45.07143" lon="5.95092">
        <ele>2199</ele>
        <time>2020-07-12T14:19:11 02:00</time>
      </trkpt>
      <trkpt lat="45.0714" lon="5.95092">
        <ele>2199</ele>
        <time>2020-07-12T14:19:14 02:00</time>
      </trkpt>
      <trkpt lat="45.07138" lon="5.95091">
        <ele>2198.8</ele>
        <time>2020-07-12T14:19:17 02:00</time>
      </trkpt>
      <trkpt lat="45.07136" lon="5.95092">
        <ele>2198.8</ele>
        <time>2020-07-12T14:19:20 02:00</time>
      </trkpt>
      <trkpt lat="45.07136" lon="5.95092">
        <ele>2198.8</ele>
        <time>2020-07-12T14:19:21 02:00</time>
      </trkpt>
      <trkpt lat="45.07133" lon="5.95089">
        <ele>2198.6</ele>
        <time>2020-07-12T14:19:26 02:00</time>
      </trkpt>
      <trkpt lat="45.0713" lon="5.95088">
        <ele>2198</ele>
        <time>2020-07-12T14:19:30 02:00</time>
      </trkpt>
      <trkpt lat="45.07127" lon="5.9509">
        <ele>2197.4</ele>
        <time>2020-07-12T14:19:33 02:00</time>
      </trkpt>
      <trkpt lat="45.07124" lon="5.95086">
        <ele>2196.4</ele>
        <time>2020-07-12T14:19:37 02:00</time>
      </trkpt>
      <trkpt lat="45.07121" lon="5.95084">
        <ele>2195.2</ele>
        <time>2020-07-12T14:19:40 02:00</time>
      </trkpt>
      <trkpt lat="45.07118" lon="5.95085">
        <ele>2194.4</ele>
        <time>2020-07-12T14:19:43 02:00</time>
      </trkpt>
      <trkpt lat="45.07115" lon="5.95084">
        <ele>2193.6</ele>
        <time>2020-07-12T14:19:46 02:00</time>
      </trkpt>
      <trkpt lat="45.07113" lon="5.95086">
        <ele>2192.8</ele>
        <time>2020-07-12T14:19:49 02:00</time>
      </trkpt>
      <trkpt lat="45.07109" lon="5.95086">
        <ele>2192.2</ele>
        <time>2020-07-12T14:19:52 02:00</time>
      </trkpt>
      <trkpt lat="45.07106" lon="5.95087">
        <ele>2191.6</ele>
        <time>2020-07-12T14:19:55 02:00</time>
      </trkpt>
      <trkpt lat="45.07103" lon="5.95088">
        <ele>2190.8</ele>
        <time>2020-07-12T14:19:58 02:00</time>
      </trkpt>
      <trkpt lat="45.071" lon="5.95089">
        <ele>2190</ele>
        <time>2020-07-12T14:20:01 02:00</time>
      </trkpt>
      <trkpt lat="45.07097" lon="5.9509">
        <ele>2189</ele>
        <time>2020-07-12T14:20:05 02:00</time>
      </trkpt>
      <trkpt lat="45.07093" lon="5.9509">
        <ele>2188</ele>
        <time>2020-07-12T14:20:08 02:00</time>
      </trkpt>
      <trkpt lat="45.0709" lon="5.95092">
        <ele>2187.2</ele>
        <time>2020-07-12T14:20:12 02:00</time>
      </trkpt>
      <trkpt lat="45.07087" lon="5.95093">
        <ele>2186.4</ele>
        <time>2020-07-12T14:20:15 02:00</time>
      </trkpt>
      <trkpt lat="45.07084" lon="5.95091">
        <ele>2185.8</ele>
        <time>2020-07-12T14:20:18 02:00</time>
      </trkpt>
      <trkpt lat="45.07081" lon="5.95088">
        <ele>2185.2</ele>
        <time>2020-07-12T14:20:22 02:00</time>
      </trkpt>
      <trkpt lat="45.07081" lon="5.95088">
        <ele>2184.8</ele>
        <time>2020-07-12T14:20:23 02:00</time>
      </trkpt>
      <trkpt lat="45.0708" lon="5.95088">
        <ele>2184.4</ele>
        <time>2020-07-12T14:20:24 02:00</time>
      </trkpt>
      <trkpt lat="45.07078" lon="5.95086">
        <ele>2184.4</ele>
        <time>2020-07-12T14:20:27 02:00</time>
      </trkpt>
      <trkpt lat="45.07074" lon="5.95085">
        <ele>2184.2</ele>
        <time>2020-07-12T14:20:30 02:00</time>
      </trkpt>
      <trkpt lat="45.07071" lon="5.95083">
        <ele>2184</ele>
        <time>2020-07-12T14:20:33 02:00</time>
      </trkpt>
      <trkpt lat="45.07068" lon="5.95081">
        <ele>2183.6</ele>
        <time>2020-07-12T14:20:36 02:00</time>
      </trkpt>
      <trkpt lat="45.07065" lon="5.9508">
        <ele>2183.2</ele>
        <time>2020-07-12T14:20:39 02:00</time>
      </trkpt>
      <trkpt lat="45.07062" lon="5.95079">
        <ele>2182.6</ele>
        <time>2020-07-12T14:20:42 02:00</time>
      </trkpt>
      <trkpt lat="45.07058" lon="5.95079">
        <ele>2182.4</ele>
        <time>2020-07-12T14:20:45 02:00</time>
      </trkpt>
      <trkpt lat="45.07056" lon="5.95078">
        <ele>2182.4</ele>
        <time>2020-07-12T14:20:48 02:00</time>
      </trkpt>
      <trkpt lat="45.07054" lon="5.95078">
        <ele>2182.6</ele>
        <time>2020-07-12T14:20:53 02:00</time>
      </trkpt>
      <trkpt lat="45.07053" lon="5.95076">
        <ele>2182.8</ele>
        <time>2020-07-12T14:20:55 02:00</time>
      </trkpt>
      <trkpt lat="45.07052" lon="5.95075">
        <ele>2183</ele>
        <time>2020-07-12T14:20:57 02:00</time>
      </trkpt>
      <trkpt lat="45.07051" lon="5.95076">
        <ele>2182.8</ele>
        <time>2020-07-12T14:20:58 02:00</time>
      </trkpt>
      <trkpt lat="45.0705" lon="5.95076">
        <ele>2182.6</ele>
        <time>2020-07-12T14:20:59 02:00</time>
      </trkpt>
      <trkpt lat="45.07047" lon="5.95075">
        <ele>2182.6</ele>
        <time>2020-07-12T14:21:04 02:00</time>
      </trkpt>
      <trkpt lat="45.07044" lon="5.95073">
        <ele>2182.6</ele>
        <time>2020-07-12T14:21:07 02:00</time>
      </trkpt>
      <trkpt lat="45.07042" lon="5.9507">
        <ele>2182.6</ele>
        <time>2020-07-12T14:21:13 02:00</time>
      </trkpt>
      <trkpt lat="45.07039" lon="5.95067">
        <ele>2182.8</ele>
        <time>2020-07-12T14:21:16 02:00</time>
      </trkpt>
      <trkpt lat="45.07037" lon="5.95065">
        <ele>2183.2</ele>
        <time>2020-07-12T14:21:19 02:00</time>
      </trkpt>
      <trkpt lat="45.07035" lon="5.95064">
        <ele>2183.6</ele>
        <time>2020-07-12T14:21:21 02:00</time>
      </trkpt>
      <trkpt lat="45.07032" lon="5.95064">
        <ele>2184.4</ele>
        <time>2020-07-12T14:21:26 02:00</time>
      </trkpt>
      <trkpt lat="45.07031" lon="5.95063">
        <ele>2185</ele>
        <time>2020-07-12T14:21:28 02:00</time>
      </trkpt>
      <trkpt lat="45.07029" lon="5.95062">
        <ele>2185.6</ele>
        <time>2020-07-12T14:21:30 02:00</time>
      </trkpt>
      <trkpt lat="45.07026" lon="5.95061">
        <ele>2186</ele>
        <time>2020-07-12T14:21:34 02:00</time>
      </trkpt>
      <trkpt lat="45.07023" lon="5.95061">
        <ele>2186.4</ele>
        <time>2020-07-12T14:21:37 02:00</time>
      </trkpt>
      <trkpt lat="45.07021" lon="5.95061">
        <ele>2186.4</ele>
        <time>2020-07-12T14:21:39 02:00</time>
      </trkpt>
      <trkpt lat="45.07019" lon="5.9506">
        <ele>2186.6</ele>
        <time>2020-07-12T14:21:43 02:00</time>
      </trkpt>
      <trkpt lat="45.07019" lon="5.95061">
        <ele>2186.8</ele>
        <time>2020-07-12T14:21:44 02:00</time>
      </trkpt>
      <trkpt lat="45.07018" lon="5.95061">
        <ele>2187</ele>
        <time>2020-07-12T14:21:46 02:00</time>
      </trkpt>
      <trkpt lat="45.07017" lon="5.95061">
        <ele>2187</ele>
        <time>2020-07-12T14:21:47 02:00</time>
      </trkpt>
      <trkpt lat="45.07015" lon="5.95059">
        <ele>2187</ele>
        <time>2020-07-12T14:21:51 02:00</time>
      </trkpt>
      <trkpt lat="45.07011" lon="5.95057">
        <ele>2187</ele>
        <time>2020-07-12T14:21:55 02:00</time>
      </trkpt>
      <trkpt lat="45.07009" lon="5.95055">
        <ele>2187</ele>
        <time>2020-07-12T14:21:58 02:00</time>
      </trkpt>
      <trkpt lat="45.07007" lon="5.95053">
        <ele>2187.2</ele>
        <time>2020-07-12T14:22:01 02:00</time>
      </trkpt>
      <trkpt lat="45.07005" lon="5.95052">
        <ele>2187.4</ele>
        <time>2020-07-12T14:22:03 02:00</time>
      </trkpt>
      <trkpt lat="45.07002" lon="5.95049">
        <ele>2187.4</ele>
        <time>2020-07-12T14:22:07 02:00</time>
      </trkpt>
      <trkpt lat="45.07002" lon="5.95047">
        <ele>2187.4</ele>
        <time>2020-07-12T14:22:09 02:00</time>
      </trkpt>
      <trkpt lat="45.07002" lon="5.95046">
        <ele>2187.4</ele>
        <time>2020-07-12T14:22:11 02:00</time>
      </trkpt>
      <trkpt lat="45.07002" lon="5.95041">
        <ele>2187.2</ele>
        <time>2020-07-12T14:22:14 02:00</time>
      </trkpt>
      <trkpt lat="45.07002" lon="5.95036">
        <ele>2187</ele>
        <time>2020-07-12T14:22:18 02:00</time>
      </trkpt>
      <trkpt lat="45.06999" lon="5.95034">
        <ele>2187</ele>
        <time>2020-07-12T14:22:21 02:00</time>
      </trkpt>
      <trkpt lat="45.06998" lon="5.95031">
        <ele>2187</ele>
        <time>2020-07-12T14:22:24 02:00</time>
      </trkpt>
      <trkpt lat="45.06997" lon="5.9503">
        <ele>2187</ele>
        <time>2020-07-12T14:22:25 02:00</time>
      </trkpt>
      <trkpt lat="45.06995" lon="5.95026">
        <ele>2187</ele>
        <time>2020-07-12T14:22:28 02:00</time>
      </trkpt>
      <trkpt lat="45.06995" lon="5.95025">
        <ele>2187.2</ele>
        <time>2020-07-12T14:22:30 02:00</time>
      </trkpt>
      <trkpt lat="45.06993" lon="5.95022">
        <ele>2187.4</ele>
        <time>2020-07-12T14:22:36 02:00</time>
      </trkpt>
      <trkpt lat="45.06991" lon="5.95019">
        <ele>2187.8</ele>
        <time>2020-07-12T14:22:39 02:00</time>
      </trkpt>
      <trkpt lat="45.06989" lon="5.95016">
        <ele>2188</ele>
        <time>2020-07-12T14:22:42 02:00</time>
      </trkpt>
      <trkpt lat="45.06988" lon="5.95014">
        <ele>2188.4</ele>
        <time>2020-07-12T14:22:45 02:00</time>
      </trkpt>
      <trkpt lat="45.06987" lon="5.9501">
        <ele>2188.6</ele>
        <time>2020-07-12T14:22:48 02:00</time>
      </trkpt>
      <trkpt lat="45.06986" lon="5.95006">
        <ele>2188.6</ele>
        <time>2020-07-12T14:22:51 02:00</time>
      </trkpt>
      <trkpt lat="45.06985" lon="5.95003">
        <ele>2188.4</ele>
        <time>2020-07-12T14:22:54 02:00</time>
      </trkpt>
      <trkpt lat="45.06984" lon="5.95002">
        <ele>2188.4</ele>
        <time>2020-07-12T14:22:55 02:00</time>
      </trkpt>
      <trkpt lat="45.06981" lon="5.94999">
        <ele>2188.2</ele>
        <time>2020-07-12T14:22:58 02:00</time>
      </trkpt>
      <trkpt lat="45.06978" lon="5.94998">
        <ele>2188.2</ele>
        <time>2020-07-12T14:23:01 02:00</time>
      </trkpt>
      <trkpt lat="45.06975" lon="5.94998">
        <ele>2188.2</ele>
        <time>2020-07-12T14:23:04 02:00</time>
      </trkpt>
      <trkpt lat="45.06974" lon="5.94998">
        <ele>2188.2</ele>
        <time>2020-07-12T14:23:05 02:00</time>
      </trkpt>
      <trkpt lat="45.06973" lon="5.94998">
        <ele>2188.4</ele>
        <time>2020-07-12T14:23:08 02:00</time>
      </trkpt>
      <trkpt lat="45.0697" lon="5.95001">
        <ele>2188.6</ele>
        <time>2020-07-12T14:23:16 02:00</time>
      </trkpt>
      <trkpt lat="45.06967" lon="5.95002">
        <ele>2188.6</ele>
        <time>2020-07-12T14:23:19 02:00</time>
      </trkpt>
      <trkpt lat="45.06966" lon="5.95002">
        <ele>2188.6</ele>
        <time>2020-07-12T14:23:20 02:00</time>
      </trkpt>
      <trkpt lat="45.06964" lon="5.95004">
        <ele>2188.8</ele>
        <time>2020-07-12T14:23:24 02:00</time>
      </trkpt>
      <trkpt lat="45.0696" lon="5.95004">
        <ele>2188.6</ele>
        <time>2020-07-12T14:23:28 02:00</time>
      </trkpt>
      <trkpt lat="45.06957" lon="5.95003">
        <ele>2188.6</ele>
        <time>2020-07-12T14:23:32 02:00</time>
      </trkpt>
      <trkpt lat="45.06956" lon="5.95003">
        <ele>2188.8</ele>
        <time>2020-07-12T14:23:34 02:00</time>
      </trkpt>
      <trkpt lat="45.06954" lon="5.95002">
        <ele>2189.2</ele>
        <time>2020-07-12T14:23:37 02:00</time>
      </trkpt>
      <trkpt lat="45.06946" lon="5.95">
        <ele>2188.8</ele>
        <time>2020-07-12T14:25:49 02:00</time>
      </trkpt>
      <trkpt lat="45.06945" lon="5.95">
        <ele>2188.6</ele>
        <time>2020-07-12T14:25:50 02:00</time>
      </trkpt>
      <trkpt lat="45.06943" lon="5.94997">
        <ele>2188.2</ele>
        <time>2020-07-12T14:25:55 02:00</time>
      </trkpt>
      <trkpt lat="45.06941" lon="5.94994">
        <ele>2187.6</ele>
        <time>2020-07-12T14:25:58 02:00</time>
      </trkpt>
      <trkpt lat="45.06939" lon="5.94992">
        <ele>2186.8</ele>
        <time>2020-07-12T14:26:01 02:00</time>
      </trkpt>
      <trkpt lat="45.06938" lon="5.94991">
        <ele>2186.6</ele>
        <time>2020-07-12T14:26:02 02:00</time>
      </trkpt>
      <trkpt lat="45.06937" lon="5.9499">
        <ele>2186.4</ele>
        <time>2020-07-12T14:26:04 02:00</time>
      </trkpt>
      <trkpt lat="45.06934" lon="5.94988">
        <ele>2186</ele>
        <time>2020-07-12T14:26:08 02:00</time>
      </trkpt>
      <trkpt lat="45.06934" lon="5.94987">
        <ele>2185.6</ele>
        <time>2020-07-12T14:26:09 02:00</time>
      </trkpt>
      <trkpt lat="45.06932" lon="5.94982">
        <ele>2185</ele>
        <time>2020-07-12T14:26:13 02:00</time>
      </trkpt>
      <trkpt lat="45.06931" lon="5.94981">
        <ele>2184.4</ele>
        <time>2020-07-12T14:26:14 02:00</time>
      </trkpt>
      <trkpt lat="45.0693" lon="5.9498">
        <ele>2183.8</ele>
        <time>2020-07-12T14:26:15 02:00</time>
      </trkpt>
      <trkpt lat="45.06928" lon="5.94977">
        <ele>2183.2</ele>
        <time>2020-07-12T14:26:18 02:00</time>
      </trkpt>
      <trkpt lat="45.06925" lon="5.94968">
        <ele>2182.4</ele>
        <time>2020-07-12T14:26:28 02:00</time>
      </trkpt>
      <trkpt lat="45.06922" lon="5.94966">
        <ele>2181.8</ele>
        <time>2020-07-12T14:26:31 02:00</time>
      </trkpt>
      <trkpt lat="45.06919" lon="5.94964">
        <ele>2181.2</ele>
        <time>2020-07-12T14:26:34 02:00</time>
      </trkpt>
      <trkpt lat="45.06918" lon="5.94964">
        <ele>2180.6</ele>
        <time>2020-07-12T14:26:35 02:00</time>
      </trkpt>
      <trkpt lat="45.06916" lon="5.94962">
        <ele>2180</ele>
        <time>2020-07-12T14:26:39 02:00</time>
      </trkpt>
      <trkpt lat="45.06913" lon="5.94961">
        <ele>2179.6</ele>
        <time>2020-07-12T14:26:42 02:00</time>
      </trkpt>
      <trkpt lat="45.06912" lon="5.9496">
        <ele>2179.4</ele>
        <time>2020-07-12T14:26:43 02:00</time>
      </trkpt>
      <trkpt lat="45.0691" lon="5.94959">
        <ele>2179.2</ele>
        <time>2020-07-12T14:26:45 02:00</time>
      </trkpt>
      <trkpt lat="45.06904" lon="5.94954">
        <ele>2178.4</ele>
        <time>2020-07-12T14:26:54 02:00</time>
      </trkpt>
      <trkpt lat="45.069" lon="5.94952">
        <ele>2177.8</ele>
        <time>2020-07-12T14:26:58 02:00</time>
      </trkpt>
      <trkpt lat="45.069" lon="5.94951">
        <ele>2177</ele>
        <time>2020-07-12T14:26:59 02:00</time>
      </trkpt>
      <trkpt lat="45.06899" lon="5.94951">
        <ele>2176.2</ele>
        <time>2020-07-12T14:27:00 02:00</time>
      </trkpt>
      <trkpt lat="45.06896" lon="5.94952">
        <ele>2175.4</ele>
        <time>2020-07-12T14:27:03 02:00</time>
      </trkpt>
      <trkpt lat="45.06892" lon="5.94948">
        <ele>2174.8</ele>
        <time>2020-07-12T14:27:11 02:00</time>
      </trkpt>
      <trkpt lat="45.06891" lon="5.94947">
        <ele>2174</ele>
        <time>2020-07-12T14:27:13 02:00</time>
      </trkpt>
      <trkpt lat="45.06889" lon="5.94945">
        <ele>2173.6</ele>
        <time>2020-07-12T14:27:15 02:00</time>
      </trkpt>
      <trkpt lat="45.06888" lon="5.94943">
        <ele>2173.4</ele>
        <time>2020-07-12T14:27:18 02:00</time>
      </trkpt>
      <trkpt lat="45.06888" lon="5.94942">
        <ele>2173.2</ele>
        <time>2020-07-12T14:27:18 02:00</time>
      </trkpt>
      <trkpt lat="45.06886" lon="5.94938">
        <ele>2173.2</ele>
        <time>2020-07-12T14:27:21 02:00</time>
      </trkpt>
      <trkpt lat="45.06884" lon="5.94935">
        <ele>2173.4</ele>
        <time>2020-07-12T14:27:23 02:00</time>
      </trkpt>
      <trkpt lat="45.06884" lon="5.94933">
        <ele>2173.2</ele>
        <time>2020-07-12T14:27:25 02:00</time>
      </trkpt>
      <trkpt lat="45.06882" lon="5.9493">
        <ele>2172.6</ele>
        <time>2020-07-12T14:27:28 02:00</time>
      </trkpt>
      <trkpt lat="45.06879" lon="5.94928">
        <ele>2172</ele>
        <time>2020-07-12T14:27:31 02:00</time>
      </trkpt>
      <trkpt lat="45.06878" lon="5.94923">
        <ele>2171.6</ele>
        <time>2020-07-12T14:27:34 02:00</time>
      </trkpt>
      <trkpt lat="45.06877" lon="5.94919">
        <ele>2171</ele>
        <time>2020-07-12T14:27:37 02:00</time>
      </trkpt>
      <trkpt lat="45.06876" lon="5.94914">
        <ele>2170.6</ele>
        <time>2020-07-12T14:27:41 02:00</time>
      </trkpt>
      <trkpt lat="45.06878" lon="5.9491">
        <ele>2170.6</ele>
        <time>2020-07-12T14:27:45 02:00</time>
      </trkpt>
      <trkpt lat="45.06876" lon="5.94909">
        <ele>2170.4</ele>
        <time>2020-07-12T14:27:47 02:00</time>
      </trkpt>
      <trkpt lat="45.06875" lon="5.94903">
        <ele>2170.4</ele>
        <time>2020-07-12T14:27:52 02:00</time>
      </trkpt>
      <trkpt lat="45.06875" lon="5.94902">
        <ele>2170.6</ele>
        <time>2020-07-12T14:27:53 02:00</time>
      </trkpt>
      <trkpt lat="45.06874" lon="5.94901">
        <ele>2170.8</ele>
        <time>2020-07-12T14:27:54 02:00</time>
      </trkpt>
      <trkpt lat="45.06873" lon="5.94897">
        <ele>2171</ele>
        <time>2020-07-12T14:27:57 02:00</time>
      </trkpt>
      <trkpt lat="45.06872" lon="5.94893">
        <ele>2171.4</ele>
        <time>2020-07-12T14:28:00 02:00</time>
      </trkpt>
      <trkpt lat="45.06871" lon="5.94889">
        <ele>2171.6</ele>
        <time>2020-07-12T14:28:04 02:00</time>
      </trkpt>
      <trkpt lat="45.0687" lon="5.94884">
        <ele>2171.8</ele>
        <time>2020-07-12T14:28:07 02:00</time>
      </trkpt>
      <trkpt lat="45.06869" lon="5.94879">
        <ele>2172</ele>
        <time>2020-07-12T14:28:10 02:00</time>
      </trkpt>
      <trkpt lat="45.06868" lon="5.94874">
        <ele>2172.2</ele>
        <time>2020-07-12T14:28:13 02:00</time>
      </trkpt>
      <trkpt lat="45.06867" lon="5.9487">
        <ele>2172.2</ele>
        <time>2020-07-12T14:28:16 02:00</time>
      </trkpt>
      <trkpt lat="45.06866" lon="5.94867">
        <ele>2172.2</ele>
        <time>2020-07-12T14:28:19 02:00</time>
      </trkpt>
      <trkpt lat="45.06865" lon="5.94865">
        <ele>2172.2</ele>
        <time>2020-07-12T14:28:20 02:00</time>
      </trkpt>
      <trkpt lat="45.06864" lon="5.94861">
        <ele>2172.2</ele>
        <time>2020-07-12T14:28:23 02:00</time>
      </trkpt>
      <trkpt lat="45.06862" lon="5.94858">
        <ele>2171.8</ele>
        <time>2020-07-12T14:28:27 02:00</time>
      </trkpt>
      <trkpt lat="45.06859" lon="5.94855">
        <ele>2171.8</ele>
        <time>2020-07-12T14:28:30 02:00</time>
      </trkpt>
      <trkpt lat="45.06856" lon="5.94854">
        <ele>2171.8</ele>
        <time>2020-07-12T14:28:33 02:00</time>
      </trkpt>
      <trkpt lat="45.06852" lon="5.94851">
        <ele>2171.8</ele>
        <time>2020-07-12T14:28:36 02:00</time>
      </trkpt>
      <trkpt lat="45.0685" lon="5.94848">
        <ele>2171.6</ele>
        <time>2020-07-12T14:28:39 02:00</time>
      </trkpt>
      <trkpt lat="45.06847" lon="5.94844">
        <ele>2171.6</ele>
        <time>2020-07-12T14:28:42 02:00</time>
      </trkpt>
      <trkpt lat="45.06844" lon="5.94842">
        <ele>2171.4</ele>
        <time>2020-07-12T14:28:45 02:00</time>
      </trkpt>
      <trkpt lat="45.06842" lon="5.94838">
        <ele>2171</ele>
        <time>2020-07-12T14:28:49 02:00</time>
      </trkpt>
      <trkpt lat="45.0684" lon="5.94835">
        <ele>2170.2</ele>
        <time>2020-07-12T14:28:53 02:00</time>
      </trkpt>
      <trkpt lat="45.06837" lon="5.94833">
        <ele>2169.4</ele>
        <time>2020-07-12T14:28:57 02:00</time>
      </trkpt>
      <trkpt lat="45.06834" lon="5.94832">
        <ele>2168.6</ele>
        <time>2020-07-12T14:29:00 02:00</time>
      </trkpt>
      <trkpt lat="45.0683" lon="5.94831">
        <ele>2167.6</ele>
        <time>2020-07-12T14:29:03 02:00</time>
      </trkpt>
      <trkpt lat="45.06827" lon="5.94831">
        <ele>2167</ele>
        <time>2020-07-12T14:29:06 02:00</time>
      </trkpt>
      <trkpt lat="45.06824" lon="5.9483">
        <ele>2166.6</ele>
        <time>2020-07-12T14:29:09 02:00</time>
      </trkpt>
      <trkpt lat="45.06821" lon="5.9483">
        <ele>2166.2</ele>
        <time>2020-07-12T14:29:12 02:00</time>
      </trkpt>
      <trkpt lat="45.06818" lon="5.94828">
        <ele>2165.8</ele>
        <time>2020-07-12T14:29:15 02:00</time>
      </trkpt>
      <trkpt lat="45.06815" lon="5.94827">
        <ele>2165.4</ele>
        <time>2020-07-12T14:29:18 02:00</time>
      </trkpt>
      <trkpt lat="45.06811" lon="5.94827">
        <ele>2164.8</ele>
        <time>2020-07-12T14:29:21 02:00</time>
      </trkpt>
      <trkpt lat="45.06809" lon="5.94826">
        <ele>2164.2</ele>
        <time>2020-07-12T14:29:23 02:00</time>
      </trkpt>
      <trkpt lat="45.06807" lon="5.94823">
        <ele>2164</ele>
        <time>2020-07-12T14:29:26 02:00</time>
      </trkpt>
      <trkpt lat="45.06807" lon="5.94822">
        <ele>2163.8</ele>
        <time>2020-07-12T14:29:27 02:00</time>
      </trkpt>
      <trkpt lat="45.06807" lon="5.94822">
        <ele>2163.8</ele>
        <time>2020-07-12T14:29:28 02:00</time>
      </trkpt>
      <trkpt lat="45.06805" lon="5.94817">
        <ele>2164</ele>
        <time>2020-07-12T14:29:32 02:00</time>
      </trkpt>
      <trkpt lat="45.06804" lon="5.94815">
        <ele>2164.6</ele>
        <time>2020-07-12T14:29:34 02:00</time>
      </trkpt>
      <trkpt lat="45.06804" lon="5.94814">
        <ele>2165</ele>
        <time>2020-07-12T14:29:36 02:00</time>
      </trkpt>
      <trkpt lat="45.06802" lon="5.94809">
        <ele>2165.4</ele>
        <time>2020-07-12T14:29:40 02:00</time>
      </trkpt>
      <trkpt lat="45.068" lon="5.94804">
        <ele>2165.8</ele>
        <time>2020-07-12T14:29:44 02:00</time>
      </trkpt>
      <trkpt lat="45.068" lon="5.94802">
        <ele>2166</ele>
        <time>2020-07-12T14:29:47 02:00</time>
      </trkpt>
      <trkpt lat="45.068" lon="5.94801">
        <ele>2166.2</ele>
        <time>2020-07-12T14:29:57 02:00</time>
      </trkpt>
      <trkpt lat="45.06799" lon="5.94797">
        <ele>2166.4</ele>
        <time>2020-07-12T14:30:00 02:00</time>
      </trkpt>
      <trkpt lat="45.06797" lon="5.94795">
        <ele>2166.6</ele>
        <time>2020-07-12T14:30:03 02:00</time>
      </trkpt>
      <trkpt lat="45.06795" lon="5.94791">
        <ele>2166.6</ele>
        <time>2020-07-12T14:30:06 02:00</time>
      </trkpt>
      <trkpt lat="45.06794" lon="5.9479">
        <ele>2166.6</ele>
        <time>2020-07-12T14:30:08 02:00</time>
      </trkpt>
      <trkpt lat="45.06793" lon="5.94789">
        <ele>2166.2</ele>
        <time>2020-07-12T14:30:09 02:00</time>
      </trkpt>
      <trkpt lat="45.06791" lon="5.94787">
        <ele>2165.8</ele>
        <time>2020-07-12T14:30:11 02:00</time>
      </trkpt>
      <trkpt lat="45.06791" lon="5.94786">
        <ele>2165.4</ele>
        <time>2020-07-12T14:30:12 02:00</time>
      </trkpt>
      <trkpt lat="45.06788" lon="5.94783">
        <ele>2165.2</ele>
        <time>2020-07-12T14:30:15 02:00</time>
      </trkpt>
      <trkpt lat="45.06786" lon="5.9478">
        <ele>2165</ele>
        <time>2020-07-12T14:30:18 02:00</time>
      </trkpt>
      <trkpt lat="45.06783" lon="5.94777">
        <ele>2165</ele>
        <time>2020-07-12T14:30:21 02:00</time>
      </trkpt>
      <trkpt lat="45.06781" lon="5.94774">
        <ele>2164.8</ele>
        <time>2020-07-12T14:30:24 02:00</time>
      </trkpt>
      <trkpt lat="45.06778" lon="5.94773">
        <ele>2164.6</ele>
        <time>2020-07-12T14:30:27 02:00</time>
      </trkpt>
      <trkpt lat="45.06776" lon="5.94771">
        <ele>2164.4</ele>
        <time>2020-07-12T14:30:30 02:00</time>
      </trkpt>
      <trkpt lat="45.06775" lon="5.9477">
        <ele>2164.2</ele>
        <time>2020-07-12T14:30:32 02:00</time>
      </trkpt>
      <trkpt lat="45.06775" lon="5.9477">
        <ele>2164</ele>
        <time>2020-07-12T14:30:33 02:00</time>
      </trkpt>
      <trkpt lat="45.06774" lon="5.94769">
        <ele>2163.8</ele>
        <time>2020-07-12T14:30:34 02:00</time>
      </trkpt>
      <trkpt lat="45.06773" lon="5.94768">
        <ele>2163.6</ele>
        <time>2020-07-12T14:30:36 02:00</time>
      </trkpt>
      <trkpt lat="45.0677" lon="5.94766">
        <ele>2163.4</ele>
        <time>2020-07-12T14:30:40 02:00</time>
      </trkpt>
      <trkpt lat="45.06769" lon="5.94764">
        <ele>2163.2</ele>
        <time>2020-07-12T14:30:43 02:00</time>
      </trkpt>
      <trkpt lat="45.06767" lon="5.94761">
        <ele>2163</ele>
        <time>2020-07-12T14:30:46 02:00</time>
      </trkpt>
      <trkpt lat="45.06765" lon="5.94758">
        <ele>2162.8</ele>
        <time>2020-07-12T14:30:49 02:00</time>
      </trkpt>
      <trkpt lat="45.06763" lon="5.94756">
        <ele>2162.6</ele>
        <time>2020-07-12T14:30:52 02:00</time>
      </trkpt>
      <trkpt lat="45.06762" lon="5.94754">
        <ele>2162.4</ele>
        <time>2020-07-12T14:30:53 02:00</time>
      </trkpt>
      <trkpt lat="45.06759" lon="5.94752">
        <ele>2162</ele>
        <time>2020-07-12T14:30:56 02:00</time>
      </trkpt>
      <trkpt lat="45.06758" lon="5.94751">
        <ele>2161.6</ele>
        <time>2020-07-12T14:30:58 02:00</time>
      </trkpt>
      <trkpt lat="45.06757" lon="5.94751">
        <ele>2161.4</ele>
        <time>2020-07-12T14:30:59 02:00</time>
      </trkpt>
      <trkpt lat="45.06756" lon="5.9475">
        <ele>2161.2</ele>
        <time>2020-07-12T14:31:00 02:00</time>
      </trkpt>
      <trkpt lat="45.06755" lon="5.94749">
        <ele>2161</ele>
        <time>2020-07-12T14:31:01 02:00</time>
      </trkpt>
      <trkpt lat="45.06755" lon="5.94748">
        <ele>2160.8</ele>
        <time>2020-07-12T14:31:02 02:00</time>
      </trkpt>
      <trkpt lat="45.06755" lon="5.94747">
        <ele>2160.6</ele>
        <time>2020-07-12T14:31:03 02:00</time>
      </trkpt>
      <trkpt lat="45.06752" lon="5.94744">
        <ele>2160.4</ele>
        <time>2020-07-12T14:31:07 02:00</time>
      </trkpt>
      <trkpt lat="45.0675" lon="5.94741">
        <ele>2160.2</ele>
        <time>2020-07-12T14:31:10 02:00</time>
      </trkpt>
      <trkpt lat="45.06747" lon="5.94737">
        <ele>2160</ele>
        <time>2020-07-12T14:31:13 02:00</time>
      </trkpt>
      <trkpt lat="45.06745" lon="5.94734">
        <ele>2159.8</ele>
        <time>2020-07-12T14:31:16 02:00</time>
      </trkpt>
      <trkpt lat="45.06744" lon="5.94732">
        <ele>2159.6</ele>
        <time>2020-07-12T14:31:18 02:00</time>
      </trkpt>
      <trkpt lat="45.06743" lon="5.94732">
        <ele>2159.4</ele>
        <time>2020-07-12T14:31:20 02:00</time>
      </trkpt>
      <trkpt lat="45.06741" lon="5.94728">
        <ele>2159</ele>
        <time>2020-07-12T14:31:23 02:00</time>
      </trkpt>
      <trkpt lat="45.06737" lon="5.94727">
        <ele>2158.6</ele>
        <time>2020-07-12T14:31:27 02:00</time>
      </trkpt>
      <trkpt lat="45.06734" lon="5.94725">
        <ele>2158.4</ele>
        <time>2020-07-12T14:31:30 02:00</time>
      </trkpt>
      <trkpt lat="45.06732" lon="5.94721">
        <ele>2158</ele>
        <time>2020-07-12T14:31:33 02:00</time>
      </trkpt>
      <trkpt lat="45.0673" lon="5.94719">
        <ele>2157.6</ele>
        <time>2020-07-12T14:31:36 02:00</time>
      </trkpt>
      <trkpt lat="45.0673" lon="5.94718">
        <ele>2157.4</ele>
        <time>2020-07-12T14:31:37 02:00</time>
      </trkpt>
      <trkpt lat="45.06729" lon="5.94718">
        <ele>2157.2</ele>
        <time>2020-07-12T14:31:39 02:00</time>
      </trkpt>
      <trkpt lat="45.06728" lon="5.94717">
        <ele>2156.8</ele>
        <time>2020-07-12T14:31:40 02:00</time>
      </trkpt>
      <trkpt lat="45.06726" lon="5.94715">
        <ele>2156.6</ele>
        <time>2020-07-12T14:31:42 02:00</time>
      </trkpt>
      <trkpt lat="45.06725" lon="5.94715">
        <ele>2156.6</ele>
        <time>2020-07-12T14:31:43 02:00</time>
      </trkpt>
      <trkpt lat="45.06725" lon="5.94714">
        <ele>2156.6</ele>
        <time>2020-07-12T14:31:44 02:00</time>
      </trkpt>
      <trkpt lat="45.06724" lon="5.94713">
        <ele>2156.6</ele>
        <time>2020-07-12T14:31:46 02:00</time>
      </trkpt>
      <trkpt lat="45.06722" lon="5.94709">
        <ele>2156.6</ele>
        <time>2020-07-12T14:31:49 02:00</time>
      </trkpt>
      <trkpt lat="45.0672" lon="5.94704">
        <ele>2156.6</ele>
        <time>2020-07-12T14:31:52 02:00</time>
      </trkpt>
      <trkpt lat="45.0672" lon="5.947">
        <ele>2156.4</ele>
        <time>2020-07-12T14:31:55 02:00</time>
      </trkpt>
      <trkpt lat="45.06718" lon="5.94696">
        <ele>2156</ele>
        <time>2020-07-12T14:31:58 02:00</time>
      </trkpt>
      <trkpt lat="45.06717" lon="5.94691">
        <ele>2155.6</ele>
        <time>2020-07-12T14:32:01 02:00</time>
      </trkpt>
      <trkpt lat="45.06716" lon="5.94688">
        <ele>2155.2</ele>
        <time>2020-07-12T14:32:04 02:00</time>
      </trkpt>
      <trkpt lat="45.06716" lon="5.94684">
        <ele>2154.8</ele>
        <time>2020-07-12T14:32:07 02:00</time>
      </trkpt>
      <trkpt lat="45.06715" lon="5.94679">
        <ele>2154.4</ele>
        <time>2020-07-12T14:32:10 02:00</time>
      </trkpt>
      <trkpt lat="45.06715" lon="5.94676">
        <ele>2154.2</ele>
        <time>2020-07-12T14:32:13 02:00</time>
      </trkpt>
      <trkpt lat="45.06713" lon="5.94671">
        <ele>2153.8</ele>
        <time>2020-07-12T14:32:17 02:00</time>
      </trkpt>
      <trkpt lat="45.06712" lon="5.9467">
        <ele>2153.6</ele>
        <time>2020-07-12T14:32:19 02:00</time>
      </trkpt>
      <trkpt lat="45.0671" lon="5.94668">
        <ele>2153.2</ele>
        <time>2020-07-12T14:32:22 02:00</time>
      </trkpt>
      <trkpt lat="45.06706" lon="5.94664">
        <ele>2152.8</ele>
        <time>2020-07-12T14:32:25 02:00</time>
      </trkpt>
      <trkpt lat="45.06705" lon="5.94662">
        <ele>2152.2</ele>
        <time>2020-07-12T14:32:27 02:00</time>
      </trkpt>
      <trkpt lat="45.06704" lon="5.9466">
        <ele>2151.8</ele>
        <time>2020-07-12T14:32:29 02:00</time>
      </trkpt>
      <trkpt lat="45.06702" lon="5.94657">
        <ele>2151.6</ele>
        <time>2020-07-12T14:32:32 02:00</time>
      </trkpt>
      <trkpt lat="45.06698" lon="5.94653">
        <ele>2151.4</ele>
        <time>2020-07-12T14:32:37 02:00</time>
      </trkpt>
      <trkpt lat="45.06697" lon="5.9465">
        <ele>2151</ele>
        <time>2020-07-12T14:32:40 02:00</time>
      </trkpt>
      <trkpt lat="45.06696" lon="5.94645">
        <ele>2150.8</ele>
        <time>2020-07-12T14:32:43 02:00</time>
      </trkpt>
      <trkpt lat="45.06694" lon="5.94641">
        <ele>2150.6</ele>
        <time>2020-07-12T14:32:46 02:00</time>
      </trkpt>
      <trkpt lat="45.06693" lon="5.94637">
        <ele>2150</ele>
        <time>2020-07-12T14:32:49 02:00</time>
      </trkpt>
      <trkpt lat="45.06691" lon="5.94633">
        <ele>2149.6</ele>
        <time>2020-07-12T14:32:53 02:00</time>
      </trkpt>
      <trkpt lat="45.06691" lon="5.94632">
        <ele>2149.4</ele>
        <time>2020-07-12T14:32:54 02:00</time>
      </trkpt>
      <trkpt lat="45.0669" lon="5.9463">
        <ele>2149.2</ele>
        <time>2020-07-12T14:32:55 02:00</time>
      </trkpt>
      <trkpt lat="45.06688" lon="5.94627">
        <ele>2148.8</ele>
        <time>2020-07-12T14:32:58 02:00</time>
      </trkpt>
      <trkpt lat="45.06686" lon="5.94625">
        <ele>2148.4</ele>
        <time>2020-07-12T14:33:01 02:00</time>
      </trkpt>
      <trkpt lat="45.06684" lon="5.94624">
        <ele>2148</ele>
        <time>2020-07-12T14:33:03 02:00</time>
      </trkpt>
      <trkpt lat="45.06683" lon="5.94621">
        <ele>2147.6</ele>
        <time>2020-07-12T14:33:06 02:00</time>
      </trkpt>
      <trkpt lat="45.06683" lon="5.9462">
        <ele>2147.2</ele>
        <time>2020-07-12T14:33:07 02:00</time>
      </trkpt>
      <trkpt lat="45.06681" lon="5.94619">
        <ele>2147</ele>
        <time>2020-07-12T14:33:08 02:00</time>
      </trkpt>
      <trkpt lat="45.06681" lon="5.94618">
        <ele>2147</ele>
        <time>2020-07-12T14:33:09 02:00</time>
      </trkpt>
      <trkpt lat="45.0668" lon="5.94617">
        <ele>2147</ele>
        <time>2020-07-12T14:33:10 02:00</time>
      </trkpt>
      <trkpt lat="45.06678" lon="5.94615">
        <ele>2147</ele>
        <time>2020-07-12T14:33:13 02:00</time>
      </trkpt>
      <trkpt lat="45.06675" lon="5.94614">
        <ele>2146.8</ele>
        <time>2020-07-12T14:33:16 02:00</time>
      </trkpt>
      <trkpt lat="45.06675" lon="5.94614">
        <ele>2146.6</ele>
        <time>2020-07-12T14:33:18 02:00</time>
      </trkpt>
      <trkpt lat="45.06672" lon="5.9461">
        <ele>2146.4</ele>
        <time>2020-07-12T14:33:21 02:00</time>
      </trkpt>
      <trkpt lat="45.06671" lon="5.94607">
        <ele>2146.2</ele>
        <time>2020-07-12T14:33:24 02:00</time>
      </trkpt>
      <trkpt lat="45.06669" lon="5.94603">
        <ele>2145.8</ele>
        <time>2020-07-12T14:33:27 02:00</time>
      </trkpt>
      <trkpt lat="45.06667" lon="5.94599">
        <ele>2145.6</ele>
        <time>2020-07-12T14:33:31 02:00</time>
      </trkpt>
      <trkpt lat="45.06665" lon="5.94595">
        <ele>2145.4</ele>
        <time>2020-07-12T14:33:34 02:00</time>
      </trkpt>
      <trkpt lat="45.06664" lon="5.9459">
        <ele>2145</ele>
        <time>2020-07-12T14:33:38 02:00</time>
      </trkpt>
      <trkpt lat="45.06661" lon="5.94584">
        <ele>2144.6</ele>
        <time>2020-07-12T14:33:42 02:00</time>
      </trkpt>
      <trkpt lat="45.0666" lon="5.94581">
        <ele>2144.2</ele>
        <time>2020-07-12T14:33:45 02:00</time>
      </trkpt>
      <trkpt lat="45.06659" lon="5.94577">
        <ele>2143.8</ele>
        <time>2020-07-12T14:33:48 02:00</time>
      </trkpt>
      <trkpt lat="45.06659" lon="5.94574">
        <ele>2143.4</ele>
        <time>2020-07-12T14:33:50 02:00</time>
      </trkpt>
      <trkpt lat="45.06657" lon="5.94569">
        <ele>2143</ele>
        <time>2020-07-12T14:33:54 02:00</time>
      </trkpt>
      <trkpt lat="45.06656" lon="5.94567">
        <ele>2142.4</ele>
        <time>2020-07-12T14:33:56 02:00</time>
      </trkpt>
      <trkpt lat="45.06654" lon="5.94565">
        <ele>2142</ele>
        <time>2020-07-12T14:33:58 02:00</time>
      </trkpt>
      <trkpt lat="45.06653" lon="5.94563">
        <ele>2141.4</ele>
        <time>2020-07-12T14:34:01 02:00</time>
      </trkpt>
      <trkpt lat="45.06651" lon="5.94561">
        <ele>2140.8</ele>
        <time>2020-07-12T14:34:03 02:00</time>
      </trkpt>
      <trkpt lat="45.0665" lon="5.94556">
        <ele>2140.4</ele>
        <time>2020-07-12T14:34:06 02:00</time>
      </trkpt>
      <trkpt lat="45.06649" lon="5.94553">
        <ele>2140</ele>
        <time>2020-07-12T14:34:09 02:00</time>
      </trkpt>
      <trkpt lat="45.06648" lon="5.94552">
        <ele>2139.6</ele>
        <time>2020-07-12T14:34:10 02:00</time>
      </trkpt>
      <trkpt lat="45.06645" lon="5.94548">
        <ele>2139.2</ele>
        <time>2020-07-12T14:34:13 02:00</time>
      </trkpt>
      <trkpt lat="45.06644" lon="5.94545">
        <ele>2138.8</ele>
        <time>2020-07-12T14:34:16 02:00</time>
      </trkpt>
      <trkpt lat="45.06644" lon="5.94541">
        <ele>2138.2</ele>
        <time>2020-07-12T14:34:19 02:00</time>
      </trkpt>
      <trkpt lat="45.06643" lon="5.94537">
        <ele>2137.8</ele>
        <time>2020-07-12T14:34:22 02:00</time>
      </trkpt>
      <trkpt lat="45.0664" lon="5.94533">
        <ele>2137.4</ele>
        <time>2020-07-12T14:34:26 02:00</time>
      </trkpt>
      <trkpt lat="45.06637" lon="5.94529">
        <ele>2137</ele>
        <time>2020-07-12T14:34:30 02:00</time>
      </trkpt>
      <trkpt lat="45.06636" lon="5.94524">
        <ele>2136.6</ele>
        <time>2020-07-12T14:34:33 02:00</time>
      </trkpt>
      <trkpt lat="45.06634" lon="5.9452">
        <ele>2136.2</ele>
        <time>2020-07-12T14:34:36 02:00</time>
      </trkpt>
      <trkpt lat="45.06631" lon="5.94516">
        <ele>2135.8</ele>
        <time>2020-07-12T14:34:39 02:00</time>
      </trkpt>
      <trkpt lat="45.0663" lon="5.94514">
        <ele>2135.6</ele>
        <time>2020-07-12T14:34:41 02:00</time>
      </trkpt>
      <trkpt lat="45.06629" lon="5.94513">
        <ele>2135.6</ele>
        <time>2020-07-12T14:34:42 02:00</time>
      </trkpt>
      <trkpt lat="45.06628" lon="5.94511">
        <ele>2135.6</ele>
        <time>2020-07-12T14:34:44 02:00</time>
      </trkpt>
      <trkpt lat="45.06627" lon="5.94511">
        <ele>2135.8</ele>
        <time>2020-07-12T14:34:45 02:00</time>
      </trkpt>
      <trkpt lat="45.06624" lon="5.94508">
        <ele>2135.6</ele>
        <time>2020-07-12T14:34:48 02:00</time>
      </trkpt>
      <trkpt lat="45.06621" lon="5.94506">
        <ele>2135.4</ele>
        <time>2020-07-12T14:34:51 02:00</time>
      </trkpt>
      <trkpt lat="45.06619" lon="5.94504">
        <ele>2135</ele>
        <time>2020-07-12T14:34:54 02:00</time>
      </trkpt>
      <trkpt lat="45.06615" lon="5.94501">
        <ele>2134.6</ele>
        <time>2020-07-12T14:34:57 02:00</time>
      </trkpt>
      <trkpt lat="45.06613" lon="5.94499">
        <ele>2134.2</ele>
        <time>2020-07-12T14:35:00 02:00</time>
      </trkpt>
      <trkpt lat="45.06611" lon="5.94495">
        <ele>2134.2</ele>
        <time>2020-07-12T14:35:03 02:00</time>
      </trkpt>
      <trkpt lat="45.06611" lon="5.9449">
        <ele>2133.8</ele>
        <time>2020-07-12T14:35:06 02:00</time>
      </trkpt>
      <trkpt lat="45.06609" lon="5.94486">
        <ele>2133.6</ele>
        <time>2020-07-12T14:35:09 02:00</time>
      </trkpt>
      <trkpt lat="45.06607" lon="5.94483">
        <ele>2133.2</ele>
        <time>2020-07-12T14:35:12 02:00</time>
      </trkpt>
      <trkpt lat="45.06607" lon="5.94478">
        <ele>2132.8</ele>
        <time>2020-07-12T14:35:15 02:00</time>
      </trkpt>
      <trkpt lat="45.06606" lon="5.94473">
        <ele>2132.2</ele>
        <time>2020-07-12T14:35:18 02:00</time>
      </trkpt>
      <trkpt lat="45.06607" lon="5.94469">
        <ele>2131.6</ele>
        <time>2020-07-12T14:35:21 02:00</time>
      </trkpt>
      <trkpt lat="45.06606" lon="5.94465">
        <ele>2131</ele>
        <time>2020-07-12T14:35:25 02:00</time>
      </trkpt>
      <trkpt lat="45.06606" lon="5.94464">
        <ele>2130.6</ele>
        <time>2020-07-12T14:35:26 02:00</time>
      </trkpt>
      <trkpt lat="45.06606" lon="5.94463">
        <ele>2130.2</ele>
        <time>2020-07-12T14:35:29 02:00</time>
      </trkpt>
      <trkpt lat="45.06606" lon="5.94462">
        <ele>2130</ele>
        <time>2020-07-12T14:35:30 02:00</time>
      </trkpt>
      <trkpt lat="45.06606" lon="5.94461">
        <ele>2130</ele>
        <time>2020-07-12T14:35:31 02:00</time>
      </trkpt>
      <trkpt lat="45.06604" lon="5.94457">
        <ele>2130</ele>
        <time>2020-07-12T14:35:34 02:00</time>
      </trkpt>
      <trkpt lat="45.06603" lon="5.94456">
        <ele>2130</ele>
        <time>2020-07-12T14:35:35 02:00</time>
      </trkpt>
      <trkpt lat="45.06603" lon="5.94452">
        <ele>2129.8</ele>
        <time>2020-07-12T14:35:39 02:00</time>
      </trkpt>
      <trkpt lat="45.06603" lon="5.9445">
        <ele>2129.6</ele>
        <time>2020-07-12T14:35:41 02:00</time>
      </trkpt>
      <trkpt lat="45.06602" lon="5.94449">
        <ele>2129.4</ele>
        <time>2020-07-12T14:35:42 02:00</time>
      </trkpt>
      <trkpt lat="45.06601" lon="5.94446">
        <ele>2129.4</ele>
        <time>2020-07-12T14:35:44 02:00</time>
      </trkpt>
      <trkpt lat="45.06599" lon="5.94443">
        <ele>2129.2</ele>
        <time>2020-07-12T14:35:47 02:00</time>
      </trkpt>
      <trkpt lat="45.06598" lon="5.94439">
        <ele>2129.2</ele>
        <time>2020-07-12T14:35:50 02:00</time>
      </trkpt>
      <trkpt lat="45.06597" lon="5.94438">
        <ele>2129.2</ele>
        <time>2020-07-12T14:35:52 02:00</time>
      </trkpt>
      <trkpt lat="45.06595" lon="5.94437">
        <ele>2129.4</ele>
        <time>2020-07-12T14:35:55 02:00</time>
      </trkpt>
      <trkpt lat="45.06593" lon="5.94434">
        <ele>2129.6</ele>
        <time>2020-07-12T14:35:59 02:00</time>
      </trkpt>
      <trkpt lat="45.06591" lon="5.94431">
        <ele>2129.8</ele>
        <time>2020-07-12T14:36:02 02:00</time>
      </trkpt>
      <trkpt lat="45.06589" lon="5.94428">
        <ele>2130</ele>
        <time>2020-07-12T14:36:05 02:00</time>
      </trkpt>
      <trkpt lat="45.06588" lon="5.94426">
        <ele>2130.2</ele>
        <time>2020-07-12T14:36:08 02:00</time>
      </trkpt>
      <trkpt lat="45.06586" lon="5.94424">
        <ele>2130.2</ele>
        <time>2020-07-12T14:36:10 02:00</time>
      </trkpt>
      <trkpt lat="45.06586" lon="5.94423">
        <ele>2130</ele>
        <time>2020-07-12T14:36:11 02:00</time>
      </trkpt>
      <trkpt lat="45.06585" lon="5.94422">
        <ele>2130</ele>
        <time>2020-07-12T14:36:12 02:00</time>
      </trkpt>
      <trkpt lat="45.06583" lon="5.94418">
        <ele>2130.2</ele>
        <time>2020-07-12T14:36:15 02:00</time>
      </trkpt>
      <trkpt lat="45.06581" lon="5.94416">
        <ele>2130.4</ele>
        <time>2020-07-12T14:36:19 02:00</time>
      </trkpt>
      <trkpt lat="45.0658" lon="5.94414">
        <ele>2130.6</ele>
        <time>2020-07-12T14:36:21 02:00</time>
      </trkpt>
      <trkpt lat="45.06578" lon="5.94413">
        <ele>2130.8</ele>
        <time>2020-07-12T14:36:23 02:00</time>
      </trkpt>
      <trkpt lat="45.06577" lon="5.94411">
        <ele>2131</ele>
        <time>2020-07-12T14:36:26 02:00</time>
      </trkpt>
      <trkpt lat="45.06576" lon="5.9441">
        <ele>2131</ele>
        <time>2020-07-12T14:36:27 02:00</time>
      </trkpt>
      <trkpt lat="45.06574" lon="5.94407">
        <ele>2131</ele>
        <time>2020-07-12T14:36:29 02:00</time>
      </trkpt>
      <trkpt lat="45.0657" lon="5.94404">
        <ele>2131.2</ele>
        <time>2020-07-12T14:36:33 02:00</time>
      </trkpt>
      <trkpt lat="45.06568" lon="5.94402">
        <ele>2131.6</ele>
        <time>2020-07-12T14:36:36 02:00</time>
      </trkpt>
      <trkpt lat="45.06564" lon="5.94399">
        <ele>2132</ele>
        <time>2020-07-12T14:36:40 02:00</time>
      </trkpt>
      <trkpt lat="45.06561" lon="5.94397">
        <ele>2132.6</ele>
        <time>2020-07-12T14:36:44 02:00</time>
      </trkpt>
      <trkpt lat="45.06558" lon="5.94394">
        <ele>2133.2</ele>
        <time>2020-07-12T14:36:47 02:00</time>
      </trkpt>
      <trkpt lat="45.06557" lon="5.9439">
        <ele>2133.6</ele>
        <time>2020-07-12T14:36:50 02:00</time>
      </trkpt>
      <trkpt lat="45.06555" lon="5.94386">
        <ele>2133.8</ele>
        <time>2020-07-12T14:36:53 02:00</time>
      </trkpt>
      <trkpt lat="45.06553" lon="5.94381">
        <ele>2133.8</ele>
        <time>2020-07-12T14:36:57 02:00</time>
      </trkpt>
      <trkpt lat="45.06551" lon="5.94377">
        <ele>2133.6</ele>
        <time>2020-07-12T14:37:00 02:00</time>
      </trkpt>
      <trkpt lat="45.06549" lon="5.94374">
        <ele>2133.2</ele>
        <time>2020-07-12T14:37:03 02:00</time>
      </trkpt>
      <trkpt lat="45.06546" lon="5.9437">
        <ele>2132.6</ele>
        <time>2020-07-12T14:37:06 02:00</time>
      </trkpt>
      <trkpt lat="45.06545" lon="5.94366">
        <ele>2132</ele>
        <time>2020-07-12T14:37:09 02:00</time>
      </trkpt>
      <trkpt lat="45.06543" lon="5.94361">
        <ele>2131.6</ele>
        <time>2020-07-12T14:37:14 02:00</time>
      </trkpt>
      <trkpt lat="45.06541" lon="5.94357">
        <ele>2131.2</ele>
        <time>2020-07-12T14:37:17 02:00</time>
      </trkpt>
      <trkpt lat="45.0654" lon="5.94353">
        <ele>2130.8</ele>
        <time>2020-07-12T14:37:20 02:00</time>
      </trkpt>
      <trkpt lat="45.06538" lon="5.94349">
        <ele>2130.6</ele>
        <time>2020-07-12T14:37:23 02:00</time>
      </trkpt>
      <trkpt lat="45.06537" lon="5.94344">
        <ele>2130.4</ele>
        <time>2020-07-12T14:37:27 02:00</time>
      </trkpt>
      <trkpt lat="45.06535" lon="5.94341">
        <ele>2130.2</ele>
        <time>2020-07-12T14:37:30 02:00</time>
      </trkpt>
      <trkpt lat="45.06535" lon="5.94336">
        <ele>2130</ele>
        <time>2020-07-12T14:37:33 02:00</time>
      </trkpt>
      <trkpt lat="45.06535" lon="5.94332">
        <ele>2130</ele>
        <time>2020-07-12T14:37:36 02:00</time>
      </trkpt>
      <trkpt lat="45.06535" lon="5.94328">
        <ele>2130</ele>
        <time>2020-07-12T14:37:39 02:00</time>
      </trkpt>
      <trkpt lat="45.06533" lon="5.94324">
        <ele>2130</ele>
        <time>2020-07-12T14:37:42 02:00</time>
      </trkpt>
      <trkpt lat="45.06531" lon="5.94319">
        <ele>2130</ele>
        <time>2020-07-12T14:37:46 02:00</time>
      </trkpt>
      <trkpt lat="45.06529" lon="5.94314">
        <ele>2130</ele>
        <time>2020-07-12T14:37:50 02:00</time>
      </trkpt>
      <trkpt lat="45.06527" lon="5.94308">
        <ele>2130</ele>
        <time>2020-07-12T14:37:55 02:00</time>
      </trkpt>
      <trkpt lat="45.06527" lon="5.94303">
        <ele>2130</ele>
        <time>2020-07-12T14:37:58 02:00</time>
      </trkpt>
      <trkpt lat="45.06525" lon="5.94299">
        <ele>2130</ele>
        <time>2020-07-12T14:38:01 02:00</time>
      </trkpt>
      <trkpt lat="45.06524" lon="5.94297">
        <ele>2129.8</ele>
        <time>2020-07-12T14:38:04 02:00</time>
      </trkpt>
      <trkpt lat="45.06524" lon="5.94296">
        <ele>2129.6</ele>
        <time>2020-07-12T14:38:05 02:00</time>
      </trkpt>
      <trkpt lat="45.06522" lon="5.94293">
        <ele>2129.4</ele>
        <time>2020-07-12T14:38:07 02:00</time>
      </trkpt>
      <trkpt lat="45.0652" lon="5.94289">
        <ele>2129</ele>
        <time>2020-07-12T14:38:10 02:00</time>
      </trkpt>
      <trkpt lat="45.06519" lon="5.94287">
        <ele>2128.6</ele>
        <time>2020-07-12T14:38:12 02:00</time>
      </trkpt>
      <trkpt lat="45.06518" lon="5.94287">
        <ele>2128.4</ele>
        <time>2020-07-12T14:38:13 02:00</time>
      </trkpt>
      <trkpt lat="45.06517" lon="5.94285">
        <ele>2128.2</ele>
        <time>2020-07-12T14:38:15 02:00</time>
      </trkpt>
      <trkpt lat="45.06517" lon="5.94284">
        <ele>2127.8</ele>
        <time>2020-07-12T14:38:16 02:00</time>
      </trkpt>
      <trkpt lat="45.06515" lon="5.9428">
        <ele>2127.4</ele>
        <time>2020-07-12T14:38:18 02:00</time>
      </trkpt>
      <trkpt lat="45.06514" lon="5.94277">
        <ele>2127</ele>
        <time>2020-07-12T14:38:21 02:00</time>
      </trkpt>
      <trkpt lat="45.06513" lon="5.94273">
        <ele>2126.6</ele>
        <time>2020-07-12T14:38:24 02:00</time>
      </trkpt>
      <trkpt lat="45.06512" lon="5.94269">
        <ele>2126.2</ele>
        <time>2020-07-12T14:38:27 02:00</time>
      </trkpt>
      <trkpt lat="45.06511" lon="5.94264">
        <ele>2126</ele>
        <time>2020-07-12T14:38:30 02:00</time>
      </trkpt>
      <trkpt lat="45.0651" lon="5.94259">
        <ele>2125.8</ele>
        <time>2020-07-12T14:38:34 02:00</time>
      </trkpt>
      <trkpt lat="45.06507" lon="5.94255">
        <ele>2125.6</ele>
        <time>2020-07-12T14:38:37 02:00</time>
      </trkpt>
      <trkpt lat="45.06505" lon="5.94252">
        <ele>2125.4</ele>
        <time>2020-07-12T14:38:41 02:00</time>
      </trkpt>
      <trkpt lat="45.06503" lon="5.94249">
        <ele>2125.2</ele>
        <time>2020-07-12T14:38:45 02:00</time>
      </trkpt>
      <trkpt lat="45.06501" lon="5.94246">
        <ele>2125</ele>
        <time>2020-07-12T14:38:48 02:00</time>
      </trkpt>
      <trkpt lat="45.06498" lon="5.9424">
        <ele>2124.8</ele>
        <time>2020-07-12T14:39:02 02:00</time>
      </trkpt>
      <trkpt lat="45.06496" lon="5.94237">
        <ele>2124.6</ele>
        <time>2020-07-12T14:39:06 02:00</time>
      </trkpt>
      <trkpt lat="45.06495" lon="5.94233">
        <ele>2124.6</ele>
        <time>2020-07-12T14:39:10 02:00</time>
      </trkpt>
      <trkpt lat="45.06495" lon="5.94233">
        <ele>2124.4</ele>
        <time>2020-07-12T14:39:11 02:00</time>
      </trkpt>
      <trkpt lat="45.06491" lon="5.94229">
        <ele>2124.4</ele>
        <time>2020-07-12T14:39:16 02:00</time>
      </trkpt>
      <trkpt lat="45.0649" lon="5.94227">
        <ele>2124.4</ele>
        <time>2020-07-12T14:39:19 02:00</time>
      </trkpt>
      <trkpt lat="45.0649" lon="5.94223">
        <ele>2124.4</ele>
        <time>2020-07-12T14:39:22 02:00</time>
      </trkpt>
      <trkpt lat="45.0649" lon="5.94221">
        <ele>2124.2</ele>
        <time>2020-07-12T14:39:24 02:00</time>
      </trkpt>
      <trkpt lat="45.06488" lon="5.94218">
        <ele>2124.2</ele>
        <time>2020-07-12T14:39:27 02:00</time>
      </trkpt>
      <trkpt lat="45.06488" lon="5.94217">
        <ele>2124.2</ele>
        <time>2020-07-12T14:39:28 02:00</time>
      </trkpt>
      <trkpt lat="45.06486" lon="5.94213">
        <ele>2124.2</ele>
        <time>2020-07-12T14:39:32 02:00</time>
      </trkpt>
      <trkpt lat="45.06484" lon="5.9421">
        <ele>2124.2</ele>
        <time>2020-07-12T14:39:35 02:00</time>
      </trkpt>
      <trkpt lat="45.06482" lon="5.94206">
        <ele>2124</ele>
        <time>2020-07-12T14:39:39 02:00</time>
      </trkpt>
      <trkpt lat="45.06483" lon="5.94201">
        <ele>2123.8</ele>
        <time>2020-07-12T14:39:43 02:00</time>
      </trkpt>
      <trkpt lat="45.06483" lon="5.94197">
        <ele>2123.2</ele>
        <time>2020-07-12T14:39:46 02:00</time>
      </trkpt>
      <trkpt lat="45.06484" lon="5.94193">
        <ele>2122.6</ele>
        <time>2020-07-12T14:39:49 02:00</time>
      </trkpt>
      <trkpt lat="45.06484" lon="5.94188">
        <ele>2121.8</ele>
        <time>2020-07-12T14:39:52 02:00</time>
      </trkpt>
      <trkpt lat="45.06482" lon="5.94184">
        <ele>2121.2</ele>
        <time>2020-07-12T14:39:55 02:00</time>
      </trkpt>
      <trkpt lat="45.0648" lon="5.9418">
        <ele>2120.6</ele>
        <time>2020-07-12T14:40:00 02:00</time>
      </trkpt>
      <trkpt lat="45.06479" lon="5.94176">
        <ele>2120</ele>
        <time>2020-07-12T14:40:03 02:00</time>
      </trkpt>
      <trkpt lat="45.06478" lon="5.94175">
        <ele>2119.6</ele>
        <time>2020-07-12T14:40:04 02:00</time>
      </trkpt>
      <trkpt lat="45.06477" lon="5.94175">
        <ele>2119.4</ele>
        <time>2020-07-12T14:40:05 02:00</time>
      </trkpt>
      <trkpt lat="45.06474" lon="5.94171">
        <ele>2119.2</ele>
        <time>2020-07-12T14:40:08 02:00</time>
      </trkpt>
      <trkpt lat="45.06472" lon="5.94167">
        <ele>2118.8</ele>
        <time>2020-07-12T14:40:12 02:00</time>
      </trkpt>
      <trkpt lat="45.06471" lon="5.94163">
        <ele>2118.6</ele>
        <time>2020-07-12T14:40:15 02:00</time>
      </trkpt>
      <trkpt lat="45.06471" lon="5.9416">
        <ele>2118.2</ele>
        <time>2020-07-12T14:40:18 02:00</time>
      </trkpt>
      <trkpt lat="45.06471" lon="5.9416">
        <ele>2117.8</ele>
        <time>2020-07-12T14:40:19 02:00</time>
      </trkpt>
      <trkpt lat="45.06469" lon="5.94157">
        <ele>2117.4</ele>
        <time>2020-07-12T14:40:22 02:00</time>
      </trkpt>
      <trkpt lat="45.06466" lon="5.94153">
        <ele>2117</ele>
        <time>2020-07-12T14:40:25 02:00</time>
      </trkpt>
      <trkpt lat="45.06464" lon="5.94149">
        <ele>2116.6</ele>
        <time>2020-07-12T14:40:28 02:00</time>
      </trkpt>
      <trkpt lat="45.06463" lon="5.94146">
        <ele>2116.2</ele>
        <time>2020-07-12T14:40:31 02:00</time>
      </trkpt>
      <trkpt lat="45.0646" lon="5.94142">
        <ele>2115.8</ele>
        <time>2020-07-12T14:40:34 02:00</time>
      </trkpt>
      <trkpt lat="45.06458" lon="5.94138">
        <ele>2115.4</ele>
        <time>2020-07-12T14:40:37 02:00</time>
      </trkpt>
      <trkpt lat="45.06456" lon="5.94134">
        <ele>2115</ele>
        <time>2020-07-12T14:40:40 02:00</time>
      </trkpt>
      <trkpt lat="45.06456" lon="5.94129">
        <ele>2114.6</ele>
        <time>2020-07-12T14:40:44 02:00</time>
      </trkpt>
      <trkpt lat="45.06456" lon="5.94124">
        <ele>2114</ele>
        <time>2020-07-12T14:40:48 02:00</time>
      </trkpt>
      <trkpt lat="45.06455" lon="5.94123">
        <ele>2113.2</ele>
        <time>2020-07-12T14:40:50 02:00</time>
      </trkpt>
      <trkpt lat="45.06454" lon="5.94122">
        <ele>2112.4</ele>
        <time>2020-07-12T14:40:52 02:00</time>
      </trkpt>
      <trkpt lat="45.06452" lon="5.9412">
        <ele>2112</ele>
        <time>2020-07-12T14:40:54 02:00</time>
      </trkpt>
      <trkpt lat="45.06451" lon="5.9412">
        <ele>2111.4</ele>
        <time>2020-07-12T14:40:55 02:00</time>
      </trkpt>
      <trkpt lat="45.06448" lon="5.94119">
        <ele>2111.2</ele>
        <time>2020-07-12T14:40:58 02:00</time>
      </trkpt>
      <trkpt lat="45.06445" lon="5.94117">
        <ele>2111.2</ele>
        <time>2020-07-12T14:41:02 02:00</time>
      </trkpt>
      <trkpt lat="45.06441" lon="5.94116">
        <ele>2111.2</ele>
        <time>2020-07-12T14:41:05 02:00</time>
      </trkpt>
      <trkpt lat="45.06438" lon="5.94112">
        <ele>2110.6</ele>
        <time>2020-07-12T14:41:10 02:00</time>
      </trkpt>
      <trkpt lat="45.06435" lon="5.94109">
        <ele>2110</ele>
        <time>2020-07-12T14:41:13 02:00</time>
      </trkpt>
      <trkpt lat="45.06432" lon="5.94106">
        <ele>2109.2</ele>
        <time>2020-07-12T14:41:17 02:00</time>
      </trkpt>
      <trkpt lat="45.0643" lon="5.94103">
        <ele>2108.4</ele>
        <time>2020-07-12T14:41:20 02:00</time>
      </trkpt>
      <trkpt lat="45.06428" lon="5.941">
        <ele>2107.4</ele>
        <time>2020-07-12T14:41:23 02:00</time>
      </trkpt>
      <trkpt lat="45.06425" lon="5.94096">
        <ele>2106.6</ele>
        <time>2020-07-12T14:41:27 02:00</time>
      </trkpt>
      <trkpt lat="45.06424" lon="5.94096">
        <ele>2106</ele>
        <time>2020-07-12T14:41:28 02:00</time>
      </trkpt>
      <trkpt lat="45.06422" lon="5.94096">
        <ele>2105.4</ele>
        <time>2020-07-12T14:41:31 02:00</time>
      </trkpt>
      <trkpt lat="45.06418" lon="5.94096">
        <ele>2104.8</ele>
        <time>2020-07-12T14:41:34 02:00</time>
      </trkpt>
      <trkpt lat="45.06415" lon="5.94095">
        <ele>2104.6</ele>
        <time>2020-07-12T14:41:37 02:00</time>
      </trkpt>
      <trkpt lat="45.06411" lon="5.94093">
        <ele>2104.4</ele>
        <time>2020-07-12T14:41:41 02:00</time>
      </trkpt>
      <trkpt lat="45.06408" lon="5.94091">
        <ele>2104.2</ele>
        <time>2020-07-12T14:41:44 02:00</time>
      </trkpt>
      <trkpt lat="45.06405" lon="5.94089">
        <ele>2104.2</ele>
        <time>2020-07-12T14:41:48 02:00</time>
      </trkpt>
      <trkpt lat="45.06401" lon="5.94087">
        <ele>2104.2</ele>
        <time>2020-07-12T14:41:51 02:00</time>
      </trkpt>
      <trkpt lat="45.06398" lon="5.94085">
        <ele>2103.8</ele>
        <time>2020-07-12T14:41:55 02:00</time>
      </trkpt>
      <trkpt lat="45.06396" lon="5.94082">
        <ele>2103.6</ele>
        <time>2020-07-12T14:41:58 02:00</time>
      </trkpt>
      <trkpt lat="45.06395" lon="5.94077">
        <ele>2103.2</ele>
        <time>2020-07-12T14:42:01 02:00</time>
      </trkpt>
      <trkpt lat="45.06392" lon="5.94073">
        <ele>2102.6</ele>
        <time>2020-07-12T14:42:05 02:00</time>
      </trkpt>
      <trkpt lat="45.06392" lon="5.94073">
        <ele>2102</ele>
        <time>2020-07-12T14:42:06 02:00</time>
      </trkpt>
      <trkpt lat="45.06392" lon="5.94068">
        <ele>2101.6</ele>
        <time>2020-07-12T14:42:09 02:00</time>
      </trkpt>
      <trkpt lat="45.0639" lon="5.94065">
        <ele>2101.2</ele>
        <time>2020-07-12T14:42:12 02:00</time>
      </trkpt>
      <trkpt lat="45.06389" lon="5.9406">
        <ele>2100.8</ele>
        <time>2020-07-12T14:42:15 02:00</time>
      </trkpt>
      <trkpt lat="45.06388" lon="5.94057">
        <ele>2100.6</ele>
        <time>2020-07-12T14:42:18 02:00</time>
      </trkpt>
      <trkpt lat="45.06387" lon="5.94053">
        <ele>2100</ele>
        <time>2020-07-12T14:42:22 02:00</time>
      </trkpt>
      <trkpt lat="45.06385" lon="5.9405">
        <ele>2099.2</ele>
        <time>2020-07-12T14:42:24 02:00</time>
      </trkpt>
      <trkpt lat="45.06384" lon="5.94046">
        <ele>2098.4</ele>
        <time>2020-07-12T14:42:27 02:00</time>
      </trkpt>
      <trkpt lat="45.06381" lon="5.94045">
        <ele>2097.8</ele>
        <time>2020-07-12T14:42:30 02:00</time>
      </trkpt>
      <trkpt lat="45.0638" lon="5.9404">
        <ele>2097.2</ele>
        <time>2020-07-12T14:42:33 02:00</time>
      </trkpt>
      <trkpt lat="45.06379" lon="5.94036">
        <ele>2097</ele>
        <time>2020-07-12T14:42:36 02:00</time>
      </trkpt>
      <trkpt lat="45.06377" lon="5.94033">
        <ele>2096.8</ele>
        <time>2020-07-12T14:42:39 02:00</time>
      </trkpt>
      <trkpt lat="45.06374" lon="5.9403">
        <ele>2096.6</ele>
        <time>2020-07-12T14:42:42 02:00</time>
      </trkpt>
      <trkpt lat="45.06372" lon="5.94027">
        <ele>2096.2</ele>
        <time>2020-07-12T14:42:45 02:00</time>
      </trkpt>
      <trkpt lat="45.06369" lon="5.94027">
        <ele>2095.8</ele>
        <time>2020-07-12T14:42:49 02:00</time>
      </trkpt>
      <trkpt lat="45.06366" lon="5.94024">
        <ele>2095</ele>
        <time>2020-07-12T14:42:53 02:00</time>
      </trkpt>
      <trkpt lat="45.06365" lon="5.94022">
        <ele>2094.6</ele>
        <time>2020-07-12T14:42:56 02:00</time>
      </trkpt>
      <trkpt lat="45.06364" lon="5.94021">
        <ele>2094.2</ele>
        <time>2020-07-12T14:42:57 02:00</time>
      </trkpt>
      <trkpt lat="45.06363" lon="5.94016">
        <ele>2094</ele>
        <time>2020-07-12T14:43:00 02:00</time>
      </trkpt>
      <trkpt lat="45.06363" lon="5.94015">
        <ele>2093.6</ele>
        <time>2020-07-12T14:43:01 02:00</time>
      </trkpt>
      <trkpt lat="45.06363" lon="5.94015">
        <ele>2093.6</ele>
        <time>2020-07-12T14:43:02 02:00</time>
      </trkpt>
      <trkpt lat="45.06362" lon="5.94014">
        <ele>2093.4</ele>
        <time>2020-07-12T14:43:03 02:00</time>
      </trkpt>
      <trkpt lat="45.06361" lon="5.94013">
        <ele>2093.2</ele>
        <time>2020-07-12T14:43:05 02:00</time>
      </trkpt>
      <trkpt lat="45.0636" lon="5.94013">
        <ele>2093</ele>
        <time>2020-07-12T14:43:06 02:00</time>
      </trkpt>
      <trkpt lat="45.06357" lon="5.94008">
        <ele>2092.6</ele>
        <time>2020-07-12T14:43:13 02:00</time>
      </trkpt>
      <trkpt lat="45.06356" lon="5.94008">
        <ele>2092.2</ele>
        <time>2020-07-12T14:43:14 02:00</time>
      </trkpt>
      <trkpt lat="45.06355" lon="5.94005">
        <ele>2091.6</ele>
        <time>2020-07-12T14:43:19 02:00</time>
      </trkpt>
      <trkpt lat="45.06354" lon="5.94004">
        <ele>2090.8</ele>
        <time>2020-07-12T14:43:20 02:00</time>
      </trkpt>
      <trkpt lat="45.06353" lon="5.94003">
        <ele>2090</ele>
        <time>2020-07-12T14:43:21 02:00</time>
      </trkpt>
      <trkpt lat="45.0635" lon="5.94001">
        <ele>2089.4</ele>
        <time>2020-07-12T14:43:25 02:00</time>
      </trkpt>
      <trkpt lat="45.06347" lon="5.93999">
        <ele>2089</ele>
        <time>2020-07-12T14:43:28 02:00</time>
      </trkpt>
      <trkpt lat="45.06344" lon="5.93996">
        <ele>2088.4</ele>
        <time>2020-07-12T14:43:31 02:00</time>
      </trkpt>
      <trkpt lat="45.0634" lon="5.93993">
        <ele>2088</ele>
        <time>2020-07-12T14:43:57 02:00</time>
      </trkpt>
      <trkpt lat="45.0634" lon="5.9399">
        <ele>2087.4</ele>
        <time>2020-07-12T14:44:00 02:00</time>
      </trkpt>
      <trkpt lat="45.06337" lon="5.93989">
        <ele>2086.8</ele>
        <time>2020-07-12T14:44:09 02:00</time>
      </trkpt>
      <trkpt lat="45.06336" lon="5.93984">
        <ele>2086</ele>
        <time>2020-07-12T14:44:13 02:00</time>
      </trkpt>
      <trkpt lat="45.06334" lon="5.9398">
        <ele>2085.4</ele>
        <time>2020-07-12T14:44:16 02:00</time>
      </trkpt>
      <trkpt lat="45.06332" lon="5.93977">
        <ele>2084.8</ele>
        <time>2020-07-12T14:44:19 02:00</time>
      </trkpt>
      <trkpt lat="45.06331" lon="5.93972">
        <ele>2084.2</ele>
        <time>2020-07-12T14:44:24 02:00</time>
      </trkpt>
      <trkpt lat="45.06329" lon="5.93967">
        <ele>2083.6</ele>
        <time>2020-07-12T14:44:29 02:00</time>
      </trkpt>
      <trkpt lat="45.06329" lon="5.93962">
        <ele>2083</ele>
        <time>2020-07-12T14:44:32 02:00</time>
      </trkpt>
      <trkpt lat="45.06327" lon="5.93958">
        <ele>2082.4</ele>
        <time>2020-07-12T14:44:36 02:00</time>
      </trkpt>
      <trkpt lat="45.06327" lon="5.93955">
        <ele>2081.6</ele>
        <time>2020-07-12T14:44:39 02:00</time>
      </trkpt>
      <trkpt lat="45.06327" lon="5.93954">
        <ele>2081.2</ele>
        <time>2020-07-12T14:44:40 02:00</time>
      </trkpt>
      <trkpt lat="45.06327" lon="5.9395">
        <ele>2080.8</ele>
        <time>2020-07-12T14:44:43 02:00</time>
      </trkpt>
      <trkpt lat="45.06325" lon="5.93948">
        <ele>2080.2</ele>
        <time>2020-07-12T14:44:46 02:00</time>
      </trkpt>
      <trkpt lat="45.06324" lon="5.93947">
        <ele>2080</ele>
        <time>2020-07-12T14:44:47 02:00</time>
      </trkpt>
      <trkpt lat="45.06323" lon="5.93943">
        <ele>2079.8</ele>
        <time>2020-07-12T14:44:50 02:00</time>
      </trkpt>
      <trkpt lat="45.06321" lon="5.93942">
        <ele>2079.4</ele>
        <time>2020-07-12T14:44:52 02:00</time>
      </trkpt>
      <trkpt lat="45.0632" lon="5.93941">
        <ele>2079.2</ele>
        <time>2020-07-12T14:44:54 02:00</time>
      </trkpt>
      <trkpt lat="45.06318" lon="5.93938">
        <ele>2079</ele>
        <time>2020-07-12T14:44:57 02:00</time>
      </trkpt>
      <trkpt lat="45.06317" lon="5.93934">
        <ele>2078.6</ele>
        <time>2020-07-12T14:45:00 02:00</time>
      </trkpt>
      <trkpt lat="45.06316" lon="5.93931">
        <ele>2078.4</ele>
        <time>2020-07-12T14:45:04 02:00</time>
      </trkpt>
      <trkpt lat="45.06315" lon="5.9393">
        <ele>2078.4</ele>
        <time>2020-07-12T14:45:07 02:00</time>
      </trkpt>
      <trkpt lat="45.06315" lon="5.93926">
        <ele>2078.2</ele>
        <time>2020-07-12T14:45:10 02:00</time>
      </trkpt>
      <trkpt lat="45.06313" lon="5.93921">
        <ele>2077.6</ele>
        <time>2020-07-12T14:45:16 02:00</time>
      </trkpt>
      <trkpt lat="45.06313" lon="5.93917">
        <ele>2076.8</ele>
        <time>2020-07-12T14:45:19 02:00</time>
      </trkpt>
      <trkpt lat="45.06311" lon="5.93917">
        <ele>2076</ele>
        <time>2020-07-12T14:45:20 02:00</time>
      </trkpt>
      <trkpt lat="45.06311" lon="5.93915">
        <ele>2075</ele>
        <time>2020-07-12T14:45:22 02:00</time>
      </trkpt>
      <trkpt lat="45.06311" lon="5.93915">
        <ele>2074.2</ele>
        <time>2020-07-12T14:45:23 02:00</time>
      </trkpt>
      <trkpt lat="45.0631" lon="5.93914">
        <ele>2074</ele>
        <time>2020-07-12T14:45:24 02:00</time>
      </trkpt>
      <trkpt lat="45.06309" lon="5.93911">
        <ele>2073.8</ele>
        <time>2020-07-12T14:45:27 02:00</time>
      </trkpt>
      <trkpt lat="45.06309" lon="5.9391">
        <ele>2073.4</ele>
        <time>2020-07-12T14:45:28 02:00</time>
      </trkpt>
      <trkpt lat="45.06308" lon="5.93908">
        <ele>2073</ele>
        <time>2020-07-12T14:45:30 02:00</time>
      </trkpt>
      <trkpt lat="45.06307" lon="5.93907">
        <ele>2072.4</ele>
        <time>2020-07-12T14:45:32 02:00</time>
      </trkpt>
      <trkpt lat="45.06305" lon="5.93903">
        <ele>2071.8</ele>
        <time>2020-07-12T14:45:37 02:00</time>
      </trkpt>
      <trkpt lat="45.06304" lon="5.939">
        <ele>2071.4</ele>
        <time>2020-07-12T14:45:39 02:00</time>
      </trkpt>
      <trkpt lat="45.06304" lon="5.93899">
        <ele>2071.4</ele>
        <time>2020-07-12T14:45:43 02:00</time>
      </trkpt>
      <trkpt lat="45.063" lon="5.93896">
        <ele>2071.4</ele>
        <time>2020-07-12T14:45:46 02:00</time>
      </trkpt>
      <trkpt lat="45.06299" lon="5.93895">
        <ele>2071.4</ele>
        <time>2020-07-12T14:45:48 02:00</time>
      </trkpt>
      <trkpt lat="45.06299" lon="5.93894">
        <ele>2071.4</ele>
        <time>2020-07-12T14:45:49 02:00</time>
      </trkpt>
      <trkpt lat="45.06297" lon="5.9389">
        <ele>2071.4</ele>
        <time>2020-07-12T14:45:53 02:00</time>
      </trkpt>
      <trkpt lat="45.06294" lon="5.93887">
        <ele>2071.2</ele>
        <time>2020-07-12T14:45:57 02:00</time>
      </trkpt>
      <trkpt lat="45.06294" lon="5.93884">
        <ele>2070.8</ele>
        <time>2020-07-12T14:46:00 02:00</time>
      </trkpt>
      <trkpt lat="45.06294" lon="5.93882">
        <ele>2070.6</ele>
        <time>2020-07-12T14:46:01 02:00</time>
      </trkpt>
      <trkpt lat="45.06293" lon="5.93878">
        <ele>2070.2</ele>
        <time>2020-07-12T14:46:04 02:00</time>
      </trkpt>
      <trkpt lat="45.0629" lon="5.93875">
        <ele>2069.4</ele>
        <time>2020-07-12T14:46:07 02:00</time>
      </trkpt>
      <trkpt lat="45.06289" lon="5.93871">
        <ele>2068.4</ele>
        <time>2020-07-12T14:46:10 02:00</time>
      </trkpt>
      <trkpt lat="45.06289" lon="5.93867">
        <ele>2067.4</ele>
        <time>2020-07-12T14:46:13 02:00</time>
      </trkpt>
      <trkpt lat="45.06289" lon="5.93865">
        <ele>2066.2</ele>
        <time>2020-07-12T14:46:14 02:00</time>
      </trkpt>
      <trkpt lat="45.06287" lon="5.9386">
        <ele>2064.6</ele>
        <time>2020-07-12T14:46:20 02:00</time>
      </trkpt>
      <trkpt lat="45.06285" lon="5.93856">
        <ele>2063.4</ele>
        <time>2020-07-12T14:46:23 02:00</time>
      </trkpt>
      <trkpt lat="45.06284" lon="5.93852">
        <ele>2062.2</ele>
        <time>2020-07-12T14:46:26 02:00</time>
      </trkpt>
      <trkpt lat="45.06283" lon="5.93847">
        <ele>2060.8</ele>
        <time>2020-07-12T14:46:30 02:00</time>
      </trkpt>
      <trkpt lat="45.0628" lon="5.93844">
        <ele>2059.6</ele>
        <time>2020-07-12T14:46:33 02:00</time>
      </trkpt>
      <trkpt lat="45.06278" lon="5.93843">
        <ele>2059.2</ele>
        <time>2020-07-12T14:46:35 02:00</time>
      </trkpt>
      <trkpt lat="45.06277" lon="5.93842">
        <ele>2058.6</ele>
        <time>2020-07-12T14:46:37 02:00</time>
      </trkpt>
      <trkpt lat="45.06276" lon="5.93842">
        <ele>2058.2</ele>
        <time>2020-07-12T14:46:38 02:00</time>
      </trkpt>
      <trkpt lat="45.06275" lon="5.93841">
        <ele>2058.2</ele>
        <time>2020-07-12T14:46:40 02:00</time>
      </trkpt>
      <trkpt lat="45.06274" lon="5.93839">
        <ele>2058.2</ele>
        <time>2020-07-12T14:46:41 02:00</time>
      </trkpt>
      <trkpt lat="45.06271" lon="5.93837">
        <ele>2057.8</ele>
        <time>2020-07-12T14:46:44 02:00</time>
      </trkpt>
      <trkpt lat="45.0627" lon="5.93836">
        <ele>2057.6</ele>
        <time>2020-07-12T14:46:45 02:00</time>
      </trkpt>
      <trkpt lat="45.0627" lon="5.93835">
        <ele>2057.4</ele>
        <time>2020-07-12T14:46:46 02:00</time>
      </trkpt>
      <trkpt lat="45.06267" lon="5.93834">
        <ele>2057.2</ele>
        <time>2020-07-12T14:46:49 02:00</time>
      </trkpt>
      <trkpt lat="45.06265" lon="5.93831">
        <ele>2056.8</ele>
        <time>2020-07-12T14:46:52 02:00</time>
      </trkpt>
      <trkpt lat="45.06265" lon="5.9383">
        <ele>2056.4</ele>
        <time>2020-07-12T14:46:53 02:00</time>
      </trkpt>
      <trkpt lat="45.06262" lon="5.93827">
        <ele>2056</ele>
        <time>2020-07-12T14:46:56 02:00</time>
      </trkpt>
      <trkpt lat="45.06259" lon="5.93825">
        <ele>2055.4</ele>
        <time>2020-07-12T14:47:00 02:00</time>
      </trkpt>
      <trkpt lat="45.06258" lon="5.93823">
        <ele>2054.8</ele>
        <time>2020-07-12T14:47:02 02:00</time>
      </trkpt>
      <trkpt lat="45.06256" lon="5.9382">
        <ele>2054</ele>
        <time>2020-07-12T14:47:06 02:00</time>
      </trkpt>
      <trkpt lat="45.06253" lon="5.93818">
        <ele>2053</ele>
        <time>2020-07-12T14:47:09 02:00</time>
      </trkpt>
      <trkpt lat="45.06251" lon="5.93817">
        <ele>2052</ele>
        <time>2020-07-12T14:47:11 02:00</time>
      </trkpt>
      <trkpt lat="45.06249" lon="5.93813">
        <ele>2050.8</ele>
        <time>2020-07-12T14:47:14 02:00</time>
      </trkpt>
      <trkpt lat="45.06247" lon="5.9381">
        <ele>2049.6</ele>
        <time>2020-07-12T14:47:17 02:00</time>
      </trkpt>
      <trkpt lat="45.06244" lon="5.93809">
        <ele>2048.8</ele>
        <time>2020-07-12T14:47:20 02:00</time>
      </trkpt>
      <trkpt lat="45.06241" lon="5.93806">
        <ele>2048.2</ele>
        <time>2020-07-12T14:47:24 02:00</time>
      </trkpt>
      <trkpt lat="45.06239" lon="5.93804">
        <ele>2047.4</ele>
        <time>2020-07-12T14:47:27 02:00</time>
      </trkpt>
      <trkpt lat="45.06236" lon="5.93802">
        <ele>2046.8</ele>
        <time>2020-07-12T14:47:30 02:00</time>
      </trkpt>
      <trkpt lat="45.06234" lon="5.938">
        <ele>2046.2</ele>
        <time>2020-07-12T14:47:33 02:00</time>
      </trkpt>
      <trkpt lat="45.06232" lon="5.93797">
        <ele>2045.4</ele>
        <time>2020-07-12T14:47:36 02:00</time>
      </trkpt>
      <trkpt lat="45.06229" lon="5.93794">
        <ele>2044.8</ele>
        <time>2020-07-12T14:47:39 02:00</time>
      </trkpt>
      <trkpt lat="45.06229" lon="5.93793">
        <ele>2044.4</ele>
        <time>2020-07-12T14:47:40 02:00</time>
      </trkpt>
      <trkpt lat="45.06225" lon="5.93788">
        <ele>2044.2</ele>
        <time>2020-07-12T14:47:44 02:00</time>
      </trkpt>
      <trkpt lat="45.06223" lon="5.93786">
        <ele>2043.8</ele>
        <time>2020-07-12T14:47:47 02:00</time>
      </trkpt>
      <trkpt lat="45.0622" lon="5.93782">
        <ele>2043.6</ele>
        <time>2020-07-12T14:47:51 02:00</time>
      </trkpt>
      <trkpt lat="45.06219" lon="5.93778">
        <ele>2043.2</ele>
        <time>2020-07-12T14:47:54 02:00</time>
      </trkpt>
      <trkpt lat="45.06216" lon="5.93773">
        <ele>2042.8</ele>
        <time>2020-07-12T14:47:58 02:00</time>
      </trkpt>
      <trkpt lat="45.06216" lon="5.93768">
        <ele>2042.4</ele>
        <time>2020-07-12T14:48:01 02:00</time>
      </trkpt>
      <trkpt lat="45.06215" lon="5.93764">
        <ele>2041.8</ele>
        <time>2020-07-12T14:48:04 02:00</time>
      </trkpt>
      <trkpt lat="45.06214" lon="5.93759">
        <ele>2041.2</ele>
        <time>2020-07-12T14:48:07 02:00</time>
      </trkpt>
      <trkpt lat="45.06214" lon="5.93757">
        <ele>2041</ele>
        <time>2020-07-12T14:48:09 02:00</time>
      </trkpt>
      <trkpt lat="45.06213" lon="5.93756">
        <ele>2040.8</ele>
        <time>2020-07-12T14:48:11 02:00</time>
      </trkpt>
      <trkpt lat="45.06212" lon="5.93752">
        <ele>2040.4</ele>
        <time>2020-07-12T14:48:14 02:00</time>
      </trkpt>
      <trkpt lat="45.06212" lon="5.93751">
        <ele>2040.2</ele>
        <time>2020-07-12T14:48:15 02:00</time>
      </trkpt>
      <trkpt lat="45.06211" lon="5.93747">
        <ele>2040.2</ele>
        <time>2020-07-12T14:48:18 02:00</time>
      </trkpt>
      <trkpt lat="45.06208" lon="5.93744">
        <ele>2039.8</ele>
        <time>2020-07-12T14:48:21 02:00</time>
      </trkpt>
      <trkpt lat="45.06205" lon="5.93741">
        <ele>2039.6</ele>
        <time>2020-07-12T14:48:25 02:00</time>
      </trkpt>
      <trkpt lat="45.06204" lon="5.93737">
        <ele>2039.6</ele>
        <time>2020-07-12T14:48:28 02:00</time>
      </trkpt>
      <trkpt lat="45.06205" lon="5.93735">
        <ele>2039.6</ele>
        <time>2020-07-12T14:48:30 02:00</time>
      </trkpt>
      <trkpt lat="45.06204" lon="5.93734">
        <ele>2039.4</ele>
        <time>2020-07-12T14:48:31 02:00</time>
      </trkpt>
      <trkpt lat="45.06202" lon="5.9373">
        <ele>2039.6</ele>
        <time>2020-07-12T14:48:35 02:00</time>
      </trkpt>
      <trkpt lat="45.06201" lon="5.93726">
        <ele>2039.4</ele>
        <time>2020-07-12T14:48:38 02:00</time>
      </trkpt>
      <trkpt lat="45.062" lon="5.93721">
        <ele>2039.4</ele>
        <time>2020-07-12T14:48:42 02:00</time>
      </trkpt>
      <trkpt lat="45.062" lon="5.93719">
        <ele>2039.8</ele>
        <time>2020-07-12T14:48:44 02:00</time>
      </trkpt>
      <trkpt lat="45.06201" lon="5.93718">
        <ele>2040</ele>
        <time>2020-07-12T14:48:46 02:00</time>
      </trkpt>
      <trkpt lat="45.06201" lon="5.93713">
        <ele>2040</ele>
        <time>2020-07-12T14:48:49 02:00</time>
      </trkpt>
      <trkpt lat="45.062" lon="5.9371">
        <ele>2040.2</ele>
        <time>2020-07-12T14:48:52 02:00</time>
      </trkpt>
      <trkpt lat="45.06198" lon="5.93706">
        <ele>2040.2</ele>
        <time>2020-07-12T14:48:56 02:00</time>
      </trkpt>
      <trkpt lat="45.06198" lon="5.93701">
        <ele>2040</ele>
        <time>2020-07-12T14:48:59 02:00</time>
      </trkpt>
      <trkpt lat="45.06199" lon="5.93698">
        <ele>2040</ele>
        <time>2020-07-12T14:49:02 02:00</time>
      </trkpt>
      <trkpt lat="45.062" lon="5.93692">
        <ele>2040</ele>
        <time>2020-07-12T14:49:06 02:00</time>
      </trkpt>
      <trkpt lat="45.06201" lon="5.93688">
        <ele>2040</ele>
        <time>2020-07-12T14:49:08 02:00</time>
      </trkpt>
      <trkpt lat="45.06202" lon="5.93683">
        <ele>2040.2</ele>
        <time>2020-07-12T14:49:12 02:00</time>
      </trkpt>
      <trkpt lat="45.06202" lon="5.93678">
        <ele>2040.2</ele>
        <time>2020-07-12T14:49:15 02:00</time>
      </trkpt>
      <trkpt lat="45.06202" lon="5.93674">
        <ele>2040.2</ele>
        <time>2020-07-12T14:49:18 02:00</time>
      </trkpt>
      <trkpt lat="45.06201" lon="5.9367">
        <ele>2040.2</ele>
        <time>2020-07-12T14:49:22 02:00</time>
      </trkpt>
      <trkpt lat="45.062" lon="5.93669">
        <ele>2040.2</ele>
        <time>2020-07-12T14:49:23 02:00</time>
      </trkpt>
      <trkpt lat="45.06199" lon="5.93665">
        <ele>2040</ele>
        <time>2020-07-12T14:49:27 02:00</time>
      </trkpt>
      <trkpt lat="45.06199" lon="5.93664">
        <ele>2040</ele>
        <time>2020-07-12T14:49:28 02:00</time>
      </trkpt>
      <trkpt lat="45.06199" lon="5.93662">
        <ele>2040</ele>
        <time>2020-07-12T14:49:29 02:00</time>
      </trkpt>
      <trkpt lat="45.06199" lon="5.93658">
        <ele>2039.8</ele>
        <time>2020-07-12T14:49:32 02:00</time>
      </trkpt>
      <trkpt lat="45.06198" lon="5.93655">
        <ele>2039.6</ele>
        <time>2020-07-12T14:49:35 02:00</time>
      </trkpt>
      <trkpt lat="45.06193" lon="5.93644">
        <ele>2039.2</ele>
        <time>2020-07-12T14:49:45 02:00</time>
      </trkpt>
      <trkpt lat="45.06193" lon="5.93644">
        <ele>2038.6</ele>
        <time>2020-07-12T14:49:46 02:00</time>
      </trkpt>
      <trkpt lat="45.06192" lon="5.93641">
        <ele>2038</ele>
        <time>2020-07-12T14:49:48 02:00</time>
      </trkpt>
      <trkpt lat="45.06191" lon="5.93639">
        <ele>2037.6</ele>
        <time>2020-07-12T14:49:50 02:00</time>
      </trkpt>
      <trkpt lat="45.0619" lon="5.93634">
        <ele>2037.4</ele>
        <time>2020-07-12T14:49:54 02:00</time>
      </trkpt>
      <trkpt lat="45.06189" lon="5.93633">
        <ele>2037.4</ele>
        <time>2020-07-12T14:49:55 02:00</time>
      </trkpt>
      <trkpt lat="45.06189" lon="5.9363">
        <ele>2037.4</ele>
        <time>2020-07-12T14:49:57 02:00</time>
      </trkpt>
      <trkpt lat="45.06189" lon="5.93626">
        <ele>2037.6</ele>
        <time>2020-07-12T14:50:01 02:00</time>
      </trkpt>
      <trkpt lat="45.06189" lon="5.93621">
        <ele>2037.8</ele>
        <time>2020-07-12T14:50:04 02:00</time>
      </trkpt>
      <trkpt lat="45.06189" lon="5.9362">
        <ele>2037.8</ele>
        <time>2020-07-12T14:50:05 02:00</time>
      </trkpt>
      <trkpt lat="45.06189" lon="5.93619">
        <ele>2037.8</ele>
        <time>2020-07-12T14:50:06 02:00</time>
      </trkpt>
      <trkpt lat="45.06189" lon="5.93615">
        <ele>2038</ele>
        <time>2020-07-12T14:50:09 02:00</time>
      </trkpt>
      <trkpt lat="45.06185" lon="5.93607">
        <ele>2038.2</ele>
        <time>2020-07-12T14:50:20 02:00</time>
      </trkpt>
      <trkpt lat="45.06184" lon="5.93604">
        <ele>2038.6</ele>
        <time>2020-07-12T14:50:23 02:00</time>
      </trkpt>
      <trkpt lat="45.06183" lon="5.936">
        <ele>2039.2</ele>
        <time>2020-07-12T14:50:28 02:00</time>
      </trkpt>
      <trkpt lat="45.06183" lon="5.93599">
        <ele>2039.8</ele>
        <time>2020-07-12T14:50:29 02:00</time>
      </trkpt>
      <trkpt lat="45.06183" lon="5.93593">
        <ele>2040.4</ele>
        <time>2020-07-12T14:50:35 02:00</time>
      </trkpt>
      <trkpt lat="45.06183" lon="5.93593">
        <ele>2040.8</ele>
        <time>2020-07-12T14:50:36 02:00</time>
      </trkpt>
      <trkpt lat="45.06183" lon="5.9359">
        <ele>2041</ele>
        <time>2020-07-12T14:50:38 02:00</time>
      </trkpt>
      <trkpt lat="45.06183" lon="5.93586">
        <ele>2041</ele>
        <time>2020-07-12T14:50:41 02:00</time>
      </trkpt>
      <trkpt lat="45.06182" lon="5.93585">
        <ele>2041.2</ele>
        <time>2020-07-12T14:50:42 02:00</time>
      </trkpt>
      <trkpt lat="45.06182" lon="5.93583">
        <ele>2041.4</ele>
        <time>2020-07-12T14:50:43 02:00</time>
      </trkpt>
      <trkpt lat="45.06182" lon="5.93579">
        <ele>2041.6</ele>
        <time>2020-07-12T14:50:46 02:00</time>
      </trkpt>
      <trkpt lat="45.06183" lon="5.93576">
        <ele>2041.6</ele>
        <time>2020-07-12T14:50:49 02:00</time>
      </trkpt>
      <trkpt lat="45.06183" lon="5.93575">
        <ele>2041.6</ele>
        <time>2020-07-12T14:50:50 02:00</time>
      </trkpt>
      <trkpt lat="45.06184" lon="5.93571">
        <ele>2041.2</ele>
        <time>2020-07-12T14:50:53 02:00</time>
      </trkpt>
      <trkpt lat="45.06184" lon="5.9357">
        <ele>2041</ele>
        <time>2020-07-12T14:50:54 02:00</time>
      </trkpt>
      <trkpt lat="45.06184" lon="5.93569">
        <ele>2040.8</ele>
        <time>2020-07-12T14:50:55 02:00</time>
      </trkpt>
      <trkpt lat="45.06185" lon="5.93565">
        <ele>2041</ele>
        <time>2020-07-12T14:50:58 02:00</time>
      </trkpt>
      <trkpt lat="45.06185" lon="5.93564">
        <ele>2041</ele>
        <time>2020-07-12T14:50:59 02:00</time>
      </trkpt>
      <trkpt lat="45.06185" lon="5.93562">
        <ele>2041.2</ele>
        <time>2020-07-12T14:51:00 02:00</time>
      </trkpt>
      <trkpt lat="45.06186" lon="5.93558">
        <ele>2041.4</ele>
        <time>2020-07-12T14:51:03 02:00</time>
      </trkpt>
      <trkpt lat="45.06186" lon="5.93553">
        <ele>2041.8</ele>
        <time>2020-07-12T14:51:08 02:00</time>
      </trkpt>
      <trkpt lat="45.06186" lon="5.93549">
        <ele>2042</ele>
        <time>2020-07-12T14:51:10 02:00</time>
      </trkpt>
      <trkpt lat="45.06186" lon="5.93544">
        <ele>2042.4</ele>
        <time>2020-07-12T14:51:14 02:00</time>
      </trkpt>
      <trkpt lat="45.06186" lon="5.93539">
        <ele>2042.8</ele>
        <time>2020-07-12T14:51:17 02:00</time>
      </trkpt>
      <trkpt lat="45.06185" lon="5.93536">
        <ele>2042.8</ele>
        <time>2020-07-12T14:51:20 02:00</time>
      </trkpt>
      <trkpt lat="45.06183" lon="5.93531">
        <ele>2042.6</ele>
        <time>2020-07-12T14:51:23 02:00</time>
      </trkpt>
      <trkpt lat="45.06182" lon="5.93527">
        <ele>2042.6</ele>
        <time>2020-07-12T14:51:27 02:00</time>
      </trkpt>
      <trkpt lat="45.06182" lon="5.93525">
        <ele>2042.6</ele>
        <time>2020-07-12T14:51:28 02:00</time>
      </trkpt>
      <trkpt lat="45.06181" lon="5.93522">
        <ele>2042.8</ele>
        <time>2020-07-12T14:51:31 02:00</time>
      </trkpt>
      <trkpt lat="45.0618" lon="5.93517">
        <ele>2043.2</ele>
        <time>2020-07-12T14:51:35 02:00</time>
      </trkpt>
      <trkpt lat="45.0618" lon="5.93513">
        <ele>2043.6</ele>
        <time>2020-07-12T14:51:38 02:00</time>
      </trkpt>
      <trkpt lat="45.0618" lon="5.93509">
        <ele>2043.8</ele>
        <time>2020-07-12T14:51:41 02:00</time>
      </trkpt>
      <trkpt lat="45.0618" lon="5.93507">
        <ele>2044</ele>
        <time>2020-07-12T14:51:42 02:00</time>
      </trkpt>
      <trkpt lat="45.06179" lon="5.93505">
        <ele>2043.8</ele>
        <time>2020-07-12T14:51:44 02:00</time>
      </trkpt>
      <trkpt lat="45.06176" lon="5.93495">
        <ele>2044</ele>
        <time>2020-07-12T14:51:55 02:00</time>
      </trkpt>
      <trkpt lat="45.06175" lon="5.93491">
        <ele>2044.2</ele>
        <time>2020-07-12T14:51:59 02:00</time>
      </trkpt>
      <trkpt lat="45.06174" lon="5.93487">
        <ele>2044.4</ele>
        <time>2020-07-12T14:52:02 02:00</time>
      </trkpt>
      <trkpt lat="45.06172" lon="5.93483">
        <ele>2044.8</ele>
        <time>2020-07-12T14:52:07 02:00</time>
      </trkpt>
      <trkpt lat="45.06171" lon="5.93479">
        <ele>2045.4</ele>
        <time>2020-07-12T14:52:11 02:00</time>
      </trkpt>
      <trkpt lat="45.06171" lon="5.93476">
        <ele>2045.6</ele>
        <time>2020-07-12T14:52:14 02:00</time>
      </trkpt>
      <trkpt lat="45.06167" lon="5.93468">
        <ele>2045.4</ele>
        <time>2020-07-12T14:52:20 02:00</time>
      </trkpt>
      <trkpt lat="45.06166" lon="5.93464">
        <ele>2045.4</ele>
        <time>2020-07-12T14:52:25 02:00</time>
      </trkpt>
      <trkpt lat="45.06164" lon="5.93461">
        <ele>2045</ele>
        <time>2020-07-12T14:52:26 02:00</time>
      </trkpt>
      <trkpt lat="45.06162" lon="5.93457">
        <ele>2044.8</ele>
        <time>2020-07-12T14:52:31 02:00</time>
      </trkpt>
      <trkpt lat="45.0616" lon="5.93452">
        <ele>2044.6</ele>
        <time>2020-07-12T14:52:35 02:00</time>
      </trkpt>
      <trkpt lat="45.0616" lon="5.93448">
        <ele>2044.8</ele>
        <time>2020-07-12T14:52:38 02:00</time>
      </trkpt>
      <trkpt lat="45.06159" lon="5.93445">
        <ele>2044.6</ele>
        <time>2020-07-12T14:52:40 02:00</time>
      </trkpt>
      <trkpt lat="45.06158" lon="5.93437">
        <ele>2044.8</ele>
        <time>2020-07-12T14:52:47 02:00</time>
      </trkpt>
      <trkpt lat="45.06157" lon="5.93432">
        <ele>2045</ele>
        <time>2020-07-12T14:52:50 02:00</time>
      </trkpt>
      <trkpt lat="45.06157" lon="5.93428">
        <ele>2045</ele>
        <time>2020-07-12T14:52:53 02:00</time>
      </trkpt>
      <trkpt lat="45.06156" lon="5.93423">
        <ele>2045</ele>
        <time>2020-07-12T14:52:56 02:00</time>
      </trkpt>
      <trkpt lat="45.06155" lon="5.93419">
        <ele>2045.2</ele>
        <time>2020-07-12T14:52:59 02:00</time>
      </trkpt>
      <trkpt lat="45.06155" lon="5.93414">
        <ele>2045.2</ele>
        <time>2020-07-12T14:53:03 02:00</time>
      </trkpt>
      <trkpt lat="45.06155" lon="5.93409">
        <ele>2045.2</ele>
        <time>2020-07-12T14:53:07 02:00</time>
      </trkpt>
      <trkpt lat="45.06153" lon="5.93405">
        <ele>2045.2</ele>
        <time>2020-07-12T14:53:10 02:00</time>
      </trkpt>
      <trkpt lat="45.06153" lon="5.93403">
        <ele>2045.2</ele>
        <time>2020-07-12T14:53:11 02:00</time>
      </trkpt>
      <trkpt lat="45.0615" lon="5.93397">
        <ele>2045</ele>
        <time>2020-07-12T14:53:18 02:00</time>
      </trkpt>
      <trkpt lat="45.0615" lon="5.9339">
        <ele>2044.8</ele>
        <time>2020-07-12T14:53:22 02:00</time>
      </trkpt>
      <trkpt lat="45.0615" lon="5.93389">
        <ele>2044.4</ele>
        <time>2020-07-12T14:53:23 02:00</time>
      </trkpt>
      <trkpt lat="45.0615" lon="5.93388">
        <ele>2044.2</ele>
        <time>2020-07-12T14:53:24 02:00</time>
      </trkpt>
      <trkpt lat="45.06149" lon="5.93384">
        <ele>2044</ele>
        <time>2020-07-12T14:53:27 02:00</time>
      </trkpt>
      <trkpt lat="45.06149" lon="5.93379">
        <ele>2044</ele>
        <time>2020-07-12T14:53:30 02:00</time>
      </trkpt>
      <trkpt lat="45.06147" lon="5.93375">
        <ele>2044.2</ele>
        <time>2020-07-12T14:53:33 02:00</time>
      </trkpt>
      <trkpt lat="45.06146" lon="5.93371">
        <ele>2044.6</ele>
        <time>2020-07-12T14:53:36 02:00</time>
      </trkpt>
      <trkpt lat="45.06146" lon="5.9337">
        <ele>2045.2</ele>
        <time>2020-07-12T14:53:39 02:00</time>
      </trkpt>
      <trkpt lat="45.06146" lon="5.93369">
        <ele>2045.6</ele>
        <time>2020-07-12T14:53:46 02:00</time>
      </trkpt>
      <trkpt lat="45.06146" lon="5.93365">
        <ele>2046</ele>
        <time>2020-07-12T14:53:49 02:00</time>
      </trkpt>
      <trkpt lat="45.06146" lon="5.93364">
        <ele>2046.2</ele>
        <time>2020-07-12T14:53:50 02:00</time>
      </trkpt>
      <trkpt lat="45.06145" lon="5.9336">
        <ele>2046.2</ele>
        <time>2020-07-12T14:53:53 02:00</time>
      </trkpt>
      <trkpt lat="45.06146" lon="5.93354">
        <ele>2045.8</ele>
        <time>2020-07-12T14:53:57 02:00</time>
      </trkpt>
      <trkpt lat="45.06146" lon="5.93349">
        <ele>2045.4</ele>
        <time>2020-07-12T14:54:00 02:00</time>
      </trkpt>
      <trkpt lat="45.06146" lon="5.93345">
        <ele>2045</ele>
        <time>2020-07-12T14:54:03 02:00</time>
      </trkpt>
      <trkpt lat="45.06146" lon="5.93342">
        <ele>2044</ele>
        <time>2020-07-12T14:54:11 02:00</time>
      </trkpt>
      <trkpt lat="45.06146" lon="5.93341">
        <ele>2043</ele>
        <time>2020-07-12T14:54:12 02:00</time>
      </trkpt>
      <trkpt lat="45.06144" lon="5.93337">
        <ele>2042.2</ele>
        <time>2020-07-12T14:54:16 02:00</time>
      </trkpt>
      <trkpt lat="45.06145" lon="5.93333">
        <ele>2041.6</ele>
        <time>2020-07-12T14:54:19 02:00</time>
      </trkpt>
      <trkpt lat="45.06144" lon="5.93332">
        <ele>2041</ele>
        <time>2020-07-12T14:54:20 02:00</time>
      </trkpt>
      <trkpt lat="45.06144" lon="5.93329">
        <ele>2041.2</ele>
        <time>2020-07-12T14:54:23 02:00</time>
      </trkpt>
      <trkpt lat="45.06144" lon="5.93327">
        <ele>2041.4</ele>
        <time>2020-07-12T14:54:24 02:00</time>
      </trkpt>
      <trkpt lat="45.06145" lon="5.93325">
        <ele>2041.6</ele>
        <time>2020-07-12T14:54:26 02:00</time>
      </trkpt>
      <trkpt lat="45.06145" lon="5.93324">
        <ele>2041.6</ele>
        <time>2020-07-12T14:54:28 02:00</time>
      </trkpt>
      <trkpt lat="45.06146" lon="5.9332">
        <ele>2041.6</ele>
        <time>2020-07-12T14:54:30 02:00</time>
      </trkpt>
      <trkpt lat="45.06148" lon="5.93317">
        <ele>2041.4</ele>
        <time>2020-07-12T14:54:33 02:00</time>
      </trkpt>
      <trkpt lat="45.0615" lon="5.93313">
        <ele>2041.2</ele>
        <time>2020-07-12T14:54:36 02:00</time>
      </trkpt>
      <trkpt lat="45.06151" lon="5.93312">
        <ele>2041</ele>
        <time>2020-07-12T14:54:37 02:00</time>
      </trkpt>
      <trkpt lat="45.06149" lon="5.93311">
        <ele>2041.8</ele>
        <time>2020-07-12T14:56:35 02:00</time>
      </trkpt>
      <trkpt lat="45.06149" lon="5.93312">
        <ele>2042.6</ele>
        <time>2020-07-12T14:56:36 02:00</time>
      </trkpt>
      <trkpt lat="45.06147" lon="5.93314">
        <ele>2043.2</ele>
        <time>2020-07-12T14:56:40 02:00</time>
      </trkpt>
      <trkpt lat="45.06145" lon="5.93316">
        <ele>2043.8</ele>
        <time>2020-07-12T14:56:41 02:00</time>
      </trkpt>
      <trkpt lat="45.06143" lon="5.93321">
        <ele>2044.6</ele>
        <time>2020-07-12T14:56:45 02:00</time>
      </trkpt>
      <trkpt lat="45.06142" lon="5.93326">
        <ele>2044.8</ele>
        <time>2020-07-12T14:56:48 02:00</time>
      </trkpt>
      <trkpt lat="45.06141" lon="5.9333">
        <ele>2045.2</ele>
        <time>2020-07-12T14:56:53 02:00</time>
      </trkpt>
      <trkpt lat="45.06142" lon="5.93332">
        <ele>2045.8</ele>
        <time>2020-07-12T14:56:54 02:00</time>
      </trkpt>
      <trkpt lat="45.06142" lon="5.93333">
        <ele>2046.4</ele>
        <time>2020-07-12T14:56:56 02:00</time>
      </trkpt>
      <trkpt lat="45.06142" lon="5.93333">
        <ele>2046.8</ele>
        <time>2020-07-12T14:58:20 02:00</time>
      </trkpt>
      <trkpt lat="45.06142" lon="5.93332">
        <ele>2047</ele>
        <time>2020-07-12T14:58:22 02:00</time>
      </trkpt>
      <trkpt lat="45.06142" lon="5.93327">
        <ele>2047</ele>
        <time>2020-07-12T14:58:28 02:00</time>
      </trkpt>
      <trkpt lat="45.06143" lon="5.93323">
        <ele>2046.8</ele>
        <time>2020-07-12T14:58:30 02:00</time>
      </trkpt>
      <trkpt lat="45.06144" lon="5.93319">
        <ele>2046.4</ele>
        <time>2020-07-12T14:58:33 02:00</time>
      </trkpt>
      <trkpt lat="45.06146" lon="5.93315">
        <ele>2046</ele>
        <time>2020-07-12T14:58:36 02:00</time>
      </trkpt>
      <trkpt lat="45.06148" lon="5.93311">
        <ele>2045.4</ele>
        <time>2020-07-12T14:58:39 02:00</time>
      </trkpt>
      <trkpt lat="45.06148" lon="5.93307">
        <ele>2044.8</ele>
        <time>2020-07-12T14:58:42 02:00</time>
      </trkpt>
      <trkpt lat="45.06148" lon="5.93302">
        <ele>2044.2</ele>
        <time>2020-07-12T14:58:46 02:00</time>
      </trkpt>
      <trkpt lat="45.06146" lon="5.93298">
        <ele>2043.6</ele>
        <time>2020-07-12T14:58:49 02:00</time>
      </trkpt>
      <trkpt lat="45.06146" lon="5.93294">
        <ele>2043</ele>
        <time>2020-07-12T14:58:53 02:00</time>
      </trkpt>
      <trkpt lat="45.06144" lon="5.9329">
        <ele>2042.6</ele>
        <time>2020-07-12T14:58:56 02:00</time>
      </trkpt>
      <trkpt lat="45.06143" lon="5.9329">
        <ele>2042.2</ele>
        <time>2020-07-12T14:58:57 02:00</time>
      </trkpt>
      <trkpt lat="45.06134" lon="5.93269">
        <ele>2041</ele>
        <time>2020-07-12T14:59:47 02:00</time>
      </trkpt>
      <trkpt lat="45.06134" lon="5.93267">
        <ele>2039.8</ele>
        <time>2020-07-12T14:59:49 02:00</time>
      </trkpt>
      <trkpt lat="45.06134" lon="5.93266">
        <ele>2038.6</ele>
        <time>2020-07-12T14:59:50 02:00</time>
      </trkpt>
      <trkpt lat="45.06135" lon="5.93262">
        <ele>2037.6</ele>
        <time>2020-07-12T14:59:54 02:00</time>
      </trkpt>
      <trkpt lat="45.06136" lon="5.93261">
        <ele>2036.6</ele>
        <time>2020-07-12T14:59:56 02:00</time>
      </trkpt>
      <trkpt lat="45.06138" lon="5.93258">
        <ele>2036.6</ele>
        <time>2020-07-12T14:59:59 02:00</time>
      </trkpt>
      <trkpt lat="45.06139" lon="5.93254">
        <ele>2036.8</ele>
        <time>2020-07-12T15:00:02 02:00</time>
      </trkpt>
      <trkpt lat="45.06141" lon="5.93251">
        <ele>2036.8</ele>
        <time>2020-07-12T15:00:05 02:00</time>
      </trkpt>
      <trkpt lat="45.06142" lon="5.93247">
        <ele>2036.8</ele>
        <time>2020-07-12T15:00:09 02:00</time>
      </trkpt>
      <trkpt lat="45.06143" lon="5.93246">
        <ele>2036.8</ele>
        <time>2020-07-12T15:00:13 02:00</time>
      </trkpt>
      <trkpt lat="45.06145" lon="5.93243">
        <ele>2036.8</ele>
        <time>2020-07-12T15:00:16 02:00</time>
      </trkpt>
      <trkpt lat="45.06148" lon="5.93241">
        <ele>2036.8</ele>
        <time>2020-07-12T15:00:20 02:00</time>
      </trkpt>
      <trkpt lat="45.06149" lon="5.93237">
        <ele>2037</ele>
        <time>2020-07-12T15:00:23 02:00</time>
      </trkpt>
      <trkpt lat="45.06152" lon="5.93235">
        <ele>2036.8</ele>
        <time>2020-07-12T15:00:26 02:00</time>
      </trkpt>
      <trkpt lat="45.06153" lon="5.93235">
        <ele>2036.6</ele>
        <time>2020-07-12T15:00:27 02:00</time>
      </trkpt>
      <trkpt lat="45.06155" lon="5.93237">
        <ele>2036.4</ele>
        <time>2020-07-12T15:00:29 02:00</time>
      </trkpt>
      <trkpt lat="45.06158" lon="5.93239">
        <ele>2036.6</ele>
        <time>2020-07-12T15:00:32 02:00</time>
      </trkpt>
      <trkpt lat="45.06162" lon="5.93241">
        <ele>2036.8</ele>
        <time>2020-07-12T15:00:37 02:00</time>
      </trkpt>
      <trkpt lat="45.06166" lon="5.93241">
        <ele>2037.2</ele>
        <time>2020-07-12T15:00:40 02:00</time>
      </trkpt>
      <trkpt lat="45.06167" lon="5.9324">
        <ele>2037.6</ele>
        <time>2020-07-12T15:00:42 02:00</time>
      </trkpt>
      <trkpt lat="45.0617" lon="5.93238">
        <ele>2038.2</ele>
        <time>2020-07-12T15:00:46 02:00</time>
      </trkpt>
      <trkpt lat="45.06173" lon="5.93234">
        <ele>2038.2</ele>
        <time>2020-07-12T15:00:49 02:00</time>
      </trkpt>
      <trkpt lat="45.06175" lon="5.9323">
        <ele>2038.2</ele>
        <time>2020-07-12T15:00:53 02:00</time>
      </trkpt>
      <trkpt lat="45.06178" lon="5.93226">
        <ele>2038.2</ele>
        <time>2020-07-12T15:00:57 02:00</time>
      </trkpt>
      <trkpt lat="45.06181" lon="5.93224">
        <ele>2038.2</ele>
        <time>2020-07-12T15:01:01 02:00</time>
      </trkpt>
      <trkpt lat="45.06182" lon="5.93223">
        <ele>2038</ele>
        <time>2020-07-12T15:01:03 02:00</time>
      </trkpt>
      <trkpt lat="45.06184" lon="5.9322">
        <ele>2038</ele>
        <time>2020-07-12T15:01:06 02:00</time>
      </trkpt>
      <trkpt lat="45.06186" lon="5.93215">
        <ele>2038</ele>
        <time>2020-07-12T15:01:10 02:00</time>
      </trkpt>
      <trkpt lat="45.06187" lon="5.93211">
        <ele>2037.8</ele>
        <time>2020-07-12T15:01:13 02:00</time>
      </trkpt>
      <trkpt lat="45.06189" lon="5.93207">
        <ele>2037.4</ele>
        <time>2020-07-12T15:01:16 02:00</time>
      </trkpt>
      <trkpt lat="45.0619" lon="5.93203">
        <ele>2037.2</ele>
        <time>2020-07-12T15:01:19 02:00</time>
      </trkpt>
      <trkpt lat="45.0619" lon="5.93202">
        <ele>2037.2</ele>
        <time>2020-07-12T15:01:20 02:00</time>
      </trkpt>
      <trkpt lat="45.06194" lon="5.93201">
        <ele>2037.4</ele>
        <time>2020-07-12T15:01:25 02:00</time>
      </trkpt>
      <trkpt lat="45.06195" lon="5.93198">
        <ele>2038</ele>
        <time>2020-07-12T15:01:28 02:00</time>
      </trkpt>
      <trkpt lat="45.06196" lon="5.93196">
        <ele>2038.8</ele>
        <time>2020-07-12T15:01:29 02:00</time>
      </trkpt>
      <trkpt lat="45.06196" lon="5.93195">
        <ele>2039.4</ele>
        <time>2020-07-12T15:01:30 02:00</time>
      </trkpt>
      <trkpt lat="45.06196" lon="5.93192">
        <ele>2040</ele>
        <time>2020-07-12T15:01:32 02:00</time>
      </trkpt>
      <trkpt lat="45.06197" lon="5.93185">
        <ele>2040.2</ele>
        <time>2020-07-12T15:01:38 02:00</time>
      </trkpt>
      <trkpt lat="45.06196" lon="5.93184">
        <ele>2040.4</ele>
        <time>2020-07-12T15:01:39 02:00</time>
      </trkpt>
      <trkpt lat="45.06194" lon="5.93173">
        <ele>2040.4</ele>
        <time>2020-07-12T15:01:48 02:00</time>
      </trkpt>
      <trkpt lat="45.06193" lon="5.93172">
        <ele>2040.4</ele>
        <time>2020-07-12T15:01:49 02:00</time>
      </trkpt>
      <trkpt lat="45.06193" lon="5.93171">
        <ele>2040.2</ele>
        <time>2020-07-12T15:01:50 02:00</time>
      </trkpt>
      <trkpt lat="45.06192" lon="5.93169">
        <ele>2040.2</ele>
        <time>2020-07-12T15:01:51 02:00</time>
      </trkpt>
      <trkpt lat="45.0619" lon="5.93165">
        <ele>2040</ele>
        <time>2020-07-12T15:01:56 02:00</time>
      </trkpt>
      <trkpt lat="45.06189" lon="5.93162">
        <ele>2040.2</ele>
        <time>2020-07-12T15:01:59 02:00</time>
      </trkpt>
      <trkpt lat="45.06187" lon="5.93158">
        <ele>2040.2</ele>
        <time>2020-07-12T15:02:03 02:00</time>
      </trkpt>
      <trkpt lat="45.06187" lon="5.93158">
        <ele>2040.4</ele>
        <time>2020-07-12T15:02:04 02:00</time>
      </trkpt>
      <trkpt lat="45.06187" lon="5.93157">
        <ele>2040.6</ele>
        <time>2020-07-12T15:02:05 02:00</time>
      </trkpt>
      <trkpt lat="45.06185" lon="5.93153">
        <ele>2040.8</ele>
        <time>2020-07-12T15:02:09 02:00</time>
      </trkpt>
      <trkpt lat="45.06184" lon="5.93149">
        <ele>2040.8</ele>
        <time>2020-07-12T15:02:12 02:00</time>
      </trkpt>
      <trkpt lat="45.06183" lon="5.93147">
        <ele>2041</ele>
        <time>2020-07-12T15:02:14 02:00</time>
      </trkpt>
      <trkpt lat="45.06183" lon="5.93145">
        <ele>2041</ele>
        <time>2020-07-12T15:02:15 02:00</time>
      </trkpt>
      <trkpt lat="45.06183" lon="5.93143">
        <ele>2041</ele>
        <time>2020-07-12T15:02:16 02:00</time>
      </trkpt>
      <trkpt lat="45.06183" lon="5.93141">
        <ele>2041</ele>
        <time>2020-07-12T15:02:18 02:00</time>
      </trkpt>
      <trkpt lat="45.06183" lon="5.9314">
        <ele>2041</ele>
        <time>2020-07-12T15:02:20 02:00</time>
      </trkpt>
      <trkpt lat="45.06183" lon="5.93139">
        <ele>2041</ele>
        <time>2020-07-12T15:02:21 02:00</time>
      </trkpt>
      <trkpt lat="45.06182" lon="5.93138">
        <ele>2041</ele>
        <time>2020-07-12T15:02:22 02:00</time>
      </trkpt>
      <trkpt lat="45.06182" lon="5.93137">
        <ele>2041</ele>
        <time>2020-07-12T15:02:23 02:00</time>
      </trkpt>
      <trkpt lat="45.06181" lon="5.93133">
        <ele>2041</ele>
        <time>2020-07-12T15:02:26 02:00</time>
      </trkpt>
      <trkpt lat="45.06181" lon="5.93129">
        <ele>2040.8</ele>
        <time>2020-07-12T15:02:29 02:00</time>
      </trkpt>
      <trkpt lat="45.06181" lon="5.93128">
        <ele>2040.6</ele>
        <time>2020-07-12T15:02:30 02:00</time>
      </trkpt>
      <trkpt lat="45.0618" lon="5.93127">
        <ele>2040.4</ele>
        <time>2020-07-12T15:02:31 02:00</time>
      </trkpt>
      <trkpt lat="45.0618" lon="5.93123">
        <ele>2040.2</ele>
        <time>2020-07-12T15:02:34 02:00</time>
      </trkpt>
      <trkpt lat="45.06181" lon="5.9312">
        <ele>2040</ele>
        <time>2020-07-12T15:02:36 02:00</time>
      </trkpt>
      <trkpt lat="45.06181" lon="5.93119">
        <ele>2040</ele>
        <time>2020-07-12T15:02:37 02:00</time>
      </trkpt>
      <trkpt lat="45.06183" lon="5.93114">
        <ele>2040</ele>
        <time>2020-07-12T15:02:41 02:00</time>
      </trkpt>
      <trkpt lat="45.06184" lon="5.93111">
        <ele>2040</ele>
        <time>2020-07-12T15:02:44 02:00</time>
      </trkpt>
      <trkpt lat="45.06185" lon="5.93105">
        <ele>2039.8</ele>
        <time>2020-07-12T15:02:49 02:00</time>
      </trkpt>
      <trkpt lat="45.06186" lon="5.93101">
        <ele>2039.6</ele>
        <time>2020-07-12T15:02:52 02:00</time>
      </trkpt>
      <trkpt lat="45.06186" lon="5.93097">
        <ele>2039.4</ele>
        <time>2020-07-12T15:02:55 02:00</time>
      </trkpt>
      <trkpt lat="45.06188" lon="5.93093">
        <ele>2039.2</ele>
        <time>2020-07-12T15:02:58 02:00</time>
      </trkpt>
      <trkpt lat="45.06189" lon="5.93088">
        <ele>2039.2</ele>
        <time>2020-07-12T15:03:02 02:00</time>
      </trkpt>
      <trkpt lat="45.06189" lon="5.93086">
        <ele>2039.2</ele>
        <time>2020-07-12T15:03:09 02:00</time>
      </trkpt>
      <trkpt lat="45.0619" lon="5.93082">
        <ele>2039.2</ele>
        <time>2020-07-12T15:03:13 02:00</time>
      </trkpt>
      <trkpt lat="45.06189" lon="5.93078">
        <ele>2039.2</ele>
        <time>2020-07-12T15:03:16 02:00</time>
      </trkpt>
      <trkpt lat="45.06187" lon="5.93074">
        <ele>2039.2</ele>
        <time>2020-07-12T15:03:19 02:00</time>
      </trkpt>
      <trkpt lat="45.06186" lon="5.93069">
        <ele>2039</ele>
        <time>2020-07-12T15:03:22 02:00</time>
      </trkpt>
      <trkpt lat="45.06186" lon="5.93067">
        <ele>2039</ele>
        <time>2020-07-12T15:03:24 02:00</time>
      </trkpt>
      <trkpt lat="45.06186" lon="5.93065">
        <ele>2039</ele>
        <time>2020-07-12T15:03:26 02:00</time>
      </trkpt>
      <trkpt lat="45.06185" lon="5.9306">
        <ele>2038.8</ele>
        <time>2020-07-12T15:03:30 02:00</time>
      </trkpt>
      <trkpt lat="45.06184" lon="5.93057">
        <ele>2038.8</ele>
        <time>2020-07-12T15:03:33 02:00</time>
      </trkpt>
      <trkpt lat="45.06184" lon="5.93055">
        <ele>2039</ele>
        <time>2020-07-12T15:03:35 02:00</time>
      </trkpt>
      <trkpt lat="45.06183" lon="5.93055">
        <ele>2039.2</ele>
        <time>2020-07-12T15:03:36 02:00</time>
      </trkpt>
      <trkpt lat="45.06183" lon="5.93055">
        <ele>2039.4</ele>
        <time>2020-07-12T15:04:04 02:00</time>
      </trkpt>
      <trkpt lat="45.06184" lon="5.93055">
        <ele>2039.8</ele>
        <time>2020-07-12T15:04:05 02:00</time>
      </trkpt>
      <trkpt lat="45.06185" lon="5.93056">
        <ele>2040</ele>
        <time>2020-07-12T15:04:06 02:00</time>
      </trkpt>
      <trkpt lat="45.06188" lon="5.93055">
        <ele>2040.2</ele>
        <time>2020-07-12T15:04:10 02:00</time>
      </trkpt>
      <trkpt lat="45.06191" lon="5.93055">
        <ele>2040.4</ele>
        <time>2020-07-12T15:04:13 02:00</time>
      </trkpt>
      <trkpt lat="45.06193" lon="5.93052">
        <ele>2040.6</ele>
        <time>2020-07-12T15:04:16 02:00</time>
      </trkpt>
      <trkpt lat="45.06195" lon="5.93049">
        <ele>2040.6</ele>
        <time>2020-07-12T15:04:18 02:00</time>
      </trkpt>
      <trkpt lat="45.06198" lon="5.93047">
        <ele>2040.6</ele>
        <time>2020-07-12T15:04:21 02:00</time>
      </trkpt>
      <trkpt lat="45.06199" lon="5.93043">
        <ele>2040.4</ele>
        <time>2020-07-12T15:04:24 02:00</time>
      </trkpt>
      <trkpt lat="45.06201" lon="5.93039">
        <ele>2040.4</ele>
        <time>2020-07-12T15:04:27 02:00</time>
      </trkpt>
      <trkpt lat="45.06201" lon="5.93035">
        <ele>2040.4</ele>
        <time>2020-07-12T15:04:30 02:00</time>
      </trkpt>
      <trkpt lat="45.062" lon="5.93031">
        <ele>2040.6</ele>
        <time>2020-07-12T15:04:33 02:00</time>
      </trkpt>
      <trkpt lat="45.062" lon="5.93027">
        <ele>2040.8</ele>
        <time>2020-07-12T15:04:36 02:00</time>
      </trkpt>
      <trkpt lat="45.06201" lon="5.93021">
        <ele>2040.8</ele>
        <time>2020-07-12T15:04:40 02:00</time>
      </trkpt>
      <trkpt lat="45.06201" lon="5.93017">
        <ele>2040.6</ele>
        <time>2020-07-12T15:04:43 02:00</time>
      </trkpt>
      <trkpt lat="45.06198" lon="5.93016">
        <ele>2040.4</ele>
        <time>2020-07-12T15:04:47 02:00</time>
      </trkpt>
      <trkpt lat="45.06195" lon="5.93014">
        <ele>2039.8</ele>
        <time>2020-07-12T15:04:51 02:00</time>
      </trkpt>
      <trkpt lat="45.06194" lon="5.93013">
        <ele>2039.2</ele>
        <time>2020-07-12T15:04:52 02:00</time>
      </trkpt>
      <trkpt lat="45.06193" lon="5.93013">
        <ele>2038.8</ele>
        <time>2020-07-12T15:04:53 02:00</time>
      </trkpt>
      <trkpt lat="45.06192" lon="5.93011">
        <ele>2038.6</ele>
        <time>2020-07-12T15:04:54 02:00</time>
      </trkpt>
      <trkpt lat="45.06191" lon="5.93009">
        <ele>2038.4</ele>
        <time>2020-07-12T15:04:57 02:00</time>
      </trkpt>
      <trkpt lat="45.06189" lon="5.93011">
        <ele>2038.6</ele>
        <time>2020-07-12T15:05:00 02:00</time>
      </trkpt>
      <trkpt lat="45.06187" lon="5.93012">
        <ele>2038.6</ele>
        <time>2020-07-12T15:05:02 02:00</time>
      </trkpt>
      <trkpt lat="45.06186" lon="5.93012">
        <ele>2039</ele>
        <time>2020-07-12T15:05:31 02:00</time>
      </trkpt>
      <trkpt lat="45.06186" lon="5.93011">
        <ele>2039.4</ele>
        <time>2020-07-12T15:05:32 02:00</time>
      </trkpt>
      <trkpt lat="45.06186" lon="5.93013">
        <ele>2039.6</ele>
        <time>2020-07-12T15:11:24 02:00</time>
      </trkpt>
      <trkpt lat="45.06187" lon="5.93013">
        <ele>2039.8</ele>
        <time>2020-07-12T15:11:25 02:00</time>
      </trkpt>
      <trkpt lat="45.06183" lon="5.93008">
        <ele>2040.2</ele>
        <time>2020-07-12T15:12:50 02:00</time>
      </trkpt>
      <trkpt lat="45.06183" lon="5.93008">
        <ele>2040</ele>
        <time>2020-07-12T15:12:51 02:00</time>
      </trkpt>
      <trkpt lat="45.06182" lon="5.93008">
        <ele>2039.6</ele>
        <time>2020-07-12T15:12:52 02:00</time>
      </trkpt>
      <trkpt lat="45.06182" lon="5.93007">
        <ele>2039.4</ele>
        <time>2020-07-12T15:12:53 02:00</time>
      </trkpt>
      <trkpt lat="45.06183" lon="5.93006">
        <ele>2039.2</ele>
        <time>2020-07-12T15:12:54 02:00</time>
      </trkpt>
      <trkpt lat="45.06181" lon="5.93002">
        <ele>2039.2</ele>
        <time>2020-07-12T15:12:58 02:00</time>
      </trkpt>
      <trkpt lat="45.06177" lon="5.92999">
        <ele>2039.4</ele>
        <time>2020-07-12T15:13:10 02:00</time>
      </trkpt>
      <trkpt lat="45.06173" lon="5.92997">
        <ele>2039.6</ele>
        <time>2020-07-12T15:13:14 02:00</time>
      </trkpt>
      <trkpt lat="45.06171" lon="5.92997">
        <ele>2039.8</ele>
        <time>2020-07-12T15:13:15 02:00</time>
      </trkpt>
      <trkpt lat="45.06171" lon="5.92996">
        <ele>2040</ele>
        <time>2020-07-12T15:13:16 02:00</time>
      </trkpt>
      <trkpt lat="45.06168" lon="5.92995">
        <ele>2039.8</ele>
        <time>2020-07-12T15:13:19 02:00</time>
      </trkpt>
      <trkpt lat="45.06166" lon="5.92995">
        <ele>2039.4</ele>
        <time>2020-07-12T15:13:23 02:00</time>
      </trkpt>
      <trkpt lat="45.06163" lon="5.92993">
        <ele>2039.2</ele>
        <time>2020-07-12T15:13:26 02:00</time>
      </trkpt>
      <trkpt lat="45.0616" lon="5.92992">
        <ele>2039</ele>
        <time>2020-07-12T15:13:29 02:00</time>
      </trkpt>
      <trkpt lat="45.06158" lon="5.92992">
        <ele>2038.8</ele>
        <time>2020-07-12T15:13:30 02:00</time>
      </trkpt>
      <trkpt lat="45.06158" lon="5.92991">
        <ele>2039</ele>
        <time>2020-07-12T15:13:32 02:00</time>
      </trkpt>
      <trkpt lat="45.06157" lon="5.9299">
        <ele>2039.4</ele>
        <time>2020-07-12T15:13:33 02:00</time>
      </trkpt>
      <trkpt lat="45.06155" lon="5.92987">
        <ele>2039.8</ele>
        <time>2020-07-12T15:13:39 02:00</time>
      </trkpt>
      <trkpt lat="45.06155" lon="5.92987">
        <ele>2040.2</ele>
        <time>2020-07-12T15:13:40 02:00</time>
      </trkpt>
      <trkpt lat="45.06154" lon="5.92986">
        <ele>2040.6</ele>
        <time>2020-07-12T15:13:42 02:00</time>
      </trkpt>
      <trkpt lat="45.06151" lon="5.92983">
        <ele>2040.8</ele>
        <time>2020-07-12T15:13:45 02:00</time>
      </trkpt>
      <trkpt lat="45.0615" lon="5.9298">
        <ele>2041</ele>
        <time>2020-07-12T15:13:48 02:00</time>
      </trkpt>
      <trkpt lat="45.06148" lon="5.92978">
        <ele>2041</ele>
        <time>2020-07-12T15:13:51 02:00</time>
      </trkpt>
      <trkpt lat="45.06148" lon="5.92977">
        <ele>2041</ele>
        <time>2020-07-12T15:13:52 02:00</time>
      </trkpt>
      <trkpt lat="45.06146" lon="5.92974">
        <ele>2041</ele>
        <time>2020-07-12T15:13:55 02:00</time>
      </trkpt>
      <trkpt lat="45.06146" lon="5.92973">
        <ele>2041</ele>
        <time>2020-07-12T15:13:56 02:00</time>
      </trkpt>
      <trkpt lat="45.06145" lon="5.92972">
        <ele>2041.2</ele>
        <time>2020-07-12T15:13:57 02:00</time>
      </trkpt>
      <trkpt lat="45.06144" lon="5.92972">
        <ele>2041.4</ele>
        <time>2020-07-12T15:13:58 02:00</time>
      </trkpt>
      <trkpt lat="45.06142" lon="5.92969">
        <ele>2041.6</ele>
        <time>2020-07-12T15:14:01 02:00</time>
      </trkpt>
      <trkpt lat="45.06141" lon="5.92968">
        <ele>2041.8</ele>
        <time>2020-07-12T15:14:03 02:00</time>
      </trkpt>
      <trkpt lat="45.0614" lon="5.92968">
        <ele>2042</ele>
        <time>2020-07-12T15:14:04 02:00</time>
      </trkpt>
      <trkpt lat="45.06139" lon="5.92967">
        <ele>2042</ele>
        <time>2020-07-12T15:14:05 02:00</time>
      </trkpt>
      <trkpt lat="45.06138" lon="5.92967">
        <ele>2042.2</ele>
        <time>2020-07-12T15:14:07 02:00</time>
      </trkpt>
      <trkpt lat="45.06134" lon="5.92966">
        <ele>2042.4</ele>
        <time>2020-07-12T15:14:11 02:00</time>
      </trkpt>
      <trkpt lat="45.06131" lon="5.92964">
        <ele>2042.8</ele>
        <time>2020-07-12T15:14:14 02:00</time>
      </trkpt>
      <trkpt lat="45.06128" lon="5.92962">
        <ele>2043</ele>
        <time>2020-07-12T15:14:17 02:00</time>
      </trkpt>
      <trkpt lat="45.06125" lon="5.92961">
        <ele>2043.4</ele>
        <time>2020-07-12T15:14:21 02:00</time>
      </trkpt>
      <trkpt lat="45.06123" lon="5.9296">
        <ele>2043.6</ele>
        <time>2020-07-12T15:14:24 02:00</time>
      </trkpt>
      <trkpt lat="45.06119" lon="5.92959">
        <ele>2043.8</ele>
        <time>2020-07-12T15:14:27 02:00</time>
      </trkpt>
      <trkpt lat="45.06115" lon="5.92958">
        <ele>2044</ele>
        <time>2020-07-12T15:14:31 02:00</time>
      </trkpt>
      <trkpt lat="45.06113" lon="5.92957">
        <ele>2044.4</ele>
        <time>2020-07-12T15:14:33 02:00</time>
      </trkpt>
      <trkpt lat="45.06113" lon="5.92957">
        <ele>2044.6</ele>
        <time>2020-07-12T15:14:34 02:00</time>
      </trkpt>
      <trkpt lat="45.06111" lon="5.92957">
        <ele>2044.8</ele>
        <time>2020-07-12T15:14:36 02:00</time>
      </trkpt>
      <trkpt lat="45.0611" lon="5.92957">
        <ele>2045.2</ele>
        <time>2020-07-12T15:14:37 02:00</time>
      </trkpt>
      <trkpt lat="45.0611" lon="5.92957">
        <ele>2045.4</ele>
        <time>2020-07-12T15:14:38 02:00</time>
      </trkpt>
      <trkpt lat="45.06109" lon="5.92956">
        <ele>2045.4</ele>
        <time>2020-07-12T15:14:39 02:00</time>
      </trkpt>
      <trkpt lat="45.06108" lon="5.92956">
        <ele>2045.6</ele>
        <time>2020-07-12T15:14:40 02:00</time>
      </trkpt>
      <trkpt lat="45.06107" lon="5.92956">
        <ele>2045.6</ele>
        <time>2020-07-12T15:14:41 02:00</time>
      </trkpt>
      <trkpt lat="45.06106" lon="5.92956">
        <ele>2045.4</ele>
        <time>2020-07-12T15:14:42 02:00</time>
      </trkpt>
      <trkpt lat="45.06103" lon="5.92954">
        <ele>2045.6</ele>
        <time>2020-07-12T15:14:48 02:00</time>
      </trkpt>
      <trkpt lat="45.06101" lon="5.92953">
        <ele>2045.8</ele>
        <time>2020-07-12T15:14:51 02:00</time>
      </trkpt>
      <trkpt lat="45.06097" lon="5.92952">
        <ele>2046</ele>
        <time>2020-07-12T15:14:54 02:00</time>
      </trkpt>
      <trkpt lat="45.06094" lon="5.92951">
        <ele>2046.4</ele>
        <time>2020-07-12T15:14:58 02:00</time>
      </trkpt>
      <trkpt lat="45.06091" lon="5.92952">
        <ele>2047</ele>
        <time>2020-07-12T15:15:02 02:00</time>
      </trkpt>
      <trkpt lat="45.06088" lon="5.92952">
        <ele>2047.2</ele>
        <time>2020-07-12T15:15:05 02:00</time>
      </trkpt>
      <trkpt lat="45.06085" lon="5.92953">
        <ele>2048</ele>
        <time>2020-07-12T15:15:08 02:00</time>
      </trkpt>
      <trkpt lat="45.06083" lon="5.92953">
        <ele>2048.6</ele>
        <time>2020-07-12T15:15:11 02:00</time>
      </trkpt>
      <trkpt lat="45.06079" lon="5.92951">
        <ele>2049</ele>
        <time>2020-07-12T15:15:14 02:00</time>
      </trkpt>
      <trkpt lat="45.06077" lon="5.92951">
        <ele>2049.2</ele>
        <time>2020-07-12T15:15:17 02:00</time>
      </trkpt>
      <trkpt lat="45.06074" lon="5.9295">
        <ele>2049.4</ele>
        <time>2020-07-12T15:15:20 02:00</time>
      </trkpt>
      <trkpt lat="45.06071" lon="5.92948">
        <ele>2049</ele>
        <time>2020-07-12T15:15:23 02:00</time>
      </trkpt>
      <trkpt lat="45.06068" lon="5.92948">
        <ele>2048.6</ele>
        <time>2020-07-12T15:15:26 02:00</time>
      </trkpt>
      <trkpt lat="45.06064" lon="5.92949">
        <ele>2048.4</ele>
        <time>2020-07-12T15:15:30 02:00</time>
      </trkpt>
      <trkpt lat="45.06062" lon="5.92948">
        <ele>2048.2</ele>
        <time>2020-07-12T15:15:33 02:00</time>
      </trkpt>
      <trkpt lat="45.06059" lon="5.92948">
        <ele>2048</ele>
        <time>2020-07-12T15:15:36 02:00</time>
      </trkpt>
      <trkpt lat="45.06056" lon="5.92948">
        <ele>2048</ele>
        <time>2020-07-12T15:15:39 02:00</time>
      </trkpt>
      <trkpt lat="45.06052" lon="5.92948">
        <ele>2048.2</ele>
        <time>2020-07-12T15:15:42 02:00</time>
      </trkpt>
      <trkpt lat="45.06049" lon="5.92948">
        <ele>2048.4</ele>
        <time>2020-07-12T15:15:45 02:00</time>
      </trkpt>
      <trkpt lat="45.06046" lon="5.92949">
        <ele>2048.6</ele>
        <time>2020-07-12T15:15:48 02:00</time>
      </trkpt>
      <trkpt lat="45.06043" lon="5.92949">
        <ele>2049</ele>
        <time>2020-07-12T15:15:52 02:00</time>
      </trkpt>
      <trkpt lat="45.06039" lon="5.9295">
        <ele>2049.4</ele>
        <time>2020-07-12T15:15:56 02:00</time>
      </trkpt>
      <trkpt lat="45.06038" lon="5.92951">
        <ele>2049.6</ele>
        <time>2020-07-12T15:15:58 02:00</time>
      </trkpt>
      <trkpt lat="45.06038" lon="5.92951">
        <ele>2049.8</ele>
        <time>2020-07-12T15:15:59 02:00</time>
      </trkpt>
      <trkpt lat="45.06036" lon="5.9295">
        <ele>2050</ele>
        <time>2020-07-12T15:16:01 02:00</time>
      </trkpt>
      <trkpt lat="45.06035" lon="5.92948">
        <ele>2050</ele>
        <time>2020-07-12T15:16:05 02:00</time>
      </trkpt>
      <trkpt lat="45.06031" lon="5.92946">
        <ele>2050.4</ele>
        <time>2020-07-12T15:16:09 02:00</time>
      </trkpt>
      <trkpt lat="45.06029" lon="5.92946">
        <ele>2050.8</ele>
        <time>2020-07-12T15:16:12 02:00</time>
      </trkpt>
      <trkpt lat="45.06028" lon="5.92947">
        <ele>2051.2</ele>
        <time>2020-07-12T15:16:14 02:00</time>
      </trkpt>
      <trkpt lat="45.06024" lon="5.92948">
        <ele>2051.8</ele>
        <time>2020-07-12T15:16:18 02:00</time>
      </trkpt>
      <trkpt lat="45.06022" lon="5.92948">
        <ele>2052.4</ele>
        <time>2020-07-12T15:16:20 02:00</time>
      </trkpt>
      <trkpt lat="45.06022" lon="5.92948">
        <ele>2052.6</ele>
        <time>2020-07-12T15:16:21 02:00</time>
      </trkpt>
      <trkpt lat="45.06018" lon="5.92948">
        <ele>2052.8</ele>
        <time>2020-07-12T15:16:24 02:00</time>
      </trkpt>
      <trkpt lat="45.06017" lon="5.92946">
        <ele>2053</ele>
        <time>2020-07-12T15:16:26 02:00</time>
      </trkpt>
      <trkpt lat="45.06016" lon="5.92945">
        <ele>2053</ele>
        <time>2020-07-12T15:16:28 02:00</time>
      </trkpt>
      <trkpt lat="45.06014" lon="5.92945">
        <ele>2053</ele>
        <time>2020-07-12T15:16:30 02:00</time>
      </trkpt>
      <trkpt lat="45.06013" lon="5.92944">
        <ele>2053.2</ele>
        <time>2020-07-12T15:16:31 02:00</time>
      </trkpt>
      <trkpt lat="45.06011" lon="5.92942">
        <ele>2053.2</ele>
        <time>2020-07-12T15:16:34 02:00</time>
      </trkpt>
      <trkpt lat="45.06008" lon="5.92941">
        <ele>2053.2</ele>
        <time>2020-07-12T15:16:38 02:00</time>
      </trkpt>
      <trkpt lat="45.06004" lon="5.92941">
        <ele>2053</ele>
        <time>2020-07-12T15:16:42 02:00</time>
      </trkpt>
      <trkpt lat="45.06001" lon="5.92941">
        <ele>2052.6</ele>
        <time>2020-07-12T15:16:45 02:00</time>
      </trkpt>
      <trkpt lat="45.05998" lon="5.92939">
        <ele>2052.4</ele>
        <time>2020-07-12T15:16:48 02:00</time>
      </trkpt>
      <trkpt lat="45.05995" lon="5.92938">
        <ele>2052.2</ele>
        <time>2020-07-12T15:16:51 02:00</time>
      </trkpt>
      <trkpt lat="45.05992" lon="5.92936">
        <ele>2051.8</ele>
        <time>2020-07-12T15:16:55 02:00</time>
      </trkpt>
      <trkpt lat="45.05989" lon="5.92934">
        <ele>2051.8</ele>
        <time>2020-07-12T15:16:59 02:00</time>
      </trkpt>
      <trkpt lat="45.05988" lon="5.92934">
        <ele>2052</ele>
        <time>2020-07-12T15:17:00 02:00</time>
      </trkpt>
      <trkpt lat="45.05988" lon="5.92934">
        <ele>2051.8</ele>
        <time>2020-07-12T15:17:01 02:00</time>
      </trkpt>
      <trkpt lat="45.05985" lon="5.92932">
        <ele>2051.8</ele>
        <time>2020-07-12T15:17:05 02:00</time>
      </trkpt>
      <trkpt lat="45.05981" lon="5.92931">
        <ele>2052</ele>
        <time>2020-07-12T15:17:08 02:00</time>
      </trkpt>
      <trkpt lat="45.05978" lon="5.92929">
        <ele>2052.2</ele>
        <time>2020-07-12T15:17:11 02:00</time>
      </trkpt>
      <trkpt lat="45.05976" lon="5.92927">
        <ele>2052.6</ele>
        <time>2020-07-12T15:17:14 02:00</time>
      </trkpt>
      <trkpt lat="45.05972" lon="5.92927">
        <ele>2052.8</ele>
        <time>2020-07-12T15:17:17 02:00</time>
      </trkpt>
      <trkpt lat="45.05969" lon="5.92928">
        <ele>2053.2</ele>
        <time>2020-07-12T15:17:20 02:00</time>
      </trkpt>
      <trkpt lat="45.05965" lon="5.92929">
        <ele>2053.8</ele>
        <time>2020-07-12T15:17:23 02:00</time>
      </trkpt>
      <trkpt lat="45.05962" lon="5.92929">
        <ele>2054.2</ele>
        <time>2020-07-12T15:17:26 02:00</time>
      </trkpt>
      <trkpt lat="45.05959" lon="5.92929">
        <ele>2054.6</ele>
        <time>2020-07-12T15:17:29 02:00</time>
      </trkpt>
      <trkpt lat="45.05956" lon="5.9293">
        <ele>2055.2</ele>
        <time>2020-07-12T15:17:32 02:00</time>
      </trkpt>
      <trkpt lat="45.05953" lon="5.92931">
        <ele>2055.4</ele>
        <time>2020-07-12T15:17:35 02:00</time>
      </trkpt>
      <trkpt lat="45.05949" lon="5.92933">
        <ele>2055.4</ele>
        <time>2020-07-12T15:17:38 02:00</time>
      </trkpt>
      <trkpt lat="45.05946" lon="5.92933">
        <ele>2055.4</ele>
        <time>2020-07-12T15:17:41 02:00</time>
      </trkpt>
      <trkpt lat="45.05943" lon="5.92935">
        <ele>2055.2</ele>
        <time>2020-07-12T15:17:44 02:00</time>
      </trkpt>
      <trkpt lat="45.05939" lon="5.92936">
        <ele>2054.8</ele>
        <time>2020-07-12T15:17:48 02:00</time>
      </trkpt>
      <trkpt lat="45.05936" lon="5.92936">
        <ele>2054.6</ele>
        <time>2020-07-12T15:17:52 02:00</time>
      </trkpt>
      <trkpt lat="45.05935" lon="5.92936">
        <ele>2054.6</ele>
        <time>2020-07-12T15:17:54 02:00</time>
      </trkpt>
      <trkpt lat="45.05933" lon="5.92937">
        <ele>2054.8</ele>
        <time>2020-07-12T15:17:56 02:00</time>
      </trkpt>
      <trkpt lat="45.05932" lon="5.92936">
        <ele>2054.8</ele>
        <time>2020-07-12T15:17:59 02:00</time>
      </trkpt>
      <trkpt lat="45.0593" lon="5.92933">
        <ele>2055</ele>
        <time>2020-07-12T15:18:03 02:00</time>
      </trkpt>
      <trkpt lat="45.05929" lon="5.92932">
        <ele>2055.2</ele>
        <time>2020-07-12T15:18:04 02:00</time>
      </trkpt>
      <trkpt lat="45.05927" lon="5.92931">
        <ele>2055.2</ele>
        <time>2020-07-12T15:18:06 02:00</time>
      </trkpt>
      <trkpt lat="45.05924" lon="5.92929">
        <ele>2055.2</ele>
        <time>2020-07-12T15:18:10 02:00</time>
      </trkpt>
      <trkpt lat="45.05922" lon="5.92929">
        <ele>2055.2</ele>
        <time>2020-07-12T15:18:13 02:00</time>
      </trkpt>
      <trkpt lat="45.05922" lon="5.92928">
        <ele>2055.2</ele>
        <time>2020-07-12T15:18:19 02:00</time>
      </trkpt>
      <trkpt lat="45.05919" lon="5.92926">
        <ele>2055.2</ele>
        <time>2020-07-12T15:18:22 02:00</time>
      </trkpt>
      <trkpt lat="45.05919" lon="5.92926">
        <ele>2055</ele>
        <time>2020-07-12T15:18:23 02:00</time>
      </trkpt>
      <trkpt lat="45.05919" lon="5.92926">
        <ele>2054.6</ele>
        <time>2020-07-12T15:18:24 02:00</time>
      </trkpt>
      <trkpt lat="45.05916" lon="5.92925">
        <ele>2054.4</ele>
        <time>2020-07-12T15:18:27 02:00</time>
      </trkpt>
      <trkpt lat="45.05912" lon="5.92924">
        <ele>2054.2</ele>
        <time>2020-07-12T15:18:30 02:00</time>
      </trkpt>
      <trkpt lat="45.05909" lon="5.92923">
        <ele>2054</ele>
        <time>2020-07-12T15:18:33 02:00</time>
      </trkpt>
      <trkpt lat="45.05906" lon="5.92921">
        <ele>2054</ele>
        <time>2020-07-12T15:18:36 02:00</time>
      </trkpt>
      <trkpt lat="45.05903" lon="5.92921">
        <ele>2054</ele>
        <time>2020-07-12T15:18:39 02:00</time>
      </trkpt>
      <trkpt lat="45.05901" lon="5.92918">
        <ele>2053.8</ele>
        <time>2020-07-12T15:18:43 02:00</time>
      </trkpt>
      <trkpt lat="45.05898" lon="5.92914">
        <ele>2053.6</ele>
        <time>2020-07-12T15:18:46 02:00</time>
      </trkpt>
      <trkpt lat="45.05897" lon="5.92911">
        <ele>2053.2</ele>
        <time>2020-07-12T15:18:49 02:00</time>
      </trkpt>
      <trkpt lat="45.05895" lon="5.92907">
        <ele>2053</ele>
        <time>2020-07-12T15:18:52 02:00</time>
      </trkpt>
      <trkpt lat="45.05892" lon="5.92904">
        <ele>2052.6</ele>
        <time>2020-07-12T15:18:55 02:00</time>
      </trkpt>
      <trkpt lat="45.05891" lon="5.929">
        <ele>2052.6</ele>
        <time>2020-07-12T15:18:58 02:00</time>
      </trkpt>
      <trkpt lat="45.05888" lon="5.92896">
        <ele>2052.8</ele>
        <time>2020-07-12T15:19:01 02:00</time>
      </trkpt>
      <trkpt lat="45.05885" lon="5.92895">
        <ele>2053</ele>
        <time>2020-07-12T15:19:04 02:00</time>
      </trkpt>
      <trkpt lat="45.05881" lon="5.92895">
        <ele>2052.8</ele>
        <time>2020-07-12T15:19:07 02:00</time>
      </trkpt>
      <trkpt lat="45.05878" lon="5.92895">
        <ele>2053</ele>
        <time>2020-07-12T15:19:10 02:00</time>
      </trkpt>
      <trkpt lat="45.05875" lon="5.92893">
        <ele>2052.8</ele>
        <time>2020-07-12T15:19:13 02:00</time>
      </trkpt>
      <trkpt lat="45.05873" lon="5.9289">
        <ele>2052.8</ele>
        <time>2020-07-12T15:19:16 02:00</time>
      </trkpt>
      <trkpt lat="45.05873" lon="5.92889">
        <ele>2053</ele>
        <time>2020-07-12T15:19:17 02:00</time>
      </trkpt>
      <trkpt lat="45.0587" lon="5.92888">
        <ele>2053.4</ele>
        <time>2020-07-12T15:19:20 02:00</time>
      </trkpt>
      <trkpt lat="45.05867" lon="5.92885">
        <ele>2053.4</ele>
        <time>2020-07-12T15:19:23 02:00</time>
      </trkpt>
      <trkpt lat="45.05866" lon="5.92885">
        <ele>2053.8</ele>
        <time>2020-07-12T15:19:24 02:00</time>
      </trkpt>
      <trkpt lat="45.05864" lon="5.92884">
        <ele>2053.6</ele>
        <time>2020-07-12T15:19:26 02:00</time>
      </trkpt>
      <trkpt lat="45.05861" lon="5.92884">
        <ele>2053.6</ele>
        <time>2020-07-12T15:19:29 02:00</time>
      </trkpt>
      <trkpt lat="45.05858" lon="5.92883">
        <ele>2053.6</ele>
        <time>2020-07-12T15:19:33 02:00</time>
      </trkpt>
      <trkpt lat="45.05855" lon="5.92883">
        <ele>2053.8</ele>
        <time>2020-07-12T15:19:36 02:00</time>
      </trkpt>
      <trkpt lat="45.05852" lon="5.92883">
        <ele>2053.6</ele>
        <time>2020-07-12T15:19:38 02:00</time>
      </trkpt>
      <trkpt lat="45.05851" lon="5.92883">
        <ele>2053.8</ele>
        <time>2020-07-12T15:19:39 02:00</time>
      </trkpt>
      <trkpt lat="45.05849" lon="5.92883">
        <ele>2053.6</ele>
        <time>2020-07-12T15:19:42 02:00</time>
      </trkpt>
      <trkpt lat="45.05848" lon="5.92883">
        <ele>2053.4</ele>
        <time>2020-07-12T15:19:43 02:00</time>
      </trkpt>
      <trkpt lat="45.05847" lon="5.92883">
        <ele>2053.2</ele>
        <time>2020-07-12T15:19:46 02:00</time>
      </trkpt>
      <trkpt lat="45.05844" lon="5.92884">
        <ele>2053.2</ele>
        <time>2020-07-12T15:19:49 02:00</time>
      </trkpt>
      <trkpt lat="45.0584" lon="5.92885">
        <ele>2053.2</ele>
        <time>2020-07-12T15:19:53 02:00</time>
      </trkpt>
      <trkpt lat="45.05837" lon="5.92886">
        <ele>2053.4</ele>
        <time>2020-07-12T15:19:56 02:00</time>
      </trkpt>
      <trkpt lat="45.05833" lon="5.92886">
        <ele>2053.8</ele>
        <time>2020-07-12T15:19:59 02:00</time>
      </trkpt>
      <trkpt lat="45.0583" lon="5.92888">
        <ele>2054.2</ele>
        <time>2020-07-12T15:20:02 02:00</time>
      </trkpt>
      <trkpt lat="45.05827" lon="5.92889">
        <ele>2054.6</ele>
        <time>2020-07-12T15:20:05 02:00</time>
      </trkpt>
      <trkpt lat="45.05824" lon="5.9289">
        <ele>2054.6</ele>
        <time>2020-07-12T15:20:08 02:00</time>
      </trkpt>
      <trkpt lat="45.05821" lon="5.92892">
        <ele>2054.6</ele>
        <time>2020-07-12T15:20:11 02:00</time>
      </trkpt>
      <trkpt lat="45.05817" lon="5.92891">
        <ele>2054.4</ele>
        <time>2020-07-12T15:20:14 02:00</time>
      </trkpt>
      <trkpt lat="45.05814" lon="5.92891">
        <ele>2054.4</ele>
        <time>2020-07-12T15:20:17 02:00</time>
      </trkpt>
      <trkpt lat="45.05811" lon="5.9289">
        <ele>2054.4</ele>
        <time>2020-07-12T15:20:20 02:00</time>
      </trkpt>
      <trkpt lat="45.05808" lon="5.9289">
        <ele>2054.4</ele>
        <time>2020-07-12T15:20:23 02:00</time>
      </trkpt>
      <trkpt lat="45.05804" lon="5.92889">
        <ele>2054.4</ele>
        <time>2020-07-12T15:20:27 02:00</time>
      </trkpt>
      <trkpt lat="45.05801" lon="5.92889">
        <ele>2054.6</ele>
        <time>2020-07-12T15:20:31 02:00</time>
      </trkpt>
      <trkpt lat="45.05799" lon="5.92889">
        <ele>2054.6</ele>
        <time>2020-07-12T15:20:34 02:00</time>
      </trkpt>
      <trkpt lat="45.05798" lon="5.92889">
        <ele>2054.6</ele>
        <time>2020-07-12T15:20:35 02:00</time>
      </trkpt>
      <trkpt lat="45.05798" lon="5.92889">
        <ele>2054.8</ele>
        <time>2020-07-12T15:20:36 02:00</time>
      </trkpt>
      <trkpt lat="45.05795" lon="5.92889">
        <ele>2055.2</ele>
        <time>2020-07-12T15:20:40 02:00</time>
      </trkpt>
      <trkpt lat="45.05794" lon="5.92889">
        <ele>2055.6</ele>
        <time>2020-07-12T15:20:41 02:00</time>
      </trkpt>
      <trkpt lat="45.0579" lon="5.92891">
        <ele>2056</ele>
        <time>2020-07-12T15:20:44 02:00</time>
      </trkpt>
      <trkpt lat="45.05788" lon="5.92891">
        <ele>2056.4</ele>
        <time>2020-07-12T15:20:47 02:00</time>
      </trkpt>
      <trkpt lat="45.05787" lon="5.92889">
        <ele>2057</ele>
        <time>2020-07-12T15:20:51 02:00</time>
      </trkpt>
      <trkpt lat="45.05785" lon="5.92888">
        <ele>2057.4</ele>
        <time>2020-07-12T15:20:53 02:00</time>
      </trkpt>
      <trkpt lat="45.05784" lon="5.92889">
        <ele>2057.6</ele>
        <time>2020-07-12T15:20:54 02:00</time>
      </trkpt>
      <trkpt lat="45.05782" lon="5.9289">
        <ele>2057.8</ele>
        <time>2020-07-12T15:20:56 02:00</time>
      </trkpt>
      <trkpt lat="45.05781" lon="5.92891">
        <ele>2058</ele>
        <time>2020-07-12T15:20:57 02:00</time>
      </trkpt>
      <trkpt lat="45.05779" lon="5.92893">
        <ele>2058.2</ele>
        <time>2020-07-12T15:21:00 02:00</time>
      </trkpt>
      <trkpt lat="45.05779" lon="5.92893">
        <ele>2058.4</ele>
        <time>2020-07-12T15:21:01 02:00</time>
      </trkpt>
      <trkpt lat="45.05775" lon="5.92895">
        <ele>2058.8</ele>
        <time>2020-07-12T15:21:04 02:00</time>
      </trkpt>
      <trkpt lat="45.05772" lon="5.92897">
        <ele>2059</ele>
        <time>2020-07-12T15:21:09 02:00</time>
      </trkpt>
      <trkpt lat="45.05772" lon="5.92897">
        <ele>2059.2</ele>
        <time>2020-07-12T15:21:10 02:00</time>
      </trkpt>
      <trkpt lat="45.05769" lon="5.92898">
        <ele>2059</ele>
        <time>2020-07-12T15:21:14 02:00</time>
      </trkpt>
      <trkpt lat="45.05767" lon="5.92899">
        <ele>2058.8</ele>
        <time>2020-07-12T15:21:17 02:00</time>
      </trkpt>
      <trkpt lat="45.05765" lon="5.92899">
        <ele>2058.4</ele>
        <time>2020-07-12T15:21:20 02:00</time>
      </trkpt>
      <trkpt lat="45.05763" lon="5.92897">
        <ele>2058</ele>
        <time>2020-07-12T15:21:23 02:00</time>
      </trkpt>
      <trkpt lat="45.05761" lon="5.92896">
        <ele>2057.4</ele>
        <time>2020-07-12T15:21:26 02:00</time>
      </trkpt>
      <trkpt lat="45.0576" lon="5.92896">
        <ele>2057.2</ele>
        <time>2020-07-12T15:21:28 02:00</time>
      </trkpt>
      <trkpt lat="45.05759" lon="5.92896">
        <ele>2057</ele>
        <time>2020-07-12T15:21:29 02:00</time>
      </trkpt>
      <trkpt lat="45.05758" lon="5.92897">
        <ele>2056.6</ele>
        <time>2020-07-12T15:21:30 02:00</time>
      </trkpt>
      <trkpt lat="45.05758" lon="5.92896">
        <ele>2056.6</ele>
        <time>2020-07-12T15:21:31 02:00</time>
      </trkpt>
      <trkpt lat="45.05757" lon="5.92896">
        <ele>2056.8</ele>
        <time>2020-07-12T15:21:32 02:00</time>
      </trkpt>
      <trkpt lat="45.05756" lon="5.92896">
        <ele>2056.8</ele>
        <time>2020-07-12T15:21:33 02:00</time>
      </trkpt>
      <trkpt lat="45.05754" lon="5.92896">
        <ele>2056.8</ele>
        <time>2020-07-12T15:21:36 02:00</time>
      </trkpt>
      <trkpt lat="45.05753" lon="5.92897">
        <ele>2056.8</ele>
        <time>2020-07-12T15:21:37 02:00</time>
      </trkpt>
      <trkpt lat="45.05752" lon="5.92899">
        <ele>2056.4</ele>
        <time>2020-07-12T15:21:39 02:00</time>
      </trkpt>
      <trkpt lat="45.05749" lon="5.92898">
        <ele>2056.2</ele>
        <time>2020-07-12T15:21:42 02:00</time>
      </trkpt>
      <trkpt lat="45.05746" lon="5.92899">
        <ele>2055.8</ele>
        <time>2020-07-12T15:21:45 02:00</time>
      </trkpt>
      <trkpt lat="45.05745" lon="5.92902">
        <ele>2055.4</ele>
        <time>2020-07-12T15:21:48 02:00</time>
      </trkpt>
      <trkpt lat="45.05742" lon="5.92905">
        <ele>2055.4</ele>
        <time>2020-07-12T15:21:52 02:00</time>
      </trkpt>
      <trkpt lat="45.05741" lon="5.92907">
        <ele>2055.6</ele>
        <time>2020-07-12T15:21:54 02:00</time>
      </trkpt>
      <trkpt lat="45.05741" lon="5.92907">
        <ele>2055.6</ele>
        <time>2020-07-12T15:21:55 02:00</time>
      </trkpt>
      <trkpt lat="45.05737" lon="5.92907">
        <ele>2055.8</ele>
        <time>2020-07-12T15:21:59 02:00</time>
      </trkpt>
      <trkpt lat="45.05734" lon="5.92908">
        <ele>2056</ele>
        <time>2020-07-12T15:22:03 02:00</time>
      </trkpt>
      <trkpt lat="45.05731" lon="5.92908">
        <ele>2056</ele>
        <time>2020-07-12T15:22:06 02:00</time>
      </trkpt>
      <trkpt lat="45.0573" lon="5.92907">
        <ele>2055.8</ele>
        <time>2020-07-12T15:22:07 02:00</time>
      </trkpt>
      <trkpt lat="45.05727" lon="5.92906">
        <ele>2055.8</ele>
        <time>2020-07-12T15:22:12 02:00</time>
      </trkpt>
      <trkpt lat="45.05725" lon="5.92903">
        <ele>2055.8</ele>
        <time>2020-07-12T15:22:15 02:00</time>
      </trkpt>
      <trkpt lat="45.05725" lon="5.92901">
        <ele>2056</ele>
        <time>2020-07-12T15:22:17 02:00</time>
      </trkpt>
      <trkpt lat="45.05724" lon="5.92898">
        <ele>2056.2</ele>
        <time>2020-07-12T15:22:21 02:00</time>
      </trkpt>
      <trkpt lat="45.05722" lon="5.92897">
        <ele>2056.4</ele>
        <time>2020-07-12T15:22:24 02:00</time>
      </trkpt>
      <trkpt lat="45.05722" lon="5.92897">
        <ele>2056.4</ele>
        <time>2020-07-12T15:22:25 02:00</time>
      </trkpt>
      <trkpt lat="45.05719" lon="5.92895">
        <ele>2056.6</ele>
        <time>2020-07-12T15:22:27 02:00</time>
      </trkpt>
      <trkpt lat="45.05718" lon="5.92894">
        <ele>2056.6</ele>
        <time>2020-07-12T15:22:28 02:00</time>
      </trkpt>
      <trkpt lat="45.05715" lon="5.92894">
        <ele>2056.6</ele>
        <time>2020-07-12T15:22:32 02:00</time>
      </trkpt>
      <trkpt lat="45.05714" lon="5.92894">
        <ele>2056.6</ele>
        <time>2020-07-12T15:22:34 02:00</time>
      </trkpt>
      <trkpt lat="45.05712" lon="5.92894">
        <ele>2056.4</ele>
        <time>2020-07-12T15:22:36 02:00</time>
      </trkpt>
      <trkpt lat="45.0571" lon="5.92893">
        <ele>2056</ele>
        <time>2020-07-12T15:22:38 02:00</time>
      </trkpt>
      <trkpt lat="45.05708" lon="5.92892">
        <ele>2055.6</ele>
        <time>2020-07-12T15:22:41 02:00</time>
      </trkpt>
      <trkpt lat="45.05706" lon="5.92892">
        <ele>2055.2</ele>
        <time>2020-07-12T15:22:44 02:00</time>
      </trkpt>
      <trkpt lat="45.05705" lon="5.92893">
        <ele>2055.2</ele>
        <time>2020-07-12T15:22:46 02:00</time>
      </trkpt>
      <trkpt lat="45.05701" lon="5.92893">
        <ele>2055.2</ele>
        <time>2020-07-12T15:22:49 02:00</time>
      </trkpt>
      <trkpt lat="45.05698" lon="5.92893">
        <ele>2055.2</ele>
        <time>2020-07-12T15:22:52 02:00</time>
      </trkpt>
      <trkpt lat="45.05693" lon="5.92892">
        <ele>2055</ele>
        <time>2020-07-12T15:22:56 02:00</time>
      </trkpt>
      <trkpt lat="45.05691" lon="5.92892">
        <ele>2054.8</ele>
        <time>2020-07-12T15:22:59 02:00</time>
      </trkpt>
      <trkpt lat="45.0569" lon="5.92892">
        <ele>2054.4</ele>
        <time>2020-07-12T15:23:00 02:00</time>
      </trkpt>
      <trkpt lat="45.05689" lon="5.92892">
        <ele>2054.2</ele>
        <time>2020-07-12T15:23:01 02:00</time>
      </trkpt>
      <trkpt lat="45.05686" lon="5.92892">
        <ele>2054</ele>
        <time>2020-07-12T15:23:04 02:00</time>
      </trkpt>
      <trkpt lat="45.05683" lon="5.92891">
        <ele>2054.2</ele>
        <time>2020-07-12T15:23:07 02:00</time>
      </trkpt>
      <trkpt lat="45.05681" lon="5.92891">
        <ele>2054.4</ele>
        <time>2020-07-12T15:23:09 02:00</time>
      </trkpt>
      <trkpt lat="45.0568" lon="5.92891">
        <ele>2054.6</ele>
        <time>2020-07-12T15:23:11 02:00</time>
      </trkpt>
      <trkpt lat="45.05679" lon="5.9289">
        <ele>2054.8</ele>
        <time>2020-07-12T15:23:12 02:00</time>
      </trkpt>
      <trkpt lat="45.05679" lon="5.92889">
        <ele>2055</ele>
        <time>2020-07-12T15:23:13 02:00</time>
      </trkpt>
      <trkpt lat="45.05679" lon="5.92889">
        <ele>2055</ele>
        <time>2020-07-12T15:23:14 02:00</time>
      </trkpt>
      <trkpt lat="45.05676" lon="5.92887">
        <ele>2055</ele>
        <time>2020-07-12T15:23:18 02:00</time>
      </trkpt>
      <trkpt lat="45.05673" lon="5.92887">
        <ele>2054.8</ele>
        <time>2020-07-12T15:23:21 02:00</time>
      </trkpt>
      <trkpt lat="45.0567" lon="5.92885">
        <ele>2054.8</ele>
        <time>2020-07-12T15:23:24 02:00</time>
      </trkpt>
      <trkpt lat="45.05669" lon="5.92885">
        <ele>2054.6</ele>
        <time>2020-07-12T15:23:25 02:00</time>
      </trkpt>
      <trkpt lat="45.05666" lon="5.92883">
        <ele>2054.6</ele>
        <time>2020-07-12T15:23:29 02:00</time>
      </trkpt>
      <trkpt lat="45.05664" lon="5.9288">
        <ele>2054.6</ele>
        <time>2020-07-12T15:23:32 02:00</time>
      </trkpt>
      <trkpt lat="45.05662" lon="5.92875">
        <ele>2054.8</ele>
        <time>2020-07-12T15:23:36 02:00</time>
      </trkpt>
      <trkpt lat="45.05658" lon="5.92873">
        <ele>2054.8</ele>
        <time>2020-07-12T15:23:40 02:00</time>
      </trkpt>
      <trkpt lat="45.05657" lon="5.92872">
        <ele>2055</ele>
        <time>2020-07-12T15:23:42 02:00</time>
      </trkpt>
      <trkpt lat="45.05656" lon="5.92872">
        <ele>2055</ele>
        <time>2020-07-12T15:23:43 02:00</time>
      </trkpt>
      <trkpt lat="45.05655" lon="5.9287">
        <ele>2055</ele>
        <time>2020-07-12T15:23:46 02:00</time>
      </trkpt>
      <trkpt lat="45.05654" lon="5.92869">
        <ele>2055</ele>
        <time>2020-07-12T15:23:47 02:00</time>
      </trkpt>
      <trkpt lat="45.0565" lon="5.92867">
        <ele>2055</ele>
        <time>2020-07-12T15:23:51 02:00</time>
      </trkpt>
      <trkpt lat="45.05647" lon="5.92867">
        <ele>2055</ele>
        <time>2020-07-12T15:23:54 02:00</time>
      </trkpt>
      <trkpt lat="45.05644" lon="5.92863">
        <ele>2055.2</ele>
        <time>2020-07-12T15:23:57 02:00</time>
      </trkpt>
      <trkpt lat="45.05644" lon="5.92861">
        <ele>2055.4</ele>
        <time>2020-07-12T15:23:59 02:00</time>
      </trkpt>
      <trkpt lat="45.05642" lon="5.9286">
        <ele>2055.6</ele>
        <time>2020-07-12T15:24:01 02:00</time>
      </trkpt>
      <trkpt lat="45.05639" lon="5.92856">
        <ele>2055.6</ele>
        <time>2020-07-12T15:24:04 02:00</time>
      </trkpt>
      <trkpt lat="45.05636" lon="5.92857">
        <ele>2055.6</ele>
        <time>2020-07-12T15:24:08 02:00</time>
      </trkpt>
      <trkpt lat="45.05634" lon="5.92857">
        <ele>2055.4</ele>
        <time>2020-07-12T15:24:11 02:00</time>
      </trkpt>
      <trkpt lat="45.05631" lon="5.92858">
        <ele>2055</ele>
        <time>2020-07-12T15:24:14 02:00</time>
      </trkpt>
      <trkpt lat="45.05629" lon="5.92858">
        <ele>2054.4</ele>
        <time>2020-07-12T15:24:16 02:00</time>
      </trkpt>
      <trkpt lat="45.05629" lon="5.92857">
        <ele>2054</ele>
        <time>2020-07-12T15:24:17 02:00</time>
      </trkpt>
      <trkpt lat="45.05628" lon="5.92857">
        <ele>2053.6</ele>
        <time>2020-07-12T15:24:18 02:00</time>
      </trkpt>
      <trkpt lat="45.05626" lon="5.92855">
        <ele>2053.2</ele>
        <time>2020-07-12T15:24:20 02:00</time>
      </trkpt>
      <trkpt lat="45.05626" lon="5.92856">
        <ele>2052.8</ele>
        <time>2020-07-12T15:24:21 02:00</time>
      </trkpt>
      <trkpt lat="45.05623" lon="5.92855">
        <ele>2052.6</ele>
        <time>2020-07-12T15:24:23 02:00</time>
      </trkpt>
      <trkpt lat="45.05619" lon="5.92858">
        <ele>2052.2</ele>
        <time>2020-07-12T15:24:26 02:00</time>
      </trkpt>
      <trkpt lat="45.05618" lon="5.9286">
        <ele>2052</ele>
        <time>2020-07-12T15:24:28 02:00</time>
      </trkpt>
      <trkpt lat="45.05618" lon="5.9286">
        <ele>2051.8</ele>
        <time>2020-07-12T15:24:29 02:00</time>
      </trkpt>
      <trkpt lat="45.05615" lon="5.92861">
        <ele>2051.4</ele>
        <time>2020-07-12T15:24:33 02:00</time>
      </trkpt>
      <trkpt lat="45.05614" lon="5.92861">
        <ele>2051.2</ele>
        <time>2020-07-12T15:24:34 02:00</time>
      </trkpt>
      <trkpt lat="45.0561" lon="5.92861">
        <ele>2051.2</ele>
        <time>2020-07-12T15:24:38 02:00</time>
      </trkpt>
      <trkpt lat="45.05607" lon="5.92862">
        <ele>2051</ele>
        <time>2020-07-12T15:24:41 02:00</time>
      </trkpt>
      <trkpt lat="45.05605" lon="5.92861">
        <ele>2051</ele>
        <time>2020-07-12T15:24:45 02:00</time>
      </trkpt>
      <trkpt lat="45.05602" lon="5.9286">
        <ele>2051.6</ele>
        <time>2020-07-12T15:24:47 02:00</time>
      </trkpt>
      <trkpt lat="45.05599" lon="5.92858">
        <ele>2051.8</ele>
        <time>2020-07-12T15:24:50 02:00</time>
      </trkpt>
      <trkpt lat="45.05596" lon="5.92857">
        <ele>2052.2</ele>
        <time>2020-07-12T15:24:53 02:00</time>
      </trkpt>
      <trkpt lat="45.05592" lon="5.92856">
        <ele>2052.6</ele>
        <time>2020-07-12T15:24:56 02:00</time>
      </trkpt>
      <trkpt lat="45.05589" lon="5.92854">
        <ele>2052.6</ele>
        <time>2020-07-12T15:25:00 02:00</time>
      </trkpt>
      <trkpt lat="45.05586" lon="5.92853">
        <ele>2052.4</ele>
        <time>2020-07-12T15:25:03 02:00</time>
      </trkpt>
      <trkpt lat="45.05584" lon="5.92852">
        <ele>2052.2</ele>
        <time>2020-07-12T15:25:06 02:00</time>
      </trkpt>
      <trkpt lat="45.05581" lon="5.92851">
        <ele>2051.8</ele>
        <time>2020-07-12T15:25:09 02:00</time>
      </trkpt>
      <trkpt lat="45.05578" lon="5.9285">
        <ele>2051.4</ele>
        <time>2020-07-12T15:25:12 02:00</time>
      </trkpt>
      <trkpt lat="45.05575" lon="5.92849">
        <ele>2051.2</ele>
        <time>2020-07-12T15:25:15 02:00</time>
      </trkpt>
      <trkpt lat="45.05572" lon="5.92848">
        <ele>2051</ele>
        <time>2020-07-12T15:25:18 02:00</time>
      </trkpt>
      <trkpt lat="45.0557" lon="5.92845">
        <ele>2050.8</ele>
        <time>2020-07-12T15:25:21 02:00</time>
      </trkpt>
      <trkpt lat="45.05568" lon="5.92842">
        <ele>2050.8</ele>
        <time>2020-07-12T15:25:25 02:00</time>
      </trkpt>
      <trkpt lat="45.05567" lon="5.92841">
        <ele>2050.8</ele>
        <time>2020-07-12T15:25:26 02:00</time>
      </trkpt>
      <trkpt lat="45.05565" lon="5.92839">
        <ele>2050.6</ele>
        <time>2020-07-12T15:25:29 02:00</time>
      </trkpt>
      <trkpt lat="45.05562" lon="5.92836">
        <ele>2050.6</ele>
        <time>2020-07-12T15:25:32 02:00</time>
      </trkpt>
      <trkpt lat="45.0556" lon="5.92832">
        <ele>2050.8</ele>
        <time>2020-07-12T15:25:35 02:00</time>
      </trkpt>
      <trkpt lat="45.05558" lon="5.92829">
        <ele>2050.8</ele>
        <time>2020-07-12T15:25:38 02:00</time>
      </trkpt>
      <trkpt lat="45.05557" lon="5.92827">
        <ele>2050.8</ele>
        <time>2020-07-12T15:25:40 02:00</time>
      </trkpt>
      <trkpt lat="45.05556" lon="5.92827">
        <ele>2051</ele>
        <time>2020-07-12T15:25:41 02:00</time>
      </trkpt>
      <trkpt lat="45.05555" lon="5.92825">
        <ele>2051</ele>
        <time>2020-07-12T15:25:43 02:00</time>
      </trkpt>
      <trkpt lat="45.05554" lon="5.92825">
        <ele>2051.2</ele>
        <time>2020-07-12T15:25:44 02:00</time>
      </trkpt>
      <trkpt lat="45.05552" lon="5.92821">
        <ele>2051.4</ele>
        <time>2020-07-12T15:25:48 02:00</time>
      </trkpt>
      <trkpt lat="45.0555" lon="5.92817">
        <ele>2051.4</ele>
        <time>2020-07-12T15:25:52 02:00</time>
      </trkpt>
      <trkpt lat="45.05549" lon="5.92816">
        <ele>2051.4</ele>
        <time>2020-07-12T15:25:53 02:00</time>
      </trkpt>
      <trkpt lat="45.0555" lon="5.92815">
        <ele>2051.4</ele>
        <time>2020-07-12T15:25:54 02:00</time>
      </trkpt>
      <trkpt lat="45.05549" lon="5.92811">
        <ele>2051.2</ele>
        <time>2020-07-12T15:25:57 02:00</time>
      </trkpt>
      <trkpt lat="45.05548" lon="5.92807">
        <ele>2051</ele>
        <time>2020-07-12T15:26:00 02:00</time>
      </trkpt>
      <trkpt lat="45.05547" lon="5.92802">
        <ele>2051</ele>
        <time>2020-07-12T15:26:03 02:00</time>
      </trkpt>
      <trkpt lat="45.05547" lon="5.92801">
        <ele>2051</ele>
        <time>2020-07-12T15:26:04 02:00</time>
      </trkpt>
      <trkpt lat="45.05547" lon="5.92797">
        <ele>2051</ele>
        <time>2020-07-12T15:26:08 02:00</time>
      </trkpt>
      <trkpt lat="45.05547" lon="5.92792">
        <ele>2051.2</ele>
        <time>2020-07-12T15:26:11 02:00</time>
      </trkpt>
      <trkpt lat="45.05545" lon="5.92789">
        <ele>2051.4</ele>
        <time>2020-07-12T15:26:14 02:00</time>
      </trkpt>
      <trkpt lat="45.05545" lon="5.92784">
        <ele>2051.6</ele>
        <time>2020-07-12T15:26:17 02:00</time>
      </trkpt>
      <trkpt lat="45.05545" lon="5.9278">
        <ele>2051.8</ele>
        <time>2020-07-12T15:26:21 02:00</time>
      </trkpt>
      <trkpt lat="45.05545" lon="5.92776">
        <ele>2052</ele>
        <time>2020-07-12T15:26:23 02:00</time>
      </trkpt>
      <trkpt lat="45.05545" lon="5.92771">
        <ele>2052</ele>
        <time>2020-07-12T15:26:26 02:00</time>
      </trkpt>
      <trkpt lat="45.05544" lon="5.92767">
        <ele>2052</ele>
        <time>2020-07-12T15:26:29 02:00</time>
      </trkpt>
      <trkpt lat="45.05542" lon="5.92763">
        <ele>2052</ele>
        <time>2020-07-12T15:26:32 02:00</time>
      </trkpt>
      <trkpt lat="45.0554" lon="5.9276">
        <ele>2052</ele>
        <time>2020-07-12T15:26:35 02:00</time>
      </trkpt>
      <trkpt lat="45.05536" lon="5.92759">
        <ele>2051.8</ele>
        <time>2020-07-12T15:26:39 02:00</time>
      </trkpt>
      <trkpt lat="45.05535" lon="5.92759">
        <ele>2051.6</ele>
        <time>2020-07-12T15:26:41 02:00</time>
      </trkpt>
      <trkpt lat="45.05533" lon="5.92761">
        <ele>2051.2</ele>
        <time>2020-07-12T15:26:44 02:00</time>
      </trkpt>
      <trkpt lat="45.0553" lon="5.92762">
        <ele>2050.8</ele>
        <time>2020-07-12T15:26:48 02:00</time>
      </trkpt>
      <trkpt lat="45.05526" lon="5.92762">
        <ele>2050.4</ele>
        <time>2020-07-12T15:26:51 02:00</time>
      </trkpt>
      <trkpt lat="45.05523" lon="5.92763">
        <ele>2050.2</ele>
        <time>2020-07-12T15:26:55 02:00</time>
      </trkpt>
      <trkpt lat="45.05519" lon="5.92764">
        <ele>2050</ele>
        <time>2020-07-12T15:26:59 02:00</time>
      </trkpt>
      <trkpt lat="45.05519" lon="5.92764">
        <ele>2050.2</ele>
        <time>2020-07-12T15:26:59 02:00</time>
      </trkpt>
      <trkpt lat="45.05518" lon="5.92763">
        <ele>2050.4</ele>
        <time>2020-07-12T15:27:00 02:00</time>
      </trkpt>
      <trkpt lat="45.05515" lon="5.92762">
        <ele>2050.4</ele>
        <time>2020-07-12T15:27:04 02:00</time>
      </trkpt>
      <trkpt lat="45.05513" lon="5.92762">
        <ele>2050.4</ele>
        <time>2020-07-12T15:27:06 02:00</time>
      </trkpt>
      <trkpt lat="45.05509" lon="5.92761">
        <ele>2050.4</ele>
        <time>2020-07-12T15:27:09 02:00</time>
      </trkpt>
      <trkpt lat="45.05505" lon="5.92761">
        <ele>2050.2</ele>
        <time>2020-07-12T15:27:12 02:00</time>
      </trkpt>
      <trkpt lat="45.05502" lon="5.92763">
        <ele>2050</ele>
        <time>2020-07-12T15:27:15 02:00</time>
      </trkpt>
      <trkpt lat="45.05499" lon="5.92764">
        <ele>2050</ele>
        <time>2020-07-12T15:27:19 02:00</time>
      </trkpt>
      <trkpt lat="45.05496" lon="5.92762">
        <ele>2049.8</ele>
        <time>2020-07-12T15:27:22 02:00</time>
      </trkpt>
      <trkpt lat="45.05493" lon="5.92761">
        <ele>2049.8</ele>
        <time>2020-07-12T15:27:25 02:00</time>
      </trkpt>
      <trkpt lat="45.0549" lon="5.92762">
        <ele>2050</ele>
        <time>2020-07-12T15:27:28 02:00</time>
      </trkpt>
      <trkpt lat="45.05486" lon="5.92762">
        <ele>2050.2</ele>
        <time>2020-07-12T15:27:31 02:00</time>
      </trkpt>
      <trkpt lat="45.05483" lon="5.92762">
        <ele>2050.4</ele>
        <time>2020-07-12T15:27:34 02:00</time>
      </trkpt>
      <trkpt lat="45.05479" lon="5.92763">
        <ele>2051</ele>
        <time>2020-07-12T15:27:37 02:00</time>
      </trkpt>
      <trkpt lat="45.05478" lon="5.92763">
        <ele>2051.4</ele>
        <time>2020-07-12T15:27:39 02:00</time>
      </trkpt>
      <trkpt lat="45.05477" lon="5.92764">
        <ele>2051.8</ele>
        <time>2020-07-12T15:27:40 02:00</time>
      </trkpt>
      <trkpt lat="45.05475" lon="5.92765">
        <ele>2052.2</ele>
        <time>2020-07-12T15:27:42 02:00</time>
      </trkpt>
      <trkpt lat="45.05475" lon="5.92765">
        <ele>2052.6</ele>
        <time>2020-07-12T15:27:43 02:00</time>
      </trkpt>
      <trkpt lat="45.05471" lon="5.92763">
        <ele>2052.8</ele>
        <time>2020-07-12T15:27:47 02:00</time>
      </trkpt>
      <trkpt lat="45.05469" lon="5.92759">
        <ele>2053</ele>
        <time>2020-07-12T15:27:51 02:00</time>
      </trkpt>
      <trkpt lat="45.05465" lon="5.92757">
        <ele>2052.8</ele>
        <time>2020-07-12T15:27:54 02:00</time>
      </trkpt>
      <trkpt lat="45.05463" lon="5.92754">
        <ele>2052.6</ele>
        <time>2020-07-12T15:27:56 02:00</time>
      </trkpt>
      <trkpt lat="45.05461" lon="5.92751">
        <ele>2052.4</ele>
        <time>2020-07-12T15:28:01 02:00</time>
      </trkpt>
      <trkpt lat="45.05459" lon="5.92748">
        <ele>2052.4</ele>
        <time>2020-07-12T15:28:03 02:00</time>
      </trkpt>
      <trkpt lat="45.05455" lon="5.92746">
        <ele>2052.4</ele>
        <time>2020-07-12T15:28:06 02:00</time>
      </trkpt>
      <trkpt lat="45.05451" lon="5.92746">
        <ele>2052.4</ele>
        <time>2020-07-12T15:28:09 02:00</time>
      </trkpt>
      <trkpt lat="45.05448" lon="5.92745">
        <ele>2052.4</ele>
        <time>2020-07-12T15:28:13 02:00</time>
      </trkpt>
      <trkpt lat="45.05444" lon="5.92744">
        <ele>2052.6</ele>
        <time>2020-07-12T15:28:17 02:00</time>
      </trkpt>
      <trkpt lat="45.05442" lon="5.92744">
        <ele>2052.6</ele>
        <time>2020-07-12T15:28:19 02:00</time>
      </trkpt>
      <trkpt lat="45.0544" lon="5.92743">
        <ele>2052.4</ele>
        <time>2020-07-12T15:28:42 02:00</time>
      </trkpt>
      <trkpt lat="45.05437" lon="5.92743">
        <ele>2052.4</ele>
        <time>2020-07-12T15:28:44 02:00</time>
      </trkpt>
      <trkpt lat="45.05434" lon="5.92741">
        <ele>2052.4</ele>
        <time>2020-07-12T15:28:48 02:00</time>
      </trkpt>
      <trkpt lat="45.0543" lon="5.9274">
        <ele>2052.2</ele>
        <time>2020-07-12T15:28:52 02:00</time>
      </trkpt>
      <trkpt lat="45.05428" lon="5.92737">
        <ele>2052</ele>
        <time>2020-07-12T15:28:55 02:00</time>
      </trkpt>
      <trkpt lat="45.05425" lon="5.92736">
        <ele>2052</ele>
        <time>2020-07-12T15:28:58 02:00</time>
      </trkpt>
      <trkpt lat="45.05421" lon="5.92733">
        <ele>2052</ele>
        <time>2020-07-12T15:29:01 02:00</time>
      </trkpt>
      <trkpt lat="45.05421" lon="5.92734">
        <ele>2051.8</ele>
        <time>2020-07-12T15:29:02 02:00</time>
      </trkpt>
      <trkpt lat="45.05421" lon="5.92734">
        <ele>2051.8</ele>
        <time>2020-07-12T15:29:07 02:00</time>
      </trkpt>
      <trkpt lat="45.05418" lon="5.92731">
        <ele>2051.8</ele>
        <time>2020-07-12T15:29:10 02:00</time>
      </trkpt>
      <trkpt lat="45.05417" lon="5.92728">
        <ele>2051.8</ele>
        <time>2020-07-12T15:29:14 02:00</time>
      </trkpt>
      <trkpt lat="45.05415" lon="5.92726">
        <ele>2051.8</ele>
        <time>2020-07-12T15:29:17 02:00</time>
      </trkpt>
      <trkpt lat="45.05414" lon="5.92725">
        <ele>2052.2</ele>
        <time>2020-07-12T15:29:18 02:00</time>
      </trkpt>
      <trkpt lat="45.05413" lon="5.92724">
        <ele>2052.4</ele>
        <time>2020-07-12T15:29:20 02:00</time>
      </trkpt>
      <trkpt lat="45.05411" lon="5.92721">
        <ele>2052.6</ele>
        <time>2020-07-12T15:29:23 02:00</time>
      </trkpt>
      <trkpt lat="45.0541" lon="5.92719">
        <ele>2052.6</ele>
        <time>2020-07-12T15:29:26 02:00</time>
      </trkpt>
      <trkpt lat="45.05407" lon="5.92716">
        <ele>2052.8</ele>
        <time>2020-07-12T15:29:29 02:00</time>
      </trkpt>
      <trkpt lat="45.05404" lon="5.92714">
        <ele>2052.8</ele>
        <time>2020-07-12T15:29:32 02:00</time>
      </trkpt>
      <trkpt lat="45.05401" lon="5.92712">
        <ele>2052.8</ele>
        <time>2020-07-12T15:29:36 02:00</time>
      </trkpt>
      <trkpt lat="45.05401" lon="5.92712">
        <ele>2052.8</ele>
        <time>2020-07-12T15:29:37 02:00</time>
      </trkpt>
      <trkpt lat="45.05401" lon="5.92711">
        <ele>2053</ele>
        <time>2020-07-12T15:29:38 02:00</time>
      </trkpt>
      <trkpt lat="45.05398" lon="5.92708">
        <ele>2053</ele>
        <time>2020-07-12T15:29:42 02:00</time>
      </trkpt>
      <trkpt lat="45.05395" lon="5.92706">
        <ele>2052.8</ele>
        <time>2020-07-12T15:29:46 02:00</time>
      </trkpt>
      <trkpt lat="45.05392" lon="5.92704">
        <ele>2052.8</ele>
        <time>2020-07-12T15:29:49 02:00</time>
      </trkpt>
      <trkpt lat="45.0539" lon="5.92701">
        <ele>2052.8</ele>
        <time>2020-07-12T15:29:53 02:00</time>
      </trkpt>
      <trkpt lat="45.0539" lon="5.927">
        <ele>2052.8</ele>
        <time>2020-07-12T15:29:54 02:00</time>
      </trkpt>
      <trkpt lat="45.05389" lon="5.92697">
        <ele>2052.8</ele>
        <time>2020-07-12T15:29:57 02:00</time>
      </trkpt>
      <trkpt lat="45.05388" lon="5.92696">
        <ele>2053</ele>
        <time>2020-07-12T15:29:59 02:00</time>
      </trkpt>
      <trkpt lat="45.05386" lon="5.92692">
        <ele>2053</ele>
        <time>2020-07-12T15:30:02 02:00</time>
      </trkpt>
      <trkpt lat="45.05384" lon="5.92689">
        <ele>2052.8</ele>
        <time>2020-07-12T15:30:05 02:00</time>
      </trkpt>
      <trkpt lat="45.05382" lon="5.92686">
        <ele>2052.6</ele>
        <time>2020-07-12T15:30:08 02:00</time>
      </trkpt>
      <trkpt lat="45.0538" lon="5.92683">
        <ele>2052.4</ele>
        <time>2020-07-12T15:30:11 02:00</time>
      </trkpt>
      <trkpt lat="45.05378" lon="5.9268">
        <ele>2052</ele>
        <time>2020-07-12T15:30:14 02:00</time>
      </trkpt>
      <trkpt lat="45.05377" lon="5.92679">
        <ele>2051.6</ele>
        <time>2020-07-12T15:30:16 02:00</time>
      </trkpt>
      <trkpt lat="45.05377" lon="5.92678">
        <ele>2051.4</ele>
        <time>2020-07-12T15:30:17 02:00</time>
      </trkpt>
      <trkpt lat="45.05376" lon="5.92677">
        <ele>2051.2</ele>
        <time>2020-07-12T15:30:18 02:00</time>
      </trkpt>
      <trkpt lat="45.05376" lon="5.92673">
        <ele>2051</ele>
        <time>2020-07-12T15:30:21 02:00</time>
      </trkpt>
      <trkpt lat="45.05375" lon="5.92669">
        <ele>2051</ele>
        <time>2020-07-12T15:30:24 02:00</time>
      </trkpt>
      <trkpt lat="45.05375" lon="5.92664">
        <ele>2050.8</ele>
        <time>2020-07-12T15:30:28 02:00</time>
      </trkpt>
      <trkpt lat="45.05376" lon="5.92659">
        <ele>2050.8</ele>
        <time>2020-07-12T15:30:31 02:00</time>
      </trkpt>
      <trkpt lat="45.05376" lon="5.92658">
        <ele>2051</ele>
        <time>2020-07-12T15:30:32 02:00</time>
      </trkpt>
      <trkpt lat="45.05376" lon="5.92657">
        <ele>2051</ele>
        <time>2020-07-12T15:30:33 02:00</time>
      </trkpt>
      <trkpt lat="45.05375" lon="5.92652">
        <ele>2050.8</ele>
        <time>2020-07-12T15:30:36 02:00</time>
      </trkpt>
      <trkpt lat="45.05372" lon="5.9265">
        <ele>2050.8</ele>
        <time>2020-07-12T15:30:38 02:00</time>
      </trkpt>
      <trkpt lat="45.0537" lon="5.92647">
        <ele>2050.8</ele>
        <time>2020-07-12T15:30:41 02:00</time>
      </trkpt>
      <trkpt lat="45.05367" lon="5.92646">
        <ele>2050.6</ele>
        <time>2020-07-12T15:30:45 02:00</time>
      </trkpt>
      <trkpt lat="45.05366" lon="5.92645">
        <ele>2050.8</ele>
        <time>2020-07-12T15:30:48 02:00</time>
      </trkpt>
      <trkpt lat="45.05365" lon="5.92644">
        <ele>2051.2</ele>
        <time>2020-07-12T15:30:49 02:00</time>
      </trkpt>
      <trkpt lat="45.05366" lon="5.92643">
        <ele>2051.8</ele>
        <time>2020-07-12T15:30:51 02:00</time>
      </trkpt>
      <trkpt lat="45.05367" lon="5.9264">
        <ele>2052.2</ele>
        <time>2020-07-12T15:30:55 02:00</time>
      </trkpt>
      <trkpt lat="45.05369" lon="5.92636">
        <ele>2052.6</ele>
        <time>2020-07-12T15:30:58 02:00</time>
      </trkpt>
      <trkpt lat="45.0537" lon="5.92632">
        <ele>2052.8</ele>
        <time>2020-07-12T15:31:01 02:00</time>
      </trkpt>
      <trkpt lat="45.0537" lon="5.92628">
        <ele>2053.2</ele>
        <time>2020-07-12T15:31:04 02:00</time>
      </trkpt>
      <trkpt lat="45.05371" lon="5.92627">
        <ele>2053.2</ele>
        <time>2020-07-12T15:31:05 02:00</time>
      </trkpt>
      <trkpt lat="45.05372" lon="5.92626">
        <ele>2053.2</ele>
        <time>2020-07-12T15:31:06 02:00</time>
      </trkpt>
      <trkpt lat="45.05375" lon="5.92622">
        <ele>2053.4</ele>
        <time>2020-07-12T15:31:10 02:00</time>
      </trkpt>
      <trkpt lat="45.05376" lon="5.92619">
        <ele>2053.6</ele>
        <time>2020-07-12T15:31:13 02:00</time>
      </trkpt>
      <trkpt lat="45.05377" lon="5.92614">
        <ele>2053.6</ele>
        <time>2020-07-12T15:31:16 02:00</time>
      </trkpt>
      <trkpt lat="45.05378" lon="5.92612">
        <ele>2054</ele>
        <time>2020-07-12T15:31:18 02:00</time>
      </trkpt>
      <trkpt lat="45.05378" lon="5.92611">
        <ele>2054.2</ele>
        <time>2020-07-12T15:31:20 02:00</time>
      </trkpt>
      <trkpt lat="45.0538" lon="5.92607">
        <ele>2054.4</ele>
        <time>2020-07-12T15:31:23 02:00</time>
      </trkpt>
      <trkpt lat="45.05383" lon="5.92605">
        <ele>2054.6</ele>
        <time>2020-07-12T15:31:27 02:00</time>
      </trkpt>
      <trkpt lat="45.05384" lon="5.926">
        <ele>2055</ele>
        <time>2020-07-12T15:31:30 02:00</time>
      </trkpt>
      <trkpt lat="45.05384" lon="5.92596">
        <ele>2055.2</ele>
        <time>2020-07-12T15:31:33 02:00</time>
      </trkpt>
      <trkpt lat="45.05385" lon="5.92592">
        <ele>2055.6</ele>
        <time>2020-07-12T15:31:36 02:00</time>
      </trkpt>
      <trkpt lat="45.05385" lon="5.92589">
        <ele>2055.8</ele>
        <time>2020-07-12T15:31:39 02:00</time>
      </trkpt>
      <trkpt lat="45.05386" lon="5.92588">
        <ele>2056</ele>
        <time>2020-07-12T15:31:42 02:00</time>
      </trkpt>
      <trkpt lat="45.05389" lon="5.92585">
        <ele>2056</ele>
        <time>2020-07-12T15:31:44 02:00</time>
      </trkpt>
      <trkpt lat="45.05389" lon="5.9258">
        <ele>2056</ele>
        <time>2020-07-12T15:31:47 02:00</time>
      </trkpt>
      <trkpt lat="45.0539" lon="5.92575">
        <ele>2055.8</ele>
        <time>2020-07-12T15:31:50 02:00</time>
      </trkpt>
      <trkpt lat="45.05389" lon="5.92571">
        <ele>2055.6</ele>
        <time>2020-07-12T15:31:53 02:00</time>
      </trkpt>
      <trkpt lat="45.05391" lon="5.92567">
        <ele>2055.4</ele>
        <time>2020-07-12T15:31:56 02:00</time>
      </trkpt>
      <trkpt lat="45.05393" lon="5.92564">
        <ele>2055.2</ele>
        <time>2020-07-12T15:31:59 02:00</time>
      </trkpt>
      <trkpt lat="45.05395" lon="5.9256">
        <ele>2055</ele>
        <time>2020-07-12T15:32:02 02:00</time>
      </trkpt>
      <trkpt lat="45.05395" lon="5.92554">
        <ele>2055</ele>
        <time>2020-07-12T15:32:05 02:00</time>
      </trkpt>
      <trkpt lat="45.05397" lon="5.9255">
        <ele>2054.8</ele>
        <time>2020-07-12T15:32:09 02:00</time>
      </trkpt>
      <trkpt lat="45.054" lon="5.92546">
        <ele>2054.6</ele>
        <time>2020-07-12T15:32:11 02:00</time>
      </trkpt>
      <trkpt lat="45.05401" lon="5.92543">
        <ele>2054.6</ele>
        <time>2020-07-12T15:32:14 02:00</time>
      </trkpt>
      <trkpt lat="45.05402" lon="5.92538">
        <ele>2054.4</ele>
        <time>2020-07-12T15:32:17 02:00</time>
      </trkpt>
      <trkpt lat="45.05403" lon="5.92533">
        <ele>2054</ele>
        <time>2020-07-12T15:32:20 02:00</time>
      </trkpt>
      <trkpt lat="45.05404" lon="5.9253">
        <ele>2053.8</ele>
        <time>2020-07-12T15:32:23 02:00</time>
      </trkpt>
      <trkpt lat="45.05406" lon="5.92526">
        <ele>2053.6</ele>
        <time>2020-07-12T15:32:26 02:00</time>
      </trkpt>
      <trkpt lat="45.05406" lon="5.92526">
        <ele>2053.2</ele>
        <time>2020-07-12T15:32:27 02:00</time>
      </trkpt>
      <trkpt lat="45.05406" lon="5.92525">
        <ele>2053.2</ele>
        <time>2020-07-12T15:32:32 02:00</time>
      </trkpt>
      <trkpt lat="45.05408" lon="5.9252">
        <ele>2053.4</ele>
        <time>2020-07-12T15:32:35 02:00</time>
      </trkpt>
      <trkpt lat="45.05409" lon="5.92516">
        <ele>2053.4</ele>
        <time>2020-07-12T15:32:38 02:00</time>
      </trkpt>
      <trkpt lat="45.0541" lon="5.92512">
        <ele>2053.4</ele>
        <time>2020-07-12T15:32:41 02:00</time>
      </trkpt>
      <trkpt lat="45.0541" lon="5.92506">
        <ele>2053.2</ele>
        <time>2020-07-12T15:32:44 02:00</time>
      </trkpt>
      <trkpt lat="45.05411" lon="5.92501">
        <ele>2052.8</ele>
        <time>2020-07-12T15:32:48 02:00</time>
      </trkpt>
      <trkpt lat="45.05412" lon="5.92498">
        <ele>2052.4</ele>
        <time>2020-07-12T15:32:50 02:00</time>
      </trkpt>
      <trkpt lat="45.05413" lon="5.92494">
        <ele>2052</ele>
        <time>2020-07-12T15:32:53 02:00</time>
      </trkpt>
      <trkpt lat="45.05416" lon="5.92491">
        <ele>2051.8</ele>
        <time>2020-07-12T15:32:56 02:00</time>
      </trkpt>
      <trkpt lat="45.05418" lon="5.92488">
        <ele>2051.8</ele>
        <time>2020-07-12T15:32:59 02:00</time>
      </trkpt>
      <trkpt lat="45.0542" lon="5.92485">
        <ele>2051.8</ele>
        <time>2020-07-12T15:33:02 02:00</time>
      </trkpt>
      <trkpt lat="45.05421" lon="5.92481">
        <ele>2051.6</ele>
        <time>2020-07-12T15:33:04 02:00</time>
      </trkpt>
      <trkpt lat="45.05423" lon="5.92477">
        <ele>2051.6</ele>
        <time>2020-07-12T15:33:08 02:00</time>
      </trkpt>
      <trkpt lat="45.05425" lon="5.92473">
        <ele>2051.4</ele>
        <time>2020-07-12T15:33:10 02:00</time>
      </trkpt>
      <trkpt lat="45.05426" lon="5.92469">
        <ele>2051.2</ele>
        <time>2020-07-12T15:33:12 02:00</time>
      </trkpt>
      <trkpt lat="45.05429" lon="5.92466">
        <ele>2051</ele>
        <time>2020-07-12T15:33:15 02:00</time>
      </trkpt>
      <trkpt lat="45.0543" lon="5.92463">
        <ele>2051</ele>
        <time>2020-07-12T15:33:18 02:00</time>
      </trkpt>
      <trkpt lat="45.05431" lon="5.92457">
        <ele>2051</ele>
        <time>2020-07-12T15:33:21 02:00</time>
      </trkpt>
      <trkpt lat="45.05433" lon="5.92453">
        <ele>2050.8</ele>
        <time>2020-07-12T15:33:24 02:00</time>
      </trkpt>
      <trkpt lat="45.05434" lon="5.9245">
        <ele>2050.6</ele>
        <time>2020-07-12T15:33:27 02:00</time>
      </trkpt>
      <trkpt lat="45.05434" lon="5.92448">
        <ele>2050.4</ele>
        <time>2020-07-12T15:33:28 02:00</time>
      </trkpt>
      <trkpt lat="45.05434" lon="5.92444">
        <ele>2050</ele>
        <time>2020-07-12T15:33:31 02:00</time>
      </trkpt>
      <trkpt lat="45.05436" lon="5.92441">
        <ele>2049.8</ele>
        <time>2020-07-12T15:33:35 02:00</time>
      </trkpt>
      <trkpt lat="45.05439" lon="5.92437">
        <ele>2049.4</ele>
        <time>2020-07-12T15:33:38 02:00</time>
      </trkpt>
      <trkpt lat="45.0544" lon="5.92433">
        <ele>2049</ele>
        <time>2020-07-12T15:33:41 02:00</time>
      </trkpt>
      <trkpt lat="45.05442" lon="5.92429">
        <ele>2048.4</ele>
        <time>2020-07-12T15:33:44 02:00</time>
      </trkpt>
      <trkpt lat="45.05444" lon="5.92425">
        <ele>2048</ele>
        <time>2020-07-12T15:33:47 02:00</time>
      </trkpt>
      <trkpt lat="45.05444" lon="5.9242">
        <ele>2047.4</ele>
        <time>2020-07-12T15:33:50 02:00</time>
      </trkpt>
      <trkpt lat="45.05446" lon="5.92417">
        <ele>2047.2</ele>
        <time>2020-07-12T15:33:53 02:00</time>
      </trkpt>
      <trkpt lat="45.05447" lon="5.92414">
        <ele>2047</ele>
        <time>2020-07-12T15:33:56 02:00</time>
      </trkpt>
      <trkpt lat="45.05449" lon="5.9241">
        <ele>2047</ele>
        <time>2020-07-12T15:33:58 02:00</time>
      </trkpt>
      <trkpt lat="45.0545" lon="5.92405">
        <ele>2047.2</ele>
        <time>2020-07-12T15:34:01 02:00</time>
      </trkpt>
      <trkpt lat="45.0545" lon="5.92401">
        <ele>2047.2</ele>
        <time>2020-07-12T15:34:04 02:00</time>
      </trkpt>
      <trkpt lat="45.05451" lon="5.92398">
        <ele>2047.2</ele>
        <time>2020-07-12T15:34:06 02:00</time>
      </trkpt>
      <trkpt lat="45.05454" lon="5.92399">
        <ele>2047</ele>
        <time>2020-07-12T15:34:12 02:00</time>
      </trkpt>
      <trkpt lat="45.05455" lon="5.92396">
        <ele>2046.8</ele>
        <time>2020-07-12T15:34:14 02:00</time>
      </trkpt>
      <trkpt lat="45.05456" lon="5.92396">
        <ele>2046.6</ele>
        <time>2020-07-12T15:34:15 02:00</time>
      </trkpt>
      <trkpt lat="45.05458" lon="5.92393">
        <ele>2046.6</ele>
        <time>2020-07-12T15:34:18 02:00</time>
      </trkpt>
      <trkpt lat="45.05459" lon="5.92388">
        <ele>2046.6</ele>
        <time>2020-07-12T15:34:22 02:00</time>
      </trkpt>
      <trkpt lat="45.05459" lon="5.92387">
        <ele>2046.6</ele>
        <time>2020-07-12T15:34:23 02:00</time>
      </trkpt>
      <trkpt lat="45.05459" lon="5.92385">
        <ele>2046.6</ele>
        <time>2020-07-12T15:34:26 02:00</time>
      </trkpt>
      <trkpt lat="45.05459" lon="5.92382">
        <ele>2046.2</ele>
        <time>2020-07-12T15:34:29 02:00</time>
      </trkpt>
      <trkpt lat="45.05459" lon="5.92382">
        <ele>2045.8</ele>
        <time>2020-07-12T15:34:57 02:00</time>
      </trkpt>
      <trkpt lat="45.05461" lon="5.92379">
        <ele>2045.4</ele>
        <time>2020-07-12T15:35:00 02:00</time>
      </trkpt>
      <trkpt lat="45.05462" lon="5.92378">
        <ele>2045</ele>
        <time>2020-07-12T15:35:01 02:00</time>
      </trkpt>
      <trkpt lat="45.05462" lon="5.92376">
        <ele>2044.6</ele>
        <time>2020-07-12T15:35:02 02:00</time>
      </trkpt>
      <trkpt lat="45.05462" lon="5.92374">
        <ele>2044.6</ele>
        <time>2020-07-12T15:35:04 02:00</time>
      </trkpt>
      <trkpt lat="45.05463" lon="5.92372">
        <ele>2044.4</ele>
        <time>2020-07-12T15:35:07 02:00</time>
      </trkpt>
      <trkpt lat="45.05462" lon="5.92367">
        <ele>2044</ele>
        <time>2020-07-12T15:35:11 02:00</time>
      </trkpt>
      <trkpt lat="45.05461" lon="5.92363">
        <ele>2043.6</ele>
        <time>2020-07-12T15:35:15 02:00</time>
      </trkpt>
      <trkpt lat="45.05462" lon="5.92359">
        <ele>2043.2</ele>
        <time>2020-07-12T15:35:18 02:00</time>
      </trkpt>
      <trkpt lat="45.05462" lon="5.92358">
        <ele>2042.4</ele>
        <time>2020-07-12T15:35:19 02:00</time>
      </trkpt>
      <trkpt lat="45.05462" lon="5.92356">
        <ele>2041.8</ele>
        <time>2020-07-12T15:35:21 02:00</time>
      </trkpt>
      <trkpt lat="45.05462" lon="5.92355">
        <ele>2041.4</ele>
        <time>2020-07-12T15:35:22 02:00</time>
      </trkpt>
      <trkpt lat="45.05462" lon="5.92354">
        <ele>2041</ele>
        <time>2020-07-12T15:35:23 02:00</time>
      </trkpt>
      <trkpt lat="45.05462" lon="5.92351">
        <ele>2040.6</ele>
        <time>2020-07-12T15:35:26 02:00</time>
      </trkpt>
      <trkpt lat="45.05462" lon="5.9235">
        <ele>2040.4</ele>
        <time>2020-07-12T15:35:27 02:00</time>
      </trkpt>
      <trkpt lat="45.05462" lon="5.92348">
        <ele>2040</ele>
        <time>2020-07-12T15:35:28 02:00</time>
      </trkpt>
      <trkpt lat="45.05462" lon="5.92345">
        <ele>2039.4</ele>
        <time>2020-07-12T15:35:39 02:00</time>
      </trkpt>
      <trkpt lat="45.05462" lon="5.92344">
        <ele>2039</ele>
        <time>2020-07-12T15:35:40 02:00</time>
      </trkpt>
      <trkpt lat="45.05461" lon="5.92343">
        <ele>2038.6</ele>
        <time>2020-07-12T15:35:41 02:00</time>
      </trkpt>
      <trkpt lat="45.05461" lon="5.92342">
        <ele>2038.2</ele>
        <time>2020-07-12T15:35:42 02:00</time>
      </trkpt>
      <trkpt lat="45.05461" lon="5.92341">
        <ele>2038</ele>
        <time>2020-07-12T15:35:43 02:00</time>
      </trkpt>
      <trkpt lat="45.0546" lon="5.92339">
        <ele>2037.8</ele>
        <time>2020-07-12T15:35:44 02:00</time>
      </trkpt>
      <trkpt lat="45.05461" lon="5.92336">
        <ele>2037.4</ele>
        <time>2020-07-12T15:35:48 02:00</time>
      </trkpt>
      <trkpt lat="45.05459" lon="5.92332">
        <ele>2036.8</ele>
        <time>2020-07-12T15:35:52 02:00</time>
      </trkpt>
      <trkpt lat="45.05459" lon="5.9233">
        <ele>2036.4</ele>
        <time>2020-07-12T15:35:53 02:00</time>
      </trkpt>
      <trkpt lat="45.0546" lon="5.92329">
        <ele>2035.8</ele>
        <time>2020-07-12T15:35:54 02:00</time>
      </trkpt>
      <trkpt lat="45.05462" lon="5.92328">
        <ele>2035.2</ele>
        <time>2020-07-12T15:35:58 02:00</time>
      </trkpt>
      <trkpt lat="45.05463" lon="5.92327">
        <ele>2034.8</ele>
        <time>2020-07-12T15:35:59 02:00</time>
      </trkpt>
      <trkpt lat="45.05466" lon="5.92324">
        <ele>2034.4</ele>
        <time>2020-07-12T15:36:07 02:00</time>
      </trkpt>
      <trkpt lat="45.05467" lon="5.92323">
        <ele>2033.8</ele>
        <time>2020-07-12T15:36:08 02:00</time>
      </trkpt>
      <trkpt lat="45.05467" lon="5.92322">
        <ele>2033.2</ele>
        <time>2020-07-12T15:36:09 02:00</time>
      </trkpt>
      <trkpt lat="45.05468" lon="5.92321">
        <ele>2032.8</ele>
        <time>2020-07-12T15:36:10 02:00</time>
      </trkpt>
      <trkpt lat="45.05467" lon="5.9232">
        <ele>2032.2</ele>
        <time>2020-07-12T15:36:11 02:00</time>
      </trkpt>
      <trkpt lat="45.05467" lon="5.92319">
        <ele>2031.8</ele>
        <time>2020-07-12T15:36:12 02:00</time>
      </trkpt>
      <trkpt lat="45.05466" lon="5.92308">
        <ele>2030.8</ele>
        <time>2020-07-12T15:36:24 02:00</time>
      </trkpt>
      <trkpt lat="45.05465" lon="5.92304">
        <ele>2029.8</ele>
        <time>2020-07-12T15:36:27 02:00</time>
      </trkpt>
      <trkpt lat="45.05465" lon="5.92301">
        <ele>2028.6</ele>
        <time>2020-07-12T15:36:30 02:00</time>
      </trkpt>
      <trkpt lat="45.05464" lon="5.923">
        <ele>2027.8</ele>
        <time>2020-07-12T15:36:31 02:00</time>
      </trkpt>
      <trkpt lat="45.05464" lon="5.92295">
        <ele>2026.8</ele>
        <time>2020-07-12T15:36:35 02:00</time>
      </trkpt>
      <trkpt lat="45.05463" lon="5.92291">
        <ele>2026.4</ele>
        <time>2020-07-12T15:36:38 02:00</time>
      </trkpt>
      <trkpt lat="45.05463" lon="5.92287">
        <ele>2026.2</ele>
        <time>2020-07-12T15:36:41 02:00</time>
      </trkpt>
      <trkpt lat="45.05462" lon="5.92286">
        <ele>2026</ele>
        <time>2020-07-12T15:36:42 02:00</time>
      </trkpt>
      <trkpt lat="45.05461" lon="5.92281">
        <ele>2025.4</ele>
        <time>2020-07-12T15:36:45 02:00</time>
      </trkpt>
      <trkpt lat="45.0546" lon="5.92279">
        <ele>2025</ele>
        <time>2020-07-12T15:36:48 02:00</time>
      </trkpt>
      <trkpt lat="45.05459" lon="5.92279">
        <ele>2024.6</ele>
        <time>2020-07-12T15:37:15 02:00</time>
      </trkpt>
      <trkpt lat="45.05458" lon="5.92277">
        <ele>2024.2</ele>
        <time>2020-07-12T15:37:16 02:00</time>
      </trkpt>
      <trkpt lat="45.05452" lon="5.92268">
        <ele>2023.4</ele>
        <time>2020-07-12T15:37:26 02:00</time>
      </trkpt>
      <trkpt lat="45.05451" lon="5.92268">
        <ele>2022.8</ele>
        <time>2020-07-12T15:37:29 02:00</time>
      </trkpt>
      <trkpt lat="45.05449" lon="5.92267">
        <ele>2021.8</ele>
        <time>2020-07-12T15:37:36 02:00</time>
      </trkpt>
      <trkpt lat="45.05446" lon="5.92263">
        <ele>2020.8</ele>
        <time>2020-07-12T15:37:40 02:00</time>
      </trkpt>
      <trkpt lat="45.05445" lon="5.9226">
        <ele>2019.8</ele>
        <time>2020-07-12T15:37:43 02:00</time>
      </trkpt>
      <trkpt lat="45.05442" lon="5.92257">
        <ele>2019.4</ele>
        <time>2020-07-12T15:37:47 02:00</time>
      </trkpt>
      <trkpt lat="45.05435" lon="5.9225">
        <ele>2018.4</ele>
        <time>2020-07-12T15:38:19 02:00</time>
      </trkpt>
      <trkpt lat="45.05432" lon="5.92248">
        <ele>2017.6</ele>
        <time>2020-07-12T15:38:22 02:00</time>
      </trkpt>
      <trkpt lat="45.0543" lon="5.92247">
        <ele>2016.6</ele>
        <time>2020-07-12T15:38:24 02:00</time>
      </trkpt>
      <trkpt lat="45.05429" lon="5.92246">
        <ele>2015.6</ele>
        <time>2020-07-12T15:38:26 02:00</time>
      </trkpt>
      <trkpt lat="45.05428" lon="5.92245">
        <ele>2014.4</ele>
        <time>2020-07-12T15:38:27 02:00</time>
      </trkpt>
      <trkpt lat="45.05428" lon="5.92244">
        <ele>2014</ele>
        <time>2020-07-12T15:38:28 02:00</time>
      </trkpt>
      <trkpt lat="45.05422" lon="5.92241">
        <ele>2013.6</ele>
        <time>2020-07-12T15:38:36 02:00</time>
      </trkpt>
      <trkpt lat="45.05421" lon="5.92239">
        <ele>2013.4</ele>
        <time>2020-07-12T15:38:37 02:00</time>
      </trkpt>
      <trkpt lat="45.0542" lon="5.92238">
        <ele>2013</ele>
        <time>2020-07-12T15:38:38 02:00</time>
      </trkpt>
      <trkpt lat="45.05418" lon="5.92236">
        <ele>2012.8</ele>
        <time>2020-07-12T15:38:40 02:00</time>
      </trkpt>
      <trkpt lat="45.05418" lon="5.92234">
        <ele>2012.2</ele>
        <time>2020-07-12T15:38:42 02:00</time>
      </trkpt>
      <trkpt lat="45.05417" lon="5.92234">
        <ele>2011.8</ele>
        <time>2020-07-12T15:38:43 02:00</time>
      </trkpt>
      <trkpt lat="45.05417" lon="5.92233">
        <ele>2011.4</ele>
        <time>2020-07-12T15:38:44 02:00</time>
      </trkpt>
      <trkpt lat="45.05416" lon="5.92231">
        <ele>2011.2</ele>
        <time>2020-07-12T15:38:46 02:00</time>
      </trkpt>
      <trkpt lat="45.05415" lon="5.92231">
        <ele>2011</ele>
        <time>2020-07-12T15:38:48 02:00</time>
      </trkpt>
      <trkpt lat="45.05413" lon="5.92231">
        <ele>2011</ele>
        <time>2020-07-12T15:38:49 02:00</time>
      </trkpt>
      <trkpt lat="45.05413" lon="5.92229">
        <ele>2010.8</ele>
        <time>2020-07-12T15:38:51 02:00</time>
      </trkpt>
      <trkpt lat="45.0541" lon="5.92228">
        <ele>2010.6</ele>
        <time>2020-07-12T15:38:54 02:00</time>
      </trkpt>
      <trkpt lat="45.05409" lon="5.92227">
        <ele>2010.4</ele>
        <time>2020-07-12T15:38:55 02:00</time>
      </trkpt>
      <trkpt lat="45.05403" lon="5.92219">
        <ele>2009.8</ele>
        <time>2020-07-12T15:39:04 02:00</time>
      </trkpt>
      <trkpt lat="45.05402" lon="5.92218">
        <ele>2009.2</ele>
        <time>2020-07-12T15:39:05 02:00</time>
      </trkpt>
      <trkpt lat="45.05401" lon="5.92218">
        <ele>2009</ele>
        <time>2020-07-12T15:39:06 02:00</time>
      </trkpt>
      <trkpt lat="45.05399" lon="5.92215">
        <ele>2008.6</ele>
        <time>2020-07-12T15:39:09 02:00</time>
      </trkpt>
      <trkpt lat="45.05395" lon="5.92213">
        <ele>2008.2</ele>
        <time>2020-07-12T15:39:12 02:00</time>
      </trkpt>
      <trkpt lat="45.05394" lon="5.92213">
        <ele>2008.2</ele>
        <time>2020-07-12T15:39:13 02:00</time>
      </trkpt>
      <trkpt lat="45.05394" lon="5.92213">
        <ele>2008.2</ele>
        <time>2020-07-12T15:39:14 02:00</time>
      </trkpt>
      <trkpt lat="45.05393" lon="5.92213">
        <ele>2008</ele>
        <time>2020-07-12T15:39:15 02:00</time>
      </trkpt>
      <trkpt lat="45.05389" lon="5.9221">
        <ele>2007.8</ele>
        <time>2020-07-12T15:39:20 02:00</time>
      </trkpt>
      <trkpt lat="45.05389" lon="5.9221">
        <ele>2007.6</ele>
        <time>2020-07-12T15:39:21 02:00</time>
      </trkpt>
      <trkpt lat="45.05386" lon="5.92206">
        <ele>2007.2</ele>
        <time>2020-07-12T15:39:26 02:00</time>
      </trkpt>
      <trkpt lat="45.05385" lon="5.92205">
        <ele>2006.8</ele>
        <time>2020-07-12T15:39:27 02:00</time>
      </trkpt>
      <trkpt lat="45.05379" lon="5.92198">
        <ele>2006</ele>
        <time>2020-07-12T15:39:41 02:00</time>
      </trkpt>
      <trkpt lat="45.05378" lon="5.92197">
        <ele>2005.4</ele>
        <time>2020-07-12T15:39:42 02:00</time>
      </trkpt>
      <trkpt lat="45.05376" lon="5.92192">
        <ele>2004.4</ele>
        <time>2020-07-12T15:39:50 02:00</time>
      </trkpt>
      <trkpt lat="45.05376" lon="5.92191">
        <ele>2003.6</ele>
        <time>2020-07-12T15:39:51 02:00</time>
      </trkpt>
      <trkpt lat="45.05373" lon="5.92188">
        <ele>2002.6</ele>
        <time>2020-07-12T15:39:57 02:00</time>
      </trkpt>
      <trkpt lat="45.05372" lon="5.92187">
        <ele>2002</ele>
        <time>2020-07-12T15:39:58 02:00</time>
      </trkpt>
      <trkpt lat="45.05365" lon="5.92176">
        <ele>2001</ele>
        <time>2020-07-12T15:40:13 02:00</time>
      </trkpt>
      <trkpt lat="45.05364" lon="5.92176">
        <ele>2000.4</ele>
        <time>2020-07-12T15:40:14 02:00</time>
      </trkpt>
      <trkpt lat="45.05362" lon="5.92174">
        <ele>1999.4</ele>
        <time>2020-07-12T15:40:18 02:00</time>
      </trkpt>
      <trkpt lat="45.05361" lon="5.92173">
        <ele>1998.6</ele>
        <time>2020-07-12T15:40:19 02:00</time>
      </trkpt>
      <trkpt lat="45.0536" lon="5.92173">
        <ele>1997.8</ele>
        <time>2020-07-12T15:40:20 02:00</time>
      </trkpt>
      <trkpt lat="45.0536" lon="5.92172">
        <ele>1997.2</ele>
        <time>2020-07-12T15:40:21 02:00</time>
      </trkpt>
      <trkpt lat="45.0536" lon="5.92168">
        <ele>1996.4</ele>
        <time>2020-07-12T15:40:25 02:00</time>
      </trkpt>
      <trkpt lat="45.05359" lon="5.92167">
        <ele>1996</ele>
        <time>2020-07-12T15:40:28 02:00</time>
      </trkpt>
      <trkpt lat="45.05357" lon="5.92167">
        <ele>1995.6</ele>
        <time>2020-07-12T15:40:30 02:00</time>
      </trkpt>
      <trkpt lat="45.05356" lon="5.92165">
        <ele>1995.2</ele>
        <time>2020-07-12T15:40:32 02:00</time>
      </trkpt>
      <trkpt lat="45.05353" lon="5.92159">
        <ele>1994.2</ele>
        <time>2020-07-12T15:40:38 02:00</time>
      </trkpt>
      <trkpt lat="45.05353" lon="5.92158">
        <ele>1993.4</ele>
        <time>2020-07-12T15:40:39 02:00</time>
      </trkpt>
      <trkpt lat="45.05351" lon="5.92152">
        <ele>1992.2</ele>
        <time>2020-07-12T15:40:46 02:00</time>
      </trkpt>
      <trkpt lat="45.05351" lon="5.92152">
        <ele>1991</ele>
        <time>2020-07-12T15:40:47 02:00</time>
      </trkpt>
      <trkpt lat="45.05341" lon="5.92142">
        <ele>1989.2</ele>
        <time>2020-07-12T15:41:06 02:00</time>
      </trkpt>
      <trkpt lat="45.05338" lon="5.9214">
        <ele>1988</ele>
        <time>2020-07-12T15:41:09 02:00</time>
      </trkpt>
      <trkpt lat="45.0533" lon="5.92129">
        <ele>1986.4</ele>
        <time>2020-07-12T15:41:24 02:00</time>
      </trkpt>
      <trkpt lat="45.0533" lon="5.92129">
        <ele>1985.2</ele>
        <time>2020-07-12T15:41:25 02:00</time>
      </trkpt>
      <trkpt lat="45.05324" lon="5.9212">
        <ele>1983.4</ele>
        <time>2020-07-12T15:41:36 02:00</time>
      </trkpt>
      <trkpt lat="45.05322" lon="5.92118">
        <ele>1982</ele>
        <time>2020-07-12T15:41:38 02:00</time>
      </trkpt>
      <trkpt lat="45.05322" lon="5.92117">
        <ele>1980.8</ele>
        <time>2020-07-12T15:41:39 02:00</time>
      </trkpt>
      <trkpt lat="45.05322" lon="5.92116">
        <ele>1979.8</ele>
        <time>2020-07-12T15:41:40 02:00</time>
      </trkpt>
      <trkpt lat="45.05307" lon="5.92091">
        <ele>1977</ele>
        <time>2020-07-12T15:42:18 02:00</time>
      </trkpt>
      <trkpt lat="45.05305" lon="5.92088">
        <ele>1974.8</ele>
        <time>2020-07-12T15:42:21 02:00</time>
      </trkpt>
      <trkpt lat="45.05304" lon="5.92087">
        <ele>1972.8</ele>
        <time>2020-07-12T15:42:22 02:00</time>
      </trkpt>
      <trkpt lat="45.05303" lon="5.92087">
        <ele>1970.8</ele>
        <time>2020-07-12T15:42:23 02:00</time>
      </trkpt>
      <trkpt lat="45.05302" lon="5.92086">
        <ele>1969</ele>
        <time>2020-07-12T15:42:24 02:00</time>
      </trkpt>
      <trkpt lat="45.05302" lon="5.92085">
        <ele>1969</ele>
        <time>2020-07-12T15:42:25 02:00</time>
      </trkpt>
      <trkpt lat="45.05302" lon="5.92084">
        <ele>1969</ele>
        <time>2020-07-12T15:42:26 02:00</time>
      </trkpt>
      <trkpt lat="45.05301" lon="5.92082">
        <ele>1968.8</ele>
        <time>2020-07-12T15:42:30 02:00</time>
      </trkpt>
      <trkpt lat="45.05301" lon="5.9208">
        <ele>1968.6</ele>
        <time>2020-07-12T15:42:30 02:00</time>
      </trkpt>
      <trkpt lat="45.053" lon="5.92078">
        <ele>1968.4</ele>
        <time>2020-07-12T15:42:32 02:00</time>
      </trkpt>
      <trkpt lat="45.05298" lon="5.92077">
        <ele>1968</ele>
        <time>2020-07-12T15:42:35 02:00</time>
      </trkpt>
      <trkpt lat="45.05294" lon="5.92072">
        <ele>1967.2</ele>
        <time>2020-07-12T15:42:49 02:00</time>
      </trkpt>
      <trkpt lat="45.05293" lon="5.92068">
        <ele>1966.6</ele>
        <time>2020-07-12T15:42:51 02:00</time>
      </trkpt>
      <trkpt lat="45.05293" lon="5.92067">
        <ele>1966</ele>
        <time>2020-07-12T15:42:53 02:00</time>
      </trkpt>
      <trkpt lat="45.0529" lon="5.92069">
        <ele>1965.4</ele>
        <time>2020-07-12T15:42:56 02:00</time>
      </trkpt>
      <trkpt lat="45.05289" lon="5.92069">
        <ele>1965</ele>
        <time>2020-07-12T15:42:56 02:00</time>
      </trkpt>
      <trkpt lat="45.05285" lon="5.92068">
        <ele>1965</ele>
        <time>2020-07-12T15:43:07 02:00</time>
      </trkpt>
      <trkpt lat="45.05284" lon="5.92066">
        <ele>1965</ele>
        <time>2020-07-12T15:43:09 02:00</time>
      </trkpt>
      <trkpt lat="45.0528" lon="5.92063">
        <ele>1964.8</ele>
        <time>2020-07-12T15:43:18 02:00</time>
      </trkpt>
      <trkpt lat="45.05279" lon="5.92063">
        <ele>1964.6</ele>
        <time>2020-07-12T15:43:19 02:00</time>
      </trkpt>
      <trkpt lat="45.05278" lon="5.92062">
        <ele>1964</ele>
        <time>2020-07-12T15:43:28 02:00</time>
      </trkpt>
      <trkpt lat="45.05276" lon="5.92061">
        <ele>1963.6</ele>
        <time>2020-07-12T15:43:30 02:00</time>
      </trkpt>
      <trkpt lat="45.05268" lon="5.9205">
        <ele>1962.2</ele>
        <time>2020-07-12T15:43:41 02:00</time>
      </trkpt>
      <trkpt lat="45.05265" lon="5.92049">
        <ele>1960.8</ele>
        <time>2020-07-12T15:43:43 02:00</time>
      </trkpt>
      <trkpt lat="45.05262" lon="5.92046">
        <ele>1959.2</ele>
        <time>2020-07-12T15:43:47 02:00</time>
      </trkpt>
      <trkpt lat="45.05259" lon="5.92045">
        <ele>1958.2</ele>
        <time>2020-07-12T15:43:49 02:00</time>
      </trkpt>
      <trkpt lat="45.05256" lon="5.92034">
        <ele>1956.2</ele>
        <time>2020-07-12T15:43:59 02:00</time>
      </trkpt>
      <trkpt lat="45.05256" lon="5.92034">
        <ele>1955.2</ele>
        <time>2020-07-12T15:44:00 02:00</time>
      </trkpt>
      <trkpt lat="45.05248" lon="5.92022">
        <ele>1953.6</ele>
        <time>2020-07-12T15:44:30 02:00</time>
      </trkpt>
      <trkpt lat="45.05247" lon="5.9202">
        <ele>1952.2</ele>
        <time>2020-07-12T15:44:32 02:00</time>
      </trkpt>
      <trkpt lat="45.05241" lon="5.91969">
        <ele>1947.4</ele>
        <time>2020-07-12T15:45:40 02:00</time>
      </trkpt>
      <trkpt lat="45.05239" lon="5.91969">
        <ele>1943.2</ele>
        <time>2020-07-12T15:45:42 02:00</time>
      </trkpt>
      <trkpt lat="45.05234" lon="5.91962">
        <ele>1938.4</ele>
        <time>2020-07-12T15:45:55 02:00</time>
      </trkpt>
      <trkpt lat="45.05234" lon="5.91961">
        <ele>1934.6</ele>
        <time>2020-07-12T15:45:56 02:00</time>
      </trkpt>
      <trkpt lat="45.05211" lon="5.91917">
        <ele>1927.2</ele>
        <time>2020-07-12T15:47:04 02:00</time>
      </trkpt>
      <trkpt lat="45.05214" lon="5.91917">
        <ele>1922.6</ele>
        <time>2020-07-12T15:47:07 02:00</time>
      </trkpt>
      <trkpt lat="45.05203" lon="5.91904">
        <ele>1917.6</ele>
        <time>2020-07-12T15:47:24 02:00</time>
      </trkpt>
      <trkpt lat="45.05203" lon="5.91903">
        <ele>1913.2</ele>
        <time>2020-07-12T15:47:25 02:00</time>
      </trkpt>
      <trkpt lat="45.05202" lon="5.91885">
        <ele>1907.4</ele>
        <time>2020-07-12T15:47:43 02:00</time>
      </trkpt>
      <trkpt lat="45.05202" lon="5.91884">
        <ele>1905.2</ele>
        <time>2020-07-12T15:47:44 02:00</time>
      </trkpt>
      <trkpt lat="45.05203" lon="5.91874">
        <ele>1903</ele>
        <time>2020-07-12T15:47:54 02:00</time>
      </trkpt>
      <trkpt lat="45.05203" lon="5.91871">
        <ele>1901.2</ele>
        <time>2020-07-12T15:47:56 02:00</time>
      </trkpt>
      <trkpt lat="45.05197" lon="5.91815">
        <ele>1896.8</ele>
        <time>2020-07-12T15:49:04 02:00</time>
      </trkpt>
      <trkpt lat="45.05197" lon="5.91815">
        <ele>1893.6</ele>
        <time>2020-07-12T15:49:05 02:00</time>
      </trkpt>
      <trkpt lat="45.05198" lon="5.91799">
        <ele>1889.8</ele>
        <time>2020-07-12T15:49:19 02:00</time>
      </trkpt>
      <trkpt lat="45.05197" lon="5.91797">
        <ele>1886.4</ele>
        <time>2020-07-12T15:49:21 02:00</time>
      </trkpt>
      <trkpt lat="45.05199" lon="5.91767">
        <ele>1881.2</ele>
        <time>2020-07-12T15:49:53 02:00</time>
      </trkpt>
      <trkpt lat="45.05199" lon="5.91765">
        <ele>1878.6</ele>
        <time>2020-07-12T15:49:54 02:00</time>
      </trkpt>
      <trkpt lat="45.05196" lon="5.91746">
        <ele>1874.2</ele>
        <time>2020-07-12T15:50:48 02:00</time>
      </trkpt>
      <trkpt lat="45.05197" lon="5.91745">
        <ele>1870.4</ele>
        <time>2020-07-12T15:50:49 02:00</time>
      </trkpt>
      <trkpt lat="45.05182" lon="5.91713">
        <ele>1864.6</ele>
        <time>2020-07-12T15:51:46 02:00</time>
      </trkpt>
      <trkpt lat="45.05182" lon="5.91712">
        <ele>1860.6</ele>
        <time>2020-07-12T15:51:47 02:00</time>
      </trkpt>
      <trkpt lat="45.05182" lon="5.9169">
        <ele>1855.4</ele>
        <time>2020-07-12T15:52:09 02:00</time>
      </trkpt>
      <trkpt lat="45.05182" lon="5.91689">
        <ele>1852</ele>
        <time>2020-07-12T15:52:10 02:00</time>
      </trkpt>
      <trkpt lat="45.05183" lon="5.91686">
        <ele>1848.6</ele>
        <time>2020-07-12T15:52:12 02:00</time>
      </trkpt>
      <trkpt lat="45.05183" lon="5.91684">
        <ele>1847.2</ele>
        <time>2020-07-12T15:52:13 02:00</time>
      </trkpt>
      <trkpt lat="45.05183" lon="5.91675">
        <ele>1845.6</ele>
        <time>2020-07-12T15:52:22 02:00</time>
      </trkpt>
      <trkpt lat="45.05183" lon="5.91674">
        <ele>1845.2</ele>
        <time>2020-07-12T15:52:23 02:00</time>
      </trkpt>
      <trkpt lat="45.05184" lon="5.91664">
        <ele>1843.6</ele>
        <time>2020-07-12T15:52:36 02:00</time>
      </trkpt>
      <trkpt lat="45.05183" lon="5.91659">
        <ele>1842</ele>
        <time>2020-07-12T15:52:39 02:00</time>
      </trkpt>
      <trkpt lat="45.05185" lon="5.91646">
        <ele>1840.2</ele>
        <time>2020-07-12T15:52:52 02:00</time>
      </trkpt>
      <trkpt lat="45.05185" lon="5.91646">
        <ele>1838.6</ele>
        <time>2020-07-12T15:52:53 02:00</time>
      </trkpt>
      <trkpt lat="45.05185" lon="5.91644">
        <ele>1836.8</ele>
        <time>2020-07-12T15:53:06 02:00</time>
      </trkpt>
      <trkpt lat="45.05185" lon="5.91643">
        <ele>1836.2</ele>
        <time>2020-07-12T15:53:07 02:00</time>
      </trkpt>
      <trkpt lat="45.05183" lon="5.91632">
        <ele>1835.4</ele>
        <time>2020-07-12T15:53:18 02:00</time>
      </trkpt>
      <trkpt lat="45.05182" lon="5.91629">
        <ele>1834.6</ele>
        <time>2020-07-12T15:53:20 02:00</time>
      </trkpt>
      <trkpt lat="45.0518" lon="5.91618">
        <ele>1833.6</ele>
        <time>2020-07-12T15:53:32 02:00</time>
      </trkpt>
      <trkpt lat="45.0518" lon="5.91616">
        <ele>1832.6</ele>
        <time>2020-07-12T15:53:33 02:00</time>
      </trkpt>
      <trkpt lat="45.0518" lon="5.91594">
        <ele>1830.4</ele>
        <time>2020-07-12T15:53:58 02:00</time>
      </trkpt>
      <trkpt lat="45.05179" lon="5.91594">
        <ele>1828.6</ele>
        <time>2020-07-12T15:53:59 02:00</time>
      </trkpt>
      <trkpt lat="45.05177" lon="5.91575">
        <ele>1825.8</ele>
        <time>2020-07-12T15:54:16 02:00</time>
      </trkpt>
      <trkpt lat="45.05177" lon="5.91571">
        <ele>1823.4</ele>
        <time>2020-07-12T15:54:19 02:00</time>
      </trkpt>
      <trkpt lat="45.05178" lon="5.91565">
        <ele>1820.8</ele>
        <time>2020-07-12T15:54:29 02:00</time>
      </trkpt>
      <trkpt lat="45.05177" lon="5.91565">
        <ele>1819.4</ele>
        <time>2020-07-12T15:54:30 02:00</time>
      </trkpt>
      <trkpt lat="45.05172" lon="5.91552">
        <ele>1817.2</ele>
        <time>2020-07-12T15:54:44 02:00</time>
      </trkpt>
      <trkpt lat="45.05172" lon="5.9155">
        <ele>1816</ele>
        <time>2020-07-12T15:54:45 02:00</time>
      </trkpt>
      <trkpt lat="45.05172" lon="5.91549">
        <ele>1814.6</ele>
        <time>2020-07-12T15:54:46 02:00</time>
      </trkpt>
      <trkpt lat="45.05172" lon="5.91547">
        <ele>1813.6</ele>
        <time>2020-07-12T15:54:47 02:00</time>
      </trkpt>
      <trkpt lat="45.0517" lon="5.91538">
        <ele>1812</ele>
        <time>2020-07-12T15:54:56 02:00</time>
      </trkpt>
      <trkpt lat="45.05169" lon="5.91537">
        <ele>1811</ele>
        <time>2020-07-12T15:54:57 02:00</time>
      </trkpt>
      <trkpt lat="45.05167" lon="5.91525">
        <ele>1809.8</ele>
        <time>2020-07-12T15:55:08 02:00</time>
      </trkpt>
      <trkpt lat="45.05166" lon="5.91523">
        <ele>1808.6</ele>
        <time>2020-07-12T15:55:09 02:00</time>
      </trkpt>
      <trkpt lat="45.05166" lon="5.91515">
        <ele>1807.2</ele>
        <time>2020-07-12T15:55:15 02:00</time>
      </trkpt>
      <trkpt lat="45.05164" lon="5.91511">
        <ele>1806.2</ele>
        <time>2020-07-12T15:55:18 02:00</time>
      </trkpt>
      <trkpt lat="45.05164" lon="5.9151">
        <ele>1805.2</ele>
        <time>2020-07-12T15:55:19 02:00</time>
      </trkpt>
      <trkpt lat="45.05164" lon="5.91508">
        <ele>1804.6</ele>
        <time>2020-07-12T15:55:20 02:00</time>
      </trkpt>
      <trkpt lat="45.0516" lon="5.91468">
        <ele>1802.6</ele>
        <time>2020-07-12T15:56:13 02:00</time>
      </trkpt>
      <trkpt lat="45.0516" lon="5.91464">
        <ele>1800.6</ele>
        <time>2020-07-12T15:56:15 02:00</time>
      </trkpt>
      <trkpt lat="45.05158" lon="5.91459">
        <ele>1798.8</ele>
        <time>2020-07-12T15:56:18 02:00</time>
      </trkpt>
      <trkpt lat="45.05158" lon="5.91457">
        <ele>1797</ele>
        <time>2020-07-12T15:56:19 02:00</time>
      </trkpt>
      <trkpt lat="45.05158" lon="5.91456">
        <ele>1795.2</ele>
        <time>2020-07-12T15:56:20 02:00</time>
      </trkpt>
      <trkpt lat="45.05159" lon="5.9144">
        <ele>1794.8</ele>
        <time>2020-07-12T15:56:34 02:00</time>
      </trkpt>
      <trkpt lat="45.05159" lon="5.91438">
        <ele>1794.6</ele>
        <time>2020-07-12T15:56:35 02:00</time>
      </trkpt>
      <trkpt lat="45.05151" lon="5.91415">
        <ele>1794</ele>
        <time>2020-07-12T15:56:54 02:00</time>
      </trkpt>
      <trkpt lat="45.05151" lon="5.91411">
        <ele>1793.4</ele>
        <time>2020-07-12T15:56:56 02:00</time>
      </trkpt>
      <trkpt lat="45.0515" lon="5.9141">
        <ele>1792.8</ele>
        <time>2020-07-12T15:56:57 02:00</time>
      </trkpt>
      <trkpt lat="45.05146" lon="5.91402">
        <ele>1791.8</ele>
        <time>2020-07-12T15:57:06 02:00</time>
      </trkpt>
      <trkpt lat="45.05145" lon="5.91401">
        <ele>1790.8</ele>
        <time>2020-07-12T15:57:07 02:00</time>
      </trkpt>
      <trkpt lat="45.05141" lon="5.91389">
        <ele>1789.4</ele>
        <time>2020-07-12T15:57:20 02:00</time>
      </trkpt>
      <trkpt lat="45.0514" lon="5.91388">
        <ele>1787.8</ele>
        <time>2020-07-12T15:57:21 02:00</time>
      </trkpt>
      <trkpt lat="45.05139" lon="5.91388">
        <ele>1786.4</ele>
        <time>2020-07-12T15:57:22 02:00</time>
      </trkpt>
      <trkpt lat="45.05138" lon="5.91387">
        <ele>1785.6</ele>
        <time>2020-07-12T15:57:23 02:00</time>
      </trkpt>
      <trkpt lat="45.05135" lon="5.91387">
        <ele>1784.6</ele>
        <time>2020-07-12T15:57:26 02:00</time>
      </trkpt>
      <trkpt lat="45.05135" lon="5.91386">
        <ele>1784.2</ele>
        <time>2020-07-12T15:57:27 02:00</time>
      </trkpt>
      <trkpt lat="45.05132" lon="5.91377">
        <ele>1784</ele>
        <time>2020-07-12T15:57:35 02:00</time>
      </trkpt>
      <trkpt lat="45.05129" lon="5.91376">
        <ele>1783.6</ele>
        <time>2020-07-12T15:57:37 02:00</time>
      </trkpt>
      <trkpt lat="45.05128" lon="5.91375">
        <ele>1783.2</ele>
        <time>2020-07-12T15:57:38 02:00</time>
      </trkpt>
      <trkpt lat="45.05125" lon="5.91372">
        <ele>1783</ele>
        <time>2020-07-12T15:57:41 02:00</time>
      </trkpt>
      <trkpt lat="45.05124" lon="5.91372">
        <ele>1783</ele>
        <time>2020-07-12T15:57:42 02:00</time>
      </trkpt>
      <trkpt lat="45.05123" lon="5.91372">
        <ele>1783</ele>
        <time>2020-07-12T15:57:43 02:00</time>
      </trkpt>
      <trkpt lat="45.05122" lon="5.91372">
        <ele>1783</ele>
        <time>2020-07-12T15:57:45 02:00</time>
      </trkpt>
      <trkpt lat="45.0512" lon="5.91366">
        <ele>1782.8</ele>
        <time>2020-07-12T15:57:50 02:00</time>
      </trkpt>
      <trkpt lat="45.05119" lon="5.91365">
        <ele>1782.6</ele>
        <time>2020-07-12T15:57:51 02:00</time>
      </trkpt>
      <trkpt lat="45.05103" lon="5.91353">
        <ele>1782</ele>
        <time>2020-07-12T15:58:14 02:00</time>
      </trkpt>
      <trkpt lat="45.05101" lon="5.91353">
        <ele>1781.4</ele>
        <time>2020-07-12T15:58:15 02:00</time>
      </trkpt>
      <trkpt lat="45.05092" lon="5.91343">
        <ele>1780.6</ele>
        <time>2020-07-12T15:58:33 02:00</time>
      </trkpt>
      <trkpt lat="45.05092" lon="5.91343">
        <ele>1780</ele>
        <time>2020-07-12T15:58:34 02:00</time>
      </trkpt>
      <trkpt lat="45.05079" lon="5.9131">
        <ele>1777.6</ele>
        <time>2020-07-12T15:59:09 02:00</time>
      </trkpt>
      <trkpt lat="45.05079" lon="5.91307">
        <ele>1775.4</ele>
        <time>2020-07-12T15:59:11 02:00</time>
      </trkpt>
      <trkpt lat="45.0507" lon="5.91298">
        <ele>1773.6</ele>
        <time>2020-07-12T15:59:21 02:00</time>
      </trkpt>
      <trkpt lat="45.0507" lon="5.91297">
        <ele>1772</ele>
        <time>2020-07-12T15:59:22 02:00</time>
      </trkpt>
      <trkpt lat="45.05064" lon="5.91275">
        <ele>1769.2</ele>
        <time>2020-07-12T15:59:47 02:00</time>
      </trkpt>
      <trkpt lat="45.05065" lon="5.91273">
        <ele>1768</ele>
        <time>2020-07-12T15:59:48 02:00</time>
      </trkpt>
      <trkpt lat="45.05057" lon="5.91196">
        <ele>1764</ele>
        <time>2020-07-12T16:01:51 02:00</time>
      </trkpt>
      <trkpt lat="45.05056" lon="5.91195">
        <ele>1759.6</ele>
        <time>2020-07-12T16:01:52 02:00</time>
      </trkpt>
      <trkpt lat="45.05054" lon="5.91185">
        <ele>1755.2</ele>
        <time>2020-07-12T16:02:05 02:00</time>
      </trkpt>
      <trkpt lat="45.05054" lon="5.91186">
        <ele>1752</ele>
        <time>2020-07-12T16:02:06 02:00</time>
      </trkpt>
      <trkpt lat="45.05049" lon="5.91176">
        <ele>1748.6</ele>
        <time>2020-07-12T16:02:31 02:00</time>
      </trkpt>
      <trkpt lat="45.05048" lon="5.91175">
        <ele>1748.2</ele>
        <time>2020-07-12T16:02:32 02:00</time>
      </trkpt>
      <trkpt lat="45.05042" lon="5.91157">
        <ele>1747</ele>
        <time>2020-07-12T16:02:50 02:00</time>
      </trkpt>
      <trkpt lat="45.05042" lon="5.91151">
        <ele>1745.6</ele>
        <time>2020-07-12T16:02:53 02:00</time>
      </trkpt>
      <trkpt lat="45.05042" lon="5.9115">
        <ele>1744.2</ele>
        <time>2020-07-12T16:02:54 02:00</time>
      </trkpt>
      <trkpt lat="45.0504" lon="5.91146">
        <ele>1743</ele>
        <time>2020-07-12T16:02:56 02:00</time>
      </trkpt>
      <trkpt lat="45.05038" lon="5.91144">
        <ele>1741.8</ele>
        <time>2020-07-12T16:02:58 02:00</time>
      </trkpt>
      <trkpt lat="45.05036" lon="5.91142">
        <ele>1741.4</ele>
        <time>2020-07-12T16:03:01 02:00</time>
      </trkpt>
      <trkpt lat="45.05034" lon="5.91139">
        <ele>1741.2</ele>
        <time>2020-07-12T16:03:04 02:00</time>
      </trkpt>
      <trkpt lat="45.05034" lon="5.91137">
        <ele>1741</ele>
        <time>2020-07-12T16:03:05 02:00</time>
      </trkpt>
      <trkpt lat="45.05034" lon="5.91134">
        <ele>1741</ele>
        <time>2020-07-12T16:03:07 02:00</time>
      </trkpt>
      <trkpt lat="45.05033" lon="5.91132">
        <ele>1740.8</ele>
        <time>2020-07-12T16:03:08 02:00</time>
      </trkpt>
      <trkpt lat="45.05037" lon="5.91124">
        <ele>1740.6</ele>
        <time>2020-07-12T16:03:15 02:00</time>
      </trkpt>
      <trkpt lat="45.05037" lon="5.91122">
        <ele>1740.4</ele>
        <time>2020-07-12T16:03:16 02:00</time>
      </trkpt>
      <trkpt lat="45.05039" lon="5.91119">
        <ele>1740.2</ele>
        <time>2020-07-12T16:03:18 02:00</time>
      </trkpt>
      <trkpt lat="45.05039" lon="5.91115">
        <ele>1740</ele>
        <time>2020-07-12T16:03:20 02:00</time>
      </trkpt>
      <trkpt lat="45.05037" lon="5.91111">
        <ele>1740</ele>
        <time>2020-07-12T16:03:22 02:00</time>
      </trkpt>
      <trkpt lat="45.05037" lon="5.9111">
        <ele>1740</ele>
        <time>2020-07-12T16:03:23 02:00</time>
      </trkpt>
      <trkpt lat="45.05037" lon="5.91106">
        <ele>1740</ele>
        <time>2020-07-12T16:03:26 02:00</time>
      </trkpt>
      <trkpt lat="45.05038" lon="5.91105">
        <ele>1739.8</ele>
        <time>2020-07-12T16:03:27 02:00</time>
      </trkpt>
      <trkpt lat="45.0504" lon="5.91103">
        <ele>1739.2</ele>
        <time>2020-07-12T16:03:30 02:00</time>
      </trkpt>
      <trkpt lat="45.05041" lon="5.91103">
        <ele>1738.4</ele>
        <time>2020-07-12T16:03:31 02:00</time>
      </trkpt>
      <trkpt lat="45.05046" lon="5.91098">
        <ele>1737.2</ele>
        <time>2020-07-12T16:03:36 02:00</time>
      </trkpt>
      <trkpt lat="45.05049" lon="5.91096">
        <ele>1735.8</ele>
        <time>2020-07-12T16:03:39 02:00</time>
      </trkpt>
      <trkpt lat="45.0505" lon="5.91095">
        <ele>1734.4</ele>
        <time>2020-07-12T16:03:40 02:00</time>
      </trkpt>
      <trkpt lat="45.0505" lon="5.91092">
        <ele>1733.2</ele>
        <time>2020-07-12T16:03:43 02:00</time>
      </trkpt>
      <trkpt lat="45.05049" lon="5.91091">
        <ele>1732.2</ele>
        <time>2020-07-12T16:03:45 02:00</time>
      </trkpt>
      <trkpt lat="45.05049" lon="5.9109">
        <ele>1731.8</ele>
        <time>2020-07-12T16:03:46 02:00</time>
      </trkpt>
      <trkpt lat="45.05051" lon="5.91084">
        <ele>1731.6</ele>
        <time>2020-07-12T16:03:53 02:00</time>
      </trkpt>
      <trkpt lat="45.05052" lon="5.91083">
        <ele>1731.4</ele>
        <time>2020-07-12T16:03:54 02:00</time>
      </trkpt>
      <trkpt lat="45.05053" lon="5.91082">
        <ele>1731.4</ele>
        <time>2020-07-12T16:03:55 02:00</time>
      </trkpt>
      <trkpt lat="45.05055" lon="5.91079">
        <ele>1731.4</ele>
        <time>2020-07-12T16:03:57 02:00</time>
      </trkpt>
      <trkpt lat="45.05057" lon="5.91074">
        <ele>1731.2</ele>
        <time>2020-07-12T16:04:00 02:00</time>
      </trkpt>
      <trkpt lat="45.05057" lon="5.91073">
        <ele>1731</ele>
        <time>2020-07-12T16:04:01 02:00</time>
      </trkpt>
      <trkpt lat="45.05058" lon="5.9107">
        <ele>1731</ele>
        <time>2020-07-12T16:04:03 02:00</time>
      </trkpt>
      <trkpt lat="45.05059" lon="5.91067">
        <ele>1731</ele>
        <time>2020-07-12T16:04:05 02:00</time>
      </trkpt>
      <trkpt lat="45.05061" lon="5.91065">
        <ele>1731.2</ele>
        <time>2020-07-12T16:04:07 02:00</time>
      </trkpt>
      <trkpt lat="45.05061" lon="5.91063">
        <ele>1731.4</ele>
        <time>2020-07-12T16:04:08 02:00</time>
      </trkpt>
      <trkpt lat="45.05064" lon="5.91039">
        <ele>1731</ele>
        <time>2020-07-12T16:04:40 02:00</time>
      </trkpt>
      <trkpt lat="45.05065" lon="5.91036">
        <ele>1730.4</ele>
        <time>2020-07-12T16:04:42 02:00</time>
      </trkpt>
      <trkpt lat="45.05067" lon="5.91001">
        <ele>1729.4</ele>
        <time>2020-07-12T16:05:14 02:00</time>
      </trkpt>
      <trkpt lat="45.05067" lon="5.90999">
        <ele>1728</ele>
        <time>2020-07-12T16:05:15 02:00</time>
      </trkpt>
      <trkpt lat="45.05074" lon="5.90969">
        <ele>1726.4</ele>
        <time>2020-07-12T16:05:41 02:00</time>
      </trkpt>
      <trkpt lat="45.05074" lon="5.90963">
        <ele>1725.4</ele>
        <time>2020-07-12T16:05:44 02:00</time>
      </trkpt>
      <trkpt lat="45.05076" lon="5.90959">
        <ele>1724.6</ele>
        <time>2020-07-12T16:05:47 02:00</time>
      </trkpt>
      <trkpt lat="45.05077" lon="5.90955">
        <ele>1724.2</ele>
        <time>2020-07-12T16:05:49 02:00</time>
      </trkpt>
      <trkpt lat="45.05077" lon="5.90954">
        <ele>1724</ele>
        <time>2020-07-12T16:05:50 02:00</time>
      </trkpt>
      <trkpt lat="45.05077" lon="5.90951">
        <ele>1724</ele>
        <time>2020-07-12T16:05:52 02:00</time>
      </trkpt>
      <trkpt lat="45.05077" lon="5.90946">
        <ele>1724</ele>
        <time>2020-07-12T16:05:55 02:00</time>
      </trkpt>
      <trkpt lat="45.05078" lon="5.90941">
        <ele>1724</ele>
        <time>2020-07-12T16:05:58 02:00</time>
      </trkpt>
      <trkpt lat="45.05078" lon="5.90938">
        <ele>1724</ele>
        <time>2020-07-12T16:06:00 02:00</time>
      </trkpt>
      <trkpt lat="45.05079" lon="5.90933">
        <ele>1723.8</ele>
        <time>2020-07-12T16:06:03 02:00</time>
      </trkpt>
      <trkpt lat="45.05079" lon="5.90931">
        <ele>1723.8</ele>
        <time>2020-07-12T16:06:04 02:00</time>
      </trkpt>
      <trkpt lat="45.05082" lon="5.90922">
        <ele>1723.6</ele>
        <time>2020-07-12T16:06:13 02:00</time>
      </trkpt>
      <trkpt lat="45.05082" lon="5.90921">
        <ele>1723.2</ele>
        <time>2020-07-12T16:06:14 02:00</time>
      </trkpt>
      <trkpt lat="45.05088" lon="5.90916">
        <ele>1722.4</ele>
        <time>2020-07-12T16:06:21 02:00</time>
      </trkpt>
      <trkpt lat="45.0509" lon="5.90915">
        <ele>1721.6</ele>
        <time>2020-07-12T16:06:23 02:00</time>
      </trkpt>
      <trkpt lat="45.05091" lon="5.90906">
        <ele>1720.4</ele>
        <time>2020-07-12T16:06:31 02:00</time>
      </trkpt>
      <trkpt lat="45.05092" lon="5.90904">
        <ele>1719.4</ele>
        <time>2020-07-12T16:06:32 02:00</time>
      </trkpt>
      <trkpt lat="45.05102" lon="5.90847">
        <ele>1717.6</ele>
        <time>2020-07-12T16:14:11 02:00</time>
      </trkpt>
      <trkpt lat="45.05103" lon="5.90845">
        <ele>1716.2</ele>
        <time>2020-07-12T16:14:12 02:00</time>
      </trkpt>
      <trkpt lat="45.05107" lon="5.90805">
        <ele>1713.8</ele>
        <time>2020-07-12T16:15:22 02:00</time>
      </trkpt>
      <trkpt lat="45.05108" lon="5.90804">
        <ele>1711.6</ele>
        <time>2020-07-12T16:15:23 02:00</time>
      </trkpt>
      <trkpt lat="45.0511" lon="5.90799">
        <ele>1709.4</ele>
        <time>2020-07-12T16:15:28 02:00</time>
      </trkpt>
      <trkpt lat="45.05112" lon="5.90797">
        <ele>1708.2</ele>
        <time>2020-07-12T16:15:30 02:00</time>
      </trkpt>
      <trkpt lat="45.05114" lon="5.90776">
        <ele>1706</ele>
        <time>2020-07-12T16:15:47 02:00</time>
      </trkpt>
      <trkpt lat="45.05114" lon="5.90773">
        <ele>1705</ele>
        <time>2020-07-12T16:15:48 02:00</time>
      </trkpt>
      <trkpt lat="45.0512" lon="5.90758">
        <ele>1703</ele>
        <time>2020-07-12T16:16:04 02:00</time>
      </trkpt>
      <trkpt lat="45.05119" lon="5.90757">
        <ele>1700.8</ele>
        <time>2020-07-12T16:16:05 02:00</time>
      </trkpt>
      <trkpt lat="45.05119" lon="5.90754">
        <ele>1698.6</ele>
        <time>2020-07-12T16:16:07 02:00</time>
      </trkpt>
      <trkpt lat="45.05119" lon="5.90753">
        <ele>1697.6</ele>
        <time>2020-07-12T16:16:08 02:00</time>
      </trkpt>
      <trkpt lat="45.05121" lon="5.90742">
        <ele>1696.4</ele>
        <time>2020-07-12T16:16:18 02:00</time>
      </trkpt>
      <trkpt lat="45.05121" lon="5.9074">
        <ele>1696.2</ele>
        <time>2020-07-12T16:16:19 02:00</time>
      </trkpt>
      <trkpt lat="45.05123" lon="5.9073">
        <ele>1696</ele>
        <time>2020-07-12T16:16:27 02:00</time>
      </trkpt>
      <trkpt lat="45.05125" lon="5.90726">
        <ele>1696</ele>
        <time>2020-07-12T16:16:30 02:00</time>
      </trkpt>
      <trkpt lat="45.05125" lon="5.90722">
        <ele>1695.6</ele>
        <time>2020-07-12T16:16:32 02:00</time>
      </trkpt>
      <trkpt lat="45.05127" lon="5.90718">
        <ele>1695.4</ele>
        <time>2020-07-12T16:16:34 02:00</time>
      </trkpt>
      <trkpt lat="45.05127" lon="5.90717">
        <ele>1695.2</ele>
        <time>2020-07-12T16:16:35 02:00</time>
      </trkpt>
      <trkpt lat="45.05127" lon="5.90715">
        <ele>1695.2</ele>
        <time>2020-07-12T16:16:36 02:00</time>
      </trkpt>
      <trkpt lat="45.05127" lon="5.90712">
        <ele>1695</ele>
        <time>2020-07-12T16:16:38 02:00</time>
      </trkpt>
      <trkpt lat="45.05128" lon="5.9071">
        <ele>1695</ele>
        <time>2020-07-12T16:16:39 02:00</time>
      </trkpt>
      <trkpt lat="45.05129" lon="5.90707">
        <ele>1695</ele>
        <time>2020-07-12T16:16:42 02:00</time>
      </trkpt>
      <trkpt lat="45.05129" lon="5.90705">
        <ele>1695</ele>
        <time>2020-07-12T16:16:43 02:00</time>
      </trkpt>
      <trkpt lat="45.05129" lon="5.90704">
        <ele>1695</ele>
        <time>2020-07-12T16:16:44 02:00</time>
      </trkpt>
      <trkpt lat="45.0513" lon="5.90702">
        <ele>1695</ele>
        <time>2020-07-12T16:16:46 02:00</time>
      </trkpt>
      <trkpt lat="45.05132" lon="5.90698">
        <ele>1695</ele>
        <time>2020-07-12T16:16:49 02:00</time>
      </trkpt>
      <trkpt lat="45.05132" lon="5.90696">
        <ele>1695</ele>
        <time>2020-07-12T16:16:50 02:00</time>
      </trkpt>
      <trkpt lat="45.05132" lon="5.90686">
        <ele>1694.8</ele>
        <time>2020-07-12T16:16:57 02:00</time>
      </trkpt>
      <trkpt lat="45.05132" lon="5.90682">
        <ele>1694.6</ele>
        <time>2020-07-12T16:16:59 02:00</time>
      </trkpt>
      <trkpt lat="45.05127" lon="5.90672">
        <ele>1694.2</ele>
        <time>2020-07-12T16:17:08 02:00</time>
      </trkpt>
      <trkpt lat="45.05127" lon="5.9067">
        <ele>1694</ele>
        <time>2020-07-12T16:17:09 02:00</time>
      </trkpt>
      <trkpt lat="45.05126" lon="5.90665">
        <ele>1694</ele>
        <time>2020-07-12T16:17:13 02:00</time>
      </trkpt>
      <trkpt lat="45.05126" lon="5.90663">
        <ele>1694.4</ele>
        <time>2020-07-12T16:17:15 02:00</time>
      </trkpt>
      <trkpt lat="45.05123" lon="5.90647">
        <ele>1694.4</ele>
        <time>2020-07-12T16:17:25 02:00</time>
      </trkpt>
      <trkpt lat="45.05123" lon="5.90645">
        <ele>1694.6</ele>
        <time>2020-07-12T16:17:26 02:00</time>
      </trkpt>
      <trkpt lat="45.05123" lon="5.90641">
        <ele>1694.6</ele>
        <time>2020-07-12T16:17:28 02:00</time>
      </trkpt>
      <trkpt lat="45.05122" lon="5.90637">
        <ele>1694.2</ele>
        <time>2020-07-12T16:17:30 02:00</time>
      </trkpt>
      <trkpt lat="45.05121" lon="5.90634">
        <ele>1693.6</ele>
        <time>2020-07-12T16:17:31 02:00</time>
      </trkpt>
      <trkpt lat="45.05122" lon="5.90618">
        <ele>1693.2</ele>
        <time>2020-07-12T16:17:44 02:00</time>
      </trkpt>
      <trkpt lat="45.05124" lon="5.90614">
        <ele>1692.6</ele>
        <time>2020-07-12T16:17:47 02:00</time>
      </trkpt>
      <trkpt lat="45.05124" lon="5.9061">
        <ele>1691.6</ele>
        <time>2020-07-12T16:17:49 02:00</time>
      </trkpt>
      <trkpt lat="45.05124" lon="5.90604">
        <ele>1690.6</ele>
        <time>2020-07-12T16:17:52 02:00</time>
      </trkpt>
      <trkpt lat="45.05124" lon="5.906">
        <ele>1689.6</ele>
        <time>2020-07-12T16:17:55 02:00</time>
      </trkpt>
      <trkpt lat="45.05124" lon="5.90595">
        <ele>1688.8</ele>
        <time>2020-07-12T16:17:58 02:00</time>
      </trkpt>
      <trkpt lat="45.05125" lon="5.9059">
        <ele>1687.8</ele>
        <time>2020-07-12T16:18:01 02:00</time>
      </trkpt>
      <trkpt lat="45.05125" lon="5.90586">
        <ele>1687</ele>
        <time>2020-07-12T16:18:04 02:00</time>
      </trkpt>
      <trkpt lat="45.05125" lon="5.90581">
        <ele>1686.4</ele>
        <time>2020-07-12T16:18:07 02:00</time>
      </trkpt>
      <trkpt lat="45.05127" lon="5.90578">
        <ele>1685.6</ele>
        <time>2020-07-12T16:18:10 02:00</time>
      </trkpt>
      <trkpt lat="45.05127" lon="5.90577">
        <ele>1684.8</ele>
        <time>2020-07-12T16:18:11 02:00</time>
      </trkpt>
      <trkpt lat="45.05127" lon="5.90575">
        <ele>1684.4</ele>
        <time>2020-07-12T16:18:12 02:00</time>
      </trkpt>
      <trkpt lat="45.05128" lon="5.90572">
        <ele>1684.2</ele>
        <time>2020-07-12T16:18:14 02:00</time>
      </trkpt>
      <trkpt lat="45.0513" lon="5.90567">
        <ele>1684.2</ele>
        <time>2020-07-12T16:18:17 02:00</time>
      </trkpt>
      <trkpt lat="45.05131" lon="5.90563">
        <ele>1684.2</ele>
        <time>2020-07-12T16:18:20 02:00</time>
      </trkpt>
      <trkpt lat="45.05133" lon="5.90559">
        <ele>1684.2</ele>
        <time>2020-07-12T16:18:23 02:00</time>
      </trkpt>
      <trkpt lat="45.05135" lon="5.90555">
        <ele>1683.8</ele>
        <time>2020-07-12T16:18:26 02:00</time>
      </trkpt>
      <trkpt lat="45.05136" lon="5.90551">
        <ele>1683.6</ele>
        <time>2020-07-12T16:18:29 02:00</time>
      </trkpt>
      <trkpt lat="45.05137" lon="5.90546">
        <ele>1682.8</ele>
        <time>2020-07-12T16:18:32 02:00</time>
      </trkpt>
      <trkpt lat="45.05137" lon="5.90541">
        <ele>1682.4</ele>
        <time>2020-07-12T16:18:35 02:00</time>
      </trkpt>
      <trkpt lat="45.05138" lon="5.90537">
        <ele>1681.8</ele>
        <time>2020-07-12T16:18:38 02:00</time>
      </trkpt>
      <trkpt lat="45.05138" lon="5.90532">
        <ele>1681.6</ele>
        <time>2020-07-12T16:18:41 02:00</time>
      </trkpt>
      <trkpt lat="45.05138" lon="5.90528">
        <ele>1681</ele>
        <time>2020-07-12T16:18:44 02:00</time>
      </trkpt>
      <trkpt lat="45.05139" lon="5.90526">
        <ele>1680.8</ele>
        <time>2020-07-12T16:18:45 02:00</time>
      </trkpt>
      <trkpt lat="45.05139" lon="5.90523">
        <ele>1680.2</ele>
        <time>2020-07-12T16:18:47 02:00</time>
      </trkpt>
      <trkpt lat="45.0514" lon="5.90519">
        <ele>1679.8</ele>
        <time>2020-07-12T16:18:49 02:00</time>
      </trkpt>
      <trkpt lat="45.05141" lon="5.90514">
        <ele>1679.4</ele>
        <time>2020-07-12T16:18:52 02:00</time>
      </trkpt>
      <trkpt lat="45.05141" lon="5.9051">
        <ele>1679.2</ele>
        <time>2020-07-12T16:18:54 02:00</time>
      </trkpt>
      <trkpt lat="45.05141" lon="5.90504">
        <ele>1678.8</ele>
        <time>2020-07-12T16:18:57 02:00</time>
      </trkpt>
      <trkpt lat="45.05141" lon="5.90499">
        <ele>1678.4</ele>
        <time>2020-07-12T16:19:00 02:00</time>
      </trkpt>
      <trkpt lat="45.05142" lon="5.90496">
        <ele>1677.8</ele>
        <time>2020-07-12T16:19:03 02:00</time>
      </trkpt>
      <trkpt lat="45.05143" lon="5.90492">
        <ele>1677</ele>
        <time>2020-07-12T16:19:05 02:00</time>
      </trkpt>
      <trkpt lat="45.05144" lon="5.90488">
        <ele>1676.2</ele>
        <time>2020-07-12T16:19:07 02:00</time>
      </trkpt>
      <trkpt lat="45.05145" lon="5.90484">
        <ele>1675.6</ele>
        <time>2020-07-12T16:19:10 02:00</time>
      </trkpt>
      <trkpt lat="45.05145" lon="5.9048">
        <ele>1675.4</ele>
        <time>2020-07-12T16:19:14 02:00</time>
      </trkpt>
      <trkpt lat="45.05146" lon="5.90476">
        <ele>1675.4</ele>
        <time>2020-07-12T16:19:17 02:00</time>
      </trkpt>
      <trkpt lat="45.05147" lon="5.90471">
        <ele>1675.4</ele>
        <time>2020-07-12T16:19:20 02:00</time>
      </trkpt>
      <trkpt lat="45.05148" lon="5.90467">
        <ele>1675.4</ele>
        <time>2020-07-12T16:19:23 02:00</time>
      </trkpt>
      <trkpt lat="45.05149" lon="5.90463">
        <ele>1675.2</ele>
        <time>2020-07-12T16:19:26 02:00</time>
      </trkpt>
      <trkpt lat="45.05151" lon="5.90458">
        <ele>1674.6</ele>
        <time>2020-07-12T16:19:29 02:00</time>
      </trkpt>
      <trkpt lat="45.05151" lon="5.90453">
        <ele>1674</ele>
        <time>2020-07-12T16:19:32 02:00</time>
      </trkpt>
      <trkpt lat="45.05153" lon="5.90448">
        <ele>1673.4</ele>
        <time>2020-07-12T16:19:35 02:00</time>
      </trkpt>
      <trkpt lat="45.05153" lon="5.90444">
        <ele>1672.8</ele>
        <time>2020-07-12T16:19:38 02:00</time>
      </trkpt>
      <trkpt lat="45.05155" lon="5.90438">
        <ele>1672.4</ele>
        <time>2020-07-12T16:19:41 02:00</time>
      </trkpt>
      <trkpt lat="45.05156" lon="5.90434">
        <ele>1672.2</ele>
        <time>2020-07-12T16:19:44 02:00</time>
      </trkpt>
      <trkpt lat="45.05158" lon="5.9043">
        <ele>1672</ele>
        <time>2020-07-12T16:19:47 02:00</time>
      </trkpt>
      <trkpt lat="45.05159" lon="5.90425">
        <ele>1672</ele>
        <time>2020-07-12T16:19:49 02:00</time>
      </trkpt>
      <trkpt lat="45.05159" lon="5.90421">
        <ele>1672</ele>
        <time>2020-07-12T16:19:52 02:00</time>
      </trkpt>
      <trkpt lat="45.0516" lon="5.90415">
        <ele>1672</ele>
        <time>2020-07-12T16:19:55 02:00</time>
      </trkpt>
      <trkpt lat="45.05162" lon="5.90411">
        <ele>1672</ele>
        <time>2020-07-12T16:19:58 02:00</time>
      </trkpt>
      <trkpt lat="45.05163" lon="5.90406">
        <ele>1672</ele>
        <time>2020-07-12T16:20:01 02:00</time>
      </trkpt>
      <trkpt lat="45.05164" lon="5.90401">
        <ele>1671.8</ele>
        <time>2020-07-12T16:20:04 02:00</time>
      </trkpt>
      <trkpt lat="45.05165" lon="5.90396">
        <ele>1671.4</ele>
        <time>2020-07-12T16:20:07 02:00</time>
      </trkpt>
      <trkpt lat="45.05166" lon="5.90393">
        <ele>1671</ele>
        <time>2020-07-12T16:20:09 02:00</time>
      </trkpt>
      <trkpt lat="45.05166" lon="5.90389">
        <ele>1670.8</ele>
        <time>2020-07-12T16:20:12 02:00</time>
      </trkpt>
      <trkpt lat="45.05167" lon="5.90385">
        <ele>1670.4</ele>
        <time>2020-07-12T16:20:15 02:00</time>
      </trkpt>
      <trkpt lat="45.05169" lon="5.90381">
        <ele>1670</ele>
        <time>2020-07-12T16:20:18 02:00</time>
      </trkpt>
      <trkpt lat="45.0517" lon="5.90377">
        <ele>1669.8</ele>
        <time>2020-07-12T16:20:21 02:00</time>
      </trkpt>
      <trkpt lat="45.0517" lon="5.90374">
        <ele>1669.6</ele>
        <time>2020-07-12T16:20:23 02:00</time>
      </trkpt>
      <trkpt lat="45.0517" lon="5.90369">
        <ele>1669.2</ele>
        <time>2020-07-12T16:20:26 02:00</time>
      </trkpt>
      <trkpt lat="45.0517" lon="5.90363">
        <ele>1668.8</ele>
        <time>2020-07-12T16:20:29 02:00</time>
      </trkpt>
      <trkpt lat="45.05171" lon="5.90359">
        <ele>1668.6</ele>
        <time>2020-07-12T16:20:32 02:00</time>
      </trkpt>
      <trkpt lat="45.05172" lon="5.90355">
        <ele>1668.6</ele>
        <time>2020-07-12T16:20:35 02:00</time>
      </trkpt>
      <trkpt lat="45.05172" lon="5.90351">
        <ele>1668.4</ele>
        <time>2020-07-12T16:20:37 02:00</time>
      </trkpt>
      <trkpt lat="45.05173" lon="5.90346">
        <ele>1668.2</ele>
        <time>2020-07-12T16:20:40 02:00</time>
      </trkpt>
      <trkpt lat="45.05173" lon="5.90341">
        <ele>1668</ele>
        <time>2020-07-12T16:20:43 02:00</time>
      </trkpt>
      <trkpt lat="45.05172" lon="5.90336">
        <ele>1668</ele>
        <time>2020-07-12T16:20:46 02:00</time>
      </trkpt>
      <trkpt lat="45.05172" lon="5.90331">
        <ele>1667.6</ele>
        <time>2020-07-12T16:20:49 02:00</time>
      </trkpt>
      <trkpt lat="45.05172" lon="5.90326">
        <ele>1667.4</ele>
        <time>2020-07-12T16:20:52 02:00</time>
      </trkpt>
      <trkpt lat="45.05171" lon="5.9032">
        <ele>1667.2</ele>
        <time>2020-07-12T16:20:55 02:00</time>
      </trkpt>
      <trkpt lat="45.0517" lon="5.90316">
        <ele>1667</ele>
        <time>2020-07-12T16:20:57 02:00</time>
      </trkpt>
      <trkpt lat="45.05169" lon="5.90312">
        <ele>1666.8</ele>
        <time>2020-07-12T16:20:59 02:00</time>
      </trkpt>
      <trkpt lat="45.05168" lon="5.90307">
        <ele>1666.8</ele>
        <time>2020-07-12T16:21:02 02:00</time>
      </trkpt>
      <trkpt lat="45.05168" lon="5.90304">
        <ele>1667</ele>
        <time>2020-07-12T16:21:05 02:00</time>
      </trkpt>
      <trkpt lat="45.05166" lon="5.90299">
        <ele>1667</ele>
        <time>2020-07-12T16:21:08 02:00</time>
      </trkpt>
      <trkpt lat="45.05165" lon="5.90294">
        <ele>1667</ele>
        <time>2020-07-12T16:21:11 02:00</time>
      </trkpt>
      <trkpt lat="45.05164" lon="5.9029">
        <ele>1666.6</ele>
        <time>2020-07-12T16:21:14 02:00</time>
      </trkpt>
      <trkpt lat="45.05163" lon="5.90286">
        <ele>1666</ele>
        <time>2020-07-12T16:21:17 02:00</time>
      </trkpt>
      <trkpt lat="45.05161" lon="5.90282">
        <ele>1665</ele>
        <time>2020-07-12T16:21:21 02:00</time>
      </trkpt>
      <trkpt lat="45.05161" lon="5.90277">
        <ele>1664.2</ele>
        <time>2020-07-12T16:21:24 02:00</time>
      </trkpt>
      <trkpt lat="45.0516" lon="5.90272">
        <ele>1663.4</ele>
        <time>2020-07-12T16:21:27 02:00</time>
      </trkpt>
      <trkpt lat="45.0516" lon="5.90267">
        <ele>1662.6</ele>
        <time>2020-07-12T16:21:30 02:00</time>
      </trkpt>
      <trkpt lat="45.05158" lon="5.90264">
        <ele>1662</ele>
        <time>2020-07-12T16:21:33 02:00</time>
      </trkpt>
      <trkpt lat="45.05157" lon="5.9026">
        <ele>1661.6</ele>
        <time>2020-07-12T16:21:37 02:00</time>
      </trkpt>
      <trkpt lat="45.05155" lon="5.90256">
        <ele>1661.2</ele>
        <time>2020-07-12T16:21:40 02:00</time>
      </trkpt>
      <trkpt lat="45.05154" lon="5.90253">
        <ele>1661.2</ele>
        <time>2020-07-12T16:21:42 02:00</time>
      </trkpt>
      <trkpt lat="45.05153" lon="5.90248">
        <ele>1661.6</ele>
        <time>2020-07-12T16:21:45 02:00</time>
      </trkpt>
      <trkpt lat="45.05154" lon="5.90244">
        <ele>1662</ele>
        <time>2020-07-12T16:21:47 02:00</time>
      </trkpt>
      <trkpt lat="45.05154" lon="5.9024">
        <ele>1662.2</ele>
        <time>2020-07-12T16:21:50 02:00</time>
      </trkpt>
      <trkpt lat="45.05152" lon="5.90235">
        <ele>1662.4</ele>
        <time>2020-07-12T16:21:53 02:00</time>
      </trkpt>
      <trkpt lat="45.05151" lon="5.90234">
        <ele>1662.2</ele>
        <time>2020-07-12T16:21:54 02:00</time>
      </trkpt>
      <trkpt lat="45.05151" lon="5.90233">
        <ele>1661.4</ele>
        <time>2020-07-12T16:21:56 02:00</time>
      </trkpt>
      <trkpt lat="45.0515" lon="5.90231">
        <ele>1660.6</ele>
        <time>2020-07-12T16:21:57 02:00</time>
      </trkpt>
      <trkpt lat="45.05151" lon="5.90229">
        <ele>1659.8</ele>
        <time>2020-07-12T16:21:58 02:00</time>
      </trkpt>
      <trkpt lat="45.0515" lon="5.90225">
        <ele>1658.8</ele>
        <time>2020-07-12T16:22:01 02:00</time>
      </trkpt>
      <trkpt lat="45.0515" lon="5.90222">
        <ele>1658</ele>
        <time>2020-07-12T16:22:03 02:00</time>
      </trkpt>
      <trkpt lat="45.0515" lon="5.9022">
        <ele>1657.6</ele>
        <time>2020-07-12T16:22:05 02:00</time>
      </trkpt>
      <trkpt lat="45.05152" lon="5.90216">
        <ele>1657.2</ele>
        <time>2020-07-12T16:22:08 02:00</time>
      </trkpt>
      <trkpt lat="45.05153" lon="5.90215">
        <ele>1657</ele>
        <time>2020-07-12T16:22:09 02:00</time>
      </trkpt>
      <trkpt lat="45.05153" lon="5.90213">
        <ele>1657.2</ele>
        <time>2020-07-12T16:22:10 02:00</time>
      </trkpt>
      <trkpt lat="45.05153" lon="5.90212">
        <ele>1657.4</ele>
        <time>2020-07-12T16:22:11 02:00</time>
      </trkpt>
      <trkpt lat="45.05157" lon="5.90196">
        <ele>1658.2</ele>
        <time>2020-07-12T16:22:21 02:00</time>
      </trkpt>
      <trkpt lat="45.05157" lon="5.90195">
        <ele>1659</ele>
        <time>2020-07-12T16:22:22 02:00</time>
      </trkpt>
      <trkpt lat="45.05158" lon="5.90193">
        <ele>1659.8</ele>
        <time>2020-07-12T16:22:23 02:00</time>
      </trkpt>
      <trkpt lat="45.05159" lon="5.90191">
        <ele>1660.6</ele>
        <time>2020-07-12T16:22:25 02:00</time>
      </trkpt>
      <trkpt lat="45.05159" lon="5.9019">
        <ele>1661.4</ele>
        <time>2020-07-12T16:22:26 02:00</time>
      </trkpt>
      <trkpt lat="45.05162" lon="5.90189">
        <ele>1661.6</ele>
        <time>2020-07-12T16:22:29 02:00</time>
      </trkpt>
      <trkpt lat="45.05163" lon="5.90189">
        <ele>1661.8</ele>
        <time>2020-07-12T16:22:30 02:00</time>
      </trkpt>
      <trkpt lat="45.05166" lon="5.90188">
        <ele>1662.2</ele>
        <time>2020-07-12T16:22:33 02:00</time>
      </trkpt>
      <trkpt lat="45.0517" lon="5.90187">
        <ele>1662.4</ele>
        <time>2020-07-12T16:22:36 02:00</time>
      </trkpt>
      <trkpt lat="45.05173" lon="5.90187">
        <ele>1662.4</ele>
        <time>2020-07-12T16:22:38 02:00</time>
      </trkpt>
      <trkpt lat="45.05176" lon="5.90186">
        <ele>1662.2</ele>
        <time>2020-07-12T16:22:40 02:00</time>
      </trkpt>
      <trkpt lat="45.05178" lon="5.90183">
        <ele>1662</ele>
        <time>2020-07-12T16:22:44 02:00</time>
      </trkpt>
      <trkpt lat="45.05179" lon="5.90175">
        <ele>1661.4</ele>
        <time>2020-07-12T16:22:51 02:00</time>
      </trkpt>
      <trkpt lat="45.05181" lon="5.90171">
        <ele>1660.8</ele>
        <time>2020-07-12T16:22:54 02:00</time>
      </trkpt>
      <trkpt lat="45.05181" lon="5.90169">
        <ele>1660.4</ele>
        <time>2020-07-12T16:22:55 02:00</time>
      </trkpt>
      <trkpt lat="45.05182" lon="5.90165">
        <ele>1660.4</ele>
        <time>2020-07-12T16:22:58 02:00</time>
      </trkpt>
      <trkpt lat="45.05183" lon="5.90164">
        <ele>1660.4</ele>
        <time>2020-07-12T16:22:59 02:00</time>
      </trkpt>
      <trkpt lat="45.0519" lon="5.90154">
        <ele>1660.4</ele>
        <time>2020-07-12T16:23:11 02:00</time>
      </trkpt>
      <trkpt lat="45.05191" lon="5.90153">
        <ele>1660</ele>
        <time>2020-07-12T16:23:13 02:00</time>
      </trkpt>
      <trkpt lat="45.05193" lon="5.90148">
        <ele>1659.4</ele>
        <time>2020-07-12T16:23:17 02:00</time>
      </trkpt>
      <trkpt lat="45.05192" lon="5.90146">
        <ele>1658.4</ele>
        <time>2020-07-12T16:23:18 02:00</time>
      </trkpt>
      <trkpt lat="45.05188" lon="5.90141">
        <ele>1657</ele>
        <time>2020-07-12T16:23:23 02:00</time>
      </trkpt>
      <trkpt lat="45.05188" lon="5.9014">
        <ele>1655.8</ele>
        <time>2020-07-12T16:23:24 02:00</time>
      </trkpt>
      <trkpt lat="45.05185" lon="5.90123">
        <ele>1654.6</ele>
        <time>2020-07-12T16:23:36 02:00</time>
      </trkpt>
      <trkpt lat="45.05184" lon="5.90121">
        <ele>1653.6</ele>
        <time>2020-07-12T16:23:37 02:00</time>
      </trkpt>
      <trkpt lat="45.0518" lon="5.90098">
        <ele>1652.2</ele>
        <time>2020-07-12T16:23:55 02:00</time>
      </trkpt>
      <trkpt lat="45.05182" lon="5.90096">
        <ele>1650.8</ele>
        <time>2020-07-12T16:23:58 02:00</time>
      </trkpt>
      <trkpt lat="45.05186" lon="5.90094">
        <ele>1649.6</ele>
        <time>2020-07-12T16:24:01 02:00</time>
      </trkpt>
      <trkpt lat="45.05188" lon="5.90091">
        <ele>1648.6</ele>
        <time>2020-07-12T16:24:04 02:00</time>
      </trkpt>
      <trkpt lat="45.0519" lon="5.90088">
        <ele>1647.6</ele>
        <time>2020-07-12T16:24:07 02:00</time>
      </trkpt>
      <trkpt lat="45.05191" lon="5.90087">
        <ele>1647.2</ele>
        <time>2020-07-12T16:24:08 02:00</time>
      </trkpt>
      <trkpt lat="45.05193" lon="5.90086">
        <ele>1647.2</ele>
        <time>2020-07-12T16:24:09 02:00</time>
      </trkpt>
      <trkpt lat="45.05193" lon="5.90084">
        <ele>1647</ele>
        <time>2020-07-12T16:24:10 02:00</time>
      </trkpt>
      <trkpt lat="45.05197" lon="5.90082">
        <ele>1647</ele>
        <time>2020-07-12T16:24:14 02:00</time>
      </trkpt>
      <trkpt lat="45.05199" lon="5.90078">
        <ele>1647.4</ele>
        <time>2020-07-12T16:24:17 02:00</time>
      </trkpt>
      <trkpt lat="45.05204" lon="5.90074">
        <ele>1647.2</ele>
        <time>2020-07-12T16:24:23 02:00</time>
      </trkpt>
      <trkpt lat="45.05205" lon="5.90071">
        <ele>1646.8</ele>
        <time>2020-07-12T16:24:25 02:00</time>
      </trkpt>
      <trkpt lat="45.05209" lon="5.90068">
        <ele>1646.6</ele>
        <time>2020-07-12T16:24:28 02:00</time>
      </trkpt>
      <trkpt lat="45.0521" lon="5.90067">
        <ele>1646.6</ele>
        <time>2020-07-12T16:24:29 02:00</time>
      </trkpt>
      <trkpt lat="45.05211" lon="5.90067">
        <ele>1646.4</ele>
        <time>2020-07-12T16:24:31 02:00</time>
      </trkpt>
      <trkpt lat="45.05216" lon="5.90061">
        <ele>1646.4</ele>
        <time>2020-07-12T16:24:37 02:00</time>
      </trkpt>
      <trkpt lat="45.05219" lon="5.90061">
        <ele>1646.6</ele>
        <time>2020-07-12T16:24:39 02:00</time>
      </trkpt>
      <trkpt lat="45.0522" lon="5.9006">
        <ele>1646.6</ele>
        <time>2020-07-12T16:24:40 02:00</time>
      </trkpt>
      <trkpt lat="45.05224" lon="5.90058">
        <ele>1646.4</ele>
        <time>2020-07-12T16:24:43 02:00</time>
      </trkpt>
      <trkpt lat="45.05226" lon="5.90058">
        <ele>1645.8</ele>
        <time>2020-07-12T16:24:46 02:00</time>
      </trkpt>
      <trkpt lat="45.0523" lon="5.90056">
        <ele>1645.6</ele>
        <time>2020-07-12T16:24:50 02:00</time>
      </trkpt>
      <trkpt lat="45.0523" lon="5.90056">
        <ele>1645.2</ele>
        <time>2020-07-12T16:24:51 02:00</time>
      </trkpt>
      <trkpt lat="45.05232" lon="5.90055">
        <ele>1644.8</ele>
        <time>2020-07-12T16:24:53 02:00</time>
      </trkpt>
      <trkpt lat="45.05234" lon="5.90054">
        <ele>1644.2</ele>
        <time>2020-07-12T16:24:55 02:00</time>
      </trkpt>
      <trkpt lat="45.0524" lon="5.90048">
        <ele>1644.2</ele>
        <time>2020-07-12T16:25:02 02:00</time>
      </trkpt>
      <trkpt lat="45.05243" lon="5.90046">
        <ele>1644.4</ele>
        <time>2020-07-12T16:25:04 02:00</time>
      </trkpt>
      <trkpt lat="45.05249" lon="5.90023">
        <ele>1644.6</ele>
        <time>2020-07-12T16:25:19 02:00</time>
      </trkpt>
      <trkpt lat="45.05252" lon="5.90021">
        <ele>1644.8</ele>
        <time>2020-07-12T16:25:21 02:00</time>
      </trkpt>
      <trkpt lat="45.05254" lon="5.90017">
        <ele>1645.4</ele>
        <time>2020-07-12T16:25:24 02:00</time>
      </trkpt>
      <trkpt lat="45.05254" lon="5.90016">
        <ele>1645.4</ele>
        <time>2020-07-12T16:25:26 02:00</time>
      </trkpt>
      <trkpt lat="45.05254" lon="5.90015">
        <ele>1645.2</ele>
        <time>2020-07-12T16:25:41 02:00</time>
      </trkpt>
      <trkpt lat="45.05254" lon="5.90014">
        <ele>1645.2</ele>
        <time>2020-07-12T16:25:42 02:00</time>
      </trkpt>
      <trkpt lat="45.05257" lon="5.9001">
        <ele>1645.6</ele>
        <time>2020-07-12T16:25:46 02:00</time>
      </trkpt>
      <trkpt lat="45.05257" lon="5.90009">
        <ele>1645.8</ele>
        <time>2020-07-12T16:25:47 02:00</time>
      </trkpt>
      <trkpt lat="45.05259" lon="5.90007">
        <ele>1646.2</ele>
        <time>2020-07-12T16:25:50 02:00</time>
      </trkpt>
      <trkpt lat="45.0526" lon="5.90006">
        <ele>1646.8</ele>
        <time>2020-07-12T16:25:51 02:00</time>
      </trkpt>
      <trkpt lat="45.05262" lon="5.90002">
        <ele>1647.8</ele>
        <time>2020-07-12T16:25:56 02:00</time>
      </trkpt>
      <trkpt lat="45.05264" lon="5.9">
        <ele>1648.4</ele>
        <time>2020-07-12T16:25:58 02:00</time>
      </trkpt>
      <trkpt lat="45.05264" lon="5.89999">
        <ele>1649.2</ele>
        <time>2020-07-12T16:25:59 02:00</time>
      </trkpt>
      <trkpt lat="45.05265" lon="5.89999">
        <ele>1650.2</ele>
        <time>2020-07-12T16:26:00 02:00</time>
      </trkpt>
      <trkpt lat="45.0527" lon="5.89995">
        <ele>1651.2</ele>
        <time>2020-07-12T16:26:06 02:00</time>
      </trkpt>
      <trkpt lat="45.05272" lon="5.89994">
        <ele>1651.8</ele>
        <time>2020-07-12T16:26:08 02:00</time>
      </trkpt>
      <trkpt lat="45.0528" lon="5.89986">
        <ele>1652.8</ele>
        <time>2020-07-12T16:26:18 02:00</time>
      </trkpt>
      <trkpt lat="45.05281" lon="5.89986">
        <ele>1653.6</ele>
        <time>2020-07-12T16:26:19 02:00</time>
      </trkpt>
      <trkpt lat="45.05284" lon="5.89982">
        <ele>1654.2</ele>
        <time>2020-07-12T16:26:24 02:00</time>
      </trkpt>
      <trkpt lat="45.05285" lon="5.89981">
        <ele>1654.6</ele>
        <time>2020-07-12T16:26:25 02:00</time>
      </trkpt>
      <trkpt lat="45.05286" lon="5.89978">
        <ele>1655</ele>
        <time>2020-07-12T16:26:27 02:00</time>
      </trkpt>
      <trkpt lat="45.05287" lon="5.89977">
        <ele>1655</ele>
        <time>2020-07-12T16:26:28 02:00</time>
      </trkpt>
      <trkpt lat="45.05288" lon="5.89976">
        <ele>1655</ele>
        <time>2020-07-12T16:26:29 02:00</time>
      </trkpt>
      <trkpt lat="45.05289" lon="5.89972">
        <ele>1655</ele>
        <time>2020-07-12T16:26:31 02:00</time>
      </trkpt>
      <trkpt lat="45.05294" lon="5.89959">
        <ele>1655.2</ele>
        <time>2020-07-12T16:26:41 02:00</time>
      </trkpt>
      <trkpt lat="45.05296" lon="5.89955">
        <ele>1655.8</ele>
        <time>2020-07-12T16:26:44 02:00</time>
      </trkpt>
      <trkpt lat="45.05296" lon="5.89955">
        <ele>1656.4</ele>
        <time>2020-07-12T16:26:45 02:00</time>
      </trkpt>
      <trkpt lat="45.05296" lon="5.89954">
        <ele>1657</ele>
        <time>2020-07-12T16:26:53 02:00</time>
      </trkpt>
      <trkpt lat="45.05297" lon="5.89951">
        <ele>1657.6</ele>
        <time>2020-07-12T16:26:55 02:00</time>
      </trkpt>
      <trkpt lat="45.05298" lon="5.89949">
        <ele>1658.2</ele>
        <time>2020-07-12T16:26:56 02:00</time>
      </trkpt>
      <trkpt lat="45.05298" lon="5.89947">
        <ele>1658.2</ele>
        <time>2020-07-12T16:26:57 02:00</time>
      </trkpt>
      <trkpt lat="45.05306" lon="5.89919">
        <ele>1657.2</ele>
        <time>2020-07-12T16:27:17 02:00</time>
      </trkpt>
      <trkpt lat="45.05307" lon="5.89917">
        <ele>1656.2</ele>
        <time>2020-07-12T16:27:18 02:00</time>
      </trkpt>
      <trkpt lat="45.05309" lon="5.89914">
        <ele>1655</ele>
        <time>2020-07-12T16:27:21 02:00</time>
      </trkpt>
      <trkpt lat="45.05309" lon="5.89912">
        <ele>1653.6</ele>
        <time>2020-07-12T16:27:22 02:00</time>
      </trkpt>
      <trkpt lat="45.05309" lon="5.89912">
        <ele>1652.4</ele>
        <time>2020-07-12T16:27:23 02:00</time>
      </trkpt>
      <trkpt lat="45.0531" lon="5.89907">
        <ele>1652.2</ele>
        <time>2020-07-12T16:27:25 02:00</time>
      </trkpt>
      <trkpt lat="45.05309" lon="5.89902">
        <ele>1652</ele>
        <time>2020-07-12T16:27:27 02:00</time>
      </trkpt>
      <trkpt lat="45.05309" lon="5.89897">
        <ele>1652</ele>
        <time>2020-07-12T16:27:29 02:00</time>
      </trkpt>
      <trkpt lat="45.05309" lon="5.89893">
        <ele>1652.2</ele>
        <time>2020-07-12T16:27:31 02:00</time>
      </trkpt>
      <trkpt lat="45.05309" lon="5.89891">
        <ele>1652.4</ele>
        <time>2020-07-12T16:27:32 02:00</time>
      </trkpt>
    </trkseg>
  </trk>
</gpx>